<?xml version="1.0" encoding="UTF-8" standalone="no" ?>
<gpx xmlns="http://www.topografix.com/GPX/1/1" xmlns:xsi="http://www.w3.org/2001/XMLSchema-instance" xsi:schemaLocation="http://www.topografix.com/GPX/1/1 http://www.topografix.com/GPX/1/1/gpx.xsd" version="1.1" creator="VisuGPX - https://www.visugpx.com">
  <metadata>
    <name>Rando la virée des grands ducs</name>
    <desc><![CDATA[ballade entre pote de Jtekt]]></desc>
  </metadata>
  <trk>
    <name><![CDATA[Rando la virée des grands ducs_1]]></name>
    <trkseg>
      <trkpt lat="45.71056" lon="4.49096">
        <ele>480.68487548828</ele>
        <time>2016-05-15T07:44:52.000Z</time>
      </trkpt>
      <trkpt lat="45.71054" lon="4.49098">
        <ele>479.25030517578</ele>
        <time>2016-05-15T07:44:53.000Z</time>
      </trkpt>
      <trkpt lat="45.71052" lon="4.49101">
        <ele>478.12780761719</ele>
        <time>2016-05-15T07:44:55.000Z</time>
      </trkpt>
      <trkpt lat="45.71048" lon="4.4911">
        <ele>477.17504882812</ele>
        <time>2016-05-15T07:44:59.000Z</time>
      </trkpt>
      <trkpt lat="45.71045" lon="4.49119">
        <ele>477.95700073242</ele>
        <time>2016-05-15T07:45:01.000Z</time>
      </trkpt>
      <trkpt lat="45.7104" lon="4.49129">
        <ele>479.59317016602</ele>
        <time>2016-05-15T07:45:04.000Z</time>
      </trkpt>
      <trkpt lat="45.71038" lon="4.49135">
        <ele>480.2893371582</ele>
        <time>2016-05-15T07:45:06.000Z</time>
      </trkpt>
      <trkpt lat="45.71029" lon="4.49146">
        <ele>476.39251708984</ele>
        <time>2016-05-15T07:45:09.000Z</time>
      </trkpt>
      <trkpt lat="45.71023" lon="4.49152">
        <ele>473.55752563477</ele>
        <time>2016-05-15T07:45:11.000Z</time>
      </trkpt>
      <trkpt lat="45.71017" lon="4.49158">
        <ele>472.94372558594</ele>
        <time>2016-05-15T07:45:13.000Z</time>
      </trkpt>
      <trkpt lat="45.71006" lon="4.49167">
        <ele>471.73388671875</ele>
        <time>2016-05-15T07:45:16.000Z</time>
      </trkpt>
      <trkpt lat="45.71" lon="4.49171">
        <ele>470.99792480469</ele>
        <time>2016-05-15T07:45:18.000Z</time>
      </trkpt>
      <trkpt lat="45.70992" lon="4.49176">
        <ele>471.46545410156</ele>
        <time>2016-05-15T07:45:20.000Z</time>
      </trkpt>
      <trkpt lat="45.70983" lon="4.49183">
        <ele>470.56134033203</ele>
        <time>2016-05-15T07:45:23.000Z</time>
      </trkpt>
      <trkpt lat="45.70978" lon="4.49187">
        <ele>470.64147949219</ele>
        <time>2016-05-15T07:45:25.000Z</time>
      </trkpt>
      <trkpt lat="45.7097" lon="4.49192">
        <ele>470.24002075195</ele>
        <time>2016-05-15T07:45:28.000Z</time>
      </trkpt>
      <trkpt lat="45.70963" lon="4.492">
        <ele>470.34768676758</ele>
        <time>2016-05-15T07:45:31.000Z</time>
      </trkpt>
      <trkpt lat="45.7096" lon="4.49205">
        <ele>470.5090637207</ele>
        <time>2016-05-15T07:45:33.000Z</time>
      </trkpt>
      <trkpt lat="45.70958" lon="4.49208">
        <ele>470.41201782227</ele>
        <time>2016-05-15T07:45:35.000Z</time>
      </trkpt>
      <trkpt lat="45.70952" lon="4.49215">
        <ele>470.13558959961</ele>
        <time>2016-05-15T07:45:39.000Z</time>
      </trkpt>
      <trkpt lat="45.70947" lon="4.49221">
        <ele>470.33569335938</ele>
        <time>2016-05-15T07:45:41.000Z</time>
      </trkpt>
      <trkpt lat="45.70941" lon="4.49228">
        <ele>471.25531005859</ele>
        <time>2016-05-15T07:45:44.000Z</time>
      </trkpt>
      <trkpt lat="45.70939" lon="4.49238">
        <ele>471.96243286133</ele>
        <time>2016-05-15T07:45:47.000Z</time>
      </trkpt>
      <trkpt lat="45.70939" lon="4.49246">
        <ele>472.24774169922</ele>
        <time>2016-05-15T07:45:49.000Z</time>
      </trkpt>
      <trkpt lat="45.7094" lon="4.49256">
        <ele>472.81509399414</ele>
        <time>2016-05-15T07:45:52.000Z</time>
      </trkpt>
      <trkpt lat="45.70941" lon="4.4926">
        <ele>473.28945922852</ele>
        <time>2016-05-15T07:45:54.000Z</time>
      </trkpt>
      <trkpt lat="45.70943" lon="4.49265">
        <ele>474.06942749023</ele>
        <time>2016-05-15T07:45:56.000Z</time>
      </trkpt>
      <trkpt lat="45.70951" lon="4.49274">
        <ele>475.86608886719</ele>
        <time>2016-05-15T07:45:59.000Z</time>
      </trkpt>
      <trkpt lat="45.70956" lon="4.49282">
        <ele>476.6357421875</ele>
        <time>2016-05-15T07:46:02.000Z</time>
      </trkpt>
      <trkpt lat="45.7096" lon="4.49286">
        <ele>476.80505371094</ele>
        <time>2016-05-15T07:46:04.000Z</time>
      </trkpt>
      <trkpt lat="45.70966" lon="4.49293">
        <ele>477.05914306641</ele>
        <time>2016-05-15T07:46:07.000Z</time>
      </trkpt>
      <trkpt lat="45.70974" lon="4.49299">
        <ele>476.58911132812</ele>
        <time>2016-05-15T07:46:10.000Z</time>
      </trkpt>
      <trkpt lat="45.70984" lon="4.49305">
        <ele>477.27386474609</ele>
        <time>2016-05-15T07:46:13.000Z</time>
      </trkpt>
      <trkpt lat="45.7099" lon="4.49309">
        <ele>478.11990356445</ele>
        <time>2016-05-15T07:46:15.000Z</time>
      </trkpt>
      <trkpt lat="45.70996" lon="4.49312">
        <ele>481.40420532227</ele>
        <time>2016-05-15T07:46:17.000Z</time>
      </trkpt>
      <trkpt lat="45.71001" lon="4.49316">
        <ele>483.30514526367</ele>
        <time>2016-05-15T07:46:20.000Z</time>
      </trkpt>
      <trkpt lat="45.71004" lon="4.49318">
        <ele>484.33193969727</ele>
        <time>2016-05-15T07:46:22.000Z</time>
      </trkpt>
      <trkpt lat="45.71011" lon="4.49324">
        <ele>488.8039855957</ele>
        <time>2016-05-15T07:46:24.000Z</time>
      </trkpt>
      <trkpt lat="45.71017" lon="4.49331">
        <ele>490.47061157227</ele>
        <time>2016-05-15T07:46:27.000Z</time>
      </trkpt>
      <trkpt lat="45.71022" lon="4.49337">
        <ele>491.08993530273</ele>
        <time>2016-05-15T07:46:32.000Z</time>
      </trkpt>
      <trkpt lat="45.71024" lon="4.4934">
        <ele>490.8547668457</ele>
        <time>2016-05-15T07:46:34.000Z</time>
      </trkpt>
      <trkpt lat="45.71026" lon="4.49344">
        <ele>490.17810058594</ele>
        <time>2016-05-15T07:46:36.000Z</time>
      </trkpt>
      <trkpt lat="45.71034" lon="4.49353">
        <ele>488.45748901367</ele>
        <time>2016-05-15T07:46:39.000Z</time>
      </trkpt>
      <trkpt lat="45.71036" lon="4.49356">
        <ele>487.36102294922</ele>
        <time>2016-05-15T07:46:41.000Z</time>
      </trkpt>
      <trkpt lat="45.71038" lon="4.49359">
        <ele>486.97848510742</ele>
        <time>2016-05-15T07:46:43.000Z</time>
      </trkpt>
      <trkpt lat="45.71042" lon="4.49368">
        <ele>486.48294067383</ele>
        <time>2016-05-15T07:46:47.000Z</time>
      </trkpt>
      <trkpt lat="45.71045" lon="4.49373">
        <ele>486.58493041992</ele>
        <time>2016-05-15T07:46:49.000Z</time>
      </trkpt>
      <trkpt lat="45.71049" lon="4.49379">
        <ele>487.4743347168</ele>
        <time>2016-05-15T07:46:51.000Z</time>
      </trkpt>
      <trkpt lat="45.71052" lon="4.49384">
        <ele>487.63046264648</ele>
        <time>2016-05-15T07:46:54.000Z</time>
      </trkpt>
      <trkpt lat="45.71055" lon="4.49391">
        <ele>487.00521850586</ele>
        <time>2016-05-15T07:46:57.000Z</time>
      </trkpt>
      <trkpt lat="45.71056" lon="4.49395">
        <ele>486.1162109375</ele>
        <time>2016-05-15T07:46:59.000Z</time>
      </trkpt>
      <trkpt lat="45.71058" lon="4.49399">
        <ele>485.36434936523</ele>
        <time>2016-05-15T07:47:01.000Z</time>
      </trkpt>
      <trkpt lat="45.71059" lon="4.49404">
        <ele>485.16516113281</ele>
        <time>2016-05-15T07:47:03.000Z</time>
      </trkpt>
      <trkpt lat="45.71063" lon="4.49414">
        <ele>486.16610717773</ele>
        <time>2016-05-15T07:47:07.000Z</time>
      </trkpt>
      <trkpt lat="45.71066" lon="4.49422">
        <ele>488.19674682617</ele>
        <time>2016-05-15T07:47:10.000Z</time>
      </trkpt>
      <trkpt lat="45.71067" lon="4.49426">
        <ele>489.24792480469</ele>
        <time>2016-05-15T07:47:12.000Z</time>
      </trkpt>
      <trkpt lat="45.7107" lon="4.49432">
        <ele>490.18368530273</ele>
        <time>2016-05-15T07:47:15.000Z</time>
      </trkpt>
      <trkpt lat="45.71072" lon="4.49436">
        <ele>490.33013916016</ele>
        <time>2016-05-15T07:47:17.000Z</time>
      </trkpt>
      <trkpt lat="45.71076" lon="4.49445">
        <ele>490.54312133789</ele>
        <time>2016-05-15T07:47:20.000Z</time>
      </trkpt>
      <trkpt lat="45.71077" lon="4.49448">
        <ele>490.74295043945</ele>
        <time>2016-05-15T07:47:22.000Z</time>
      </trkpt>
      <trkpt lat="45.71083" lon="4.49454">
        <ele>490.57360839844</ele>
        <time>2016-05-15T07:47:26.000Z</time>
      </trkpt>
      <trkpt lat="45.71091" lon="4.49461">
        <ele>490.16326904297</ele>
        <time>2016-05-15T07:47:29.000Z</time>
      </trkpt>
      <trkpt lat="45.71096" lon="4.49467">
        <ele>490.43081665039</ele>
        <time>2016-05-15T07:47:31.000Z</time>
      </trkpt>
      <trkpt lat="45.71112" lon="4.49483">
        <ele>490.34857177734</ele>
        <time>2016-05-15T07:47:34.000Z</time>
      </trkpt>
      <trkpt lat="45.71124" lon="4.49495">
        <ele>490.29150390625</ele>
        <time>2016-05-15T07:47:36.000Z</time>
      </trkpt>
      <trkpt lat="45.71144" lon="4.49516">
        <ele>490.26306152344</ele>
        <time>2016-05-15T07:47:39.000Z</time>
      </trkpt>
      <trkpt lat="45.71159" lon="4.49531">
        <ele>489.84188842773</ele>
        <time>2016-05-15T07:47:41.000Z</time>
      </trkpt>
      <trkpt lat="45.71183" lon="4.49561">
        <ele>488.64096069336</ele>
        <time>2016-05-15T07:47:44.000Z</time>
      </trkpt>
      <trkpt lat="45.71194" lon="4.49583">
        <ele>488.82556152344</ele>
        <time>2016-05-15T07:47:46.000Z</time>
      </trkpt>
      <trkpt lat="45.71205" lon="4.49611">
        <ele>488.32446289062</ele>
        <time>2016-05-15T07:47:48.000Z</time>
      </trkpt>
      <trkpt lat="45.71206" lon="4.49659">
        <ele>488.43530273438</ele>
        <time>2016-05-15T07:47:51.000Z</time>
      </trkpt>
      <trkpt lat="45.71203" lon="4.4969">
        <ele>487.96798706055</ele>
        <time>2016-05-15T07:47:53.000Z</time>
      </trkpt>
      <trkpt lat="45.71206" lon="4.49735">
        <ele>486.19772338867</ele>
        <time>2016-05-15T07:47:56.000Z</time>
      </trkpt>
      <trkpt lat="45.7122" lon="4.49748">
        <ele>481.94204711914</ele>
        <time>2016-05-15T07:47:58.000Z</time>
      </trkpt>
      <trkpt lat="45.71236" lon="4.49751">
        <ele>480.65197753906</ele>
        <time>2016-05-15T07:48:00.000Z</time>
      </trkpt>
      <trkpt lat="45.71263" lon="4.49745">
        <ele>479.40966796875</ele>
        <time>2016-05-15T07:48:03.000Z</time>
      </trkpt>
      <trkpt lat="45.71279" lon="4.49739">
        <ele>478.33343505859</ele>
        <time>2016-05-15T07:48:05.000Z</time>
      </trkpt>
      <trkpt lat="45.71294" lon="4.49738">
        <ele>477.7135925293</ele>
        <time>2016-05-15T07:48:07.000Z</time>
      </trkpt>
      <trkpt lat="45.71306" lon="4.49739">
        <ele>477.67910766602</ele>
        <time>2016-05-15T07:48:09.000Z</time>
      </trkpt>
      <trkpt lat="45.71323" lon="4.49742">
        <ele>476.46984863281</ele>
        <time>2016-05-15T07:48:12.000Z</time>
      </trkpt>
      <trkpt lat="45.71339" lon="4.49761">
        <ele>477.29391479492</ele>
        <time>2016-05-15T07:48:15.000Z</time>
      </trkpt>
      <trkpt lat="45.71352" lon="4.49781">
        <ele>477.00280761719</ele>
        <time>2016-05-15T07:48:18.000Z</time>
      </trkpt>
      <trkpt lat="45.71358" lon="4.49795">
        <ele>477.12957763672</ele>
        <time>2016-05-15T07:48:20.000Z</time>
      </trkpt>
      <trkpt lat="45.71369" lon="4.49805">
        <ele>477.26388549805</ele>
        <time>2016-05-15T07:48:23.000Z</time>
      </trkpt>
      <trkpt lat="45.71375" lon="4.49809">
        <ele>477.22521972656</ele>
        <time>2016-05-15T07:48:25.000Z</time>
      </trkpt>
      <trkpt lat="45.71383" lon="4.49813">
        <ele>475.94094848633</ele>
        <time>2016-05-15T07:48:28.000Z</time>
      </trkpt>
      <trkpt lat="45.71386" lon="4.49815">
        <ele>475.84609985352</ele>
        <time>2016-05-15T07:48:30.000Z</time>
      </trkpt>
      <trkpt lat="45.71389" lon="4.49817">
        <ele>476.04064941406</ele>
        <time>2016-05-15T07:48:34.000Z</time>
      </trkpt>
      <trkpt lat="45.71391" lon="4.49817">
        <ele>476.1696472168</ele>
        <time>2016-05-15T07:48:38.000Z</time>
      </trkpt>
      <trkpt lat="45.71393" lon="4.49817">
        <ele>476.23489379883</ele>
        <time>2016-05-15T07:48:40.000Z</time>
      </trkpt>
      <trkpt lat="45.71402" lon="4.49818">
        <ele>475.70458984375</ele>
        <time>2016-05-15T07:48:43.000Z</time>
      </trkpt>
      <trkpt lat="45.71413" lon="4.49818">
        <ele>476.12423706055</ele>
        <time>2016-05-15T07:48:46.000Z</time>
      </trkpt>
      <trkpt lat="45.71416" lon="4.49818">
        <ele>476.5256652832</ele>
        <time>2016-05-15T07:48:48.000Z</time>
      </trkpt>
      <trkpt lat="45.71424" lon="4.49818">
        <ele>478.64572143555</ele>
        <time>2016-05-15T07:48:51.000Z</time>
      </trkpt>
      <trkpt lat="45.71427" lon="4.49819">
        <ele>479.1806640625</ele>
        <time>2016-05-15T07:48:53.000Z</time>
      </trkpt>
      <trkpt lat="45.71432" lon="4.4982">
        <ele>477.69677734375</ele>
        <time>2016-05-15T07:48:57.000Z</time>
      </trkpt>
      <trkpt lat="45.71436" lon="4.49822">
        <ele>477.81735229492</ele>
        <time>2016-05-15T07:48:59.000Z</time>
      </trkpt>
      <trkpt lat="45.71442" lon="4.49825">
        <ele>479.79537963867</ele>
        <time>2016-05-15T07:49:01.000Z</time>
      </trkpt>
      <trkpt lat="45.71446" lon="4.49828">
        <ele>479.47943115234</ele>
        <time>2016-05-15T07:49:04.000Z</time>
      </trkpt>
      <trkpt lat="45.71452" lon="4.49835">
        <ele>481.02062988281</ele>
        <time>2016-05-15T07:49:08.000Z</time>
      </trkpt>
      <trkpt lat="45.71454" lon="4.49839">
        <ele>482.42514038086</ele>
        <time>2016-05-15T07:49:10.000Z</time>
      </trkpt>
      <trkpt lat="45.71457" lon="4.49844">
        <ele>483.41232299805</ele>
        <time>2016-05-15T07:49:12.000Z</time>
      </trkpt>
      <trkpt lat="45.71461" lon="4.49853">
        <ele>484.16540527344</ele>
        <time>2016-05-15T07:49:16.000Z</time>
      </trkpt>
      <trkpt lat="45.71464" lon="4.49857">
        <ele>484.48101806641</ele>
        <time>2016-05-15T07:49:18.000Z</time>
      </trkpt>
      <trkpt lat="45.71469" lon="4.49864">
        <ele>485.29302978516</ele>
        <time>2016-05-15T07:49:22.000Z</time>
      </trkpt>
      <trkpt lat="45.71472" lon="4.49874">
        <ele>485.95278930664</ele>
        <time>2016-05-15T07:49:26.000Z</time>
      </trkpt>
      <trkpt lat="45.71473" lon="4.49878">
        <ele>486.50003051758</ele>
        <time>2016-05-15T07:49:28.000Z</time>
      </trkpt>
      <trkpt lat="45.71476" lon="4.49884">
        <ele>489.08786010742</ele>
        <time>2016-05-15T07:49:32.000Z</time>
      </trkpt>
      <trkpt lat="45.71479" lon="4.49887">
        <ele>490.44180297852</ele>
        <time>2016-05-15T07:49:34.000Z</time>
      </trkpt>
      <trkpt lat="45.71485" lon="4.49893">
        <ele>491.31729125977</ele>
        <time>2016-05-15T07:49:38.000Z</time>
      </trkpt>
      <trkpt lat="45.71488" lon="4.49897">
        <ele>491.33325195312</ele>
        <time>2016-05-15T07:49:40.000Z</time>
      </trkpt>
      <trkpt lat="45.7149" lon="4.499">
        <ele>491.28628540039</ele>
        <time>2016-05-15T07:49:42.000Z</time>
      </trkpt>
      <trkpt lat="45.71497" lon="4.49907">
        <ele>491.63046264648</ele>
        <time>2016-05-15T07:49:46.000Z</time>
      </trkpt>
      <trkpt lat="45.715" lon="4.4991">
        <ele>492.23706054688</ele>
        <time>2016-05-15T07:49:48.000Z</time>
      </trkpt>
      <trkpt lat="45.71504" lon="4.49915">
        <ele>492.40243530273</ele>
        <time>2016-05-15T07:49:52.000Z</time>
      </trkpt>
      <trkpt lat="45.71507" lon="4.49917">
        <ele>491.94134521484</ele>
        <time>2016-05-15T07:49:54.000Z</time>
      </trkpt>
      <trkpt lat="45.7151" lon="4.49921">
        <ele>493.41561889648</ele>
        <time>2016-05-15T07:49:58.000Z</time>
      </trkpt>
      <trkpt lat="45.71515" lon="4.49926">
        <ele>493.81045532227</ele>
        <time>2016-05-15T07:50:02.000Z</time>
      </trkpt>
      <trkpt lat="45.71517" lon="4.49928">
        <ele>494.1481628418</ele>
        <time>2016-05-15T07:50:04.000Z</time>
      </trkpt>
      <trkpt lat="45.71522" lon="4.49932">
        <ele>495.03109741211</ele>
        <time>2016-05-15T07:50:08.000Z</time>
      </trkpt>
      <trkpt lat="45.71524" lon="4.49935">
        <ele>495.27423095703</ele>
        <time>2016-05-15T07:50:10.000Z</time>
      </trkpt>
      <trkpt lat="45.71526" lon="4.49937">
        <ele>495.34289550781</ele>
        <time>2016-05-15T07:50:12.000Z</time>
      </trkpt>
      <trkpt lat="45.71529" lon="4.49941">
        <ele>495.03680419922</ele>
        <time>2016-05-15T07:50:15.000Z</time>
      </trkpt>
      <trkpt lat="45.71529" lon="4.49945">
        <ele>495.28143310547</ele>
        <time>2016-05-15T07:50:17.000Z</time>
      </trkpt>
      <trkpt lat="45.71531" lon="4.49954">
        <ele>495.64398193359</ele>
        <time>2016-05-15T07:50:21.000Z</time>
      </trkpt>
      <trkpt lat="45.71532" lon="4.49959">
        <ele>495.84622192383</ele>
        <time>2016-05-15T07:50:23.000Z</time>
      </trkpt>
      <trkpt lat="45.71533" lon="4.49963">
        <ele>496.19927978516</ele>
        <time>2016-05-15T07:50:25.000Z</time>
      </trkpt>
      <trkpt lat="45.71539" lon="4.49968">
        <ele>497.84756469727</ele>
        <time>2016-05-15T07:50:29.000Z</time>
      </trkpt>
      <trkpt lat="45.71545" lon="4.49972">
        <ele>500.00442504883</ele>
        <time>2016-05-15T07:50:33.000Z</time>
      </trkpt>
      <trkpt lat="45.71547" lon="4.49975">
        <ele>501.05285644531</ele>
        <time>2016-05-15T07:50:35.000Z</time>
      </trkpt>
      <trkpt lat="45.7155" lon="4.4998">
        <ele>503.2868347168</ele>
        <time>2016-05-15T07:50:39.000Z</time>
      </trkpt>
      <trkpt lat="45.71552" lon="4.49983">
        <ele>503.25997924805</ele>
        <time>2016-05-15T07:50:41.000Z</time>
      </trkpt>
      <trkpt lat="45.71556" lon="4.49987">
        <ele>503.42666625977</ele>
        <time>2016-05-15T07:50:45.000Z</time>
      </trkpt>
      <trkpt lat="45.71559" lon="4.4999">
        <ele>503.3046875</ele>
        <time>2016-05-15T07:50:48.000Z</time>
      </trkpt>
      <trkpt lat="45.71562" lon="4.49995">
        <ele>503.2594909668</ele>
        <time>2016-05-15T07:50:52.000Z</time>
      </trkpt>
      <trkpt lat="45.71565" lon="4.50003">
        <ele>502.35427856445</ele>
        <time>2016-05-15T07:50:56.000Z</time>
      </trkpt>
      <trkpt lat="45.71568" lon="4.50013">
        <ele>502.78411865234</ele>
        <time>2016-05-15T07:51:00.000Z</time>
      </trkpt>
      <trkpt lat="45.71572" lon="4.50022">
        <ele>504.03964233398</ele>
        <time>2016-05-15T07:51:04.000Z</time>
      </trkpt>
      <trkpt lat="45.71576" lon="4.50029">
        <ele>506.29095458984</ele>
        <time>2016-05-15T07:51:07.000Z</time>
      </trkpt>
      <trkpt lat="45.71578" lon="4.50033">
        <ele>506.87542724609</ele>
        <time>2016-05-15T07:51:09.000Z</time>
      </trkpt>
      <trkpt lat="45.71583" lon="4.5004">
        <ele>506.97311401367</ele>
        <time>2016-05-15T07:51:13.000Z</time>
      </trkpt>
      <trkpt lat="45.71586" lon="4.50045">
        <ele>507.28912353516</ele>
        <time>2016-05-15T07:51:15.000Z</time>
      </trkpt>
      <trkpt lat="45.7159" lon="4.50052">
        <ele>508.28271484375</ele>
        <time>2016-05-15T07:51:19.000Z</time>
      </trkpt>
      <trkpt lat="45.71592" lon="4.50055">
        <ele>508.5705871582</ele>
        <time>2016-05-15T07:51:21.000Z</time>
      </trkpt>
      <trkpt lat="45.71599" lon="4.50063">
        <ele>507.56112670898</ele>
        <time>2016-05-15T07:51:25.000Z</time>
      </trkpt>
      <trkpt lat="45.71605" lon="4.50068">
        <ele>508.0400390625</ele>
        <time>2016-05-15T07:51:29.000Z</time>
      </trkpt>
      <trkpt lat="45.71609" lon="4.50071">
        <ele>508.3251953125</ele>
        <time>2016-05-15T07:51:31.000Z</time>
      </trkpt>
      <trkpt lat="45.71617" lon="4.50075">
        <ele>508.7971496582</ele>
        <time>2016-05-15T07:51:35.000Z</time>
      </trkpt>
      <trkpt lat="45.71622" lon="4.50076">
        <ele>508.41918945312</ele>
        <time>2016-05-15T07:51:37.000Z</time>
      </trkpt>
      <trkpt lat="45.71627" lon="4.50076">
        <ele>508.57247924805</ele>
        <time>2016-05-15T07:51:39.000Z</time>
      </trkpt>
      <trkpt lat="45.71636" lon="4.50075">
        <ele>510.48538208008</ele>
        <time>2016-05-15T07:51:43.000Z</time>
      </trkpt>
      <trkpt lat="45.71642" lon="4.50073">
        <ele>511.87371826172</ele>
        <time>2016-05-15T07:51:45.000Z</time>
      </trkpt>
      <trkpt lat="45.7165" lon="4.5007">
        <ele>512.51287841797</ele>
        <time>2016-05-15T07:51:48.000Z</time>
      </trkpt>
      <trkpt lat="45.71657" lon="4.50068">
        <ele>511.88464355469</ele>
        <time>2016-05-15T07:51:50.000Z</time>
      </trkpt>
      <trkpt lat="45.71663" lon="4.50066">
        <ele>513.76159667969</ele>
        <time>2016-05-15T07:51:53.000Z</time>
      </trkpt>
      <trkpt lat="45.71666" lon="4.50065">
        <ele>514.10601806641</ele>
        <time>2016-05-15T07:51:55.000Z</time>
      </trkpt>
      <trkpt lat="45.71669" lon="4.50064">
        <ele>513.59503173828</ele>
        <time>2016-05-15T07:51:58.000Z</time>
      </trkpt>
      <trkpt lat="45.71672" lon="4.50062">
        <ele>513.16156005859</ele>
        <time>2016-05-15T07:52:01.000Z</time>
      </trkpt>
      <trkpt lat="45.71674" lon="4.5006">
        <ele>513.18267822266</ele>
        <time>2016-05-15T07:52:04.000Z</time>
      </trkpt>
      <trkpt lat="45.71677" lon="4.50058">
        <ele>512.62915039062</ele>
        <time>2016-05-15T07:52:08.000Z</time>
      </trkpt>
      <trkpt lat="45.71679" lon="4.50057">
        <ele>512.25280761719</ele>
        <time>2016-05-15T07:52:11.000Z</time>
      </trkpt>
      <trkpt lat="45.71686" lon="4.50053">
        <ele>513.41357421875</ele>
        <time>2016-05-15T07:53:27.000Z</time>
      </trkpt>
      <trkpt lat="45.71689" lon="4.50053">
        <ele>513.25427246094</ele>
        <time>2016-05-15T07:53:29.000Z</time>
      </trkpt>
      <trkpt lat="45.71692" lon="4.50053">
        <ele>512.75384521484</ele>
        <time>2016-05-15T07:53:31.000Z</time>
      </trkpt>
      <trkpt lat="45.717" lon="4.50052">
        <ele>512.8125</ele>
        <time>2016-05-15T07:53:35.000Z</time>
      </trkpt>
      <trkpt lat="45.71707" lon="4.50052">
        <ele>514.19366455078</ele>
        <time>2016-05-15T07:53:38.000Z</time>
      </trkpt>
      <trkpt lat="45.71712" lon="4.50052">
        <ele>514.44635009766</ele>
        <time>2016-05-15T07:53:40.000Z</time>
      </trkpt>
      <trkpt lat="45.71716" lon="4.50052">
        <ele>514.53094482422</ele>
        <time>2016-05-15T07:53:42.000Z</time>
      </trkpt>
      <trkpt lat="45.71721" lon="4.50052">
        <ele>514.33551025391</ele>
        <time>2016-05-15T07:53:44.000Z</time>
      </trkpt>
      <trkpt lat="45.71729" lon="4.50053">
        <ele>514.45660400391</ele>
        <time>2016-05-15T07:53:48.000Z</time>
      </trkpt>
      <trkpt lat="45.71735" lon="4.50054">
        <ele>514.86358642578</ele>
        <time>2016-05-15T07:53:50.000Z</time>
      </trkpt>
      <trkpt lat="45.71744" lon="4.50054">
        <ele>515.80200195312</ele>
        <time>2016-05-15T07:53:53.000Z</time>
      </trkpt>
      <trkpt lat="45.71749" lon="4.50054">
        <ele>514.46374511719</ele>
        <time>2016-05-15T07:53:55.000Z</time>
      </trkpt>
      <trkpt lat="45.71758" lon="4.50055">
        <ele>513.79418945312</ele>
        <time>2016-05-15T07:53:58.000Z</time>
      </trkpt>
      <trkpt lat="45.71763" lon="4.50055">
        <ele>513.71704101562</ele>
        <time>2016-05-15T07:54:01.000Z</time>
      </trkpt>
      <trkpt lat="45.71767" lon="4.50056">
        <ele>513.77545166016</ele>
        <time>2016-05-15T07:54:03.000Z</time>
      </trkpt>
      <trkpt lat="45.71774" lon="4.50056">
        <ele>514.51373291016</ele>
        <time>2016-05-15T07:54:06.000Z</time>
      </trkpt>
      <trkpt lat="45.7178" lon="4.50055">
        <ele>515.21795654297</ele>
        <time>2016-05-15T07:54:08.000Z</time>
      </trkpt>
      <trkpt lat="45.71788" lon="4.50052">
        <ele>516.55157470703</ele>
        <time>2016-05-15T07:54:11.000Z</time>
      </trkpt>
      <trkpt lat="45.71793" lon="4.50049">
        <ele>517.30065917969</ele>
        <time>2016-05-15T07:54:14.000Z</time>
      </trkpt>
      <trkpt lat="45.71796" lon="4.50048">
        <ele>517.59289550781</ele>
        <time>2016-05-15T07:54:16.000Z</time>
      </trkpt>
      <trkpt lat="45.718" lon="4.50046">
        <ele>517.57012939453</ele>
        <time>2016-05-15T07:54:18.000Z</time>
      </trkpt>
      <trkpt lat="45.71804" lon="4.50045">
        <ele>517.83526611328</ele>
        <time>2016-05-15T07:54:20.000Z</time>
      </trkpt>
      <trkpt lat="45.71813" lon="4.50042">
        <ele>518.42370605469</ele>
        <time>2016-05-15T07:54:23.000Z</time>
      </trkpt>
      <trkpt lat="45.71816" lon="4.50041">
        <ele>518.64544677734</ele>
        <time>2016-05-15T07:54:25.000Z</time>
      </trkpt>
      <trkpt lat="45.71819" lon="4.5004">
        <ele>519.07525634766</ele>
        <time>2016-05-15T07:54:27.000Z</time>
      </trkpt>
      <trkpt lat="45.71827" lon="4.50037">
        <ele>519.55126953125</ele>
        <time>2016-05-15T07:54:30.000Z</time>
      </trkpt>
      <trkpt lat="45.71835" lon="4.50032">
        <ele>519.49078369141</ele>
        <time>2016-05-15T07:54:33.000Z</time>
      </trkpt>
      <trkpt lat="45.71844" lon="4.50026">
        <ele>519.45666503906</ele>
        <time>2016-05-15T07:54:36.000Z</time>
      </trkpt>
      <trkpt lat="45.7185" lon="4.50021">
        <ele>519.40350341797</ele>
        <time>2016-05-15T07:54:38.000Z</time>
      </trkpt>
      <trkpt lat="45.71857" lon="4.50014">
        <ele>519.58563232422</ele>
        <time>2016-05-15T07:54:41.000Z</time>
      </trkpt>
      <trkpt lat="45.71863" lon="4.50009">
        <ele>520.32458496094</ele>
        <time>2016-05-15T07:54:44.000Z</time>
      </trkpt>
      <trkpt lat="45.71868" lon="4.50006">
        <ele>520.52447509766</ele>
        <time>2016-05-15T07:54:46.000Z</time>
      </trkpt>
      <trkpt lat="45.71876" lon="4.50004">
        <ele>522.18725585938</ele>
        <time>2016-05-15T07:54:49.000Z</time>
      </trkpt>
      <trkpt lat="45.71881" lon="4.50002">
        <ele>523.12133789062</ele>
        <time>2016-05-15T07:54:51.000Z</time>
      </trkpt>
      <trkpt lat="45.71891" lon="4.50002">
        <ele>523.16687011719</ele>
        <time>2016-05-15T07:54:54.000Z</time>
      </trkpt>
      <trkpt lat="45.71899" lon="4.50002">
        <ele>523.35040283203</ele>
        <time>2016-05-15T07:54:57.000Z</time>
      </trkpt>
      <trkpt lat="45.71904" lon="4.50002">
        <ele>522.79150390625</ele>
        <time>2016-05-15T07:54:59.000Z</time>
      </trkpt>
      <trkpt lat="45.7191" lon="4.50002">
        <ele>522.56323242188</ele>
        <time>2016-05-15T07:55:02.000Z</time>
      </trkpt>
      <trkpt lat="45.71919" lon="4.50004">
        <ele>523.93243408203</ele>
        <time>2016-05-15T07:55:05.000Z</time>
      </trkpt>
      <trkpt lat="45.71925" lon="4.50006">
        <ele>523.6279296875</ele>
        <time>2016-05-15T07:55:07.000Z</time>
      </trkpt>
      <trkpt lat="45.71931" lon="4.50008">
        <ele>523.51245117188</ele>
        <time>2016-05-15T07:55:09.000Z</time>
      </trkpt>
      <trkpt lat="45.71939" lon="4.50011">
        <ele>523.31561279297</ele>
        <time>2016-05-15T07:55:12.000Z</time>
      </trkpt>
      <trkpt lat="45.71944" lon="4.50013">
        <ele>523.39361572266</ele>
        <time>2016-05-15T07:55:14.000Z</time>
      </trkpt>
      <trkpt lat="45.7195" lon="4.50019">
        <ele>524.15020751953</ele>
        <time>2016-05-15T07:55:18.000Z</time>
      </trkpt>
      <trkpt lat="45.71956" lon="4.50025">
        <ele>523.97766113281</ele>
        <time>2016-05-15T07:55:22.000Z</time>
      </trkpt>
      <trkpt lat="45.71961" lon="4.5003">
        <ele>523.7080078125</ele>
        <time>2016-05-15T07:55:24.000Z</time>
      </trkpt>
      <trkpt lat="45.7197" lon="4.50034">
        <ele>524.28570556641</ele>
        <time>2016-05-15T07:55:27.000Z</time>
      </trkpt>
      <trkpt lat="45.71976" lon="4.50036">
        <ele>524.1083984375</ele>
        <time>2016-05-15T07:55:30.000Z</time>
      </trkpt>
      <trkpt lat="45.71981" lon="4.50038">
        <ele>523.90893554688</ele>
        <time>2016-05-15T07:55:32.000Z</time>
      </trkpt>
      <trkpt lat="45.71987" lon="4.5004">
        <ele>523.33679199219</ele>
        <time>2016-05-15T07:55:34.000Z</time>
      </trkpt>
      <trkpt lat="45.71996" lon="4.50044">
        <ele>522.90728759766</ele>
        <time>2016-05-15T07:55:37.000Z</time>
      </trkpt>
      <trkpt lat="45.72006" lon="4.50048">
        <ele>522.99328613281</ele>
        <time>2016-05-15T07:55:40.000Z</time>
      </trkpt>
      <trkpt lat="45.72013" lon="4.50049">
        <ele>523.77087402344</ele>
        <time>2016-05-15T07:55:42.000Z</time>
      </trkpt>
      <trkpt lat="45.72018" lon="4.50051">
        <ele>524.66101074219</ele>
        <time>2016-05-15T07:55:45.000Z</time>
      </trkpt>
      <trkpt lat="45.72024" lon="4.50052">
        <ele>524.16473388672</ele>
        <time>2016-05-15T07:55:47.000Z</time>
      </trkpt>
      <trkpt lat="45.72029" lon="4.50054">
        <ele>523.84484863281</ele>
        <time>2016-05-15T07:55:50.000Z</time>
      </trkpt>
      <trkpt lat="45.72036" lon="4.50057">
        <ele>524.16448974609</ele>
        <time>2016-05-15T07:55:53.000Z</time>
      </trkpt>
      <trkpt lat="45.72042" lon="4.5006">
        <ele>524.96563720703</ele>
        <time>2016-05-15T07:55:55.000Z</time>
      </trkpt>
      <trkpt lat="45.72048" lon="4.50061">
        <ele>525.97985839844</ele>
        <time>2016-05-15T07:55:57.000Z</time>
      </trkpt>
      <trkpt lat="45.72057" lon="4.50061">
        <ele>527.19311523438</ele>
        <time>2016-05-15T07:56:00.000Z</time>
      </trkpt>
      <trkpt lat="45.72063" lon="4.50061">
        <ele>527.35314941406</ele>
        <time>2016-05-15T07:56:02.000Z</time>
      </trkpt>
      <trkpt lat="45.72069" lon="4.50062">
        <ele>528.27154541016</ele>
        <time>2016-05-15T07:56:04.000Z</time>
      </trkpt>
      <trkpt lat="45.72077" lon="4.50062">
        <ele>529.49908447266</ele>
        <time>2016-05-15T07:56:07.000Z</time>
      </trkpt>
      <trkpt lat="45.72085" lon="4.50064">
        <ele>529.79516601562</ele>
        <time>2016-05-15T07:56:10.000Z</time>
      </trkpt>
      <trkpt lat="45.7209" lon="4.50065">
        <ele>530.18090820312</ele>
        <time>2016-05-15T07:56:12.000Z</time>
      </trkpt>
      <trkpt lat="45.72096" lon="4.50066">
        <ele>531.03356933594</ele>
        <time>2016-05-15T07:56:15.000Z</time>
      </trkpt>
      <trkpt lat="45.72103" lon="4.50067">
        <ele>530.70812988281</ele>
        <time>2016-05-15T07:56:19.000Z</time>
      </trkpt>
      <trkpt lat="45.72107" lon="4.50066">
        <ele>530.41217041016</ele>
        <time>2016-05-15T07:56:21.000Z</time>
      </trkpt>
      <trkpt lat="45.72113" lon="4.50066">
        <ele>530.25665283203</ele>
        <time>2016-05-15T07:56:23.000Z</time>
      </trkpt>
      <trkpt lat="45.72122" lon="4.50065">
        <ele>529.52337646484</ele>
        <time>2016-05-15T07:56:26.000Z</time>
      </trkpt>
      <trkpt lat="45.72129" lon="4.50066">
        <ele>529.23559570312</ele>
        <time>2016-05-15T07:56:28.000Z</time>
      </trkpt>
      <trkpt lat="45.72138" lon="4.50069">
        <ele>529.12493896484</ele>
        <time>2016-05-15T07:56:30.000Z</time>
      </trkpt>
      <trkpt lat="45.72149" lon="4.50073">
        <ele>529.45080566406</ele>
        <time>2016-05-15T07:56:32.000Z</time>
      </trkpt>
      <trkpt lat="45.7216" lon="4.50078">
        <ele>529.85119628906</ele>
        <time>2016-05-15T07:56:34.000Z</time>
      </trkpt>
      <trkpt lat="45.72174" lon="4.50087">
        <ele>530.86584472656</ele>
        <time>2016-05-15T07:56:37.000Z</time>
      </trkpt>
      <trkpt lat="45.72185" lon="4.50095">
        <ele>531.54278564453</ele>
        <time>2016-05-15T07:56:40.000Z</time>
      </trkpt>
      <trkpt lat="45.72196" lon="4.50099">
        <ele>531.50457763672</ele>
        <time>2016-05-15T07:56:42.000Z</time>
      </trkpt>
      <trkpt lat="45.72209" lon="4.50109">
        <ele>532.86273193359</ele>
        <time>2016-05-15T07:56:45.000Z</time>
      </trkpt>
      <trkpt lat="45.72217" lon="4.50114">
        <ele>532.25799560547</ele>
        <time>2016-05-15T07:56:47.000Z</time>
      </trkpt>
      <trkpt lat="45.72231" lon="4.50123">
        <ele>532.97320556641</ele>
        <time>2016-05-15T07:56:50.000Z</time>
      </trkpt>
      <trkpt lat="45.72245" lon="4.50132">
        <ele>533.16906738281</ele>
        <time>2016-05-15T07:56:53.000Z</time>
      </trkpt>
      <trkpt lat="45.72256" lon="4.50138">
        <ele>531.92846679688</ele>
        <time>2016-05-15T07:56:55.000Z</time>
      </trkpt>
      <trkpt lat="45.72274" lon="4.50149">
        <ele>531.87866210938</ele>
        <time>2016-05-15T07:56:58.000Z</time>
      </trkpt>
      <trkpt lat="45.72282" lon="4.50157">
        <ele>531.84753417969</ele>
        <time>2016-05-15T07:57:00.000Z</time>
      </trkpt>
      <trkpt lat="45.72289" lon="4.50164">
        <ele>531.55499267578</ele>
        <time>2016-05-15T07:57:02.000Z</time>
      </trkpt>
      <trkpt lat="45.72296" lon="4.50171">
        <ele>531.91357421875</ele>
        <time>2016-05-15T07:57:04.000Z</time>
      </trkpt>
      <trkpt lat="45.72307" lon="4.5018">
        <ele>531.45788574219</ele>
        <time>2016-05-15T07:57:07.000Z</time>
      </trkpt>
      <trkpt lat="45.72318" lon="4.5019">
        <ele>530.99060058594</ele>
        <time>2016-05-15T07:57:10.000Z</time>
      </trkpt>
      <trkpt lat="45.72325" lon="4.50197">
        <ele>530.77984619141</ele>
        <time>2016-05-15T07:57:12.000Z</time>
      </trkpt>
      <trkpt lat="45.72338" lon="4.50211">
        <ele>531.94415283203</ele>
        <time>2016-05-15T07:57:15.000Z</time>
      </trkpt>
      <trkpt lat="45.72345" lon="4.50223">
        <ele>532.92901611328</ele>
        <time>2016-05-15T07:57:17.000Z</time>
      </trkpt>
      <trkpt lat="45.72358" lon="4.50238">
        <ele>533.15106201172</ele>
        <time>2016-05-15T07:57:20.000Z</time>
      </trkpt>
      <trkpt lat="45.72366" lon="4.50249">
        <ele>533.05767822266</ele>
        <time>2016-05-15T07:57:22.000Z</time>
      </trkpt>
      <trkpt lat="45.7237" lon="4.50257">
        <ele>532.49334716797</ele>
        <time>2016-05-15T07:57:24.000Z</time>
      </trkpt>
      <trkpt lat="45.72375" lon="4.50269">
        <ele>532.06951904297</ele>
        <time>2016-05-15T07:57:26.000Z</time>
      </trkpt>
      <trkpt lat="45.72381" lon="4.5028">
        <ele>532.65832519531</ele>
        <time>2016-05-15T07:57:28.000Z</time>
      </trkpt>
      <trkpt lat="45.72393" lon="4.50296">
        <ele>531.87530517578</ele>
        <time>2016-05-15T07:57:31.000Z</time>
      </trkpt>
      <trkpt lat="45.72405" lon="4.50305">
        <ele>532.03192138672</ele>
        <time>2016-05-15T07:57:33.000Z</time>
      </trkpt>
      <trkpt lat="45.72417" lon="4.50314">
        <ele>532.81036376953</ele>
        <time>2016-05-15T07:57:35.000Z</time>
      </trkpt>
      <trkpt lat="45.7243" lon="4.50324">
        <ele>532.08489990234</ele>
        <time>2016-05-15T07:57:37.000Z</time>
      </trkpt>
      <trkpt lat="45.72443" lon="4.5033">
        <ele>531.28857421875</ele>
        <time>2016-05-15T07:57:39.000Z</time>
      </trkpt>
      <trkpt lat="45.72467" lon="4.50341">
        <ele>529.84143066406</ele>
        <time>2016-05-15T07:57:42.000Z</time>
      </trkpt>
      <trkpt lat="45.72486" lon="4.50349">
        <ele>529.72418212891</ele>
        <time>2016-05-15T07:57:44.000Z</time>
      </trkpt>
      <trkpt lat="45.72511" lon="4.50362">
        <ele>528.66473388672</ele>
        <time>2016-05-15T07:57:47.000Z</time>
      </trkpt>
      <trkpt lat="45.72533" lon="4.50381">
        <ele>526.49786376953</ele>
        <time>2016-05-15T07:57:50.000Z</time>
      </trkpt>
      <trkpt lat="45.72551" lon="4.50406">
        <ele>525.42340087891</ele>
        <time>2016-05-15T07:57:53.000Z</time>
      </trkpt>
      <trkpt lat="45.72576" lon="4.5043">
        <ele>524.72595214844</ele>
        <time>2016-05-15T07:57:56.000Z</time>
      </trkpt>
      <trkpt lat="45.72591" lon="4.50454">
        <ele>524.66839599609</ele>
        <time>2016-05-15T07:57:59.000Z</time>
      </trkpt>
      <trkpt lat="45.726" lon="4.50466">
        <ele>524.34912109375</ele>
        <time>2016-05-15T07:58:01.000Z</time>
      </trkpt>
      <trkpt lat="45.72612" lon="4.50484">
        <ele>523.85656738281</ele>
        <time>2016-05-15T07:58:04.000Z</time>
      </trkpt>
      <trkpt lat="45.72629" lon="4.50499">
        <ele>523.37603759766</ele>
        <time>2016-05-15T07:58:07.000Z</time>
      </trkpt>
      <trkpt lat="45.7264" lon="4.50519">
        <ele>523.390625</ele>
        <time>2016-05-15T07:58:09.000Z</time>
      </trkpt>
      <trkpt lat="45.72648" lon="4.50545">
        <ele>522.15490722656</ele>
        <time>2016-05-15T07:58:12.000Z</time>
      </trkpt>
      <trkpt lat="45.72655" lon="4.5056">
        <ele>520.51989746094</ele>
        <time>2016-05-15T07:58:14.000Z</time>
      </trkpt>
      <trkpt lat="45.72663" lon="4.50576">
        <ele>521.11767578125</ele>
        <time>2016-05-15T07:58:16.000Z</time>
      </trkpt>
      <trkpt lat="45.72676" lon="4.50602">
        <ele>520.73883056641</ele>
        <time>2016-05-15T07:58:19.000Z</time>
      </trkpt>
      <trkpt lat="45.72687" lon="4.50615">
        <ele>519.35791015625</ele>
        <time>2016-05-15T07:58:21.000Z</time>
      </trkpt>
      <trkpt lat="45.72701" lon="4.50637">
        <ele>518.26055908203</ele>
        <time>2016-05-15T07:58:24.000Z</time>
      </trkpt>
      <trkpt lat="45.72719" lon="4.5066">
        <ele>518.47924804688</ele>
        <time>2016-05-15T07:58:27.000Z</time>
      </trkpt>
      <trkpt lat="45.72729" lon="4.50675">
        <ele>518.01995849609</ele>
        <time>2016-05-15T07:58:29.000Z</time>
      </trkpt>
      <trkpt lat="45.72741" lon="4.50693">
        <ele>517.01953125</ele>
        <time>2016-05-15T07:58:31.000Z</time>
      </trkpt>
      <trkpt lat="45.72762" lon="4.50706">
        <ele>514.44860839844</ele>
        <time>2016-05-15T07:58:34.000Z</time>
      </trkpt>
      <trkpt lat="45.72774" lon="4.50711">
        <ele>512.66363525391</ele>
        <time>2016-05-15T07:58:36.000Z</time>
      </trkpt>
      <trkpt lat="45.72783" lon="4.50715">
        <ele>511.5657043457</ele>
        <time>2016-05-15T07:58:38.000Z</time>
      </trkpt>
      <trkpt lat="45.72794" lon="4.50716">
        <ele>511.37924194336</ele>
        <time>2016-05-15T07:58:40.000Z</time>
      </trkpt>
      <trkpt lat="45.72808" lon="4.50713">
        <ele>511.50729370117</ele>
        <time>2016-05-15T07:58:43.000Z</time>
      </trkpt>
      <trkpt lat="45.72826" lon="4.50707">
        <ele>511.47463989258</ele>
        <time>2016-05-15T07:58:46.000Z</time>
      </trkpt>
      <trkpt lat="45.72839" lon="4.50701">
        <ele>510.85140991211</ele>
        <time>2016-05-15T07:58:48.000Z</time>
      </trkpt>
      <trkpt lat="45.72855" lon="4.507">
        <ele>511.02188110352</ele>
        <time>2016-05-15T07:58:51.000Z</time>
      </trkpt>
      <trkpt lat="45.72868" lon="4.50701">
        <ele>510.84680175781</ele>
        <time>2016-05-15T07:58:53.000Z</time>
      </trkpt>
      <trkpt lat="45.72883" lon="4.50705">
        <ele>510.30718994141</ele>
        <time>2016-05-15T07:58:55.000Z</time>
      </trkpt>
      <trkpt lat="45.72906" lon="4.50716">
        <ele>510.03771972656</ele>
        <time>2016-05-15T07:58:58.000Z</time>
      </trkpt>
      <trkpt lat="45.7292" lon="4.50727">
        <ele>509.2028503418</ele>
        <time>2016-05-15T07:59:00.000Z</time>
      </trkpt>
      <trkpt lat="45.72939" lon="4.50744">
        <ele>509.05661010742</ele>
        <time>2016-05-15T07:59:03.000Z</time>
      </trkpt>
      <trkpt lat="45.72967" lon="4.5077">
        <ele>508.61624145508</ele>
        <time>2016-05-15T07:59:06.000Z</time>
      </trkpt>
      <trkpt lat="45.72982" lon="4.50787">
        <ele>508.9951171875</ele>
        <time>2016-05-15T07:59:08.000Z</time>
      </trkpt>
      <trkpt lat="45.73001" lon="4.50812">
        <ele>508.44448852539</ele>
        <time>2016-05-15T07:59:11.000Z</time>
      </trkpt>
      <trkpt lat="45.73011" lon="4.50836">
        <ele>507.75091552734</ele>
        <time>2016-05-15T07:59:13.000Z</time>
      </trkpt>
      <trkpt lat="45.73021" lon="4.50872">
        <ele>505.11404418945</ele>
        <time>2016-05-15T07:59:16.000Z</time>
      </trkpt>
      <trkpt lat="45.73027" lon="4.50893">
        <ele>503.69647216797</ele>
        <time>2016-05-15T07:59:18.000Z</time>
      </trkpt>
      <trkpt lat="45.73036" lon="4.50919">
        <ele>500.93426513672</ele>
        <time>2016-05-15T07:59:21.000Z</time>
      </trkpt>
      <trkpt lat="45.73041" lon="4.50938">
        <ele>498.89889526367</ele>
        <time>2016-05-15T07:59:24.000Z</time>
      </trkpt>
      <trkpt lat="45.73051" lon="4.50967">
        <ele>497.01184082031</ele>
        <time>2016-05-15T07:59:27.000Z</time>
      </trkpt>
      <trkpt lat="45.73062" lon="4.50997">
        <ele>493.55075073242</ele>
        <time>2016-05-15T07:59:30.000Z</time>
      </trkpt>
      <trkpt lat="45.73071" lon="4.51023">
        <ele>492.91372680664</ele>
        <time>2016-05-15T07:59:33.000Z</time>
      </trkpt>
      <trkpt lat="45.73075" lon="4.51043">
        <ele>492.89343261719</ele>
        <time>2016-05-15T07:59:35.000Z</time>
      </trkpt>
      <trkpt lat="45.73083" lon="4.51067">
        <ele>492.40625</ele>
        <time>2016-05-15T07:59:37.000Z</time>
      </trkpt>
      <trkpt lat="45.73103" lon="4.51099">
        <ele>491.12283325195</ele>
        <time>2016-05-15T07:59:40.000Z</time>
      </trkpt>
      <trkpt lat="45.73124" lon="4.51127">
        <ele>491.2776184082</ele>
        <time>2016-05-15T07:59:43.000Z</time>
      </trkpt>
      <trkpt lat="45.73135" lon="4.51141">
        <ele>490.78277587891</ele>
        <time>2016-05-15T07:59:45.000Z</time>
      </trkpt>
      <trkpt lat="45.73147" lon="4.51157">
        <ele>489.19488525391</ele>
        <time>2016-05-15T07:59:48.000Z</time>
      </trkpt>
      <trkpt lat="45.7316" lon="4.5116">
        <ele>485.8410949707</ele>
        <time>2016-05-15T07:59:51.000Z</time>
      </trkpt>
      <trkpt lat="45.73175" lon="4.51161">
        <ele>483.03176879883</ele>
        <time>2016-05-15T07:59:54.000Z</time>
      </trkpt>
      <trkpt lat="45.73193" lon="4.51162">
        <ele>481.93075561523</ele>
        <time>2016-05-15T07:59:57.000Z</time>
      </trkpt>
      <trkpt lat="45.73207" lon="4.51168">
        <ele>480.91995239258</ele>
        <time>2016-05-15T07:59:59.000Z</time>
      </trkpt>
      <trkpt lat="45.73228" lon="4.51177">
        <ele>479.35913085938</ele>
        <time>2016-05-15T08:00:02.000Z</time>
      </trkpt>
      <trkpt lat="45.73238" lon="4.51186">
        <ele>478.41342163086</ele>
        <time>2016-05-15T08:00:04.000Z</time>
      </trkpt>
      <trkpt lat="45.73246" lon="4.51201">
        <ele>478.2698059082</ele>
        <time>2016-05-15T08:00:07.000Z</time>
      </trkpt>
      <trkpt lat="45.73255" lon="4.51208">
        <ele>478.17141723633</ele>
        <time>2016-05-15T08:00:10.000Z</time>
      </trkpt>
      <trkpt lat="45.73264" lon="4.5121">
        <ele>477.06268310547</ele>
        <time>2016-05-15T08:00:12.000Z</time>
      </trkpt>
      <trkpt lat="45.73284" lon="4.51215">
        <ele>476.48129272461</ele>
        <time>2016-05-15T08:00:15.000Z</time>
      </trkpt>
      <trkpt lat="45.73302" lon="4.51223">
        <ele>476.30404663086</ele>
        <time>2016-05-15T08:00:18.000Z</time>
      </trkpt>
      <trkpt lat="45.73316" lon="4.51234">
        <ele>476.24084472656</ele>
        <time>2016-05-15T08:00:21.000Z</time>
      </trkpt>
      <trkpt lat="45.73329" lon="4.5124">
        <ele>475.39678955078</ele>
        <time>2016-05-15T08:00:24.000Z</time>
      </trkpt>
      <trkpt lat="45.73343" lon="4.5124">
        <ele>474.87533569336</ele>
        <time>2016-05-15T08:00:26.000Z</time>
      </trkpt>
      <trkpt lat="45.73355" lon="4.51238">
        <ele>474.43762207031</ele>
        <time>2016-05-15T08:00:28.000Z</time>
      </trkpt>
      <trkpt lat="45.73365" lon="4.51233">
        <ele>474.12713623047</ele>
        <time>2016-05-15T08:00:30.000Z</time>
      </trkpt>
      <trkpt lat="45.7338" lon="4.51216">
        <ele>472.99896240234</ele>
        <time>2016-05-15T08:00:33.000Z</time>
      </trkpt>
      <trkpt lat="45.73398" lon="4.51205">
        <ele>471.2998046875</ele>
        <time>2016-05-15T08:00:36.000Z</time>
      </trkpt>
      <trkpt lat="45.73413" lon="4.512">
        <ele>469.91589355469</ele>
        <time>2016-05-15T08:00:38.000Z</time>
      </trkpt>
      <trkpt lat="45.73429" lon="4.51197">
        <ele>469.11373901367</ele>
        <time>2016-05-15T08:00:40.000Z</time>
      </trkpt>
      <trkpt lat="45.73446" lon="4.51196">
        <ele>467.99728393555</ele>
        <time>2016-05-15T08:00:43.000Z</time>
      </trkpt>
      <trkpt lat="45.73472" lon="4.51198">
        <ele>465.65081787109</ele>
        <time>2016-05-15T08:00:46.000Z</time>
      </trkpt>
      <trkpt lat="45.73494" lon="4.51202">
        <ele>463.37799072266</ele>
        <time>2016-05-15T08:00:49.000Z</time>
      </trkpt>
      <trkpt lat="45.7351" lon="4.51203">
        <ele>461.53112792969</ele>
        <time>2016-05-15T08:00:51.000Z</time>
      </trkpt>
      <trkpt lat="45.73539" lon="4.512">
        <ele>459.20584106445</ele>
        <time>2016-05-15T08:00:54.000Z</time>
      </trkpt>
      <trkpt lat="45.73557" lon="4.51202">
        <ele>456.23876953125</ele>
        <time>2016-05-15T08:00:56.000Z</time>
      </trkpt>
      <trkpt lat="45.73572" lon="4.51201">
        <ele>454.13821411133</ele>
        <time>2016-05-15T08:00:58.000Z</time>
      </trkpt>
      <trkpt lat="45.73597" lon="4.51187">
        <ele>451.02908325195</ele>
        <time>2016-05-15T08:01:01.000Z</time>
      </trkpt>
      <trkpt lat="45.7362" lon="4.51179">
        <ele>445.43328857422</ele>
        <time>2016-05-15T08:01:04.000Z</time>
      </trkpt>
      <trkpt lat="45.73635" lon="4.51176">
        <ele>442.3642578125</ele>
        <time>2016-05-15T08:01:07.000Z</time>
      </trkpt>
      <trkpt lat="45.73652" lon="4.51168">
        <ele>439.21029663086</ele>
        <time>2016-05-15T08:01:10.000Z</time>
      </trkpt>
      <trkpt lat="45.73662" lon="4.51168">
        <ele>436.51806640625</ele>
        <time>2016-05-15T08:01:12.000Z</time>
      </trkpt>
      <trkpt lat="45.73674" lon="4.51178">
        <ele>431.26547241211</ele>
        <time>2016-05-15T08:01:15.000Z</time>
      </trkpt>
      <trkpt lat="45.73684" lon="4.51189">
        <ele>428.43307495117</ele>
        <time>2016-05-15T08:01:18.000Z</time>
      </trkpt>
      <trkpt lat="45.73689" lon="4.51196">
        <ele>426.04501342773</ele>
        <time>2016-05-15T08:01:20.000Z</time>
      </trkpt>
      <trkpt lat="45.73692" lon="4.51208">
        <ele>424.61199951172</ele>
        <time>2016-05-15T08:01:22.000Z</time>
      </trkpt>
      <trkpt lat="45.73697" lon="4.51225">
        <ele>422.40524291992</ele>
        <time>2016-05-15T08:01:25.000Z</time>
      </trkpt>
      <trkpt lat="45.73702" lon="4.51242">
        <ele>419.32928466797</ele>
        <time>2016-05-15T08:01:28.000Z</time>
      </trkpt>
      <trkpt lat="45.73706" lon="4.51254">
        <ele>417.92098999023</ele>
        <time>2016-05-15T08:01:30.000Z</time>
      </trkpt>
      <trkpt lat="45.73709" lon="4.51267">
        <ele>416.24258422852</ele>
        <time>2016-05-15T08:01:32.000Z</time>
      </trkpt>
      <trkpt lat="45.73713" lon="4.5128">
        <ele>414.70315551758</ele>
        <time>2016-05-15T08:01:34.000Z</time>
      </trkpt>
      <trkpt lat="45.73716" lon="4.51293">
        <ele>412.52990722656</ele>
        <time>2016-05-15T08:01:36.000Z</time>
      </trkpt>
      <trkpt lat="45.73719" lon="4.51305">
        <ele>408.62268066406</ele>
        <time>2016-05-15T08:01:38.000Z</time>
      </trkpt>
      <trkpt lat="45.73724" lon="4.51323">
        <ele>402.61727905273</ele>
        <time>2016-05-15T08:01:41.000Z</time>
      </trkpt>
      <trkpt lat="45.73729" lon="4.51338">
        <ele>398.40716552734</ele>
        <time>2016-05-15T08:01:44.000Z</time>
      </trkpt>
      <trkpt lat="45.73732" lon="4.51347">
        <ele>396.90231323242</ele>
        <time>2016-05-15T08:01:46.000Z</time>
      </trkpt>
      <trkpt lat="45.73738" lon="4.51362">
        <ele>393.82626342773</ele>
        <time>2016-05-15T08:01:49.000Z</time>
      </trkpt>
      <trkpt lat="45.73741" lon="4.51372">
        <ele>391.6936340332</ele>
        <time>2016-05-15T08:01:51.000Z</time>
      </trkpt>
      <trkpt lat="45.7375" lon="4.51414">
        <ele>385.95083618164</ele>
        <time>2016-05-15T08:01:55.000Z</time>
      </trkpt>
      <trkpt lat="45.73754" lon="4.51429">
        <ele>383.93612670898</ele>
        <time>2016-05-15T08:01:57.000Z</time>
      </trkpt>
      <trkpt lat="45.73756" lon="4.5145">
        <ele>382.58941650391</ele>
        <time>2016-05-15T08:02:00.000Z</time>
      </trkpt>
      <trkpt lat="45.73758" lon="4.51464">
        <ele>381.3450012207</ele>
        <time>2016-05-15T08:02:02.000Z</time>
      </trkpt>
      <trkpt lat="45.73764" lon="4.51479">
        <ele>379.87933349609</ele>
        <time>2016-05-15T08:02:04.000Z</time>
      </trkpt>
      <trkpt lat="45.73766" lon="4.51498">
        <ele>378.72299194336</ele>
        <time>2016-05-15T08:02:07.000Z</time>
      </trkpt>
      <trkpt lat="45.73767" lon="4.51508">
        <ele>378.35290527344</ele>
        <time>2016-05-15T08:02:09.000Z</time>
      </trkpt>
      <trkpt lat="45.73768" lon="4.5152">
        <ele>377.04776000977</ele>
        <time>2016-05-15T08:02:12.000Z</time>
      </trkpt>
      <trkpt lat="45.73772" lon="4.51531">
        <ele>375.77032470703</ele>
        <time>2016-05-15T08:02:15.000Z</time>
      </trkpt>
      <trkpt lat="45.73777" lon="4.51543">
        <ele>375.41763305664</ele>
        <time>2016-05-15T08:02:18.000Z</time>
      </trkpt>
      <trkpt lat="45.7378" lon="4.51551">
        <ele>374.90594482422</ele>
        <time>2016-05-15T08:02:20.000Z</time>
      </trkpt>
      <trkpt lat="45.73784" lon="4.51564">
        <ele>372.5009765625</ele>
        <time>2016-05-15T08:02:23.000Z</time>
      </trkpt>
      <trkpt lat="45.7379" lon="4.51581">
        <ele>368.14755249023</ele>
        <time>2016-05-15T08:02:26.000Z</time>
      </trkpt>
      <trkpt lat="45.73795" lon="4.5159">
        <ele>367.36434936523</ele>
        <time>2016-05-15T08:02:28.000Z</time>
      </trkpt>
      <trkpt lat="45.73798" lon="4.51598">
        <ele>366.65808105469</ele>
        <time>2016-05-15T08:02:30.000Z</time>
      </trkpt>
      <trkpt lat="45.73805" lon="4.51607">
        <ele>365.57138061523</ele>
        <time>2016-05-15T08:02:33.000Z</time>
      </trkpt>
      <trkpt lat="45.73809" lon="4.51614">
        <ele>364.45449829102</ele>
        <time>2016-05-15T08:02:36.000Z</time>
      </trkpt>
      <trkpt lat="45.73812" lon="4.51624">
        <ele>363.15692138672</ele>
        <time>2016-05-15T08:02:39.000Z</time>
      </trkpt>
      <trkpt lat="45.73814" lon="4.51629">
        <ele>361.23330688477</ele>
        <time>2016-05-15T08:02:41.000Z</time>
      </trkpt>
      <trkpt lat="45.73816" lon="4.51634">
        <ele>359.05380249023</ele>
        <time>2016-05-15T08:02:43.000Z</time>
      </trkpt>
      <trkpt lat="45.73816" lon="4.51634">
        <ele>353.33740234375</ele>
        <time>2016-05-15T08:02:53.000Z</time>
      </trkpt>
      <trkpt lat="45.73818" lon="4.51639">
        <ele>355.8405456543</ele>
        <time>2016-05-15T08:04:30.000Z</time>
      </trkpt>
      <trkpt lat="45.73819" lon="4.51643">
        <ele>353.53555297852</ele>
        <time>2016-05-15T08:04:32.000Z</time>
      </trkpt>
      <trkpt lat="45.73822" lon="4.51656">
        <ele>350.12826538086</ele>
        <time>2016-05-15T08:04:35.000Z</time>
      </trkpt>
      <trkpt lat="45.73824" lon="4.51664">
        <ele>348.81002807617</ele>
        <time>2016-05-15T08:04:37.000Z</time>
      </trkpt>
      <trkpt lat="45.73827" lon="4.51676">
        <ele>347.00915527344</ele>
        <time>2016-05-15T08:04:40.000Z</time>
      </trkpt>
      <trkpt lat="45.73832" lon="4.51681">
        <ele>347.75469970703</ele>
        <time>2016-05-15T08:04:42.000Z</time>
      </trkpt>
      <trkpt lat="45.7384" lon="4.51682">
        <ele>347.89990234375</ele>
        <time>2016-05-15T08:04:44.000Z</time>
      </trkpt>
      <trkpt lat="45.73848" lon="4.51679">
        <ele>348.28778076172</ele>
        <time>2016-05-15T08:04:47.000Z</time>
      </trkpt>
      <trkpt lat="45.73856" lon="4.51674">
        <ele>348.40365600586</ele>
        <time>2016-05-15T08:04:50.000Z</time>
      </trkpt>
      <trkpt lat="45.73858" lon="4.51672">
        <ele>348.67150878906</ele>
        <time>2016-05-15T08:04:52.000Z</time>
      </trkpt>
      <trkpt lat="45.73861" lon="4.5167">
        <ele>348.9670715332</ele>
        <time>2016-05-15T08:04:54.000Z</time>
      </trkpt>
      <trkpt lat="45.73864" lon="4.51667">
        <ele>349.33795166016</ele>
        <time>2016-05-15T08:04:56.000Z</time>
      </trkpt>
      <trkpt lat="45.73868" lon="4.51665">
        <ele>349.55834960938</ele>
        <time>2016-05-15T08:04:58.000Z</time>
      </trkpt>
      <trkpt lat="45.7387" lon="4.51662">
        <ele>349.45462036133</ele>
        <time>2016-05-15T08:05:00.000Z</time>
      </trkpt>
      <trkpt lat="45.73873" lon="4.51662">
        <ele>349.17105102539</ele>
        <time>2016-05-15T08:05:03.000Z</time>
      </trkpt>
      <trkpt lat="45.73875" lon="4.51663">
        <ele>349.20611572266</ele>
        <time>2016-05-15T08:05:06.000Z</time>
      </trkpt>
      <trkpt lat="45.73876" lon="4.51664">
        <ele>349.53189086914</ele>
        <time>2016-05-15T08:05:10.000Z</time>
      </trkpt>
      <trkpt lat="45.73875" lon="4.51668">
        <ele>351.45803833008</ele>
        <time>2016-05-15T08:05:12.000Z</time>
      </trkpt>
      <trkpt lat="45.73875" lon="4.51671">
        <ele>352.5126953125</ele>
        <time>2016-05-15T08:05:14.000Z</time>
      </trkpt>
      <trkpt lat="45.73874" lon="4.51674">
        <ele>354.16024780273</ele>
        <time>2016-05-15T08:05:18.000Z</time>
      </trkpt>
      <trkpt lat="45.73873" lon="4.51678">
        <ele>355.18923950195</ele>
        <time>2016-05-15T08:05:21.000Z</time>
      </trkpt>
      <trkpt lat="45.73872" lon="4.51685">
        <ele>356.07672119141</ele>
        <time>2016-05-15T08:05:25.000Z</time>
      </trkpt>
      <trkpt lat="45.73872" lon="4.5169">
        <ele>356.37313842773</ele>
        <time>2016-05-15T08:05:27.000Z</time>
      </trkpt>
      <trkpt lat="45.73872" lon="4.51696">
        <ele>356.58538818359</ele>
        <time>2016-05-15T08:05:29.000Z</time>
      </trkpt>
      <trkpt lat="45.7387" lon="4.51704">
        <ele>356.34799194336</ele>
        <time>2016-05-15T08:05:33.000Z</time>
      </trkpt>
      <trkpt lat="45.73867" lon="4.51712">
        <ele>356.09024047852</ele>
        <time>2016-05-15T08:05:38.000Z</time>
      </trkpt>
      <trkpt lat="45.73867" lon="4.51716">
        <ele>356.4221496582</ele>
        <time>2016-05-15T08:05:40.000Z</time>
      </trkpt>
      <trkpt lat="45.73867" lon="4.51719">
        <ele>356.64453125</ele>
        <time>2016-05-15T08:05:43.000Z</time>
      </trkpt>
      <trkpt lat="45.73869" lon="4.51728">
        <ele>357.22705078125</ele>
        <time>2016-05-15T08:05:47.000Z</time>
      </trkpt>
      <trkpt lat="45.7387" lon="4.51733">
        <ele>358.31793212891</ele>
        <time>2016-05-15T08:05:49.000Z</time>
      </trkpt>
      <trkpt lat="45.73871" lon="4.51741">
        <ele>359.70236206055</ele>
        <time>2016-05-15T08:05:53.000Z</time>
      </trkpt>
      <trkpt lat="45.73872" lon="4.51744">
        <ele>360.59991455078</ele>
        <time>2016-05-15T08:05:55.000Z</time>
      </trkpt>
      <trkpt lat="45.73875" lon="4.5175">
        <ele>359.37588500977</ele>
        <time>2016-05-15T08:05:59.000Z</time>
      </trkpt>
      <trkpt lat="45.73877" lon="4.51753">
        <ele>358.47134399414</ele>
        <time>2016-05-15T08:06:01.000Z</time>
      </trkpt>
      <trkpt lat="45.73879" lon="4.51754">
        <ele>357.84780883789</ele>
        <time>2016-05-15T08:06:03.000Z</time>
      </trkpt>
      <trkpt lat="45.73883" lon="4.51755">
        <ele>357.22402954102</ele>
        <time>2016-05-15T08:06:06.000Z</time>
      </trkpt>
      <trkpt lat="45.73888" lon="4.51755">
        <ele>357.89196777344</ele>
        <time>2016-05-15T08:06:10.000Z</time>
      </trkpt>
      <trkpt lat="45.73894" lon="4.51756">
        <ele>359.23794555664</ele>
        <time>2016-05-15T08:06:14.000Z</time>
      </trkpt>
      <trkpt lat="45.73899" lon="4.51756">
        <ele>360.5227355957</ele>
        <time>2016-05-15T08:06:18.000Z</time>
      </trkpt>
      <trkpt lat="45.73901" lon="4.51756">
        <ele>361.28659057617</ele>
        <time>2016-05-15T08:06:21.000Z</time>
      </trkpt>
      <trkpt lat="45.73903" lon="4.51757">
        <ele>362.47671508789</ele>
        <time>2016-05-15T08:06:24.000Z</time>
      </trkpt>
      <trkpt lat="45.73907" lon="4.51762">
        <ele>365.50350952148</ele>
        <time>2016-05-15T08:06:28.000Z</time>
      </trkpt>
      <trkpt lat="45.73909" lon="4.51769">
        <ele>366.82208251953</ele>
        <time>2016-05-15T08:06:32.000Z</time>
      </trkpt>
      <trkpt lat="45.73911" lon="4.51777">
        <ele>366.69866943359</ele>
        <time>2016-05-15T08:06:36.000Z</time>
      </trkpt>
      <trkpt lat="45.73915" lon="4.51785">
        <ele>366.80328369141</ele>
        <time>2016-05-15T08:06:39.000Z</time>
      </trkpt>
      <trkpt lat="45.7392" lon="4.51797">
        <ele>367.84338378906</ele>
        <time>2016-05-15T08:06:42.000Z</time>
      </trkpt>
      <trkpt lat="45.73923" lon="4.51803">
        <ele>367.6936340332</ele>
        <time>2016-05-15T08:06:44.000Z</time>
      </trkpt>
      <trkpt lat="45.7393" lon="4.51808">
        <ele>367.44610595703</ele>
        <time>2016-05-15T08:06:47.000Z</time>
      </trkpt>
      <trkpt lat="45.73935" lon="4.51808">
        <ele>367.95825195312</ele>
        <time>2016-05-15T08:06:49.000Z</time>
      </trkpt>
      <trkpt lat="45.73941" lon="4.51807">
        <ele>367.83364868164</ele>
        <time>2016-05-15T08:06:51.000Z</time>
      </trkpt>
      <trkpt lat="45.73946" lon="4.51804">
        <ele>367.375</ele>
        <time>2016-05-15T08:06:53.000Z</time>
      </trkpt>
      <trkpt lat="45.7395" lon="4.51801">
        <ele>367.87228393555</ele>
        <time>2016-05-15T08:06:55.000Z</time>
      </trkpt>
      <trkpt lat="45.73956" lon="4.51797">
        <ele>367.9524230957</ele>
        <time>2016-05-15T08:06:59.000Z</time>
      </trkpt>
      <trkpt lat="45.73964" lon="4.51794">
        <ele>367.17041015625</ele>
        <time>2016-05-15T08:07:03.000Z</time>
      </trkpt>
      <trkpt lat="45.7397" lon="4.51792">
        <ele>367.16705322266</ele>
        <time>2016-05-15T08:07:05.000Z</time>
      </trkpt>
      <trkpt lat="45.73977" lon="4.5179">
        <ele>367.41427612305</ele>
        <time>2016-05-15T08:07:08.000Z</time>
      </trkpt>
      <trkpt lat="45.73983" lon="4.51787">
        <ele>367.38003540039</ele>
        <time>2016-05-15T08:07:10.000Z</time>
      </trkpt>
      <trkpt lat="45.73993" lon="4.5178">
        <ele>367.35263061523</ele>
        <time>2016-05-15T08:07:13.000Z</time>
      </trkpt>
      <trkpt lat="45.73999" lon="4.51776">
        <ele>368.35095214844</ele>
        <time>2016-05-15T08:07:15.000Z</time>
      </trkpt>
      <trkpt lat="45.74005" lon="4.51769">
        <ele>368.87252807617</ele>
        <time>2016-05-15T08:07:18.000Z</time>
      </trkpt>
      <trkpt lat="45.74011" lon="4.51762">
        <ele>368.42266845703</ele>
        <time>2016-05-15T08:07:21.000Z</time>
      </trkpt>
      <trkpt lat="45.74015" lon="4.51754">
        <ele>368.40505981445</ele>
        <time>2016-05-15T08:07:25.000Z</time>
      </trkpt>
      <trkpt lat="45.74017" lon="4.51751">
        <ele>368.52252197266</ele>
        <time>2016-05-15T08:07:28.000Z</time>
      </trkpt>
      <trkpt lat="45.74018" lon="4.5175">
        <ele>368.97747802734</ele>
        <time>2016-05-15T08:07:32.000Z</time>
      </trkpt>
      <trkpt lat="45.74023" lon="4.5175">
        <ele>370.08187866211</ele>
        <time>2016-05-15T08:07:36.000Z</time>
      </trkpt>
      <trkpt lat="45.74029" lon="4.51752">
        <ele>371.17071533203</ele>
        <time>2016-05-15T08:07:40.000Z</time>
      </trkpt>
      <trkpt lat="45.74034" lon="4.51756">
        <ele>372.22052001953</ele>
        <time>2016-05-15T08:07:44.000Z</time>
      </trkpt>
      <trkpt lat="45.74035" lon="4.51763">
        <ele>372.53088378906</ele>
        <time>2016-05-15T08:07:48.000Z</time>
      </trkpt>
      <trkpt lat="45.74033" lon="4.5177">
        <ele>373.17782592773</ele>
        <time>2016-05-15T08:07:52.000Z</time>
      </trkpt>
      <trkpt lat="45.74032" lon="4.51773">
        <ele>373.78308105469</ele>
        <time>2016-05-15T08:07:54.000Z</time>
      </trkpt>
      <trkpt lat="45.74031" lon="4.51777">
        <ele>374.88140869141</ele>
        <time>2016-05-15T08:07:56.000Z</time>
      </trkpt>
      <trkpt lat="45.74026" lon="4.51785">
        <ele>377.95483398438</ele>
        <time>2016-05-15T08:08:00.000Z</time>
      </trkpt>
      <trkpt lat="45.74021" lon="4.51791">
        <ele>379.97860717773</ele>
        <time>2016-05-15T08:08:03.000Z</time>
      </trkpt>
      <trkpt lat="45.74017" lon="4.51799">
        <ele>380.66619873047</ele>
        <time>2016-05-15T08:08:07.000Z</time>
      </trkpt>
      <trkpt lat="45.74014" lon="4.51805">
        <ele>381.26068115234</ele>
        <time>2016-05-15T08:08:11.000Z</time>
      </trkpt>
      <trkpt lat="45.74012" lon="4.51815">
        <ele>381.33096313477</ele>
        <time>2016-05-15T08:08:15.000Z</time>
      </trkpt>
      <trkpt lat="45.74012" lon="4.51825">
        <ele>382.38394165039</ele>
        <time>2016-05-15T08:08:19.000Z</time>
      </trkpt>
      <trkpt lat="45.74014" lon="4.51829">
        <ele>383.93545532227</ele>
        <time>2016-05-15T08:08:21.000Z</time>
      </trkpt>
      <trkpt lat="45.74018" lon="4.51835">
        <ele>384.0458984375</ele>
        <time>2016-05-15T08:08:25.000Z</time>
      </trkpt>
      <trkpt lat="45.7402" lon="4.5184">
        <ele>384.7903137207</ele>
        <time>2016-05-15T08:08:27.000Z</time>
      </trkpt>
      <trkpt lat="45.74022" lon="4.51844">
        <ele>385.81701660156</ele>
        <time>2016-05-15T08:08:29.000Z</time>
      </trkpt>
      <trkpt lat="45.74022" lon="4.51848">
        <ele>386.1643371582</ele>
        <time>2016-05-15T08:08:31.000Z</time>
      </trkpt>
      <trkpt lat="45.74022" lon="4.51853">
        <ele>386.36059570312</ele>
        <time>2016-05-15T08:08:33.000Z</time>
      </trkpt>
      <trkpt lat="45.74023" lon="4.51856">
        <ele>386.39276123047</ele>
        <time>2016-05-15T08:08:35.000Z</time>
      </trkpt>
      <trkpt lat="45.74026" lon="4.51863">
        <ele>386.93609619141</ele>
        <time>2016-05-15T08:08:39.000Z</time>
      </trkpt>
      <trkpt lat="45.74027" lon="4.51866">
        <ele>387.1100769043</ele>
        <time>2016-05-15T08:08:42.000Z</time>
      </trkpt>
      <trkpt lat="45.74028" lon="4.51869">
        <ele>387.21801757812</ele>
        <time>2016-05-15T08:08:44.000Z</time>
      </trkpt>
      <trkpt lat="45.74029" lon="4.51873">
        <ele>387.19696044922</ele>
        <time>2016-05-15T08:08:46.000Z</time>
      </trkpt>
      <trkpt lat="45.74031" lon="4.5188">
        <ele>390.75030517578</ele>
        <time>2016-05-15T08:08:50.000Z</time>
      </trkpt>
      <trkpt lat="45.74032" lon="4.51883">
        <ele>391.58532714844</ele>
        <time>2016-05-15T08:08:52.000Z</time>
      </trkpt>
      <trkpt lat="45.74033" lon="4.51886">
        <ele>391.70553588867</ele>
        <time>2016-05-15T08:08:54.000Z</time>
      </trkpt>
      <trkpt lat="45.74033" lon="4.5189">
        <ele>391.5227355957</ele>
        <time>2016-05-15T08:08:56.000Z</time>
      </trkpt>
      <trkpt lat="45.74035" lon="4.51896">
        <ele>391.42730712891</ele>
        <time>2016-05-15T08:09:00.000Z</time>
      </trkpt>
      <trkpt lat="45.74037" lon="4.51904">
        <ele>392.14895629883</ele>
        <time>2016-05-15T08:09:04.000Z</time>
      </trkpt>
      <trkpt lat="45.7404" lon="4.51912">
        <ele>393.70904541016</ele>
        <time>2016-05-15T08:09:08.000Z</time>
      </trkpt>
      <trkpt lat="45.74041" lon="4.51916">
        <ele>394.78070068359</ele>
        <time>2016-05-15T08:09:10.000Z</time>
      </trkpt>
      <trkpt lat="45.74043" lon="4.51924">
        <ele>393.9914855957</ele>
        <time>2016-05-15T08:09:14.000Z</time>
      </trkpt>
      <trkpt lat="45.74044" lon="4.51932">
        <ele>393.46124267578</ele>
        <time>2016-05-15T08:09:18.000Z</time>
      </trkpt>
      <trkpt lat="45.74045" lon="4.51937">
        <ele>393.10168457031</ele>
        <time>2016-05-15T08:09:20.000Z</time>
      </trkpt>
      <trkpt lat="45.74046" lon="4.5194">
        <ele>393.65258789062</ele>
        <time>2016-05-15T08:09:22.000Z</time>
      </trkpt>
      <trkpt lat="45.74047" lon="4.51947">
        <ele>395.21865844727</ele>
        <time>2016-05-15T08:09:26.000Z</time>
      </trkpt>
      <trkpt lat="45.74048" lon="4.51952">
        <ele>396.15878295898</ele>
        <time>2016-05-15T08:09:28.000Z</time>
      </trkpt>
      <trkpt lat="45.74049" lon="4.51959">
        <ele>397.03219604492</ele>
        <time>2016-05-15T08:09:30.000Z</time>
      </trkpt>
      <trkpt lat="45.7405" lon="4.5197">
        <ele>397.91860961914</ele>
        <time>2016-05-15T08:09:32.000Z</time>
      </trkpt>
      <trkpt lat="45.74052" lon="4.5199">
        <ele>395.5173034668</ele>
        <time>2016-05-15T08:09:35.000Z</time>
      </trkpt>
      <trkpt lat="45.74054" lon="4.52007">
        <ele>393.66058349609</ele>
        <time>2016-05-15T08:09:37.000Z</time>
      </trkpt>
      <trkpt lat="45.74058" lon="4.5202">
        <ele>393.69305419922</ele>
        <time>2016-05-15T08:09:39.000Z</time>
      </trkpt>
      <trkpt lat="45.74067" lon="4.52034">
        <ele>392.64303588867</ele>
        <time>2016-05-15T08:09:42.000Z</time>
      </trkpt>
      <trkpt lat="45.74073" lon="4.52041">
        <ele>392.26873779297</ele>
        <time>2016-05-15T08:09:44.000Z</time>
      </trkpt>
      <trkpt lat="45.74081" lon="4.52051">
        <ele>391.27294921875</ele>
        <time>2016-05-15T08:09:48.000Z</time>
      </trkpt>
      <trkpt lat="45.74081" lon="4.52066">
        <ele>391.24166870117</ele>
        <time>2016-05-15T08:09:51.000Z</time>
      </trkpt>
      <trkpt lat="45.7408" lon="4.52073">
        <ele>391.17874145508</ele>
        <time>2016-05-15T08:09:53.000Z</time>
      </trkpt>
      <trkpt lat="45.74078" lon="4.52081">
        <ele>391.74520874023</ele>
        <time>2016-05-15T08:09:55.000Z</time>
      </trkpt>
      <trkpt lat="45.74073" lon="4.52097">
        <ele>392.49356079102</ele>
        <time>2016-05-15T08:09:58.000Z</time>
      </trkpt>
      <trkpt lat="45.74068" lon="4.52112">
        <ele>392.34777832031</ele>
        <time>2016-05-15T08:10:00.000Z</time>
      </trkpt>
      <trkpt lat="45.74065" lon="4.52125">
        <ele>392.62258911133</ele>
        <time>2016-05-15T08:10:02.000Z</time>
      </trkpt>
      <trkpt lat="45.74059" lon="4.52141">
        <ele>392.42022705078</ele>
        <time>2016-05-15T08:10:05.000Z</time>
      </trkpt>
      <trkpt lat="45.74055" lon="4.52152">
        <ele>393.66278076172</ele>
        <time>2016-05-15T08:10:07.000Z</time>
      </trkpt>
      <trkpt lat="45.74051" lon="4.52168">
        <ele>393.81311035156</ele>
        <time>2016-05-15T08:10:10.000Z</time>
      </trkpt>
      <trkpt lat="45.74048" lon="4.52178">
        <ele>392.90237426758</ele>
        <time>2016-05-15T08:10:12.000Z</time>
      </trkpt>
      <trkpt lat="45.74046" lon="4.52188">
        <ele>392.81304931641</ele>
        <time>2016-05-15T08:10:14.000Z</time>
      </trkpt>
      <trkpt lat="45.74045" lon="4.52204">
        <ele>393.11401367188</ele>
        <time>2016-05-15T08:10:16.000Z</time>
      </trkpt>
      <trkpt lat="45.74047" lon="4.5223">
        <ele>392.3903503418</ele>
        <time>2016-05-15T08:10:19.000Z</time>
      </trkpt>
      <trkpt lat="45.74053" lon="4.52247">
        <ele>392.22473144531</ele>
        <time>2016-05-15T08:10:24.000Z</time>
      </trkpt>
      <trkpt lat="45.74055" lon="4.52252">
        <ele>392.6637878418</ele>
        <time>2016-05-15T08:10:26.000Z</time>
      </trkpt>
      <trkpt lat="45.74059" lon="4.52261">
        <ele>393.45782470703</ele>
        <time>2016-05-15T08:10:29.000Z</time>
      </trkpt>
      <trkpt lat="45.74062" lon="4.52268">
        <ele>393.38452148438</ele>
        <time>2016-05-15T08:10:31.000Z</time>
      </trkpt>
      <trkpt lat="45.74067" lon="4.52274">
        <ele>393.38433837891</ele>
        <time>2016-05-15T08:10:33.000Z</time>
      </trkpt>
      <trkpt lat="45.74071" lon="4.5228">
        <ele>393.42150878906</ele>
        <time>2016-05-15T08:10:35.000Z</time>
      </trkpt>
      <trkpt lat="45.74076" lon="4.52288">
        <ele>393.03945922852</ele>
        <time>2016-05-15T08:10:38.000Z</time>
      </trkpt>
      <trkpt lat="45.7408" lon="4.52295">
        <ele>392.41754150391</ele>
        <time>2016-05-15T08:10:40.000Z</time>
      </trkpt>
      <trkpt lat="45.74084" lon="4.52306">
        <ele>392.07580566406</ele>
        <time>2016-05-15T08:10:43.000Z</time>
      </trkpt>
      <trkpt lat="45.74088" lon="4.52313">
        <ele>392.15612792969</ele>
        <time>2016-05-15T08:10:45.000Z</time>
      </trkpt>
      <trkpt lat="45.74095" lon="4.52322">
        <ele>392.01232910156</ele>
        <time>2016-05-15T08:10:48.000Z</time>
      </trkpt>
      <trkpt lat="45.74102" lon="4.52325">
        <ele>391.77841186523</ele>
        <time>2016-05-15T08:10:50.000Z</time>
      </trkpt>
      <trkpt lat="45.74113" lon="4.52327">
        <ele>391.58862304688</ele>
        <time>2016-05-15T08:10:53.000Z</time>
      </trkpt>
      <trkpt lat="45.74121" lon="4.52329">
        <ele>391.63586425781</ele>
        <time>2016-05-15T08:10:55.000Z</time>
      </trkpt>
      <trkpt lat="45.74129" lon="4.52334">
        <ele>391.5534362793</ele>
        <time>2016-05-15T08:10:57.000Z</time>
      </trkpt>
      <trkpt lat="45.74147" lon="4.52343">
        <ele>390.70309448242</ele>
        <time>2016-05-15T08:11:00.000Z</time>
      </trkpt>
      <trkpt lat="45.7416" lon="4.52347">
        <ele>390.56341552734</ele>
        <time>2016-05-15T08:11:02.000Z</time>
      </trkpt>
      <trkpt lat="45.74173" lon="4.52351">
        <ele>390.3459777832</ele>
        <time>2016-05-15T08:11:04.000Z</time>
      </trkpt>
      <trkpt lat="45.74194" lon="4.52357">
        <ele>391.44955444336</ele>
        <time>2016-05-15T08:11:07.000Z</time>
      </trkpt>
      <trkpt lat="45.74208" lon="4.52359">
        <ele>390.92080688477</ele>
        <time>2016-05-15T08:11:09.000Z</time>
      </trkpt>
      <trkpt lat="45.7422" lon="4.52362">
        <ele>389.83352661133</ele>
        <time>2016-05-15T08:11:11.000Z</time>
      </trkpt>
      <trkpt lat="45.74228" lon="4.52365">
        <ele>390.00119018555</ele>
        <time>2016-05-15T08:11:13.000Z</time>
      </trkpt>
      <trkpt lat="45.74243" lon="4.52367">
        <ele>390.61972045898</ele>
        <time>2016-05-15T08:11:17.000Z</time>
      </trkpt>
      <trkpt lat="45.74251" lon="4.52365">
        <ele>390.76416015625</ele>
        <time>2016-05-15T08:11:21.000Z</time>
      </trkpt>
      <trkpt lat="45.74257" lon="4.52362">
        <ele>390.77139282227</ele>
        <time>2016-05-15T08:11:24.000Z</time>
      </trkpt>
      <trkpt lat="45.74263" lon="4.52359">
        <ele>391.11669921875</ele>
        <time>2016-05-15T08:11:26.000Z</time>
      </trkpt>
      <trkpt lat="45.74266" lon="4.52359">
        <ele>391.25076293945</ele>
        <time>2016-05-15T08:11:28.000Z</time>
      </trkpt>
      <trkpt lat="45.7427" lon="4.52361">
        <ele>391.22573852539</ele>
        <time>2016-05-15T08:11:32.000Z</time>
      </trkpt>
      <trkpt lat="45.74271" lon="4.52364">
        <ele>391.25085449219</ele>
        <time>2016-05-15T08:11:34.000Z</time>
      </trkpt>
      <trkpt lat="45.74273" lon="4.52376">
        <ele>392.0309753418</ele>
        <time>2016-05-15T08:11:38.000Z</time>
      </trkpt>
      <trkpt lat="45.74274" lon="4.52381">
        <ele>392.5485534668</ele>
        <time>2016-05-15T08:11:40.000Z</time>
      </trkpt>
      <trkpt lat="45.74274" lon="4.52389">
        <ele>392.39120483398</ele>
        <time>2016-05-15T08:11:51.000Z</time>
      </trkpt>
      <trkpt lat="45.74275" lon="4.52392">
        <ele>393.78305053711</ele>
        <time>2016-05-15T08:15:15.000Z</time>
      </trkpt>
      <trkpt lat="45.74274" lon="4.52394">
        <ele>395.47561645508</ele>
        <time>2016-05-15T08:15:19.000Z</time>
      </trkpt>
      <trkpt lat="45.74274" lon="4.52399">
        <ele>397.1501159668</ele>
        <time>2016-05-15T08:15:22.000Z</time>
      </trkpt>
      <trkpt lat="45.74272" lon="4.52412">
        <ele>398.83520507812</ele>
        <time>2016-05-15T08:15:25.000Z</time>
      </trkpt>
      <trkpt lat="45.74279" lon="4.52471">
        <ele>394.78759765625</ele>
        <time>2016-05-15T08:15:30.000Z</time>
      </trkpt>
      <trkpt lat="45.74284" lon="4.52483">
        <ele>394.49404907227</ele>
        <time>2016-05-15T08:15:32.000Z</time>
      </trkpt>
      <trkpt lat="45.7429" lon="4.52493">
        <ele>394.65850830078</ele>
        <time>2016-05-15T08:15:34.000Z</time>
      </trkpt>
      <trkpt lat="45.74294" lon="4.52501">
        <ele>394.71752929688</ele>
        <time>2016-05-15T08:15:36.000Z</time>
      </trkpt>
      <trkpt lat="45.74302" lon="4.52514">
        <ele>394.34860229492</ele>
        <time>2016-05-15T08:15:39.000Z</time>
      </trkpt>
      <trkpt lat="45.74311" lon="4.52527">
        <ele>394.17495727539</ele>
        <time>2016-05-15T08:15:42.000Z</time>
      </trkpt>
      <trkpt lat="45.74317" lon="4.52536">
        <ele>394.02618408203</ele>
        <time>2016-05-15T08:15:44.000Z</time>
      </trkpt>
      <trkpt lat="45.74323" lon="4.52543">
        <ele>394.1139831543</ele>
        <time>2016-05-15T08:15:46.000Z</time>
      </trkpt>
      <trkpt lat="45.74332" lon="4.52554">
        <ele>393.37490844727</ele>
        <time>2016-05-15T08:15:49.000Z</time>
      </trkpt>
      <trkpt lat="45.74338" lon="4.52561">
        <ele>393.85430908203</ele>
        <time>2016-05-15T08:15:51.000Z</time>
      </trkpt>
      <trkpt lat="45.74344" lon="4.5257">
        <ele>394.74038696289</ele>
        <time>2016-05-15T08:15:55.000Z</time>
      </trkpt>
      <trkpt lat="45.74351" lon="4.52576">
        <ele>395.51696777344</ele>
        <time>2016-05-15T08:15:59.000Z</time>
      </trkpt>
      <trkpt lat="45.74354" lon="4.52578">
        <ele>395.52487182617</ele>
        <time>2016-05-15T08:16:01.000Z</time>
      </trkpt>
      <trkpt lat="45.74358" lon="4.5258">
        <ele>395.93826293945</ele>
        <time>2016-05-15T08:16:03.000Z</time>
      </trkpt>
      <trkpt lat="45.74368" lon="4.52584">
        <ele>397.55145263672</ele>
        <time>2016-05-15T08:16:07.000Z</time>
      </trkpt>
      <trkpt lat="45.74374" lon="4.52587">
        <ele>398.00061035156</ele>
        <time>2016-05-15T08:16:10.000Z</time>
      </trkpt>
      <trkpt lat="45.7438" lon="4.52591">
        <ele>399.85275268555</ele>
        <time>2016-05-15T08:16:13.000Z</time>
      </trkpt>
      <trkpt lat="45.74384" lon="4.52593">
        <ele>400.48809814453</ele>
        <time>2016-05-15T08:16:15.000Z</time>
      </trkpt>
      <trkpt lat="45.74387" lon="4.52596">
        <ele>400.39208984375</ele>
        <time>2016-05-15T08:16:18.000Z</time>
      </trkpt>
      <trkpt lat="45.7439" lon="4.52598">
        <ele>401.20327758789</ele>
        <time>2016-05-15T08:16:21.000Z</time>
      </trkpt>
      <trkpt lat="45.74396" lon="4.52601">
        <ele>403.63455200195</ele>
        <time>2016-05-15T08:16:25.000Z</time>
      </trkpt>
      <trkpt lat="45.74403" lon="4.52603">
        <ele>405.6301574707</ele>
        <time>2016-05-15T08:16:29.000Z</time>
      </trkpt>
      <trkpt lat="45.74413" lon="4.52605">
        <ele>406.10525512695</ele>
        <time>2016-05-15T08:16:33.000Z</time>
      </trkpt>
      <trkpt lat="45.74416" lon="4.52606">
        <ele>406.62399291992</ele>
        <time>2016-05-15T08:16:42.000Z</time>
      </trkpt>
      <trkpt lat="45.7442" lon="4.52608">
        <ele>406.57192993164</ele>
        <time>2016-05-15T08:16:46.000Z</time>
      </trkpt>
      <trkpt lat="45.74424" lon="4.52611">
        <ele>407.13519287109</ele>
        <time>2016-05-15T08:16:48.000Z</time>
      </trkpt>
      <trkpt lat="45.74432" lon="4.52618">
        <ele>408.42807006836</ele>
        <time>2016-05-15T08:16:51.000Z</time>
      </trkpt>
      <trkpt lat="45.74437" lon="4.52621">
        <ele>407.20291137695</ele>
        <time>2016-05-15T08:16:53.000Z</time>
      </trkpt>
      <trkpt lat="45.74443" lon="4.52624">
        <ele>407.79022216797</ele>
        <time>2016-05-15T08:16:56.000Z</time>
      </trkpt>
      <trkpt lat="45.7445" lon="4.52626">
        <ele>410.57727050781</ele>
        <time>2016-05-15T08:16:59.000Z</time>
      </trkpt>
      <trkpt lat="45.74456" lon="4.52627">
        <ele>411.88192749023</ele>
        <time>2016-05-15T08:17:02.000Z</time>
      </trkpt>
      <trkpt lat="45.74459" lon="4.52627">
        <ele>412.7366027832</ele>
        <time>2016-05-15T08:17:04.000Z</time>
      </trkpt>
      <trkpt lat="45.74462" lon="4.52627">
        <ele>414.28985595703</ele>
        <time>2016-05-15T08:17:06.000Z</time>
      </trkpt>
      <trkpt lat="45.74465" lon="4.52626">
        <ele>415.71127319336</ele>
        <time>2016-05-15T08:17:09.000Z</time>
      </trkpt>
      <trkpt lat="45.74471" lon="4.52622">
        <ele>416.83624267578</ele>
        <time>2016-05-15T08:17:13.000Z</time>
      </trkpt>
      <trkpt lat="45.74476" lon="4.52618">
        <ele>416.4655456543</ele>
        <time>2016-05-15T08:17:17.000Z</time>
      </trkpt>
      <trkpt lat="45.74479" lon="4.52616">
        <ele>416.57113647461</ele>
        <time>2016-05-15T08:17:19.000Z</time>
      </trkpt>
      <trkpt lat="45.74481" lon="4.52614">
        <ele>416.67034912109</ele>
        <time>2016-05-15T08:17:21.000Z</time>
      </trkpt>
      <trkpt lat="45.74487" lon="4.52609">
        <ele>417.4987487793</ele>
        <time>2016-05-15T08:17:25.000Z</time>
      </trkpt>
      <trkpt lat="45.74489" lon="4.52608">
        <ele>417.5124206543</ele>
        <time>2016-05-15T08:17:28.000Z</time>
      </trkpt>
      <trkpt lat="45.74492" lon="4.52608">
        <ele>418.19955444336</ele>
        <time>2016-05-15T08:17:31.000Z</time>
      </trkpt>
      <trkpt lat="45.74494" lon="4.52607">
        <ele>418.32366943359</ele>
        <time>2016-05-15T08:17:33.000Z</time>
      </trkpt>
      <trkpt lat="45.745" lon="4.52602">
        <ele>419.13000488281</ele>
        <time>2016-05-15T08:17:37.000Z</time>
      </trkpt>
      <trkpt lat="45.74506" lon="4.52594">
        <ele>419.31304931641</ele>
        <time>2016-05-15T08:17:40.000Z</time>
      </trkpt>
      <trkpt lat="45.7451" lon="4.52588">
        <ele>419.61553955078</ele>
        <time>2016-05-15T08:17:43.000Z</time>
      </trkpt>
      <trkpt lat="45.74512" lon="4.52584">
        <ele>419.50177001953</ele>
        <time>2016-05-15T08:17:45.000Z</time>
      </trkpt>
      <trkpt lat="45.74517" lon="4.52577">
        <ele>419.4970703125</ele>
        <time>2016-05-15T08:17:48.000Z</time>
      </trkpt>
      <trkpt lat="45.7452" lon="4.52573">
        <ele>419.80657958984</ele>
        <time>2016-05-15T08:17:50.000Z</time>
      </trkpt>
      <trkpt lat="45.74527" lon="4.52565">
        <ele>420.82897949219</ele>
        <time>2016-05-15T08:17:53.000Z</time>
      </trkpt>
      <trkpt lat="45.74531" lon="4.5256">
        <ele>421.09622192383</ele>
        <time>2016-05-15T08:17:56.000Z</time>
      </trkpt>
      <trkpt lat="45.74538" lon="4.52551">
        <ele>421.52795410156</ele>
        <time>2016-05-15T08:18:00.000Z</time>
      </trkpt>
      <trkpt lat="45.74543" lon="4.52544">
        <ele>421.74795532227</ele>
        <time>2016-05-15T08:18:03.000Z</time>
      </trkpt>
      <trkpt lat="45.74546" lon="4.52539">
        <ele>422.0869140625</ele>
        <time>2016-05-15T08:18:05.000Z</time>
      </trkpt>
      <trkpt lat="45.74549" lon="4.52535">
        <ele>422.65512084961</ele>
        <time>2016-05-15T08:18:07.000Z</time>
      </trkpt>
      <trkpt lat="45.74553" lon="4.52531">
        <ele>423.3088684082</ele>
        <time>2016-05-15T08:18:09.000Z</time>
      </trkpt>
      <trkpt lat="45.74559" lon="4.52527">
        <ele>423.00784301758</ele>
        <time>2016-05-15T08:18:11.000Z</time>
      </trkpt>
      <trkpt lat="45.74568" lon="4.52523">
        <ele>420.50268554688</ele>
        <time>2016-05-15T08:18:14.000Z</time>
      </trkpt>
      <trkpt lat="45.74572" lon="4.52522">
        <ele>417.72857666016</ele>
        <time>2016-05-15T08:18:16.000Z</time>
      </trkpt>
      <trkpt lat="45.74576" lon="4.52522">
        <ele>416.44912719727</ele>
        <time>2016-05-15T08:18:18.000Z</time>
      </trkpt>
      <trkpt lat="45.74582" lon="4.52521">
        <ele>415.64343261719</ele>
        <time>2016-05-15T08:18:20.000Z</time>
      </trkpt>
      <trkpt lat="45.74589" lon="4.52521">
        <ele>415.05999755859</ele>
        <time>2016-05-15T08:18:23.000Z</time>
      </trkpt>
      <trkpt lat="45.74592" lon="4.52522">
        <ele>414.87786865234</ele>
        <time>2016-05-15T08:18:25.000Z</time>
      </trkpt>
      <trkpt lat="45.74596" lon="4.52522">
        <ele>414.66635131836</ele>
        <time>2016-05-15T08:18:28.000Z</time>
      </trkpt>
      <trkpt lat="45.74602" lon="4.52524">
        <ele>415.61996459961</ele>
        <time>2016-05-15T08:18:31.000Z</time>
      </trkpt>
      <trkpt lat="45.74605" lon="4.52525">
        <ele>415.75918579102</ele>
        <time>2016-05-15T08:18:33.000Z</time>
      </trkpt>
      <trkpt lat="45.74611" lon="4.52527">
        <ele>415.58743286133</ele>
        <time>2016-05-15T08:18:37.000Z</time>
      </trkpt>
      <trkpt lat="45.74613" lon="4.52528">
        <ele>415.3376159668</ele>
        <time>2016-05-15T08:18:39.000Z</time>
      </trkpt>
      <trkpt lat="45.74615" lon="4.52529">
        <ele>415.73373413086</ele>
        <time>2016-05-15T08:18:42.000Z</time>
      </trkpt>
      <trkpt lat="45.74619" lon="4.52531">
        <ele>417.5637512207</ele>
        <time>2016-05-15T08:18:45.000Z</time>
      </trkpt>
      <trkpt lat="45.74624" lon="4.52533">
        <ele>420.29623413086</ele>
        <time>2016-05-15T08:18:49.000Z</time>
      </trkpt>
      <trkpt lat="45.74629" lon="4.52533">
        <ele>422.49612426758</ele>
        <time>2016-05-15T08:18:53.000Z</time>
      </trkpt>
      <trkpt lat="45.74635" lon="4.52534">
        <ele>423.45346069336</ele>
        <time>2016-05-15T08:18:57.000Z</time>
      </trkpt>
      <trkpt lat="45.74638" lon="4.52534">
        <ele>423.94213867188</ele>
        <time>2016-05-15T08:18:59.000Z</time>
      </trkpt>
      <trkpt lat="45.74641" lon="4.52534">
        <ele>424.57168579102</ele>
        <time>2016-05-15T08:19:01.000Z</time>
      </trkpt>
      <trkpt lat="45.74647" lon="4.52534">
        <ele>425.81692504883</ele>
        <time>2016-05-15T08:19:05.000Z</time>
      </trkpt>
      <trkpt lat="45.74652" lon="4.52534">
        <ele>426.50497436523</ele>
        <time>2016-05-15T08:19:10.000Z</time>
      </trkpt>
      <trkpt lat="45.74657" lon="4.52535">
        <ele>427.01507568359</ele>
        <time>2016-05-15T08:19:15.000Z</time>
      </trkpt>
      <trkpt lat="45.7466" lon="4.52535">
        <ele>427.62689208984</ele>
        <time>2016-05-15T08:19:18.000Z</time>
      </trkpt>
      <trkpt lat="45.74669" lon="4.52536">
        <ele>430.8551940918</ele>
        <time>2016-05-15T08:19:22.000Z</time>
      </trkpt>
      <trkpt lat="45.74674" lon="4.52534">
        <ele>432.75277709961</ele>
        <time>2016-05-15T08:19:26.000Z</time>
      </trkpt>
      <trkpt lat="45.74677" lon="4.52533">
        <ele>433.91680908203</ele>
        <time>2016-05-15T08:19:28.000Z</time>
      </trkpt>
      <trkpt lat="45.74679" lon="4.52532">
        <ele>434.35314941406</ele>
        <time>2016-05-15T08:19:32.000Z</time>
      </trkpt>
      <trkpt lat="45.74682" lon="4.5253">
        <ele>434.03424072266</ele>
        <time>2016-05-15T08:19:35.000Z</time>
      </trkpt>
      <trkpt lat="45.74687" lon="4.52524">
        <ele>434.09378051758</ele>
        <time>2016-05-15T08:19:39.000Z</time>
      </trkpt>
      <trkpt lat="45.74689" lon="4.52522">
        <ele>434.00354003906</ele>
        <time>2016-05-15T08:19:41.000Z</time>
      </trkpt>
      <trkpt lat="45.74694" lon="4.52517">
        <ele>434.42523193359</ele>
        <time>2016-05-15T08:19:45.000Z</time>
      </trkpt>
      <trkpt lat="45.74699" lon="4.52513">
        <ele>436.10113525391</ele>
        <time>2016-05-15T08:19:49.000Z</time>
      </trkpt>
      <trkpt lat="45.74702" lon="4.5251">
        <ele>438.34381103516</ele>
        <time>2016-05-15T08:19:53.000Z</time>
      </trkpt>
      <trkpt lat="45.74704" lon="4.52507">
        <ele>439.51693725586</ele>
        <time>2016-05-15T08:19:57.000Z</time>
      </trkpt>
      <trkpt lat="45.74706" lon="4.52504">
        <ele>440.50280761719</ele>
        <time>2016-05-15T08:20:03.000Z</time>
      </trkpt>
      <trkpt lat="45.74711" lon="4.52499">
        <ele>442.92691040039</ele>
        <time>2016-05-15T08:20:07.000Z</time>
      </trkpt>
      <trkpt lat="45.74716" lon="4.52494">
        <ele>444.1725769043</ele>
        <time>2016-05-15T08:20:16.000Z</time>
      </trkpt>
      <trkpt lat="45.74718" lon="4.52493">
        <ele>444.62161254883</ele>
        <time>2016-05-15T08:20:23.000Z</time>
      </trkpt>
      <trkpt lat="45.74722" lon="4.52492">
        <ele>446.03533935547</ele>
        <time>2016-05-15T08:20:25.000Z</time>
      </trkpt>
      <trkpt lat="45.74726" lon="4.52492">
        <ele>447.27319335938</ele>
        <time>2016-05-15T08:20:27.000Z</time>
      </trkpt>
      <trkpt lat="45.74735" lon="4.52492">
        <ele>448.16857910156</ele>
        <time>2016-05-15T08:20:30.000Z</time>
      </trkpt>
      <trkpt lat="45.74741" lon="4.5249">
        <ele>449.05206298828</ele>
        <time>2016-05-15T08:20:32.000Z</time>
      </trkpt>
      <trkpt lat="45.74748" lon="4.5249">
        <ele>450.75149536133</ele>
        <time>2016-05-15T08:20:36.000Z</time>
      </trkpt>
      <trkpt lat="45.74754" lon="4.5249">
        <ele>453.3161315918</ele>
        <time>2016-05-15T08:20:41.000Z</time>
      </trkpt>
      <trkpt lat="45.74758" lon="4.52489">
        <ele>454.7734375</ele>
        <time>2016-05-15T08:20:43.000Z</time>
      </trkpt>
      <trkpt lat="45.74765" lon="4.52487">
        <ele>456.06350708008</ele>
        <time>2016-05-15T08:20:47.000Z</time>
      </trkpt>
      <trkpt lat="45.74768" lon="4.52485">
        <ele>456.16583251953</ele>
        <time>2016-05-15T08:20:49.000Z</time>
      </trkpt>
      <trkpt lat="45.74773" lon="4.52481">
        <ele>456.29971313477</ele>
        <time>2016-05-15T08:20:53.000Z</time>
      </trkpt>
      <trkpt lat="45.74775" lon="4.52479">
        <ele>456.52612304688</ele>
        <time>2016-05-15T08:20:55.000Z</time>
      </trkpt>
      <trkpt lat="45.74779" lon="4.52473">
        <ele>456.95166015625</ele>
        <time>2016-05-15T08:20:59.000Z</time>
      </trkpt>
      <trkpt lat="45.74783" lon="4.52467">
        <ele>457.48373413086</ele>
        <time>2016-05-15T08:21:02.000Z</time>
      </trkpt>
      <trkpt lat="45.74786" lon="4.52464">
        <ele>457.71188354492</ele>
        <time>2016-05-15T08:21:04.000Z</time>
      </trkpt>
      <trkpt lat="45.74792" lon="4.52458">
        <ele>458.18701171875</ele>
        <time>2016-05-15T08:21:08.000Z</time>
      </trkpt>
      <trkpt lat="45.74795" lon="4.52456">
        <ele>458.22549438477</ele>
        <time>2016-05-15T08:21:10.000Z</time>
      </trkpt>
      <trkpt lat="45.74798" lon="4.52455">
        <ele>458.10336303711</ele>
        <time>2016-05-15T08:21:12.000Z</time>
      </trkpt>
      <trkpt lat="45.74804" lon="4.52452">
        <ele>457.68005371094</ele>
        <time>2016-05-15T08:21:15.000Z</time>
      </trkpt>
      <trkpt lat="45.74808" lon="4.52451">
        <ele>456.70428466797</ele>
        <time>2016-05-15T08:21:17.000Z</time>
      </trkpt>
      <trkpt lat="45.74814" lon="4.52448">
        <ele>455.13815307617</ele>
        <time>2016-05-15T08:21:21.000Z</time>
      </trkpt>
      <trkpt lat="45.74818" lon="4.52447">
        <ele>454.48837280273</ele>
        <time>2016-05-15T08:21:23.000Z</time>
      </trkpt>
      <trkpt lat="45.74826" lon="4.52445">
        <ele>453.9404296875</ele>
        <time>2016-05-15T08:21:26.000Z</time>
      </trkpt>
      <trkpt lat="45.74831" lon="4.52443">
        <ele>453.86227416992</ele>
        <time>2016-05-15T08:21:28.000Z</time>
      </trkpt>
      <trkpt lat="45.74842" lon="4.52436">
        <ele>452.26693725586</ele>
        <time>2016-05-15T08:21:31.000Z</time>
      </trkpt>
      <trkpt lat="45.74856" lon="4.52427">
        <ele>453.66799926758</ele>
        <time>2016-05-15T08:21:34.000Z</time>
      </trkpt>
      <trkpt lat="45.74867" lon="4.52415">
        <ele>454.49377441406</ele>
        <time>2016-05-15T08:21:36.000Z</time>
      </trkpt>
      <trkpt lat="45.74881" lon="4.52392">
        <ele>454.26528930664</ele>
        <time>2016-05-15T08:21:39.000Z</time>
      </trkpt>
      <trkpt lat="45.74885" lon="4.52375">
        <ele>454.63720703125</ele>
        <time>2016-05-15T08:21:41.000Z</time>
      </trkpt>
      <trkpt lat="45.74892" lon="4.52343">
        <ele>452.82797241211</ele>
        <time>2016-05-15T08:21:44.000Z</time>
      </trkpt>
      <trkpt lat="45.74894" lon="4.52318">
        <ele>450.6240234375</ele>
        <time>2016-05-15T08:21:47.000Z</time>
      </trkpt>
      <trkpt lat="45.74898" lon="4.52298">
        <ele>449.8515625</ele>
        <time>2016-05-15T08:21:49.000Z</time>
      </trkpt>
      <trkpt lat="45.74902" lon="4.52281">
        <ele>449.90161132812</ele>
        <time>2016-05-15T08:21:51.000Z</time>
      </trkpt>
      <trkpt lat="45.74913" lon="4.52261">
        <ele>450.25149536133</ele>
        <time>2016-05-15T08:21:54.000Z</time>
      </trkpt>
      <trkpt lat="45.74931" lon="4.52254">
        <ele>449.44226074219</ele>
        <time>2016-05-15T08:21:57.000Z</time>
      </trkpt>
      <trkpt lat="45.7494" lon="4.5226">
        <ele>447.9704284668</ele>
        <time>2016-05-15T08:21:59.000Z</time>
      </trkpt>
      <trkpt lat="45.74952" lon="4.52302">
        <ele>447.44174194336</ele>
        <time>2016-05-15T08:22:03.000Z</time>
      </trkpt>
      <trkpt lat="45.74965" lon="4.52312">
        <ele>447.0537109375</ele>
        <time>2016-05-15T08:22:05.000Z</time>
      </trkpt>
      <trkpt lat="45.74976" lon="4.52318">
        <ele>446.66247558594</ele>
        <time>2016-05-15T08:22:07.000Z</time>
      </trkpt>
      <trkpt lat="45.74989" lon="4.52319">
        <ele>446.8288269043</ele>
        <time>2016-05-15T08:22:10.000Z</time>
      </trkpt>
      <trkpt lat="45.74999" lon="4.52321">
        <ele>447.29650878906</ele>
        <time>2016-05-15T08:22:12.000Z</time>
      </trkpt>
      <trkpt lat="45.75008" lon="4.52323">
        <ele>447.51312255859</ele>
        <time>2016-05-15T08:22:14.000Z</time>
      </trkpt>
      <trkpt lat="45.75016" lon="4.52325">
        <ele>448.18078613281</ele>
        <time>2016-05-15T08:22:17.000Z</time>
      </trkpt>
      <trkpt lat="45.75019" lon="4.52327">
        <ele>447.99417114258</ele>
        <time>2016-05-15T08:22:19.000Z</time>
      </trkpt>
      <trkpt lat="45.75026" lon="4.52332">
        <ele>446.42587280273</ele>
        <time>2016-05-15T08:22:23.000Z</time>
      </trkpt>
      <trkpt lat="45.75028" lon="4.52335">
        <ele>445.94271850586</ele>
        <time>2016-05-15T08:22:25.000Z</time>
      </trkpt>
      <trkpt lat="45.75033" lon="4.5234">
        <ele>445.45120239258</ele>
        <time>2016-05-15T08:22:29.000Z</time>
      </trkpt>
      <trkpt lat="45.75038" lon="4.52346">
        <ele>445.73028564453</ele>
        <time>2016-05-15T08:22:33.000Z</time>
      </trkpt>
      <trkpt lat="45.75044" lon="4.52353">
        <ele>446.42227172852</ele>
        <time>2016-05-15T08:22:37.000Z</time>
      </trkpt>
      <trkpt lat="45.75046" lon="4.52356">
        <ele>446.87771606445</ele>
        <time>2016-05-15T08:22:39.000Z</time>
      </trkpt>
      <trkpt lat="45.75051" lon="4.5236">
        <ele>448.25454711914</ele>
        <time>2016-05-15T08:22:44.000Z</time>
      </trkpt>
      <trkpt lat="45.75057" lon="4.52364">
        <ele>449.30871582031</ele>
        <time>2016-05-15T08:22:48.000Z</time>
      </trkpt>
      <trkpt lat="45.75059" lon="4.52365">
        <ele>449.58166503906</ele>
        <time>2016-05-15T08:22:50.000Z</time>
      </trkpt>
      <trkpt lat="45.75062" lon="4.52367">
        <ele>449.68121337891</ele>
        <time>2016-05-15T08:22:52.000Z</time>
      </trkpt>
      <trkpt lat="45.75065" lon="4.52368">
        <ele>449.4821472168</ele>
        <time>2016-05-15T08:22:54.000Z</time>
      </trkpt>
      <trkpt lat="45.75072" lon="4.52372">
        <ele>450.02603149414</ele>
        <time>2016-05-15T08:22:58.000Z</time>
      </trkpt>
      <trkpt lat="45.75075" lon="4.52373">
        <ele>451.2956237793</ele>
        <time>2016-05-15T08:23:00.000Z</time>
      </trkpt>
      <trkpt lat="45.75078" lon="4.52374">
        <ele>452.16424560547</ele>
        <time>2016-05-15T08:23:02.000Z</time>
      </trkpt>
      <trkpt lat="45.75085" lon="4.52376">
        <ele>452.19064331055</ele>
        <time>2016-05-15T08:23:06.000Z</time>
      </trkpt>
      <trkpt lat="45.75089" lon="4.52377">
        <ele>452.4914855957</ele>
        <time>2016-05-15T08:23:08.000Z</time>
      </trkpt>
      <trkpt lat="45.75092" lon="4.52377">
        <ele>452.97540283203</ele>
        <time>2016-05-15T08:23:10.000Z</time>
      </trkpt>
      <trkpt lat="45.75098" lon="4.52379">
        <ele>454.56240844727</ele>
        <time>2016-05-15T08:23:14.000Z</time>
      </trkpt>
      <trkpt lat="45.75103" lon="4.5238">
        <ele>454.99551391602</ele>
        <time>2016-05-15T08:23:18.000Z</time>
      </trkpt>
      <trkpt lat="45.75106" lon="4.5238">
        <ele>454.91223144531</ele>
        <time>2016-05-15T08:23:20.000Z</time>
      </trkpt>
      <trkpt lat="45.75108" lon="4.52382">
        <ele>455.24560546875</ele>
        <time>2016-05-15T08:23:23.000Z</time>
      </trkpt>
      <trkpt lat="45.75114" lon="4.52387">
        <ele>456.04452514648</ele>
        <time>2016-05-15T08:23:27.000Z</time>
      </trkpt>
      <trkpt lat="45.75117" lon="4.52389">
        <ele>457.0891418457</ele>
        <time>2016-05-15T08:23:29.000Z</time>
      </trkpt>
      <trkpt lat="45.75123" lon="4.52389">
        <ele>459.41586303711</ele>
        <time>2016-05-15T08:23:33.000Z</time>
      </trkpt>
      <trkpt lat="45.75125" lon="4.52387">
        <ele>460.26266479492</ele>
        <time>2016-05-15T08:23:35.000Z</time>
      </trkpt>
      <trkpt lat="45.7513" lon="4.52383">
        <ele>461.30969238281</ele>
        <time>2016-05-15T08:23:39.000Z</time>
      </trkpt>
      <trkpt lat="45.75131" lon="4.5238">
        <ele>461.92303466797</ele>
        <time>2016-05-15T08:23:41.000Z</time>
      </trkpt>
      <trkpt lat="45.75134" lon="4.52374">
        <ele>462.49456787109</ele>
        <time>2016-05-15T08:23:45.000Z</time>
      </trkpt>
      <trkpt lat="45.75136" lon="4.52372">
        <ele>462.56527709961</ele>
        <time>2016-05-15T08:23:48.000Z</time>
      </trkpt>
      <trkpt lat="45.75138" lon="4.52369">
        <ele>462.171875</ele>
        <time>2016-05-15T08:23:51.000Z</time>
      </trkpt>
      <trkpt lat="45.75142" lon="4.52367">
        <ele>461.97058105469</ele>
        <time>2016-05-15T08:23:53.000Z</time>
      </trkpt>
      <trkpt lat="45.75146" lon="4.52365">
        <ele>463.974609375</ele>
        <time>2016-05-15T08:23:57.000Z</time>
      </trkpt>
      <trkpt lat="45.75149" lon="4.52364">
        <ele>464.49725341797</ele>
        <time>2016-05-15T08:23:59.000Z</time>
      </trkpt>
      <trkpt lat="45.75151" lon="4.52363">
        <ele>465.26538085938</ele>
        <time>2016-05-15T08:24:01.000Z</time>
      </trkpt>
      <trkpt lat="45.75157" lon="4.52361">
        <ele>466.78591918945</ele>
        <time>2016-05-15T08:24:05.000Z</time>
      </trkpt>
      <trkpt lat="45.75159" lon="4.5236">
        <ele>467.38482666016</ele>
        <time>2016-05-15T08:24:07.000Z</time>
      </trkpt>
      <trkpt lat="45.75165" lon="4.5236">
        <ele>468.88784790039</ele>
        <time>2016-05-15T08:24:12.000Z</time>
      </trkpt>
      <trkpt lat="45.75168" lon="4.5236">
        <ele>469.81158447266</ele>
        <time>2016-05-15T08:24:15.000Z</time>
      </trkpt>
      <trkpt lat="45.75171" lon="4.5236">
        <ele>471.33459472656</ele>
        <time>2016-05-15T08:24:18.000Z</time>
      </trkpt>
      <trkpt lat="45.75176" lon="4.5236">
        <ele>472.8703918457</ele>
        <time>2016-05-15T08:24:22.000Z</time>
      </trkpt>
      <trkpt lat="45.75183" lon="4.52361">
        <ele>474.48315429688</ele>
        <time>2016-05-15T08:24:26.000Z</time>
      </trkpt>
      <trkpt lat="45.75186" lon="4.52361">
        <ele>475.11395263672</ele>
        <time>2016-05-15T08:24:28.000Z</time>
      </trkpt>
      <trkpt lat="45.75191" lon="4.52362">
        <ele>477.39312744141</ele>
        <time>2016-05-15T08:24:32.000Z</time>
      </trkpt>
      <trkpt lat="45.75193" lon="4.52363">
        <ele>477.99853515625</ele>
        <time>2016-05-15T08:24:34.000Z</time>
      </trkpt>
      <trkpt lat="45.752" lon="4.52365">
        <ele>477.21371459961</ele>
        <time>2016-05-15T08:24:38.000Z</time>
      </trkpt>
      <trkpt lat="45.75204" lon="4.52365">
        <ele>477.62573242188</ele>
        <time>2016-05-15T08:24:41.000Z</time>
      </trkpt>
      <trkpt lat="45.75207" lon="4.52366">
        <ele>479.24481201172</ele>
        <time>2016-05-15T08:24:44.000Z</time>
      </trkpt>
      <trkpt lat="45.7521" lon="4.52366">
        <ele>480.24526977539</ele>
        <time>2016-05-15T08:24:47.000Z</time>
      </trkpt>
      <trkpt lat="45.75215" lon="4.52362">
        <ele>479.89376831055</ele>
        <time>2016-05-15T08:24:51.000Z</time>
      </trkpt>
      <trkpt lat="45.75217" lon="4.52356">
        <ele>479.30590820312</ele>
        <time>2016-05-15T08:24:53.000Z</time>
      </trkpt>
      <trkpt lat="45.75219" lon="4.52351">
        <ele>479.13314819336</ele>
        <time>2016-05-15T08:24:55.000Z</time>
      </trkpt>
      <trkpt lat="45.75219" lon="4.52342">
        <ele>478.6809387207</ele>
        <time>2016-05-15T08:24:59.000Z</time>
      </trkpt>
      <trkpt lat="45.75219" lon="4.52337">
        <ele>479.19143676758</ele>
        <time>2016-05-15T08:25:01.000Z</time>
      </trkpt>
      <trkpt lat="45.75219" lon="4.52333">
        <ele>479.55194091797</ele>
        <time>2016-05-15T08:25:03.000Z</time>
      </trkpt>
      <trkpt lat="45.75219" lon="4.52325">
        <ele>480.08276367188</ele>
        <time>2016-05-15T08:25:07.000Z</time>
      </trkpt>
      <trkpt lat="45.75218" lon="4.52321">
        <ele>480.48510742188</ele>
        <time>2016-05-15T08:25:09.000Z</time>
      </trkpt>
      <trkpt lat="45.75217" lon="4.52317">
        <ele>480.80450439453</ele>
        <time>2016-05-15T08:25:11.000Z</time>
      </trkpt>
      <trkpt lat="45.75215" lon="4.52308">
        <ele>482.02639770508</ele>
        <time>2016-05-15T08:25:15.000Z</time>
      </trkpt>
      <trkpt lat="45.75214" lon="4.52298">
        <ele>483.32397460938</ele>
        <time>2016-05-15T08:25:19.000Z</time>
      </trkpt>
      <trkpt lat="45.75214" lon="4.52293">
        <ele>483.99887084961</ele>
        <time>2016-05-15T08:25:21.000Z</time>
      </trkpt>
      <trkpt lat="45.75215" lon="4.52284">
        <ele>485.56271362305</ele>
        <time>2016-05-15T08:25:25.000Z</time>
      </trkpt>
      <trkpt lat="45.75215" lon="4.52276">
        <ele>486.89282226562</ele>
        <time>2016-05-15T08:25:29.000Z</time>
      </trkpt>
      <trkpt lat="45.75214" lon="4.52269">
        <ele>487.76248168945</ele>
        <time>2016-05-15T08:25:33.000Z</time>
      </trkpt>
      <trkpt lat="45.75213" lon="4.52262">
        <ele>487.22210693359</ele>
        <time>2016-05-15T08:25:37.000Z</time>
      </trkpt>
      <trkpt lat="45.75212" lon="4.52258">
        <ele>487.08395385742</ele>
        <time>2016-05-15T08:25:39.000Z</time>
      </trkpt>
      <trkpt lat="45.75211" lon="4.52249">
        <ele>487.75750732422</ele>
        <time>2016-05-15T08:25:43.000Z</time>
      </trkpt>
      <trkpt lat="45.75209" lon="4.52243">
        <ele>488.00903320312</ele>
        <time>2016-05-15T08:25:47.000Z</time>
      </trkpt>
      <trkpt lat="45.75208" lon="4.5224">
        <ele>487.84060668945</ele>
        <time>2016-05-15T08:25:49.000Z</time>
      </trkpt>
      <trkpt lat="45.75208" lon="4.52232">
        <ele>487.74301147461</ele>
        <time>2016-05-15T08:25:53.000Z</time>
      </trkpt>
      <trkpt lat="45.75208" lon="4.52219">
        <ele>487.63369750977</ele>
        <time>2016-05-15T08:25:57.000Z</time>
      </trkpt>
      <trkpt lat="45.75208" lon="4.52214">
        <ele>487.83547973633</ele>
        <time>2016-05-15T08:25:59.000Z</time>
      </trkpt>
      <trkpt lat="45.75207" lon="4.52203">
        <ele>488.77969360352</ele>
        <time>2016-05-15T08:26:02.000Z</time>
      </trkpt>
      <trkpt lat="45.75206" lon="4.52194">
        <ele>489.98937988281</ele>
        <time>2016-05-15T08:26:06.000Z</time>
      </trkpt>
      <trkpt lat="45.75205" lon="4.52183">
        <ele>490.48748779297</ele>
        <time>2016-05-15T08:26:10.000Z</time>
      </trkpt>
      <trkpt lat="45.75204" lon="4.52176">
        <ele>490.90026855469</ele>
        <time>2016-05-15T08:26:14.000Z</time>
      </trkpt>
      <trkpt lat="45.75205" lon="4.52167">
        <ele>491.1540222168</ele>
        <time>2016-05-15T08:26:18.000Z</time>
      </trkpt>
      <trkpt lat="45.75205" lon="4.52159">
        <ele>491.31436157227</ele>
        <time>2016-05-15T08:26:22.000Z</time>
      </trkpt>
      <trkpt lat="45.75205" lon="4.5215">
        <ele>492.32214355469</ele>
        <time>2016-05-15T08:26:26.000Z</time>
      </trkpt>
      <trkpt lat="45.75203" lon="4.5214">
        <ele>494.16073608398</ele>
        <time>2016-05-15T08:26:30.000Z</time>
      </trkpt>
      <trkpt lat="45.75202" lon="4.52135">
        <ele>494.01840209961</ele>
        <time>2016-05-15T08:26:32.000Z</time>
      </trkpt>
      <trkpt lat="45.75201" lon="4.5213">
        <ele>493.44326782227</ele>
        <time>2016-05-15T08:26:34.000Z</time>
      </trkpt>
      <trkpt lat="45.752" lon="4.52126">
        <ele>493.15625</ele>
        <time>2016-05-15T08:26:36.000Z</time>
      </trkpt>
      <trkpt lat="45.752" lon="4.52116">
        <ele>492.72033691406</ele>
        <time>2016-05-15T08:26:40.000Z</time>
      </trkpt>
      <trkpt lat="45.75201" lon="4.5211">
        <ele>492.65191650391</ele>
        <time>2016-05-15T08:26:42.000Z</time>
      </trkpt>
      <trkpt lat="45.752" lon="4.52097">
        <ele>493.04467773438</ele>
        <time>2016-05-15T08:26:45.000Z</time>
      </trkpt>
      <trkpt lat="45.75199" lon="4.52085">
        <ele>493.91497802734</ele>
        <time>2016-05-15T08:26:48.000Z</time>
      </trkpt>
      <trkpt lat="45.75198" lon="4.52077">
        <ele>493.92135620117</ele>
        <time>2016-05-15T08:26:50.000Z</time>
      </trkpt>
      <trkpt lat="45.75197" lon="4.52065">
        <ele>493.51159667969</ele>
        <time>2016-05-15T08:26:53.000Z</time>
      </trkpt>
      <trkpt lat="45.75195" lon="4.52056">
        <ele>494.21258544922</ele>
        <time>2016-05-15T08:26:55.000Z</time>
      </trkpt>
      <trkpt lat="45.75193" lon="4.52041">
        <ele>495.03784179688</ele>
        <time>2016-05-15T08:26:58.000Z</time>
      </trkpt>
      <trkpt lat="45.7519" lon="4.52025">
        <ele>496.26919555664</ele>
        <time>2016-05-15T08:27:01.000Z</time>
      </trkpt>
      <trkpt lat="45.75188" lon="4.52008">
        <ele>492.40808105469</ele>
        <time>2016-05-15T08:27:04.000Z</time>
      </trkpt>
      <trkpt lat="45.75185" lon="4.51991">
        <ele>491.88653564453</ele>
        <time>2016-05-15T08:27:07.000Z</time>
      </trkpt>
      <trkpt lat="45.75182" lon="4.51976">
        <ele>492.23159790039</ele>
        <time>2016-05-15T08:27:10.000Z</time>
      </trkpt>
      <trkpt lat="45.75181" lon="4.5196">
        <ele>493.39376831055</ele>
        <time>2016-05-15T08:27:13.000Z</time>
      </trkpt>
      <trkpt lat="45.75179" lon="4.51943">
        <ele>494.50036621094</ele>
        <time>2016-05-15T08:27:16.000Z</time>
      </trkpt>
      <trkpt lat="45.75179" lon="4.51933">
        <ele>494.98696899414</ele>
        <time>2016-05-15T08:27:18.000Z</time>
      </trkpt>
      <trkpt lat="45.75177" lon="4.51924">
        <ele>496.08395385742</ele>
        <time>2016-05-15T08:27:20.000Z</time>
      </trkpt>
      <trkpt lat="45.75176" lon="4.51916">
        <ele>496.15289306641</ele>
        <time>2016-05-15T08:27:22.000Z</time>
      </trkpt>
      <trkpt lat="45.75174" lon="4.51904">
        <ele>495.87054443359</ele>
        <time>2016-05-15T08:27:25.000Z</time>
      </trkpt>
      <trkpt lat="45.75174" lon="4.51897">
        <ele>495.93408203125</ele>
        <time>2016-05-15T08:27:27.000Z</time>
      </trkpt>
      <trkpt lat="45.75173" lon="4.51887">
        <ele>495.92697143555</ele>
        <time>2016-05-15T08:27:30.000Z</time>
      </trkpt>
      <trkpt lat="45.75172" lon="4.51875">
        <ele>496.30883789062</ele>
        <time>2016-05-15T08:27:33.000Z</time>
      </trkpt>
      <trkpt lat="45.75172" lon="4.51869">
        <ele>496.99230957031</ele>
        <time>2016-05-15T08:27:35.000Z</time>
      </trkpt>
      <trkpt lat="45.75171" lon="4.51858">
        <ele>498.15765380859</ele>
        <time>2016-05-15T08:27:39.000Z</time>
      </trkpt>
      <trkpt lat="45.7517" lon="4.51847">
        <ele>498.90371704102</ele>
        <time>2016-05-15T08:27:43.000Z</time>
      </trkpt>
      <trkpt lat="45.75169" lon="4.51838">
        <ele>500.6780090332</ele>
        <time>2016-05-15T08:27:45.000Z</time>
      </trkpt>
      <trkpt lat="45.75169" lon="4.51831">
        <ele>502.3557434082</ele>
        <time>2016-05-15T08:27:47.000Z</time>
      </trkpt>
      <trkpt lat="45.75169" lon="4.51825">
        <ele>504.05972290039</ele>
        <time>2016-05-15T08:27:49.000Z</time>
      </trkpt>
      <trkpt lat="45.7517" lon="4.51815">
        <ele>504.84100341797</ele>
        <time>2016-05-15T08:27:53.000Z</time>
      </trkpt>
      <trkpt lat="45.7517" lon="4.51809">
        <ele>504.69805908203</ele>
        <time>2016-05-15T08:27:55.000Z</time>
      </trkpt>
      <trkpt lat="45.7517" lon="4.51804">
        <ele>504.50900268555</ele>
        <time>2016-05-15T08:27:57.000Z</time>
      </trkpt>
      <trkpt lat="45.7517" lon="4.51798">
        <ele>503.94384765625</ele>
        <time>2016-05-15T08:27:59.000Z</time>
      </trkpt>
      <trkpt lat="45.75171" lon="4.51785">
        <ele>503.03750610352</ele>
        <time>2016-05-15T08:28:03.000Z</time>
      </trkpt>
      <trkpt lat="45.7517" lon="4.51776">
        <ele>502.44171142578</ele>
        <time>2016-05-15T08:28:06.000Z</time>
      </trkpt>
      <trkpt lat="45.75169" lon="4.51767">
        <ele>502.04644775391</ele>
        <time>2016-05-15T08:28:09.000Z</time>
      </trkpt>
      <trkpt lat="45.75169" lon="4.51754">
        <ele>503.20516967773</ele>
        <time>2016-05-15T08:28:12.000Z</time>
      </trkpt>
      <trkpt lat="45.75169" lon="4.51747">
        <ele>503.08868408203</ele>
        <time>2016-05-15T08:28:15.000Z</time>
      </trkpt>
      <trkpt lat="45.75172" lon="4.51736">
        <ele>503.78115844727</ele>
        <time>2016-05-15T08:28:19.000Z</time>
      </trkpt>
      <trkpt lat="45.75172" lon="4.5173">
        <ele>503.89587402344</ele>
        <time>2016-05-15T08:28:21.000Z</time>
      </trkpt>
      <trkpt lat="45.75173" lon="4.51724">
        <ele>504.46139526367</ele>
        <time>2016-05-15T08:28:23.000Z</time>
      </trkpt>
      <trkpt lat="45.75174" lon="4.51713">
        <ele>505.42385864258</ele>
        <time>2016-05-15T08:28:27.000Z</time>
      </trkpt>
      <trkpt lat="45.75174" lon="4.51701">
        <ele>506.1526184082</ele>
        <time>2016-05-15T08:28:30.000Z</time>
      </trkpt>
      <trkpt lat="45.75173" lon="4.5169">
        <ele>507.50942993164</ele>
        <time>2016-05-15T08:28:33.000Z</time>
      </trkpt>
      <trkpt lat="45.75172" lon="4.51679">
        <ele>507.96224975586</ele>
        <time>2016-05-15T08:28:36.000Z</time>
      </trkpt>
      <trkpt lat="45.75172" lon="4.51672">
        <ele>508.66613769531</ele>
        <time>2016-05-15T08:28:38.000Z</time>
      </trkpt>
      <trkpt lat="45.75171" lon="4.51661">
        <ele>509.87658691406</ele>
        <time>2016-05-15T08:28:41.000Z</time>
      </trkpt>
      <trkpt lat="45.7517" lon="4.5165">
        <ele>510.81680297852</ele>
        <time>2016-05-15T08:28:44.000Z</time>
      </trkpt>
      <trkpt lat="45.7517" lon="4.51643">
        <ele>511.34176635742</ele>
        <time>2016-05-15T08:28:46.000Z</time>
      </trkpt>
      <trkpt lat="45.75171" lon="4.51636">
        <ele>511.6321105957</ele>
        <time>2016-05-15T08:28:48.000Z</time>
      </trkpt>
      <trkpt lat="45.75171" lon="4.51625">
        <ele>511.51617431641</ele>
        <time>2016-05-15T08:28:51.000Z</time>
      </trkpt>
      <trkpt lat="45.75171" lon="4.51615">
        <ele>511.28076171875</ele>
        <time>2016-05-15T08:28:54.000Z</time>
      </trkpt>
      <trkpt lat="45.75171" lon="4.51604">
        <ele>511.45962524414</ele>
        <time>2016-05-15T08:28:57.000Z</time>
      </trkpt>
      <trkpt lat="45.7517" lon="4.51596">
        <ele>511.35223388672</ele>
        <time>2016-05-15T08:28:59.000Z</time>
      </trkpt>
      <trkpt lat="45.7517" lon="4.51589">
        <ele>511.46383666992</ele>
        <time>2016-05-15T08:29:01.000Z</time>
      </trkpt>
      <trkpt lat="45.7517" lon="4.5158">
        <ele>511.5989074707</ele>
        <time>2016-05-15T08:29:04.000Z</time>
      </trkpt>
      <trkpt lat="45.7517" lon="4.5157">
        <ele>512.11328125</ele>
        <time>2016-05-15T08:29:07.000Z</time>
      </trkpt>
      <trkpt lat="45.75169" lon="4.51561">
        <ele>512.02294921875</ele>
        <time>2016-05-15T08:29:10.000Z</time>
      </trkpt>
      <trkpt lat="45.75169" lon="4.51552">
        <ele>512.65576171875</ele>
        <time>2016-05-15T08:29:13.000Z</time>
      </trkpt>
      <trkpt lat="45.75168" lon="4.51546">
        <ele>513.33905029297</ele>
        <time>2016-05-15T08:29:15.000Z</time>
      </trkpt>
      <trkpt lat="45.75167" lon="4.5154">
        <ele>513.84466552734</ele>
        <time>2016-05-15T08:29:17.000Z</time>
      </trkpt>
      <trkpt lat="45.75167" lon="4.51528">
        <ele>513.80816650391</ele>
        <time>2016-05-15T08:29:20.000Z</time>
      </trkpt>
      <trkpt lat="45.75168" lon="4.51521">
        <ele>514.32971191406</ele>
        <time>2016-05-15T08:29:22.000Z</time>
      </trkpt>
      <trkpt lat="45.75169" lon="4.51514">
        <ele>514.87457275391</ele>
        <time>2016-05-15T08:29:25.000Z</time>
      </trkpt>
      <trkpt lat="45.75171" lon="4.51509">
        <ele>515.02716064453</ele>
        <time>2016-05-15T08:29:27.000Z</time>
      </trkpt>
      <trkpt lat="45.75172" lon="4.51505">
        <ele>514.70074462891</ele>
        <time>2016-05-15T08:29:29.000Z</time>
      </trkpt>
      <trkpt lat="45.75173" lon="4.51502">
        <ele>513.93829345703</ele>
        <time>2016-05-15T08:29:37.000Z</time>
      </trkpt>
      <trkpt lat="45.75168" lon="4.51501">
        <ele>511.92926025391</ele>
        <time>2016-05-15T08:38:05.000Z</time>
      </trkpt>
      <trkpt lat="45.75169" lon="4.51501">
        <ele>512.640625</ele>
        <time>2016-05-15T08:38:16.000Z</time>
      </trkpt>
      <trkpt lat="45.75171" lon="4.515">
        <ele>513.07946777344</ele>
        <time>2016-05-15T08:38:18.000Z</time>
      </trkpt>
      <trkpt lat="45.75176" lon="4.51493">
        <ele>513.17932128906</ele>
        <time>2016-05-15T08:38:22.000Z</time>
      </trkpt>
      <trkpt lat="45.75182" lon="4.5148">
        <ele>513.10711669922</ele>
        <time>2016-05-15T08:38:25.000Z</time>
      </trkpt>
      <trkpt lat="45.75187" lon="4.51471">
        <ele>512.7724609375</ele>
        <time>2016-05-15T08:38:27.000Z</time>
      </trkpt>
      <trkpt lat="45.75193" lon="4.51455">
        <ele>512.52008056641</ele>
        <time>2016-05-15T08:38:30.000Z</time>
      </trkpt>
      <trkpt lat="45.75198" lon="4.51443">
        <ele>512.44366455078</ele>
        <time>2016-05-15T08:38:32.000Z</time>
      </trkpt>
      <trkpt lat="45.75204" lon="4.51418">
        <ele>512.59588623047</ele>
        <time>2016-05-15T08:38:35.000Z</time>
      </trkpt>
      <trkpt lat="45.75207" lon="4.51389">
        <ele>510.99493408203</ele>
        <time>2016-05-15T08:38:38.000Z</time>
      </trkpt>
      <trkpt lat="45.75208" lon="4.51372">
        <ele>510.36431884766</ele>
        <time>2016-05-15T08:38:40.000Z</time>
      </trkpt>
      <trkpt lat="45.75208" lon="4.5135">
        <ele>509.80612182617</ele>
        <time>2016-05-15T08:38:42.000Z</time>
      </trkpt>
      <trkpt lat="45.7521" lon="4.51319">
        <ele>509.01257324219</ele>
        <time>2016-05-15T08:38:45.000Z</time>
      </trkpt>
      <trkpt lat="45.75214" lon="4.51298">
        <ele>508.34912109375</ele>
        <time>2016-05-15T08:38:47.000Z</time>
      </trkpt>
      <trkpt lat="45.75217" lon="4.5128">
        <ele>507.66546630859</ele>
        <time>2016-05-15T08:38:49.000Z</time>
      </trkpt>
      <trkpt lat="45.75219" lon="4.51252">
        <ele>506.58508300781</ele>
        <time>2016-05-15T08:38:52.000Z</time>
      </trkpt>
      <trkpt lat="45.75222" lon="4.51232">
        <ele>505.93566894531</ele>
        <time>2016-05-15T08:38:54.000Z</time>
      </trkpt>
      <trkpt lat="45.75232" lon="4.51201">
        <ele>505.25946044922</ele>
        <time>2016-05-15T08:38:57.000Z</time>
      </trkpt>
      <trkpt lat="45.75237" lon="4.51176">
        <ele>505.0595703125</ele>
        <time>2016-05-15T08:38:59.000Z</time>
      </trkpt>
      <trkpt lat="45.75244" lon="4.51143">
        <ele>503.41976928711</ele>
        <time>2016-05-15T08:39:02.000Z</time>
      </trkpt>
      <trkpt lat="45.75251" lon="4.51118">
        <ele>501.39566040039</ele>
        <time>2016-05-15T08:39:05.000Z</time>
      </trkpt>
      <trkpt lat="45.75257" lon="4.51106">
        <ele>500.43490600586</ele>
        <time>2016-05-15T08:39:07.000Z</time>
      </trkpt>
      <trkpt lat="45.75261" lon="4.51091">
        <ele>498.34582519531</ele>
        <time>2016-05-15T08:39:09.000Z</time>
      </trkpt>
      <trkpt lat="45.75268" lon="4.51082">
        <ele>494.16152954102</ele>
        <time>2016-05-15T08:39:11.000Z</time>
      </trkpt>
      <trkpt lat="45.75278" lon="4.51071">
        <ele>491.56210327148</ele>
        <time>2016-05-15T08:39:14.000Z</time>
      </trkpt>
      <trkpt lat="45.7528" lon="4.51067">
        <ele>491.2578125</ele>
        <time>2016-05-15T08:39:16.000Z</time>
      </trkpt>
      <trkpt lat="45.75283" lon="4.5106">
        <ele>490.73004150391</ele>
        <time>2016-05-15T08:39:19.000Z</time>
      </trkpt>
      <trkpt lat="45.75287" lon="4.51052">
        <ele>489.26693725586</ele>
        <time>2016-05-15T08:39:22.000Z</time>
      </trkpt>
      <trkpt lat="45.75294" lon="4.51042">
        <ele>487.38858032227</ele>
        <time>2016-05-15T08:39:25.000Z</time>
      </trkpt>
      <trkpt lat="45.75302" lon="4.51032">
        <ele>484.20184326172</ele>
        <time>2016-05-15T08:39:28.000Z</time>
      </trkpt>
      <trkpt lat="45.75308" lon="4.51022">
        <ele>482.62649536133</ele>
        <time>2016-05-15T08:39:30.000Z</time>
      </trkpt>
      <trkpt lat="45.75317" lon="4.51005">
        <ele>478.392578125</ele>
        <time>2016-05-15T08:39:33.000Z</time>
      </trkpt>
      <trkpt lat="45.75324" lon="4.50986">
        <ele>474.43270874023</ele>
        <time>2016-05-15T08:39:36.000Z</time>
      </trkpt>
      <trkpt lat="45.75328" lon="4.50975">
        <ele>471.61956787109</ele>
        <time>2016-05-15T08:39:38.000Z</time>
      </trkpt>
      <trkpt lat="45.75337" lon="4.50951">
        <ele>468.48544311523</ele>
        <time>2016-05-15T08:39:42.000Z</time>
      </trkpt>
      <trkpt lat="45.75341" lon="4.50935">
        <ele>467.48696899414</ele>
        <time>2016-05-15T08:39:44.000Z</time>
      </trkpt>
      <trkpt lat="45.75342" lon="4.50917">
        <ele>466.16540527344</ele>
        <time>2016-05-15T08:39:47.000Z</time>
      </trkpt>
      <trkpt lat="45.75342" lon="4.50908">
        <ele>465.44598388672</ele>
        <time>2016-05-15T08:39:49.000Z</time>
      </trkpt>
      <trkpt lat="45.75341" lon="4.50903">
        <ele>464.82623291016</ele>
        <time>2016-05-15T08:39:51.000Z</time>
      </trkpt>
      <trkpt lat="45.75336" lon="4.50894">
        <ele>463.67785644531</ele>
        <time>2016-05-15T08:39:53.000Z</time>
      </trkpt>
      <trkpt lat="45.75331" lon="4.50887">
        <ele>462.68060302734</ele>
        <time>2016-05-15T08:39:55.000Z</time>
      </trkpt>
      <trkpt lat="45.75326" lon="4.50879">
        <ele>460.72720336914</ele>
        <time>2016-05-15T08:39:57.000Z</time>
      </trkpt>
      <trkpt lat="45.75317" lon="4.50866">
        <ele>458.71389770508</ele>
        <time>2016-05-15T08:40:00.000Z</time>
      </trkpt>
      <trkpt lat="45.75307" lon="4.50854">
        <ele>458.72229003906</ele>
        <time>2016-05-15T08:40:03.000Z</time>
      </trkpt>
      <trkpt lat="45.75303" lon="4.50847">
        <ele>459.68478393555</ele>
        <time>2016-05-15T08:40:05.000Z</time>
      </trkpt>
      <trkpt lat="45.75303" lon="4.50843">
        <ele>459.29718017578</ele>
        <time>2016-05-15T08:40:07.000Z</time>
      </trkpt>
      <trkpt lat="45.75303" lon="4.50839">
        <ele>458.92208862305</ele>
        <time>2016-05-15T08:40:09.000Z</time>
      </trkpt>
      <trkpt lat="45.75305" lon="4.50832">
        <ele>458.48175048828</ele>
        <time>2016-05-15T08:40:12.000Z</time>
      </trkpt>
      <trkpt lat="45.7531" lon="4.50827">
        <ele>458.77487182617</ele>
        <time>2016-05-15T08:40:15.000Z</time>
      </trkpt>
      <trkpt lat="45.75315" lon="4.50822">
        <ele>459.41143798828</ele>
        <time>2016-05-15T08:40:18.000Z</time>
      </trkpt>
      <trkpt lat="45.75319" lon="4.50819">
        <ele>459.60443115234</ele>
        <time>2016-05-15T08:40:21.000Z</time>
      </trkpt>
      <trkpt lat="45.75322" lon="4.50815">
        <ele>459.69522094727</ele>
        <time>2016-05-15T08:40:23.000Z</time>
      </trkpt>
      <trkpt lat="45.75349" lon="4.50751">
        <ele>452.36572265625</ele>
        <time>2016-05-15T08:40:29.000Z</time>
      </trkpt>
      <trkpt lat="45.75352" lon="4.50736">
        <ele>450.91302490234</ele>
        <time>2016-05-15T08:40:31.000Z</time>
      </trkpt>
      <trkpt lat="45.75354" lon="4.50726">
        <ele>449.62338256836</ele>
        <time>2016-05-15T08:40:33.000Z</time>
      </trkpt>
      <trkpt lat="45.75356" lon="4.50718">
        <ele>447.91799926758</ele>
        <time>2016-05-15T08:40:35.000Z</time>
      </trkpt>
      <trkpt lat="45.75358" lon="4.50705">
        <ele>445.78558349609</ele>
        <time>2016-05-15T08:40:37.000Z</time>
      </trkpt>
      <trkpt lat="45.75362" lon="4.50692">
        <ele>444.09805297852</ele>
        <time>2016-05-15T08:40:39.000Z</time>
      </trkpt>
      <trkpt lat="45.75368" lon="4.50676">
        <ele>442.10015869141</ele>
        <time>2016-05-15T08:40:42.000Z</time>
      </trkpt>
      <trkpt lat="45.75374" lon="4.50658">
        <ele>440.31796264648</ele>
        <time>2016-05-15T08:40:45.000Z</time>
      </trkpt>
      <trkpt lat="45.75378" lon="4.50646">
        <ele>439.55859375</ele>
        <time>2016-05-15T08:40:47.000Z</time>
      </trkpt>
      <trkpt lat="45.75382" lon="4.50634">
        <ele>439.36785888672</ele>
        <time>2016-05-15T08:40:49.000Z</time>
      </trkpt>
      <trkpt lat="45.75386" lon="4.5062">
        <ele>439.32672119141</ele>
        <time>2016-05-15T08:40:51.000Z</time>
      </trkpt>
      <trkpt lat="45.75388" lon="4.50607">
        <ele>439.56588745117</ele>
        <time>2016-05-15T08:40:53.000Z</time>
      </trkpt>
      <trkpt lat="45.7539" lon="4.50594">
        <ele>439.00775146484</ele>
        <time>2016-05-15T08:40:55.000Z</time>
      </trkpt>
      <trkpt lat="45.75391" lon="4.50584">
        <ele>438.49816894531</ele>
        <time>2016-05-15T08:40:57.000Z</time>
      </trkpt>
      <trkpt lat="45.75391" lon="4.50575">
        <ele>438.07696533203</ele>
        <time>2016-05-15T08:40:59.000Z</time>
      </trkpt>
      <trkpt lat="45.75392" lon="4.50563">
        <ele>437.58224487305</ele>
        <time>2016-05-15T08:41:02.000Z</time>
      </trkpt>
      <trkpt lat="45.75393" lon="4.50555">
        <ele>436.83413696289</ele>
        <time>2016-05-15T08:41:04.000Z</time>
      </trkpt>
      <trkpt lat="45.75395" lon="4.50549">
        <ele>435.17468261719</ele>
        <time>2016-05-15T08:41:07.000Z</time>
      </trkpt>
      <trkpt lat="45.75401" lon="4.50543">
        <ele>432.02032470703</ele>
        <time>2016-05-15T08:41:11.000Z</time>
      </trkpt>
      <trkpt lat="45.75406" lon="4.50539">
        <ele>429.39166259766</ele>
        <time>2016-05-15T08:41:14.000Z</time>
      </trkpt>
      <trkpt lat="45.75413" lon="4.50535">
        <ele>425.37115478516</ele>
        <time>2016-05-15T08:41:18.000Z</time>
      </trkpt>
      <trkpt lat="45.75415" lon="4.50534">
        <ele>424.73565673828</ele>
        <time>2016-05-15T08:41:20.000Z</time>
      </trkpt>
      <trkpt lat="45.75417" lon="4.50534">
        <ele>424.44546508789</ele>
        <time>2016-05-15T08:41:22.000Z</time>
      </trkpt>
      <trkpt lat="45.7542" lon="4.50534">
        <ele>423.87042236328</ele>
        <time>2016-05-15T08:41:24.000Z</time>
      </trkpt>
      <trkpt lat="45.75425" lon="4.50534">
        <ele>423.38882446289</ele>
        <time>2016-05-15T08:41:28.000Z</time>
      </trkpt>
      <trkpt lat="45.75428" lon="4.50535">
        <ele>423.64294433594</ele>
        <time>2016-05-15T08:41:31.000Z</time>
      </trkpt>
      <trkpt lat="45.75433" lon="4.50535">
        <ele>423.78536987305</ele>
        <time>2016-05-15T08:41:35.000Z</time>
      </trkpt>
      <trkpt lat="45.75436" lon="4.50535">
        <ele>423.56521606445</ele>
        <time>2016-05-15T08:41:37.000Z</time>
      </trkpt>
      <trkpt lat="45.75439" lon="4.50535">
        <ele>423.90203857422</ele>
        <time>2016-05-15T08:41:39.000Z</time>
      </trkpt>
      <trkpt lat="45.75445" lon="4.50532">
        <ele>425.09426879883</ele>
        <time>2016-05-15T08:41:43.000Z</time>
      </trkpt>
      <trkpt lat="45.75451" lon="4.50527">
        <ele>426.42395019531</ele>
        <time>2016-05-15T08:41:47.000Z</time>
      </trkpt>
      <trkpt lat="45.75453" lon="4.50526">
        <ele>426.65563964844</ele>
        <time>2016-05-15T08:41:49.000Z</time>
      </trkpt>
      <trkpt lat="45.7546" lon="4.50525">
        <ele>426.03033447266</ele>
        <time>2016-05-15T08:41:53.000Z</time>
      </trkpt>
      <trkpt lat="45.75463" lon="4.50525">
        <ele>425.56604003906</ele>
        <time>2016-05-15T08:41:55.000Z</time>
      </trkpt>
      <trkpt lat="45.75469" lon="4.50526">
        <ele>425.78173828125</ele>
        <time>2016-05-15T08:41:59.000Z</time>
      </trkpt>
      <trkpt lat="45.75475" lon="4.50526">
        <ele>426.18835449219</ele>
        <time>2016-05-15T08:42:03.000Z</time>
      </trkpt>
      <trkpt lat="45.75478" lon="4.50526">
        <ele>427.18023681641</ele>
        <time>2016-05-15T08:42:05.000Z</time>
      </trkpt>
      <trkpt lat="45.75485" lon="4.50525">
        <ele>429.68176269531</ele>
        <time>2016-05-15T08:42:09.000Z</time>
      </trkpt>
      <trkpt lat="45.75487" lon="4.50523">
        <ele>429.2776184082</ele>
        <time>2016-05-15T08:42:11.000Z</time>
      </trkpt>
      <trkpt lat="45.75489" lon="4.50515">
        <ele>428.07354736328</ele>
        <time>2016-05-15T08:42:15.000Z</time>
      </trkpt>
      <trkpt lat="45.75491" lon="4.50506">
        <ele>428.38269042969</ele>
        <time>2016-05-15T08:42:19.000Z</time>
      </trkpt>
      <trkpt lat="45.75492" lon="4.50501">
        <ele>428.65008544922</ele>
        <time>2016-05-15T08:42:21.000Z</time>
      </trkpt>
      <trkpt lat="45.75494" lon="4.5049">
        <ele>429.63180541992</ele>
        <time>2016-05-15T08:42:25.000Z</time>
      </trkpt>
      <trkpt lat="45.75494" lon="4.50486">
        <ele>429.99612426758</ele>
        <time>2016-05-15T08:42:27.000Z</time>
      </trkpt>
      <trkpt lat="45.75495" lon="4.50479">
        <ele>429.73974609375</ele>
        <time>2016-05-15T08:42:31.000Z</time>
      </trkpt>
      <trkpt lat="45.75495" lon="4.50475">
        <ele>429.59820556641</ele>
        <time>2016-05-15T08:42:33.000Z</time>
      </trkpt>
      <trkpt lat="45.75495" lon="4.50467">
        <ele>428.95108032227</ele>
        <time>2016-05-15T08:42:37.000Z</time>
      </trkpt>
      <trkpt lat="45.75494" lon="4.50463">
        <ele>428.46835327148</ele>
        <time>2016-05-15T08:42:39.000Z</time>
      </trkpt>
      <trkpt lat="45.75493" lon="4.50456">
        <ele>427.44003295898</ele>
        <time>2016-05-15T08:42:43.000Z</time>
      </trkpt>
      <trkpt lat="45.75491" lon="4.50448">
        <ele>426.81439208984</ele>
        <time>2016-05-15T08:42:47.000Z</time>
      </trkpt>
      <trkpt lat="45.75491" lon="4.50443">
        <ele>426.97409057617</ele>
        <time>2016-05-15T08:42:49.000Z</time>
      </trkpt>
      <trkpt lat="45.75489" lon="4.50434">
        <ele>426.90795898438</ele>
        <time>2016-05-15T08:42:53.000Z</time>
      </trkpt>
      <trkpt lat="45.75489" lon="4.50429">
        <ele>426.98712158203</ele>
        <time>2016-05-15T08:42:55.000Z</time>
      </trkpt>
      <trkpt lat="45.75489" lon="4.50417">
        <ele>427.21353149414</ele>
        <time>2016-05-15T08:42:59.000Z</time>
      </trkpt>
      <trkpt lat="45.75489" lon="4.50408">
        <ele>427.45318603516</ele>
        <time>2016-05-15T08:43:01.000Z</time>
      </trkpt>
      <trkpt lat="45.75488" lon="4.50398">
        <ele>428.69808959961</ele>
        <time>2016-05-15T08:43:04.000Z</time>
      </trkpt>
      <trkpt lat="45.75485" lon="4.5039">
        <ele>429.23620605469</ele>
        <time>2016-05-15T08:43:06.000Z</time>
      </trkpt>
      <trkpt lat="45.75482" lon="4.50379">
        <ele>429.45379638672</ele>
        <time>2016-05-15T08:43:09.000Z</time>
      </trkpt>
      <trkpt lat="45.75481" lon="4.50373">
        <ele>429.65142822266</ele>
        <time>2016-05-15T08:43:11.000Z</time>
      </trkpt>
      <trkpt lat="45.7548" lon="4.50363">
        <ele>429.79275512695</ele>
        <time>2016-05-15T08:43:14.000Z</time>
      </trkpt>
      <trkpt lat="45.75479" lon="4.50358">
        <ele>429.88626098633</ele>
        <time>2016-05-15T08:43:16.000Z</time>
      </trkpt>
      <trkpt lat="45.75478" lon="4.50353">
        <ele>430.38290405273</ele>
        <time>2016-05-15T08:43:18.000Z</time>
      </trkpt>
      <trkpt lat="45.75475" lon="4.50344">
        <ele>432.05352783203</ele>
        <time>2016-05-15T08:43:22.000Z</time>
      </trkpt>
      <trkpt lat="45.7547" lon="4.50334">
        <ele>434.05746459961</ele>
        <time>2016-05-15T08:43:26.000Z</time>
      </trkpt>
      <trkpt lat="45.75466" lon="4.50325">
        <ele>435.68283081055</ele>
        <time>2016-05-15T08:43:29.000Z</time>
      </trkpt>
      <trkpt lat="45.75465" lon="4.50321">
        <ele>435.89077758789</ele>
        <time>2016-05-15T08:43:31.000Z</time>
      </trkpt>
      <trkpt lat="45.75464" lon="4.50315">
        <ele>436.04064941406</ele>
        <time>2016-05-15T08:43:33.000Z</time>
      </trkpt>
      <trkpt lat="45.75463" lon="4.5031">
        <ele>436.29254150391</ele>
        <time>2016-05-15T08:43:35.000Z</time>
      </trkpt>
      <trkpt lat="45.75462" lon="4.50299">
        <ele>437.14102172852</ele>
        <time>2016-05-15T08:43:39.000Z</time>
      </trkpt>
      <trkpt lat="45.7546" lon="4.50289">
        <ele>437.36654663086</ele>
        <time>2016-05-15T08:43:43.000Z</time>
      </trkpt>
      <trkpt lat="45.75458" lon="4.50283">
        <ele>438.67456054688</ele>
        <time>2016-05-15T08:43:45.000Z</time>
      </trkpt>
      <trkpt lat="45.75456" lon="4.50279">
        <ele>439.63287353516</ele>
        <time>2016-05-15T08:43:47.000Z</time>
      </trkpt>
      <trkpt lat="45.75451" lon="4.50268">
        <ele>440.34884643555</ele>
        <time>2016-05-15T08:43:50.000Z</time>
      </trkpt>
      <trkpt lat="45.75448" lon="4.5026">
        <ele>441.03927612305</ele>
        <time>2016-05-15T08:43:52.000Z</time>
      </trkpt>
      <trkpt lat="45.75444" lon="4.5025">
        <ele>441.47036743164</ele>
        <time>2016-05-15T08:43:54.000Z</time>
      </trkpt>
      <trkpt lat="45.75438" lon="4.50239">
        <ele>442.02926635742</ele>
        <time>2016-05-15T08:43:56.000Z</time>
      </trkpt>
      <trkpt lat="45.75427" lon="4.50219">
        <ele>442.15026855469</ele>
        <time>2016-05-15T08:43:59.000Z</time>
      </trkpt>
      <trkpt lat="45.75417" lon="4.50207">
        <ele>441.20489501953</ele>
        <time>2016-05-15T08:44:01.000Z</time>
      </trkpt>
      <trkpt lat="45.75399" lon="4.50189">
        <ele>441.84994506836</ele>
        <time>2016-05-15T08:44:04.000Z</time>
      </trkpt>
      <trkpt lat="45.75385" lon="4.50168">
        <ele>442.80187988281</ele>
        <time>2016-05-15T08:44:07.000Z</time>
      </trkpt>
      <trkpt lat="45.75375" lon="4.50153">
        <ele>441.78146362305</ele>
        <time>2016-05-15T08:44:09.000Z</time>
      </trkpt>
      <trkpt lat="45.75364" lon="4.50125">
        <ele>441.60604858398</ele>
        <time>2016-05-15T08:44:12.000Z</time>
      </trkpt>
      <trkpt lat="45.75354" lon="4.50105">
        <ele>442.98419189453</ele>
        <time>2016-05-15T08:44:14.000Z</time>
      </trkpt>
      <trkpt lat="45.75345" lon="4.50077">
        <ele>442.63729858398</ele>
        <time>2016-05-15T08:44:17.000Z</time>
      </trkpt>
      <trkpt lat="45.75338" lon="4.5005">
        <ele>442.94720458984</ele>
        <time>2016-05-15T08:44:20.000Z</time>
      </trkpt>
      <trkpt lat="45.75336" lon="4.50038">
        <ele>442.90914916992</ele>
        <time>2016-05-15T08:44:22.000Z</time>
      </trkpt>
      <trkpt lat="45.75332" lon="4.50016">
        <ele>442.68676757812</ele>
        <time>2016-05-15T08:44:25.000Z</time>
      </trkpt>
      <trkpt lat="45.7533" lon="4.50003">
        <ele>442.43310546875</ele>
        <time>2016-05-15T08:44:27.000Z</time>
      </trkpt>
      <trkpt lat="45.75327" lon="4.49989">
        <ele>441.95306396484</ele>
        <time>2016-05-15T08:44:30.000Z</time>
      </trkpt>
      <trkpt lat="45.75322" lon="4.49958">
        <ele>441.283203125</ele>
        <time>2016-05-15T08:44:32.000Z</time>
      </trkpt>
      <trkpt lat="45.75319" lon="4.49936">
        <ele>440.55056762695</ele>
        <time>2016-05-15T08:44:34.000Z</time>
      </trkpt>
      <trkpt lat="45.75314" lon="4.49909">
        <ele>440.96224975586</ele>
        <time>2016-05-15T08:44:37.000Z</time>
      </trkpt>
      <trkpt lat="45.75306" lon="4.49896">
        <ele>440.58666992188</ele>
        <time>2016-05-15T08:44:39.000Z</time>
      </trkpt>
      <trkpt lat="45.75291" lon="4.49888">
        <ele>440.00213623047</ele>
        <time>2016-05-15T08:44:42.000Z</time>
      </trkpt>
      <trkpt lat="45.75282" lon="4.49883">
        <ele>439.25057983398</ele>
        <time>2016-05-15T08:44:45.000Z</time>
      </trkpt>
      <trkpt lat="45.75274" lon="4.49872">
        <ele>436.99377441406</ele>
        <time>2016-05-15T08:44:48.000Z</time>
      </trkpt>
      <trkpt lat="45.75271" lon="4.49865">
        <ele>435.75332641602</ele>
        <time>2016-05-15T08:44:50.000Z</time>
      </trkpt>
      <trkpt lat="45.75266" lon="4.4986">
        <ele>435.07730102539</ele>
        <time>2016-05-15T08:44:54.000Z</time>
      </trkpt>
      <trkpt lat="45.75257" lon="4.49853">
        <ele>434.10848999023</ele>
        <time>2016-05-15T08:44:57.000Z</time>
      </trkpt>
      <trkpt lat="45.75255" lon="4.49851">
        <ele>434.17269897461</ele>
        <time>2016-05-15T08:44:59.000Z</time>
      </trkpt>
      <trkpt lat="45.75249" lon="4.49847">
        <ele>431.61590576172</ele>
        <time>2016-05-15T08:45:04.000Z</time>
      </trkpt>
      <trkpt lat="45.75247" lon="4.49844">
        <ele>431.8971862793</ele>
        <time>2016-05-15T08:45:08.000Z</time>
      </trkpt>
      <trkpt lat="45.75245" lon="4.49841">
        <ele>432.37866210938</ele>
        <time>2016-05-15T08:45:10.000Z</time>
      </trkpt>
      <trkpt lat="45.75244" lon="4.49839">
        <ele>432.9436340332</ele>
        <time>2016-05-15T08:45:12.000Z</time>
      </trkpt>
      <trkpt lat="45.75238" lon="4.49834">
        <ele>434.07525634766</ele>
        <time>2016-05-15T08:45:16.000Z</time>
      </trkpt>
      <trkpt lat="45.75236" lon="4.49832">
        <ele>434.82757568359</ele>
        <time>2016-05-15T08:45:20.000Z</time>
      </trkpt>
      <trkpt lat="45.75233" lon="4.49829">
        <ele>436.13967895508</ele>
        <time>2016-05-15T08:45:24.000Z</time>
      </trkpt>
      <trkpt lat="45.75231" lon="4.49825">
        <ele>436.76983642578</ele>
        <time>2016-05-15T08:45:27.000Z</time>
      </trkpt>
      <trkpt lat="45.75229" lon="4.49821">
        <ele>436.97265625</ele>
        <time>2016-05-15T08:45:29.000Z</time>
      </trkpt>
      <trkpt lat="45.75227" lon="4.49818">
        <ele>437.72357177734</ele>
        <time>2016-05-15T08:45:31.000Z</time>
      </trkpt>
      <trkpt lat="45.75222" lon="4.49812">
        <ele>438.83801269531</ele>
        <time>2016-05-15T08:45:34.000Z</time>
      </trkpt>
      <trkpt lat="45.75219" lon="4.49809">
        <ele>439.48934936523</ele>
        <time>2016-05-15T08:45:36.000Z</time>
      </trkpt>
      <trkpt lat="45.75216" lon="4.49803">
        <ele>441.42993164062</ele>
        <time>2016-05-15T08:45:40.000Z</time>
      </trkpt>
      <trkpt lat="45.75212" lon="4.49798">
        <ele>442.02908325195</ele>
        <time>2016-05-15T08:45:44.000Z</time>
      </trkpt>
      <trkpt lat="45.75209" lon="4.49795">
        <ele>442.07556152344</ele>
        <time>2016-05-15T08:45:46.000Z</time>
      </trkpt>
      <trkpt lat="45.75204" lon="4.49787">
        <ele>442.736328125</ele>
        <time>2016-05-15T08:45:49.000Z</time>
      </trkpt>
      <trkpt lat="45.75199" lon="4.4978">
        <ele>441.64501953125</ele>
        <time>2016-05-15T08:45:51.000Z</time>
      </trkpt>
      <trkpt lat="45.75194" lon="4.49774">
        <ele>441.505859375</ele>
        <time>2016-05-15T08:45:53.000Z</time>
      </trkpt>
      <trkpt lat="45.75191" lon="4.49768">
        <ele>442.83450317383</ele>
        <time>2016-05-15T08:45:55.000Z</time>
      </trkpt>
      <trkpt lat="45.75188" lon="4.4976">
        <ele>444.08850097656</ele>
        <time>2016-05-15T08:45:58.000Z</time>
      </trkpt>
      <trkpt lat="45.75185" lon="4.49747">
        <ele>445.18588256836</ele>
        <time>2016-05-15T08:46:02.000Z</time>
      </trkpt>
      <trkpt lat="45.75181" lon="4.49734">
        <ele>444.8010559082</ele>
        <time>2016-05-15T08:46:05.000Z</time>
      </trkpt>
      <trkpt lat="45.75174" lon="4.49722">
        <ele>443.85989379883</ele>
        <time>2016-05-15T08:46:08.000Z</time>
      </trkpt>
      <trkpt lat="45.75168" lon="4.49714">
        <ele>443.69863891602</ele>
        <time>2016-05-15T08:46:10.000Z</time>
      </trkpt>
      <trkpt lat="45.75157" lon="4.497">
        <ele>443.61358642578</ele>
        <time>2016-05-15T08:46:13.000Z</time>
      </trkpt>
      <trkpt lat="45.75151" lon="4.4969">
        <ele>443.18780517578</ele>
        <time>2016-05-15T08:46:15.000Z</time>
      </trkpt>
      <trkpt lat="45.75145" lon="4.49675">
        <ele>443.18405151367</ele>
        <time>2016-05-15T08:46:18.000Z</time>
      </trkpt>
      <trkpt lat="45.75144" lon="4.49666">
        <ele>441.94967651367</ele>
        <time>2016-05-15T08:46:20.000Z</time>
      </trkpt>
      <trkpt lat="45.75144" lon="4.49655">
        <ele>441.1575012207</ele>
        <time>2016-05-15T08:46:24.000Z</time>
      </trkpt>
      <trkpt lat="45.75144" lon="4.4965">
        <ele>440.80828857422</ele>
        <time>2016-05-15T08:46:26.000Z</time>
      </trkpt>
      <trkpt lat="45.75143" lon="4.49642">
        <ele>441.33160400391</ele>
        <time>2016-05-15T08:46:30.000Z</time>
      </trkpt>
      <trkpt lat="45.75142" lon="4.49632">
        <ele>443.02490234375</ele>
        <time>2016-05-15T08:46:34.000Z</time>
      </trkpt>
      <trkpt lat="45.75142" lon="4.49626">
        <ele>443.65496826172</ele>
        <time>2016-05-15T08:46:36.000Z</time>
      </trkpt>
      <trkpt lat="45.75142" lon="4.49614">
        <ele>445.19140625</ele>
        <time>2016-05-15T08:46:39.000Z</time>
      </trkpt>
      <trkpt lat="45.75142" lon="4.49606">
        <ele>446.49273681641</ele>
        <time>2016-05-15T08:46:42.000Z</time>
      </trkpt>
      <trkpt lat="45.75142" lon="4.49602">
        <ele>446.79650878906</ele>
        <time>2016-05-15T08:46:44.000Z</time>
      </trkpt>
      <trkpt lat="45.75142" lon="4.49598">
        <ele>446.90338134766</ele>
        <time>2016-05-15T08:46:46.000Z</time>
      </trkpt>
      <trkpt lat="45.75143" lon="4.49593">
        <ele>446.74337768555</ele>
        <time>2016-05-15T08:46:48.000Z</time>
      </trkpt>
      <trkpt lat="45.75143" lon="4.49587">
        <ele>446.2917175293</ele>
        <time>2016-05-15T08:46:50.000Z</time>
      </trkpt>
      <trkpt lat="45.75143" lon="4.49572">
        <ele>445.53225708008</ele>
        <time>2016-05-15T08:46:53.000Z</time>
      </trkpt>
      <trkpt lat="45.75144" lon="4.49554">
        <ele>443.90145874023</ele>
        <time>2016-05-15T08:46:56.000Z</time>
      </trkpt>
      <trkpt lat="45.75145" lon="4.49542">
        <ele>443.08703613281</ele>
        <time>2016-05-15T08:46:58.000Z</time>
      </trkpt>
      <trkpt lat="45.75145" lon="4.49523">
        <ele>442.79406738281</ele>
        <time>2016-05-15T08:47:01.000Z</time>
      </trkpt>
      <trkpt lat="45.75144" lon="4.49507">
        <ele>440.77691650391</ele>
        <time>2016-05-15T08:47:04.000Z</time>
      </trkpt>
      <trkpt lat="45.75142" lon="4.49496">
        <ele>439.97540283203</ele>
        <time>2016-05-15T08:47:06.000Z</time>
      </trkpt>
      <trkpt lat="45.7514" lon="4.49486">
        <ele>441.25405883789</ele>
        <time>2016-05-15T08:47:08.000Z</time>
      </trkpt>
      <trkpt lat="45.75138" lon="4.49477">
        <ele>442.15646362305</ele>
        <time>2016-05-15T08:47:10.000Z</time>
      </trkpt>
      <trkpt lat="45.75134" lon="4.49462">
        <ele>442.14135742188</ele>
        <time>2016-05-15T08:47:13.000Z</time>
      </trkpt>
      <trkpt lat="45.75131" lon="4.49454">
        <ele>442.83563232422</ele>
        <time>2016-05-15T08:47:15.000Z</time>
      </trkpt>
      <trkpt lat="45.75128" lon="4.4944">
        <ele>442.33264160156</ele>
        <time>2016-05-15T08:47:18.000Z</time>
      </trkpt>
      <trkpt lat="45.75126" lon="4.49432">
        <ele>442.04351806641</ele>
        <time>2016-05-15T08:47:20.000Z</time>
      </trkpt>
      <trkpt lat="45.75124" lon="4.49418">
        <ele>442.12478637695</ele>
        <time>2016-05-15T08:47:23.000Z</time>
      </trkpt>
      <trkpt lat="45.75122" lon="4.4941">
        <ele>441.95230102539</ele>
        <time>2016-05-15T08:47:25.000Z</time>
      </trkpt>
      <trkpt lat="45.75119" lon="4.49398">
        <ele>441.26235961914</ele>
        <time>2016-05-15T08:47:28.000Z</time>
      </trkpt>
      <trkpt lat="45.75117" lon="4.49391">
        <ele>441.65130615234</ele>
        <time>2016-05-15T08:47:30.000Z</time>
      </trkpt>
      <trkpt lat="45.75116" lon="4.49379">
        <ele>443.06256103516</ele>
        <time>2016-05-15T08:47:33.000Z</time>
      </trkpt>
      <trkpt lat="45.75115" lon="4.49372">
        <ele>442.91625976562</ele>
        <time>2016-05-15T08:47:35.000Z</time>
      </trkpt>
      <trkpt lat="45.75115" lon="4.4936">
        <ele>443.57144165039</ele>
        <time>2016-05-15T08:47:38.000Z</time>
      </trkpt>
      <trkpt lat="45.75114" lon="4.49352">
        <ele>444.32656860352</ele>
        <time>2016-05-15T08:47:40.000Z</time>
      </trkpt>
      <trkpt lat="45.75114" lon="4.49347">
        <ele>444.84533691406</ele>
        <time>2016-05-15T08:47:42.000Z</time>
      </trkpt>
      <trkpt lat="45.75113" lon="4.49336">
        <ele>445.29739379883</ele>
        <time>2016-05-15T08:47:46.000Z</time>
      </trkpt>
      <trkpt lat="45.75112" lon="4.49331">
        <ele>444.80099487305</ele>
        <time>2016-05-15T08:47:48.000Z</time>
      </trkpt>
      <trkpt lat="45.75105" lon="4.49319">
        <ele>442.90762329102</ele>
        <time>2016-05-15T08:47:51.000Z</time>
      </trkpt>
      <trkpt lat="45.75101" lon="4.49312">
        <ele>442.80526733398</ele>
        <time>2016-05-15T08:47:53.000Z</time>
      </trkpt>
      <trkpt lat="45.75095" lon="4.49302">
        <ele>443.27813720703</ele>
        <time>2016-05-15T08:47:56.000Z</time>
      </trkpt>
      <trkpt lat="45.75092" lon="4.49294">
        <ele>443.83715820312</ele>
        <time>2016-05-15T08:47:59.000Z</time>
      </trkpt>
      <trkpt lat="45.7509" lon="4.49289">
        <ele>444.21597290039</ele>
        <time>2016-05-15T08:48:01.000Z</time>
      </trkpt>
      <trkpt lat="45.75089" lon="4.49283">
        <ele>444.43466186523</ele>
        <time>2016-05-15T08:48:03.000Z</time>
      </trkpt>
      <trkpt lat="45.75088" lon="4.49278">
        <ele>444.52642822266</ele>
        <time>2016-05-15T08:48:05.000Z</time>
      </trkpt>
      <trkpt lat="45.75086" lon="4.49267">
        <ele>444.36871337891</ele>
        <time>2016-05-15T08:48:09.000Z</time>
      </trkpt>
      <trkpt lat="45.75085" lon="4.49255">
        <ele>443.44747924805</ele>
        <time>2016-05-15T08:48:12.000Z</time>
      </trkpt>
      <trkpt lat="45.75087" lon="4.49248">
        <ele>442.72610473633</ele>
        <time>2016-05-15T08:48:14.000Z</time>
      </trkpt>
      <trkpt lat="45.75091" lon="4.49237">
        <ele>442.57321166992</ele>
        <time>2016-05-15T08:48:17.000Z</time>
      </trkpt>
      <trkpt lat="45.75092" lon="4.49229">
        <ele>442.4016418457</ele>
        <time>2016-05-15T08:48:20.000Z</time>
      </trkpt>
      <trkpt lat="45.75092" lon="4.49225">
        <ele>442.4372253418</ele>
        <time>2016-05-15T08:48:22.000Z</time>
      </trkpt>
      <trkpt lat="45.75093" lon="4.49221">
        <ele>442.4909362793</ele>
        <time>2016-05-15T08:48:24.000Z</time>
      </trkpt>
      <trkpt lat="45.75093" lon="4.49215">
        <ele>442.20223999023</ele>
        <time>2016-05-15T08:48:26.000Z</time>
      </trkpt>
      <trkpt lat="45.75093" lon="4.49203">
        <ele>442.19052124023</ele>
        <time>2016-05-15T08:48:30.000Z</time>
      </trkpt>
      <trkpt lat="45.75093" lon="4.49196">
        <ele>442.23376464844</ele>
        <time>2016-05-15T08:48:32.000Z</time>
      </trkpt>
      <trkpt lat="45.75093" lon="4.49188">
        <ele>441.98751831055</ele>
        <time>2016-05-15T08:48:34.000Z</time>
      </trkpt>
      <trkpt lat="45.75094" lon="4.4918">
        <ele>442.01007080078</ele>
        <time>2016-05-15T08:48:36.000Z</time>
      </trkpt>
      <trkpt lat="45.75094" lon="4.49169">
        <ele>442.03863525391</ele>
        <time>2016-05-15T08:48:40.000Z</time>
      </trkpt>
      <trkpt lat="45.75092" lon="4.4916">
        <ele>442.26354980469</ele>
        <time>2016-05-15T08:48:43.000Z</time>
      </trkpt>
      <trkpt lat="45.7509" lon="4.49153">
        <ele>442.10736083984</ele>
        <time>2016-05-15T08:48:45.000Z</time>
      </trkpt>
      <trkpt lat="45.75086" lon="4.49144">
        <ele>442.55087280273</ele>
        <time>2016-05-15T08:48:48.000Z</time>
      </trkpt>
      <trkpt lat="45.75082" lon="4.49139">
        <ele>442.73291015625</ele>
        <time>2016-05-15T08:48:50.000Z</time>
      </trkpt>
      <trkpt lat="45.75079" lon="4.49133">
        <ele>442.56985473633</ele>
        <time>2016-05-15T08:48:52.000Z</time>
      </trkpt>
      <trkpt lat="45.75073" lon="4.49125">
        <ele>443.94372558594</ele>
        <time>2016-05-15T08:48:55.000Z</time>
      </trkpt>
      <trkpt lat="45.7507" lon="4.49116">
        <ele>444.11944580078</ele>
        <time>2016-05-15T08:48:58.000Z</time>
      </trkpt>
      <trkpt lat="45.75067" lon="4.49109">
        <ele>443.91571044922</ele>
        <time>2016-05-15T08:49:00.000Z</time>
      </trkpt>
      <trkpt lat="45.75065" lon="4.49102">
        <ele>443.71350097656</ele>
        <time>2016-05-15T08:49:02.000Z</time>
      </trkpt>
      <trkpt lat="45.75063" lon="4.49091">
        <ele>443.73690795898</ele>
        <time>2016-05-15T08:49:05.000Z</time>
      </trkpt>
      <trkpt lat="45.75061" lon="4.49084">
        <ele>443.52984619141</ele>
        <time>2016-05-15T08:49:07.000Z</time>
      </trkpt>
      <trkpt lat="45.75061" lon="4.49075">
        <ele>442.78692626953</ele>
        <time>2016-05-15T08:49:10.000Z</time>
      </trkpt>
      <trkpt lat="45.7506" lon="4.49063">
        <ele>443.28805541992</ele>
        <time>2016-05-15T08:49:13.000Z</time>
      </trkpt>
      <trkpt lat="45.7506" lon="4.49051">
        <ele>445.23419189453</ele>
        <time>2016-05-15T08:49:16.000Z</time>
      </trkpt>
      <trkpt lat="45.75059" lon="4.49039">
        <ele>446.26596069336</ele>
        <time>2016-05-15T08:49:20.000Z</time>
      </trkpt>
      <trkpt lat="45.75059" lon="4.49028">
        <ele>447.12380981445</ele>
        <time>2016-05-15T08:49:24.000Z</time>
      </trkpt>
      <trkpt lat="45.7506" lon="4.49023">
        <ele>447.30551147461</ele>
        <time>2016-05-15T08:49:26.000Z</time>
      </trkpt>
      <trkpt lat="45.75061" lon="4.49013">
        <ele>448.00537109375</ele>
        <time>2016-05-15T08:49:30.000Z</time>
      </trkpt>
      <trkpt lat="45.75061" lon="4.49001">
        <ele>449.15637207031</ele>
        <time>2016-05-15T08:49:34.000Z</time>
      </trkpt>
      <trkpt lat="45.75059" lon="4.48995">
        <ele>450.79962158203</ele>
        <time>2016-05-15T08:49:37.000Z</time>
      </trkpt>
      <trkpt lat="45.75055" lon="4.48986">
        <ele>453.2216796875</ele>
        <time>2016-05-15T08:49:39.000Z</time>
      </trkpt>
      <trkpt lat="45.75053" lon="4.48979">
        <ele>453.59069824219</ele>
        <time>2016-05-15T08:49:41.000Z</time>
      </trkpt>
      <trkpt lat="45.75049" lon="4.48971">
        <ele>452.78601074219</ele>
        <time>2016-05-15T08:49:44.000Z</time>
      </trkpt>
      <trkpt lat="45.75047" lon="4.48965">
        <ele>452.4909362793</ele>
        <time>2016-05-15T08:49:46.000Z</time>
      </trkpt>
      <trkpt lat="45.75043" lon="4.48955">
        <ele>451.93542480469</ele>
        <time>2016-05-15T08:49:49.000Z</time>
      </trkpt>
      <trkpt lat="45.75041" lon="4.48947">
        <ele>451.55038452148</ele>
        <time>2016-05-15T08:49:51.000Z</time>
      </trkpt>
      <trkpt lat="45.75037" lon="4.48936">
        <ele>451.20004272461</ele>
        <time>2016-05-15T08:49:54.000Z</time>
      </trkpt>
      <trkpt lat="45.7503" lon="4.48922">
        <ele>451.0862121582</ele>
        <time>2016-05-15T08:49:57.000Z</time>
      </trkpt>
      <trkpt lat="45.75024" lon="4.4891">
        <ele>449.23580932617</ele>
        <time>2016-05-15T08:49:59.000Z</time>
      </trkpt>
      <trkpt lat="45.75014" lon="4.48891">
        <ele>447.23300170898</ele>
        <time>2016-05-15T08:50:02.000Z</time>
      </trkpt>
      <trkpt lat="45.75007" lon="4.48875">
        <ele>446.59146118164</ele>
        <time>2016-05-15T08:50:05.000Z</time>
      </trkpt>
      <trkpt lat="45.75003" lon="4.48865">
        <ele>448.35049438477</ele>
        <time>2016-05-15T08:50:07.000Z</time>
      </trkpt>
      <trkpt lat="45.74998" lon="4.48853">
        <ele>449.81869506836</ele>
        <time>2016-05-15T08:50:10.000Z</time>
      </trkpt>
      <trkpt lat="45.74997" lon="4.48846">
        <ele>450.16198730469</ele>
        <time>2016-05-15T08:50:12.000Z</time>
      </trkpt>
      <trkpt lat="45.74997" lon="4.48837">
        <ele>450.08380126953</ele>
        <time>2016-05-15T08:50:14.000Z</time>
      </trkpt>
      <trkpt lat="45.74997" lon="4.48829">
        <ele>450.15463256836</ele>
        <time>2016-05-15T08:50:17.000Z</time>
      </trkpt>
      <trkpt lat="45.75" lon="4.48823">
        <ele>450.41213989258</ele>
        <time>2016-05-15T08:50:20.000Z</time>
      </trkpt>
      <trkpt lat="45.75005" lon="4.48819">
        <ele>451.14437866211</ele>
        <time>2016-05-15T08:50:22.000Z</time>
      </trkpt>
      <trkpt lat="45.7501" lon="4.48816">
        <ele>451.98361206055</ele>
        <time>2016-05-15T08:50:24.000Z</time>
      </trkpt>
      <trkpt lat="45.75014" lon="4.48813">
        <ele>452.40017700195</ele>
        <time>2016-05-15T08:50:26.000Z</time>
      </trkpt>
      <trkpt lat="45.7502" lon="4.48805">
        <ele>453.50094604492</ele>
        <time>2016-05-15T08:50:30.000Z</time>
      </trkpt>
      <trkpt lat="45.75023" lon="4.48798">
        <ele>452.76748657227</ele>
        <time>2016-05-15T08:50:32.000Z</time>
      </trkpt>
      <trkpt lat="45.75024" lon="4.48794">
        <ele>452.61685180664</ele>
        <time>2016-05-15T08:50:34.000Z</time>
      </trkpt>
      <trkpt lat="45.75026" lon="4.4879">
        <ele>452.14196777344</ele>
        <time>2016-05-15T08:50:36.000Z</time>
      </trkpt>
      <trkpt lat="45.7503" lon="4.48781">
        <ele>451.26391601562</ele>
        <time>2016-05-15T08:50:39.000Z</time>
      </trkpt>
      <trkpt lat="45.75034" lon="4.48773">
        <ele>451.45663452148</ele>
        <time>2016-05-15T08:50:41.000Z</time>
      </trkpt>
      <trkpt lat="45.75037" lon="4.48763">
        <ele>453.21704101562</ele>
        <time>2016-05-15T08:50:44.000Z</time>
      </trkpt>
      <trkpt lat="45.7504" lon="4.48752">
        <ele>453.23449707031</ele>
        <time>2016-05-15T08:50:47.000Z</time>
      </trkpt>
      <trkpt lat="45.75042" lon="4.48741">
        <ele>452.60507202148</ele>
        <time>2016-05-15T08:50:50.000Z</time>
      </trkpt>
      <trkpt lat="45.75044" lon="4.48733">
        <ele>453.25067138672</ele>
        <time>2016-05-15T08:50:52.000Z</time>
      </trkpt>
      <trkpt lat="45.75045" lon="4.48726">
        <ele>453.6086730957</ele>
        <time>2016-05-15T08:50:54.000Z</time>
      </trkpt>
      <trkpt lat="45.75047" lon="4.48715">
        <ele>453.75823974609</ele>
        <time>2016-05-15T08:50:57.000Z</time>
      </trkpt>
      <trkpt lat="45.75048" lon="4.48706">
        <ele>453.87384033203</ele>
        <time>2016-05-15T08:50:59.000Z</time>
      </trkpt>
      <trkpt lat="45.7505" lon="4.48696">
        <ele>454.02398681641</ele>
        <time>2016-05-15T08:51:02.000Z</time>
      </trkpt>
      <trkpt lat="45.75054" lon="4.48683">
        <ele>454.94732666016</ele>
        <time>2016-05-15T08:51:05.000Z</time>
      </trkpt>
      <trkpt lat="45.75056" lon="4.48677">
        <ele>456.13812255859</ele>
        <time>2016-05-15T08:51:07.000Z</time>
      </trkpt>
      <trkpt lat="45.75061" lon="4.4867">
        <ele>455.38552856445</ele>
        <time>2016-05-15T08:51:09.000Z</time>
      </trkpt>
      <trkpt lat="45.75065" lon="4.48664">
        <ele>454.70413208008</ele>
        <time>2016-05-15T08:51:11.000Z</time>
      </trkpt>
      <trkpt lat="45.75072" lon="4.48655">
        <ele>454.97631835938</ele>
        <time>2016-05-15T08:51:14.000Z</time>
      </trkpt>
      <trkpt lat="45.7508" lon="4.48646">
        <ele>455.03857421875</ele>
        <time>2016-05-15T08:51:17.000Z</time>
      </trkpt>
      <trkpt lat="45.7509" lon="4.48636">
        <ele>454.57720947266</ele>
        <time>2016-05-15T08:51:20.000Z</time>
      </trkpt>
      <trkpt lat="45.75096" lon="4.48628">
        <ele>454.62216186523</ele>
        <time>2016-05-15T08:51:22.000Z</time>
      </trkpt>
      <trkpt lat="45.75106" lon="4.48618">
        <ele>455.74392700195</ele>
        <time>2016-05-15T08:51:25.000Z</time>
      </trkpt>
      <trkpt lat="45.75113" lon="4.48612">
        <ele>456.513671875</ele>
        <time>2016-05-15T08:51:27.000Z</time>
      </trkpt>
      <trkpt lat="45.75124" lon="4.48605">
        <ele>456.56109619141</ele>
        <time>2016-05-15T08:51:30.000Z</time>
      </trkpt>
      <trkpt lat="45.75134" lon="4.48599">
        <ele>456.69775390625</ele>
        <time>2016-05-15T08:51:33.000Z</time>
      </trkpt>
      <trkpt lat="45.75139" lon="4.48595">
        <ele>457.07693481445</ele>
        <time>2016-05-15T08:51:35.000Z</time>
      </trkpt>
      <trkpt lat="45.75145" lon="4.48589">
        <ele>456.83444213867</ele>
        <time>2016-05-15T08:51:39.000Z</time>
      </trkpt>
      <trkpt lat="45.75151" lon="4.48585">
        <ele>457.78924560547</ele>
        <time>2016-05-15T08:51:43.000Z</time>
      </trkpt>
      <trkpt lat="45.75154" lon="4.48581">
        <ele>459.23010253906</ele>
        <time>2016-05-15T08:51:46.000Z</time>
      </trkpt>
      <trkpt lat="45.75156" lon="4.48576">
        <ele>460.16195678711</ele>
        <time>2016-05-15T08:51:48.000Z</time>
      </trkpt>
      <trkpt lat="45.75156" lon="4.48573">
        <ele>460.30816650391</ele>
        <time>2016-05-15T08:51:50.000Z</time>
      </trkpt>
      <trkpt lat="45.75159" lon="4.48565">
        <ele>460.15957641602</ele>
        <time>2016-05-15T08:51:54.000Z</time>
      </trkpt>
      <trkpt lat="45.75161" lon="4.48561">
        <ele>459.73901367188</ele>
        <time>2016-05-15T08:51:56.000Z</time>
      </trkpt>
      <trkpt lat="45.75164" lon="4.48553">
        <ele>458.89505004883</ele>
        <time>2016-05-15T08:52:00.000Z</time>
      </trkpt>
      <trkpt lat="45.75167" lon="4.48548">
        <ele>458.67465209961</ele>
        <time>2016-05-15T08:52:02.000Z</time>
      </trkpt>
      <trkpt lat="45.7517" lon="4.48541">
        <ele>458.5471496582</ele>
        <time>2016-05-15T08:52:06.000Z</time>
      </trkpt>
      <trkpt lat="45.75171" lon="4.48537">
        <ele>458.86956787109</ele>
        <time>2016-05-15T08:52:08.000Z</time>
      </trkpt>
      <trkpt lat="45.75174" lon="4.48533">
        <ele>459.77780151367</ele>
        <time>2016-05-15T08:52:10.000Z</time>
      </trkpt>
      <trkpt lat="45.75176" lon="4.48526">
        <ele>461.40087890625</ele>
        <time>2016-05-15T08:52:14.000Z</time>
      </trkpt>
      <trkpt lat="45.75179" lon="4.4852">
        <ele>462.03158569336</ele>
        <time>2016-05-15T08:52:18.000Z</time>
      </trkpt>
      <trkpt lat="45.75182" lon="4.48516">
        <ele>461.8669128418</ele>
        <time>2016-05-15T08:52:20.000Z</time>
      </trkpt>
      <trkpt lat="45.75186" lon="4.48509">
        <ele>462.61273193359</ele>
        <time>2016-05-15T08:52:24.000Z</time>
      </trkpt>
      <trkpt lat="45.75187" lon="4.48506">
        <ele>462.87945556641</ele>
        <time>2016-05-15T08:52:26.000Z</time>
      </trkpt>
      <trkpt lat="45.75188" lon="4.48501">
        <ele>463.43655395508</ele>
        <time>2016-05-15T08:52:28.000Z</time>
      </trkpt>
      <trkpt lat="45.75191" lon="4.48493">
        <ele>464.58648681641</ele>
        <time>2016-05-15T08:52:32.000Z</time>
      </trkpt>
      <trkpt lat="45.75195" lon="4.48484">
        <ele>466.10653686523</ele>
        <time>2016-05-15T08:52:36.000Z</time>
      </trkpt>
      <trkpt lat="45.75197" lon="4.4848">
        <ele>466.41110229492</ele>
        <time>2016-05-15T08:52:38.000Z</time>
      </trkpt>
      <trkpt lat="45.752" lon="4.48471">
        <ele>466.96719360352</ele>
        <time>2016-05-15T08:52:42.000Z</time>
      </trkpt>
      <trkpt lat="45.75202" lon="4.48466">
        <ele>466.58096313477</ele>
        <time>2016-05-15T08:52:44.000Z</time>
      </trkpt>
      <trkpt lat="45.75203" lon="4.48461">
        <ele>466.10177612305</ele>
        <time>2016-05-15T08:52:46.000Z</time>
      </trkpt>
      <trkpt lat="45.75204" lon="4.48457">
        <ele>465.92864990234</ele>
        <time>2016-05-15T08:52:58.000Z</time>
      </trkpt>
      <trkpt lat="45.75206" lon="4.48444">
        <ele>467.26843261719</ele>
        <time>2016-05-15T08:56:41.000Z</time>
      </trkpt>
      <trkpt lat="45.75214" lon="4.4843">
        <ele>466.27871704102</ele>
        <time>2016-05-15T08:56:44.000Z</time>
      </trkpt>
      <trkpt lat="45.75218" lon="4.48414">
        <ele>465.84655761719</ele>
        <time>2016-05-15T08:56:46.000Z</time>
      </trkpt>
      <trkpt lat="45.75221" lon="4.484">
        <ele>465.35556030273</ele>
        <time>2016-05-15T08:56:48.000Z</time>
      </trkpt>
      <trkpt lat="45.75223" lon="4.48384">
        <ele>463.79321289062</ele>
        <time>2016-05-15T08:56:50.000Z</time>
      </trkpt>
      <trkpt lat="45.75224" lon="4.48364">
        <ele>464.77136230469</ele>
        <time>2016-05-15T08:56:53.000Z</time>
      </trkpt>
      <trkpt lat="45.75224" lon="4.48353">
        <ele>464.52398681641</ele>
        <time>2016-05-15T08:56:55.000Z</time>
      </trkpt>
      <trkpt lat="45.75224" lon="4.48342">
        <ele>464.53958129883</ele>
        <time>2016-05-15T08:56:57.000Z</time>
      </trkpt>
      <trkpt lat="45.75225" lon="4.4833">
        <ele>464.53121948242</ele>
        <time>2016-05-15T08:57:00.000Z</time>
      </trkpt>
      <trkpt lat="45.7523" lon="4.48324">
        <ele>465.61752319336</ele>
        <time>2016-05-15T08:57:02.000Z</time>
      </trkpt>
      <trkpt lat="45.75248" lon="4.48317">
        <ele>467.32592773438</ele>
        <time>2016-05-15T08:57:05.000Z</time>
      </trkpt>
      <trkpt lat="45.75263" lon="4.48311">
        <ele>466.64526367188</ele>
        <time>2016-05-15T08:57:07.000Z</time>
      </trkpt>
      <trkpt lat="45.75274" lon="4.48303">
        <ele>467.00650024414</ele>
        <time>2016-05-15T08:57:09.000Z</time>
      </trkpt>
      <trkpt lat="45.75284" lon="4.48292">
        <ele>466.6057434082</ele>
        <time>2016-05-15T08:57:11.000Z</time>
      </trkpt>
      <trkpt lat="45.75296" lon="4.48269">
        <ele>466.01327514648</ele>
        <time>2016-05-15T08:57:14.000Z</time>
      </trkpt>
      <trkpt lat="45.75301" lon="4.48252">
        <ele>465.67974853516</ele>
        <time>2016-05-15T08:57:16.000Z</time>
      </trkpt>
      <trkpt lat="45.75307" lon="4.48228">
        <ele>465.06213378906</ele>
        <time>2016-05-15T08:57:19.000Z</time>
      </trkpt>
      <trkpt lat="45.75313" lon="4.48212">
        <ele>464.88562011719</ele>
        <time>2016-05-15T08:57:21.000Z</time>
      </trkpt>
      <trkpt lat="45.75319" lon="4.48201">
        <ele>464.45254516602</ele>
        <time>2016-05-15T08:57:23.000Z</time>
      </trkpt>
      <trkpt lat="45.75327" lon="4.48186">
        <ele>464.30819702148</ele>
        <time>2016-05-15T08:57:26.000Z</time>
      </trkpt>
      <trkpt lat="45.75334" lon="4.48174">
        <ele>463.91839599609</ele>
        <time>2016-05-15T08:57:29.000Z</time>
      </trkpt>
      <trkpt lat="45.75338" lon="4.48169">
        <ele>463.37582397461</ele>
        <time>2016-05-15T08:57:32.000Z</time>
      </trkpt>
      <trkpt lat="45.75344" lon="4.48163">
        <ele>463.2522277832</ele>
        <time>2016-05-15T08:57:35.000Z</time>
      </trkpt>
      <trkpt lat="45.7535" lon="4.48157">
        <ele>464.25091552734</ele>
        <time>2016-05-15T08:57:38.000Z</time>
      </trkpt>
      <trkpt lat="45.75354" lon="4.48154">
        <ele>465.36993408203</ele>
        <time>2016-05-15T08:57:40.000Z</time>
      </trkpt>
      <trkpt lat="45.7536" lon="4.4815">
        <ele>466.26321411133</ele>
        <time>2016-05-15T08:57:42.000Z</time>
      </trkpt>
      <trkpt lat="45.75363" lon="4.48148">
        <ele>466.67883300781</ele>
        <time>2016-05-15T08:57:44.000Z</time>
      </trkpt>
      <trkpt lat="45.75369" lon="4.48144">
        <ele>467.36782836914</ele>
        <time>2016-05-15T08:57:46.000Z</time>
      </trkpt>
      <trkpt lat="45.75375" lon="4.4814">
        <ele>467.18417358398</ele>
        <time>2016-05-15T08:57:48.000Z</time>
      </trkpt>
      <trkpt lat="45.75383" lon="4.48133">
        <ele>466.62438964844</ele>
        <time>2016-05-15T08:57:51.000Z</time>
      </trkpt>
      <trkpt lat="45.75389" lon="4.48129">
        <ele>466.53555297852</ele>
        <time>2016-05-15T08:57:53.000Z</time>
      </trkpt>
      <trkpt lat="45.754" lon="4.48123">
        <ele>467.61785888672</ele>
        <time>2016-05-15T08:57:56.000Z</time>
      </trkpt>
      <trkpt lat="45.75413" lon="4.4811">
        <ele>466.48825073242</ele>
        <time>2016-05-15T08:57:59.000Z</time>
      </trkpt>
      <trkpt lat="45.7542" lon="4.48101">
        <ele>467.8303527832</ele>
        <time>2016-05-15T08:58:01.000Z</time>
      </trkpt>
      <trkpt lat="45.75428" lon="4.48091">
        <ele>470.69976806641</ele>
        <time>2016-05-15T08:58:05.000Z</time>
      </trkpt>
      <trkpt lat="45.75426" lon="4.48093">
        <ele>479.66571044922</ele>
        <time>2016-05-15T09:07:54.000Z</time>
      </trkpt>
      <trkpt lat="45.7543" lon="4.4809">
        <ele>479.13232421875</ele>
        <time>2016-05-15T09:07:58.000Z</time>
      </trkpt>
      <trkpt lat="45.75434" lon="4.48084">
        <ele>478.40197753906</ele>
        <time>2016-05-15T09:08:01.000Z</time>
      </trkpt>
      <trkpt lat="45.75436" lon="4.4808">
        <ele>478.21936035156</ele>
        <time>2016-05-15T09:08:04.000Z</time>
      </trkpt>
      <trkpt lat="45.75439" lon="4.48074">
        <ele>479.19589233398</ele>
        <time>2016-05-15T09:08:09.000Z</time>
      </trkpt>
      <trkpt lat="45.75441" lon="4.48071">
        <ele>479.07232666016</ele>
        <time>2016-05-15T09:08:12.000Z</time>
      </trkpt>
      <trkpt lat="45.75444" lon="4.48068">
        <ele>479.27600097656</ele>
        <time>2016-05-15T09:08:15.000Z</time>
      </trkpt>
      <trkpt lat="45.75447" lon="4.48064">
        <ele>479.76907348633</ele>
        <time>2016-05-15T09:08:19.000Z</time>
      </trkpt>
      <trkpt lat="45.75448" lon="4.48061">
        <ele>480.17706298828</ele>
        <time>2016-05-15T09:08:21.000Z</time>
      </trkpt>
      <trkpt lat="45.7545" lon="4.48054">
        <ele>480.23178100586</ele>
        <time>2016-05-15T09:08:26.000Z</time>
      </trkpt>
      <trkpt lat="45.75452" lon="4.48051">
        <ele>480.71179199219</ele>
        <time>2016-05-15T09:08:28.000Z</time>
      </trkpt>
      <trkpt lat="45.75454" lon="4.48047">
        <ele>480.63803100586</ele>
        <time>2016-05-15T09:08:30.000Z</time>
      </trkpt>
      <trkpt lat="45.75456" lon="4.48044">
        <ele>479.26275634766</ele>
        <time>2016-05-15T09:08:32.000Z</time>
      </trkpt>
      <trkpt lat="45.7546" lon="4.48038">
        <ele>476.09661865234</ele>
        <time>2016-05-15T09:08:36.000Z</time>
      </trkpt>
      <trkpt lat="45.75462" lon="4.48036">
        <ele>475.65124511719</ele>
        <time>2016-05-15T09:08:39.000Z</time>
      </trkpt>
      <trkpt lat="45.75463" lon="4.48033">
        <ele>474.96795654297</ele>
        <time>2016-05-15T09:08:42.000Z</time>
      </trkpt>
      <trkpt lat="45.75465" lon="4.48026">
        <ele>475.39706420898</ele>
        <time>2016-05-15T09:08:46.000Z</time>
      </trkpt>
      <trkpt lat="45.75468" lon="4.4802">
        <ele>476.54483032227</ele>
        <time>2016-05-15T09:08:51.000Z</time>
      </trkpt>
      <trkpt lat="45.75468" lon="4.48018">
        <ele>477.27236938477</ele>
        <time>2016-05-15T09:08:55.000Z</time>
      </trkpt>
      <trkpt lat="45.75467" lon="4.48016">
        <ele>477.83786010742</ele>
        <time>2016-05-15T09:08:59.000Z</time>
      </trkpt>
      <trkpt lat="45.75466" lon="4.48014">
        <ele>478.68832397461</ele>
        <time>2016-05-15T09:09:01.000Z</time>
      </trkpt>
      <trkpt lat="45.75461" lon="4.48013">
        <ele>479.56185913086</ele>
        <time>2016-05-15T09:09:05.000Z</time>
      </trkpt>
      <trkpt lat="45.75458" lon="4.48012">
        <ele>479.6513671875</ele>
        <time>2016-05-15T09:09:07.000Z</time>
      </trkpt>
      <trkpt lat="45.75454" lon="4.48012">
        <ele>479.73495483398</ele>
        <time>2016-05-15T09:09:09.000Z</time>
      </trkpt>
      <trkpt lat="45.75451" lon="4.48012">
        <ele>480.13873291016</ele>
        <time>2016-05-15T09:09:13.000Z</time>
      </trkpt>
      <trkpt lat="45.75449" lon="4.4801">
        <ele>480.43496704102</ele>
        <time>2016-05-15T09:09:17.000Z</time>
      </trkpt>
      <trkpt lat="45.75449" lon="4.48007">
        <ele>481.69387817383</ele>
        <time>2016-05-15T09:09:21.000Z</time>
      </trkpt>
      <trkpt lat="45.75449" lon="4.48004">
        <ele>482.29888916016</ele>
        <time>2016-05-15T09:09:24.000Z</time>
      </trkpt>
      <trkpt lat="45.75448" lon="4.48001">
        <ele>482.56628417969</ele>
        <time>2016-05-15T09:09:26.000Z</time>
      </trkpt>
      <trkpt lat="45.75448" lon="4.47998">
        <ele>482.88140869141</ele>
        <time>2016-05-15T09:09:29.000Z</time>
      </trkpt>
      <trkpt lat="45.75448" lon="4.47994">
        <ele>483.22024536133</ele>
        <time>2016-05-15T09:09:32.000Z</time>
      </trkpt>
      <trkpt lat="45.75447" lon="4.4799">
        <ele>483.38174438477</ele>
        <time>2016-05-15T09:09:35.000Z</time>
      </trkpt>
      <trkpt lat="45.75447" lon="4.47987">
        <ele>483.95736694336</ele>
        <time>2016-05-15T09:09:38.000Z</time>
      </trkpt>
      <trkpt lat="45.75443" lon="4.47983">
        <ele>485.93264770508</ele>
        <time>2016-05-15T09:09:42.000Z</time>
      </trkpt>
      <trkpt lat="45.7544" lon="4.47983">
        <ele>487.025390625</ele>
        <time>2016-05-15T09:09:44.000Z</time>
      </trkpt>
      <trkpt lat="45.75434" lon="4.47982">
        <ele>488.61193847656</ele>
        <time>2016-05-15T09:09:48.000Z</time>
      </trkpt>
      <trkpt lat="45.75428" lon="4.4798">
        <ele>490.72082519531</ele>
        <time>2016-05-15T09:09:52.000Z</time>
      </trkpt>
      <trkpt lat="45.75425" lon="4.4798">
        <ele>491.77062988281</ele>
        <time>2016-05-15T09:09:54.000Z</time>
      </trkpt>
      <trkpt lat="45.75423" lon="4.47981">
        <ele>492.95306396484</ele>
        <time>2016-05-15T09:09:57.000Z</time>
      </trkpt>
      <trkpt lat="45.7542" lon="4.47982">
        <ele>494.02426147461</ele>
        <time>2016-05-15T09:09:59.000Z</time>
      </trkpt>
      <trkpt lat="45.75414" lon="4.47985">
        <ele>496.56918334961</ele>
        <time>2016-05-15T09:10:04.000Z</time>
      </trkpt>
      <trkpt lat="45.75411" lon="4.47986">
        <ele>498.7971496582</ele>
        <time>2016-05-15T09:10:09.000Z</time>
      </trkpt>
      <trkpt lat="45.75405" lon="4.4799">
        <ele>502.34683227539</ele>
        <time>2016-05-15T09:10:12.000Z</time>
      </trkpt>
      <trkpt lat="45.75402" lon="4.47992">
        <ele>503.02920532227</ele>
        <time>2016-05-15T09:10:14.000Z</time>
      </trkpt>
      <trkpt lat="45.75396" lon="4.47995">
        <ele>504.15664672852</ele>
        <time>2016-05-15T09:10:19.000Z</time>
      </trkpt>
      <trkpt lat="45.75394" lon="4.47997">
        <ele>505.24945068359</ele>
        <time>2016-05-15T09:10:22.000Z</time>
      </trkpt>
      <trkpt lat="45.75391" lon="4.48">
        <ele>506.22277832031</ele>
        <time>2016-05-15T09:10:24.000Z</time>
      </trkpt>
      <trkpt lat="45.75385" lon="4.48004">
        <ele>508.17626953125</ele>
        <time>2016-05-15T09:10:28.000Z</time>
      </trkpt>
      <trkpt lat="45.75378" lon="4.48008">
        <ele>509.51898193359</ele>
        <time>2016-05-15T09:10:31.000Z</time>
      </trkpt>
      <trkpt lat="45.75375" lon="4.48011">
        <ele>509.08709716797</ele>
        <time>2016-05-15T09:10:33.000Z</time>
      </trkpt>
      <trkpt lat="45.75369" lon="4.48015">
        <ele>508.29034423828</ele>
        <time>2016-05-15T09:10:35.000Z</time>
      </trkpt>
      <trkpt lat="45.75363" lon="4.4802">
        <ele>509.00082397461</ele>
        <time>2016-05-15T09:10:38.000Z</time>
      </trkpt>
      <trkpt lat="45.75356" lon="4.48027">
        <ele>509.45819091797</ele>
        <time>2016-05-15T09:10:42.000Z</time>
      </trkpt>
      <trkpt lat="45.75351" lon="4.48031">
        <ele>510.78555297852</ele>
        <time>2016-05-15T09:10:48.000Z</time>
      </trkpt>
      <trkpt lat="45.75349" lon="4.48032">
        <ele>510.95797729492</ele>
        <time>2016-05-15T09:10:52.000Z</time>
      </trkpt>
      <trkpt lat="45.75346" lon="4.48033">
        <ele>510.62545776367</ele>
        <time>2016-05-15T09:10:54.000Z</time>
      </trkpt>
      <trkpt lat="45.75341" lon="4.48035">
        <ele>510.96896362305</ele>
        <time>2016-05-15T09:10:58.000Z</time>
      </trkpt>
      <trkpt lat="45.75335" lon="4.48037">
        <ele>512.22326660156</ele>
        <time>2016-05-15T09:11:03.000Z</time>
      </trkpt>
      <trkpt lat="45.75331" lon="4.48039">
        <ele>513.30310058594</ele>
        <time>2016-05-15T09:11:05.000Z</time>
      </trkpt>
      <trkpt lat="45.75326" lon="4.48041">
        <ele>513.61181640625</ele>
        <time>2016-05-15T09:11:09.000Z</time>
      </trkpt>
      <trkpt lat="45.7532" lon="4.48042">
        <ele>513.71270751953</ele>
        <time>2016-05-15T09:11:14.000Z</time>
      </trkpt>
      <trkpt lat="45.75317" lon="4.48041">
        <ele>513.99798583984</ele>
        <time>2016-05-15T09:11:17.000Z</time>
      </trkpt>
      <trkpt lat="45.75315" lon="4.48041">
        <ele>514.36682128906</ele>
        <time>2016-05-15T09:11:24.000Z</time>
      </trkpt>
      <trkpt lat="45.75312" lon="4.48041">
        <ele>515.03918457031</ele>
        <time>2016-05-15T09:11:27.000Z</time>
      </trkpt>
      <trkpt lat="45.7531" lon="4.48041">
        <ele>515.72131347656</ele>
        <time>2016-05-15T09:11:30.000Z</time>
      </trkpt>
      <trkpt lat="45.75307" lon="4.48042">
        <ele>515.99090576172</ele>
        <time>2016-05-15T09:11:33.000Z</time>
      </trkpt>
      <trkpt lat="45.75301" lon="4.4805">
        <ele>513.67443847656</ele>
        <time>2016-05-15T09:11:37.000Z</time>
      </trkpt>
      <trkpt lat="45.75301" lon="4.48052">
        <ele>513.28741455078</ele>
        <time>2016-05-15T09:11:52.000Z</time>
      </trkpt>
      <trkpt lat="45.75301" lon="4.4805">
        <ele>514.04895019531</ele>
        <time>2016-05-15T09:12:01.000Z</time>
      </trkpt>
      <trkpt lat="45.75302" lon="4.48048">
        <ele>514.52813720703</ele>
        <time>2016-05-15T09:12:03.000Z</time>
      </trkpt>
      <trkpt lat="45.75304" lon="4.48041">
        <ele>515.16137695312</ele>
        <time>2016-05-15T09:12:08.000Z</time>
      </trkpt>
      <trkpt lat="45.75305" lon="4.48038">
        <ele>515.65631103516</ele>
        <time>2016-05-15T09:12:12.000Z</time>
      </trkpt>
      <trkpt lat="45.75307" lon="4.48035">
        <ele>515.96899414062</ele>
        <time>2016-05-15T09:12:15.000Z</time>
      </trkpt>
      <trkpt lat="45.75309" lon="4.48033">
        <ele>516.10748291016</ele>
        <time>2016-05-15T09:12:17.000Z</time>
      </trkpt>
      <trkpt lat="45.75312" lon="4.48027">
        <ele>515.72222900391</ele>
        <time>2016-05-15T09:12:21.000Z</time>
      </trkpt>
      <trkpt lat="45.75314" lon="4.4802">
        <ele>516.41442871094</ele>
        <time>2016-05-15T09:12:25.000Z</time>
      </trkpt>
      <trkpt lat="45.75316" lon="4.48017">
        <ele>517.34252929688</ele>
        <time>2016-05-15T09:12:27.000Z</time>
      </trkpt>
      <trkpt lat="45.75317" lon="4.48015">
        <ele>518.08563232422</ele>
        <time>2016-05-15T09:12:29.000Z</time>
      </trkpt>
      <trkpt lat="45.75321" lon="4.48009">
        <ele>519.16833496094</ele>
        <time>2016-05-15T09:12:34.000Z</time>
      </trkpt>
      <trkpt lat="45.75321" lon="4.48005">
        <ele>520.01348876953</ele>
        <time>2016-05-15T09:12:37.000Z</time>
      </trkpt>
      <trkpt lat="45.75321" lon="4.48002">
        <ele>520.67858886719</ele>
        <time>2016-05-15T09:12:42.000Z</time>
      </trkpt>
      <trkpt lat="45.75323" lon="4.47994">
        <ele>522.65069580078</ele>
        <time>2016-05-15T09:12:46.000Z</time>
      </trkpt>
      <trkpt lat="45.75325" lon="4.47984">
        <ele>523.6337890625</ele>
        <time>2016-05-15T09:12:50.000Z</time>
      </trkpt>
      <trkpt lat="45.75326" lon="4.4798">
        <ele>523.45031738281</ele>
        <time>2016-05-15T09:12:52.000Z</time>
      </trkpt>
      <trkpt lat="45.75327" lon="4.47975">
        <ele>523.07086181641</ele>
        <time>2016-05-15T09:12:57.000Z</time>
      </trkpt>
      <trkpt lat="45.75327" lon="4.4797">
        <ele>522.62188720703</ele>
        <time>2016-05-15T09:12:57.000Z</time>
      </trkpt>
      <trkpt lat="45.75331" lon="4.47961">
        <ele>520.95251464844</ele>
        <time>2016-05-15T09:13:00.000Z</time>
      </trkpt>
      <trkpt lat="45.75335" lon="4.47952">
        <ele>519.33361816406</ele>
        <time>2016-05-15T09:13:04.000Z</time>
      </trkpt>
      <trkpt lat="45.75337" lon="4.47947">
        <ele>519.26470947266</ele>
        <time>2016-05-15T09:13:06.000Z</time>
      </trkpt>
      <trkpt lat="45.75339" lon="4.47944">
        <ele>518.99206542969</ele>
        <time>2016-05-15T09:13:08.000Z</time>
      </trkpt>
      <trkpt lat="45.75342" lon="4.47939">
        <ele>518.99285888672</ele>
        <time>2016-05-15T09:13:12.000Z</time>
      </trkpt>
      <trkpt lat="45.75343" lon="4.47935">
        <ele>519.25329589844</ele>
        <time>2016-05-15T09:13:14.000Z</time>
      </trkpt>
      <trkpt lat="45.75344" lon="4.47932">
        <ele>519.90075683594</ele>
        <time>2016-05-15T09:13:16.000Z</time>
      </trkpt>
      <trkpt lat="45.75346" lon="4.47929">
        <ele>521.02642822266</ele>
        <time>2016-05-15T09:13:19.000Z</time>
      </trkpt>
      <trkpt lat="45.75349" lon="4.47927">
        <ele>523.03308105469</ele>
        <time>2016-05-15T09:13:22.000Z</time>
      </trkpt>
      <trkpt lat="45.75348" lon="4.47926">
        <ele>529.00640869141</ele>
        <time>2016-05-15T09:13:27.000Z</time>
      </trkpt>
      <trkpt lat="45.75346" lon="4.47926">
        <ele>531.31207275391</ele>
        <time>2016-05-15T09:13:30.000Z</time>
      </trkpt>
      <trkpt lat="45.75348" lon="4.47916">
        <ele>539.91107177734</ele>
        <time>2016-05-15T09:15:07.000Z</time>
      </trkpt>
      <trkpt lat="45.75349" lon="4.47913">
        <ele>540.43328857422</ele>
        <time>2016-05-15T09:15:10.000Z</time>
      </trkpt>
      <trkpt lat="45.75351" lon="4.47911">
        <ele>540.89459228516</ele>
        <time>2016-05-15T09:15:14.000Z</time>
      </trkpt>
      <trkpt lat="45.75352" lon="4.47911">
        <ele>541.13641357422</ele>
        <time>2016-05-15T09:15:17.000Z</time>
      </trkpt>
      <trkpt lat="45.75354" lon="4.47911">
        <ele>541.38818359375</ele>
        <time>2016-05-15T09:15:21.000Z</time>
      </trkpt>
      <trkpt lat="45.75355" lon="4.47909">
        <ele>541.29858398438</ele>
        <time>2016-05-15T09:15:24.000Z</time>
      </trkpt>
      <trkpt lat="45.75356" lon="4.47906">
        <ele>540.8671875</ele>
        <time>2016-05-15T09:15:29.000Z</time>
      </trkpt>
      <trkpt lat="45.75357" lon="4.47903">
        <ele>540.77593994141</ele>
        <time>2016-05-15T09:15:32.000Z</time>
      </trkpt>
      <trkpt lat="45.75359" lon="4.479">
        <ele>540.63122558594</ele>
        <time>2016-05-15T09:15:34.000Z</time>
      </trkpt>
      <trkpt lat="45.75361" lon="4.47897">
        <ele>540.52435302734</ele>
        <time>2016-05-15T09:15:36.000Z</time>
      </trkpt>
      <trkpt lat="45.75367" lon="4.47892">
        <ele>539.19006347656</ele>
        <time>2016-05-15T09:15:40.000Z</time>
      </trkpt>
      <trkpt lat="45.75371" lon="4.47887">
        <ele>537.36614990234</ele>
        <time>2016-05-15T09:15:44.000Z</time>
      </trkpt>
      <trkpt lat="45.75373" lon="4.47884">
        <ele>536.30169677734</ele>
        <time>2016-05-15T09:15:46.000Z</time>
      </trkpt>
      <trkpt lat="45.75378" lon="4.47878">
        <ele>533.93139648438</ele>
        <time>2016-05-15T09:15:50.000Z</time>
      </trkpt>
      <trkpt lat="45.7538" lon="4.47876">
        <ele>533.96337890625</ele>
        <time>2016-05-15T09:15:52.000Z</time>
      </trkpt>
      <trkpt lat="45.75386" lon="4.47873">
        <ele>535.89172363281</ele>
        <time>2016-05-15T09:15:56.000Z</time>
      </trkpt>
      <trkpt lat="45.7539" lon="4.47872">
        <ele>536.25225830078</ele>
        <time>2016-05-15T09:15:58.000Z</time>
      </trkpt>
      <trkpt lat="45.75393" lon="4.47872">
        <ele>536.43682861328</ele>
        <time>2016-05-15T09:16:00.000Z</time>
      </trkpt>
      <trkpt lat="45.75396" lon="4.47872">
        <ele>536.54486083984</ele>
        <time>2016-05-15T09:16:02.000Z</time>
      </trkpt>
      <trkpt lat="45.75404" lon="4.47871">
        <ele>538.01910400391</ele>
        <time>2016-05-15T09:16:06.000Z</time>
      </trkpt>
      <trkpt lat="45.7541" lon="4.4787">
        <ele>537.70880126953</ele>
        <time>2016-05-15T09:16:09.000Z</time>
      </trkpt>
      <trkpt lat="45.75414" lon="4.47868">
        <ele>537.4609375</ele>
        <time>2016-05-15T09:16:12.000Z</time>
      </trkpt>
      <trkpt lat="45.75416" lon="4.47867">
        <ele>537.72583007812</ele>
        <time>2016-05-15T09:16:15.000Z</time>
      </trkpt>
      <trkpt lat="45.75419" lon="4.47865">
        <ele>537.83013916016</ele>
        <time>2016-05-15T09:16:17.000Z</time>
      </trkpt>
      <trkpt lat="45.75425" lon="4.4786">
        <ele>537.71826171875</ele>
        <time>2016-05-15T09:16:21.000Z</time>
      </trkpt>
      <trkpt lat="45.75427" lon="4.47856">
        <ele>537.44012451172</ele>
        <time>2016-05-15T09:16:23.000Z</time>
      </trkpt>
      <trkpt lat="45.7543" lon="4.47853">
        <ele>537.76373291016</ele>
        <time>2016-05-15T09:16:25.000Z</time>
      </trkpt>
      <trkpt lat="45.75434" lon="4.47847">
        <ele>538.47613525391</ele>
        <time>2016-05-15T09:16:29.000Z</time>
      </trkpt>
      <trkpt lat="45.75436" lon="4.47844">
        <ele>538.08642578125</ele>
        <time>2016-05-15T09:16:32.000Z</time>
      </trkpt>
      <trkpt lat="45.75438" lon="4.4784">
        <ele>537.77642822266</ele>
        <time>2016-05-15T09:16:35.000Z</time>
      </trkpt>
      <trkpt lat="45.75439" lon="4.47836">
        <ele>537.91546630859</ele>
        <time>2016-05-15T09:16:37.000Z</time>
      </trkpt>
      <trkpt lat="45.75443" lon="4.47829">
        <ele>538.24017333984</ele>
        <time>2016-05-15T09:16:40.000Z</time>
      </trkpt>
      <trkpt lat="45.75445" lon="4.47826">
        <ele>538.02197265625</ele>
        <time>2016-05-15T09:16:42.000Z</time>
      </trkpt>
      <trkpt lat="45.7545" lon="4.47819">
        <ele>538.18841552734</ele>
        <time>2016-05-15T09:16:45.000Z</time>
      </trkpt>
      <trkpt lat="45.75452" lon="4.47815">
        <ele>539.08782958984</ele>
        <time>2016-05-15T09:16:47.000Z</time>
      </trkpt>
      <trkpt lat="45.75455" lon="4.47812">
        <ele>539.02819824219</ele>
        <time>2016-05-15T09:16:49.000Z</time>
      </trkpt>
      <trkpt lat="45.7546" lon="4.47805">
        <ele>539.32269287109</ele>
        <time>2016-05-15T09:16:53.000Z</time>
      </trkpt>
      <trkpt lat="45.75462" lon="4.47802">
        <ele>539.27239990234</ele>
        <time>2016-05-15T09:16:55.000Z</time>
      </trkpt>
      <trkpt lat="45.75465" lon="4.47795">
        <ele>538.07086181641</ele>
        <time>2016-05-15T09:16:59.000Z</time>
      </trkpt>
      <trkpt lat="45.75467" lon="4.47791">
        <ele>538.09234619141</ele>
        <time>2016-05-15T09:17:01.000Z</time>
      </trkpt>
      <trkpt lat="45.75468" lon="4.47786">
        <ele>538.0205078125</ele>
        <time>2016-05-15T09:17:03.000Z</time>
      </trkpt>
      <trkpt lat="45.75471" lon="4.47777">
        <ele>538.07659912109</ele>
        <time>2016-05-15T09:17:07.000Z</time>
      </trkpt>
      <trkpt lat="45.75472" lon="4.47773">
        <ele>538.46606445312</ele>
        <time>2016-05-15T09:17:09.000Z</time>
      </trkpt>
      <trkpt lat="45.75473" lon="4.47769">
        <ele>538.79547119141</ele>
        <time>2016-05-15T09:17:11.000Z</time>
      </trkpt>
      <trkpt lat="45.75474" lon="4.47761">
        <ele>539.21228027344</ele>
        <time>2016-05-15T09:17:15.000Z</time>
      </trkpt>
      <trkpt lat="45.75474" lon="4.47757">
        <ele>539.86706542969</ele>
        <time>2016-05-15T09:17:17.000Z</time>
      </trkpt>
      <trkpt lat="45.75475" lon="4.4775">
        <ele>541.03680419922</ele>
        <time>2016-05-15T09:17:21.000Z</time>
      </trkpt>
      <trkpt lat="45.75475" lon="4.47746">
        <ele>541.33013916016</ele>
        <time>2016-05-15T09:17:23.000Z</time>
      </trkpt>
      <trkpt lat="45.75476" lon="4.47739">
        <ele>541.60943603516</ele>
        <time>2016-05-15T09:17:28.000Z</time>
      </trkpt>
      <trkpt lat="45.75477" lon="4.47735">
        <ele>542.27349853516</ele>
        <time>2016-05-15T09:17:31.000Z</time>
      </trkpt>
      <trkpt lat="45.75478" lon="4.47731">
        <ele>543.15283203125</ele>
        <time>2016-05-15T09:17:34.000Z</time>
      </trkpt>
      <trkpt lat="45.75478" lon="4.47726">
        <ele>543.74694824219</ele>
        <time>2016-05-15T09:17:36.000Z</time>
      </trkpt>
      <trkpt lat="45.75478" lon="4.47722">
        <ele>544.39971923828</ele>
        <time>2016-05-15T09:17:38.000Z</time>
      </trkpt>
      <trkpt lat="45.75477" lon="4.47718">
        <ele>544.98193359375</ele>
        <time>2016-05-15T09:17:40.000Z</time>
      </trkpt>
      <trkpt lat="45.75477" lon="4.47714">
        <ele>545.37463378906</ele>
        <time>2016-05-15T09:17:42.000Z</time>
      </trkpt>
      <trkpt lat="45.75477" lon="4.47707">
        <ele>546.7158203125</ele>
        <time>2016-05-15T09:17:46.000Z</time>
      </trkpt>
      <trkpt lat="45.75477" lon="4.47699">
        <ele>548.4443359375</ele>
        <time>2016-05-15T09:17:50.000Z</time>
      </trkpt>
      <trkpt lat="45.75476" lon="4.4769">
        <ele>548.39447021484</ele>
        <time>2016-05-15T09:17:54.000Z</time>
      </trkpt>
      <trkpt lat="45.75473" lon="4.4768">
        <ele>548.48760986328</ele>
        <time>2016-05-15T09:17:58.000Z</time>
      </trkpt>
      <trkpt lat="45.75471" lon="4.47675">
        <ele>548.24572753906</ele>
        <time>2016-05-15T09:18:00.000Z</time>
      </trkpt>
      <trkpt lat="45.75468" lon="4.47671">
        <ele>548.32067871094</ele>
        <time>2016-05-15T09:18:02.000Z</time>
      </trkpt>
      <trkpt lat="45.75464" lon="4.47663">
        <ele>549.42791748047</ele>
        <time>2016-05-15T09:18:06.000Z</time>
      </trkpt>
      <trkpt lat="45.75463" lon="4.4766">
        <ele>549.5595703125</ele>
        <time>2016-05-15T09:18:09.000Z</time>
      </trkpt>
      <trkpt lat="45.75462" lon="4.47657">
        <ele>549.75823974609</ele>
        <time>2016-05-15T09:18:12.000Z</time>
      </trkpt>
      <trkpt lat="45.75462" lon="4.47653">
        <ele>550.17254638672</ele>
        <time>2016-05-15T09:18:14.000Z</time>
      </trkpt>
      <trkpt lat="45.75462" lon="4.4765">
        <ele>550.54479980469</ele>
        <time>2016-05-15T09:18:16.000Z</time>
      </trkpt>
      <trkpt lat="45.75459" lon="4.47643">
        <ele>551.40270996094</ele>
        <time>2016-05-15T09:18:21.000Z</time>
      </trkpt>
      <trkpt lat="45.75457" lon="4.47641">
        <ele>552.18231201172</ele>
        <time>2016-05-15T09:18:24.000Z</time>
      </trkpt>
      <trkpt lat="45.75455" lon="4.47639">
        <ele>553.0263671875</ele>
        <time>2016-05-15T09:18:27.000Z</time>
      </trkpt>
      <trkpt lat="45.7545" lon="4.47635">
        <ele>555.34100341797</ele>
        <time>2016-05-15T09:18:31.000Z</time>
      </trkpt>
      <trkpt lat="45.75447" lon="4.47633">
        <ele>555.97296142578</ele>
        <time>2016-05-15T09:18:33.000Z</time>
      </trkpt>
      <trkpt lat="45.75444" lon="4.4763">
        <ele>556.58764648438</ele>
        <time>2016-05-15T09:18:35.000Z</time>
      </trkpt>
      <trkpt lat="45.75439" lon="4.47625">
        <ele>558.31622314453</ele>
        <time>2016-05-15T09:18:39.000Z</time>
      </trkpt>
      <trkpt lat="45.75433" lon="4.47623">
        <ele>559.20965576172</ele>
        <time>2016-05-15T09:18:43.000Z</time>
      </trkpt>
      <trkpt lat="45.75427" lon="4.47621">
        <ele>561.6416015625</ele>
        <time>2016-05-15T09:18:47.000Z</time>
      </trkpt>
      <trkpt lat="45.75424" lon="4.47621">
        <ele>562.44689941406</ele>
        <time>2016-05-15T09:18:49.000Z</time>
      </trkpt>
      <trkpt lat="45.75421" lon="4.4762">
        <ele>563.40246582031</ele>
        <time>2016-05-15T09:18:52.000Z</time>
      </trkpt>
      <trkpt lat="45.75418" lon="4.47619">
        <ele>563.71362304688</ele>
        <time>2016-05-15T09:18:54.000Z</time>
      </trkpt>
      <trkpt lat="45.75415" lon="4.47618">
        <ele>563.85046386719</ele>
        <time>2016-05-15T09:18:57.000Z</time>
      </trkpt>
      <trkpt lat="45.75412" lon="4.47617">
        <ele>564.27874755859</ele>
        <time>2016-05-15T09:18:59.000Z</time>
      </trkpt>
      <trkpt lat="45.75407" lon="4.47616">
        <ele>564.30804443359</ele>
        <time>2016-05-15T09:19:04.000Z</time>
      </trkpt>
      <trkpt lat="45.75404" lon="4.47617">
        <ele>565.650390625</ele>
        <time>2016-05-15T09:19:07.000Z</time>
      </trkpt>
      <trkpt lat="45.75402" lon="4.47616">
        <ele>567.72857666016</ele>
        <time>2016-05-15T09:19:15.000Z</time>
      </trkpt>
      <trkpt lat="45.75399" lon="4.47615">
        <ele>568.96685791016</ele>
        <time>2016-05-15T09:19:21.000Z</time>
      </trkpt>
      <trkpt lat="45.75397" lon="4.47615">
        <ele>569.68176269531</ele>
        <time>2016-05-15T09:19:31.000Z</time>
      </trkpt>
      <trkpt lat="45.75392" lon="4.47617">
        <ele>571.0927734375</ele>
        <time>2016-05-15T09:19:35.000Z</time>
      </trkpt>
      <trkpt lat="45.75388" lon="4.47619">
        <ele>571.75817871094</ele>
        <time>2016-05-15T09:19:37.000Z</time>
      </trkpt>
      <trkpt lat="45.75382" lon="4.47626">
        <ele>571.60131835938</ele>
        <time>2016-05-15T09:19:41.000Z</time>
      </trkpt>
      <trkpt lat="45.7538" lon="4.4763">
        <ele>571.46862792969</ele>
        <time>2016-05-15T09:19:43.000Z</time>
      </trkpt>
      <trkpt lat="45.75375" lon="4.47636">
        <ele>572.56488037109</ele>
        <time>2016-05-15T09:19:46.000Z</time>
      </trkpt>
      <trkpt lat="45.75369" lon="4.47643">
        <ele>574.04992675781</ele>
        <time>2016-05-15T09:19:50.000Z</time>
      </trkpt>
      <trkpt lat="45.75366" lon="4.47647">
        <ele>574.82281494141</ele>
        <time>2016-05-15T09:19:52.000Z</time>
      </trkpt>
      <trkpt lat="45.75363" lon="4.4765">
        <ele>575.78271484375</ele>
        <time>2016-05-15T09:19:54.000Z</time>
      </trkpt>
      <trkpt lat="45.75357" lon="4.47654">
        <ele>575.96331787109</ele>
        <time>2016-05-15T09:19:59.000Z</time>
      </trkpt>
      <trkpt lat="45.75354" lon="4.47656">
        <ele>576.51300048828</ele>
        <time>2016-05-15T09:20:04.000Z</time>
      </trkpt>
      <trkpt lat="45.75351" lon="4.47657">
        <ele>577.88214111328</ele>
        <time>2016-05-15T09:20:08.000Z</time>
      </trkpt>
      <trkpt lat="45.75348" lon="4.47657">
        <ele>579.25347900391</ele>
        <time>2016-05-15T09:20:11.000Z</time>
      </trkpt>
      <trkpt lat="45.75346" lon="4.47658">
        <ele>580.15032958984</ele>
        <time>2016-05-15T09:20:13.000Z</time>
      </trkpt>
      <trkpt lat="45.75343" lon="4.47659">
        <ele>580.92230224609</ele>
        <time>2016-05-15T09:20:16.000Z</time>
      </trkpt>
      <trkpt lat="45.7534" lon="4.47659">
        <ele>581.80834960938</ele>
        <time>2016-05-15T09:20:18.000Z</time>
      </trkpt>
      <trkpt lat="45.75335" lon="4.47662">
        <ele>582.28875732422</ele>
        <time>2016-05-15T09:20:23.000Z</time>
      </trkpt>
      <trkpt lat="45.75332" lon="4.47663">
        <ele>581.60241699219</ele>
        <time>2016-05-15T09:20:26.000Z</time>
      </trkpt>
      <trkpt lat="45.75327" lon="4.47665">
        <ele>581.18310546875</ele>
        <time>2016-05-15T09:20:31.000Z</time>
      </trkpt>
      <trkpt lat="45.75324" lon="4.47664">
        <ele>584.65948486328</ele>
        <time>2016-05-15T09:20:48.000Z</time>
      </trkpt>
      <trkpt lat="45.75322" lon="4.47664">
        <ele>587.24688720703</ele>
        <time>2016-05-15T09:20:59.000Z</time>
      </trkpt>
      <trkpt lat="45.75317" lon="4.47661">
        <ele>589.88000488281</ele>
        <time>2016-05-15T09:21:03.000Z</time>
      </trkpt>
      <trkpt lat="45.75311" lon="4.47656">
        <ele>589.74328613281</ele>
        <time>2016-05-15T09:21:06.000Z</time>
      </trkpt>
      <trkpt lat="45.75304" lon="4.47651">
        <ele>589.47308349609</ele>
        <time>2016-05-15T09:21:10.000Z</time>
      </trkpt>
      <trkpt lat="45.75298" lon="4.47646">
        <ele>587.60260009766</ele>
        <time>2016-05-15T09:21:14.000Z</time>
      </trkpt>
      <trkpt lat="45.75293" lon="4.4764">
        <ele>587.57727050781</ele>
        <time>2016-05-15T09:21:18.000Z</time>
      </trkpt>
      <trkpt lat="45.75288" lon="4.47636">
        <ele>588.091796875</ele>
        <time>2016-05-15T09:21:22.000Z</time>
      </trkpt>
      <trkpt lat="45.75285" lon="4.47634">
        <ele>587.82147216797</ele>
        <time>2016-05-15T09:21:24.000Z</time>
      </trkpt>
      <trkpt lat="45.75275" lon="4.4763">
        <ele>585.0224609375</ele>
        <time>2016-05-15T09:21:27.000Z</time>
      </trkpt>
      <trkpt lat="45.75267" lon="4.47627">
        <ele>584.74163818359</ele>
        <time>2016-05-15T09:21:30.000Z</time>
      </trkpt>
      <trkpt lat="45.75261" lon="4.47625">
        <ele>584.07647705078</ele>
        <time>2016-05-15T09:21:32.000Z</time>
      </trkpt>
      <trkpt lat="45.75255" lon="4.47623">
        <ele>583.88385009766</ele>
        <time>2016-05-15T09:21:35.000Z</time>
      </trkpt>
      <trkpt lat="45.75248" lon="4.47618">
        <ele>584.25177001953</ele>
        <time>2016-05-15T09:21:39.000Z</time>
      </trkpt>
      <trkpt lat="45.75244" lon="4.47617">
        <ele>584.60992431641</ele>
        <time>2016-05-15T09:21:41.000Z</time>
      </trkpt>
      <trkpt lat="45.75241" lon="4.47615">
        <ele>585.12652587891</ele>
        <time>2016-05-15T09:21:43.000Z</time>
      </trkpt>
      <trkpt lat="45.75235" lon="4.47612">
        <ele>586.04522705078</ele>
        <time>2016-05-15T09:21:47.000Z</time>
      </trkpt>
      <trkpt lat="45.75229" lon="4.47608">
        <ele>587.46264648438</ele>
        <time>2016-05-15T09:21:52.000Z</time>
      </trkpt>
      <trkpt lat="45.75227" lon="4.47607">
        <ele>587.56860351562</ele>
        <time>2016-05-15T09:21:55.000Z</time>
      </trkpt>
      <trkpt lat="45.75224" lon="4.47605">
        <ele>586.54943847656</ele>
        <time>2016-05-15T09:21:57.000Z</time>
      </trkpt>
      <trkpt lat="45.75216" lon="4.47602">
        <ele>583.99560546875</ele>
        <time>2016-05-15T09:22:00.000Z</time>
      </trkpt>
      <trkpt lat="45.75211" lon="4.476">
        <ele>582.85546875</ele>
        <time>2016-05-15T09:22:02.000Z</time>
      </trkpt>
      <trkpt lat="45.75206" lon="4.47599">
        <ele>582.66815185547</ele>
        <time>2016-05-15T09:22:07.000Z</time>
      </trkpt>
      <trkpt lat="45.75203" lon="4.47598">
        <ele>582.91906738281</ele>
        <time>2016-05-15T09:22:11.000Z</time>
      </trkpt>
      <trkpt lat="45.752" lon="4.47597">
        <ele>583.45520019531</ele>
        <time>2016-05-15T09:22:13.000Z</time>
      </trkpt>
      <trkpt lat="45.75198" lon="4.47595">
        <ele>584.52355957031</ele>
        <time>2016-05-15T09:22:15.000Z</time>
      </trkpt>
      <trkpt lat="45.75192" lon="4.4759">
        <ele>586.16027832031</ele>
        <time>2016-05-15T09:22:19.000Z</time>
      </trkpt>
      <trkpt lat="45.75187" lon="4.47585">
        <ele>586.03295898438</ele>
        <time>2016-05-15T09:22:21.000Z</time>
      </trkpt>
      <trkpt lat="45.75184" lon="4.47583">
        <ele>586.04443359375</ele>
        <time>2016-05-15T09:22:23.000Z</time>
      </trkpt>
      <trkpt lat="45.75177" lon="4.47579">
        <ele>584.98791503906</ele>
        <time>2016-05-15T09:22:27.000Z</time>
      </trkpt>
      <trkpt lat="45.7517" lon="4.47573">
        <ele>585.17919921875</ele>
        <time>2016-05-15T09:22:31.000Z</time>
      </trkpt>
      <trkpt lat="45.75167" lon="4.47569">
        <ele>585.29443359375</ele>
        <time>2016-05-15T09:22:33.000Z</time>
      </trkpt>
      <trkpt lat="45.75163" lon="4.47562">
        <ele>586.20916748047</ele>
        <time>2016-05-15T09:22:37.000Z</time>
      </trkpt>
      <trkpt lat="45.75159" lon="4.47554">
        <ele>586.26062011719</ele>
        <time>2016-05-15T09:22:41.000Z</time>
      </trkpt>
      <trkpt lat="45.75156" lon="4.47546">
        <ele>586.70037841797</ele>
        <time>2016-05-15T09:22:43.000Z</time>
      </trkpt>
      <trkpt lat="45.75151" lon="4.47538">
        <ele>585.45739746094</ele>
        <time>2016-05-15T09:22:45.000Z</time>
      </trkpt>
      <trkpt lat="45.75141" lon="4.47529">
        <ele>582.51446533203</ele>
        <time>2016-05-15T09:22:48.000Z</time>
      </trkpt>
      <trkpt lat="45.75133" lon="4.47524">
        <ele>582.64239501953</ele>
        <time>2016-05-15T09:22:50.000Z</time>
      </trkpt>
      <trkpt lat="45.75121" lon="4.47517">
        <ele>580.71209716797</ele>
        <time>2016-05-15T09:22:53.000Z</time>
      </trkpt>
      <trkpt lat="45.75107" lon="4.4751">
        <ele>578.33880615234</ele>
        <time>2016-05-15T09:22:56.000Z</time>
      </trkpt>
      <trkpt lat="45.75099" lon="4.47502">
        <ele>579.80255126953</ele>
        <time>2016-05-15T09:22:58.000Z</time>
      </trkpt>
      <trkpt lat="45.75091" lon="4.47488">
        <ele>581.0751953125</ele>
        <time>2016-05-15T09:23:01.000Z</time>
      </trkpt>
      <trkpt lat="45.75085" lon="4.47477">
        <ele>583.45428466797</ele>
        <time>2016-05-15T09:23:03.000Z</time>
      </trkpt>
      <trkpt lat="45.75079" lon="4.47461">
        <ele>586.43322753906</ele>
        <time>2016-05-15T09:23:06.000Z</time>
      </trkpt>
      <trkpt lat="45.75076" lon="4.47451">
        <ele>586.60174560547</ele>
        <time>2016-05-15T09:23:08.000Z</time>
      </trkpt>
      <trkpt lat="45.75073" lon="4.47438">
        <ele>585.38287353516</ele>
        <time>2016-05-15T09:23:12.000Z</time>
      </trkpt>
      <trkpt lat="45.75069" lon="4.47436">
        <ele>584.76458740234</ele>
        <time>2016-05-15T09:26:50.000Z</time>
      </trkpt>
      <trkpt lat="45.75068" lon="4.47435">
        <ele>585.21405029297</ele>
        <time>2016-05-15T09:26:53.000Z</time>
      </trkpt>
      <trkpt lat="45.75067" lon="4.47431">
        <ele>585.74670410156</ele>
        <time>2016-05-15T09:26:56.000Z</time>
      </trkpt>
      <trkpt lat="45.75066" lon="4.47426">
        <ele>585.70501708984</ele>
        <time>2016-05-15T09:26:59.000Z</time>
      </trkpt>
      <trkpt lat="45.75064" lon="4.47418">
        <ele>585.25274658203</ele>
        <time>2016-05-15T09:27:03.000Z</time>
      </trkpt>
      <trkpt lat="45.75062" lon="4.47414">
        <ele>584.89727783203</ele>
        <time>2016-05-15T09:27:05.000Z</time>
      </trkpt>
      <trkpt lat="45.7506" lon="4.47403">
        <ele>583.96423339844</ele>
        <time>2016-05-15T09:27:09.000Z</time>
      </trkpt>
      <trkpt lat="45.75059" lon="4.47397">
        <ele>584.11212158203</ele>
        <time>2016-05-15T09:27:11.000Z</time>
      </trkpt>
      <trkpt lat="45.75056" lon="4.47384">
        <ele>584.73834228516</ele>
        <time>2016-05-15T09:27:14.000Z</time>
      </trkpt>
      <trkpt lat="45.75055" lon="4.47379">
        <ele>584.60382080078</ele>
        <time>2016-05-15T09:27:16.000Z</time>
      </trkpt>
      <trkpt lat="45.75051" lon="4.47369">
        <ele>586.21112060547</ele>
        <time>2016-05-15T09:27:20.000Z</time>
      </trkpt>
      <trkpt lat="45.75048" lon="4.47358">
        <ele>586.78973388672</ele>
        <time>2016-05-15T09:27:23.000Z</time>
      </trkpt>
      <trkpt lat="45.75044" lon="4.47346">
        <ele>587.47467041016</ele>
        <time>2016-05-15T09:27:26.000Z</time>
      </trkpt>
      <trkpt lat="45.75035" lon="4.47321">
        <ele>587.45861816406</ele>
        <time>2016-05-15T09:27:29.000Z</time>
      </trkpt>
      <trkpt lat="45.75027" lon="4.47297">
        <ele>587.00628662109</ele>
        <time>2016-05-15T09:27:32.000Z</time>
      </trkpt>
      <trkpt lat="45.75025" lon="4.47267">
        <ele>581.26672363281</ele>
        <time>2016-05-15T09:27:35.000Z</time>
      </trkpt>
      <trkpt lat="45.75024" lon="4.47248">
        <ele>578.89837646484</ele>
        <time>2016-05-15T09:27:37.000Z</time>
      </trkpt>
      <trkpt lat="45.75024" lon="4.47225">
        <ele>577.44146728516</ele>
        <time>2016-05-15T09:27:39.000Z</time>
      </trkpt>
      <trkpt lat="45.75022" lon="4.47191">
        <ele>574.17956542969</ele>
        <time>2016-05-15T09:27:42.000Z</time>
      </trkpt>
      <trkpt lat="45.75022" lon="4.47157">
        <ele>573.03973388672</ele>
        <time>2016-05-15T09:27:45.000Z</time>
      </trkpt>
      <trkpt lat="45.75023" lon="4.47129">
        <ele>572.37884521484</ele>
        <time>2016-05-15T09:27:48.000Z</time>
      </trkpt>
      <trkpt lat="45.75023" lon="4.47108">
        <ele>571.04815673828</ele>
        <time>2016-05-15T09:27:51.000Z</time>
      </trkpt>
      <trkpt lat="45.75019" lon="4.47091">
        <ele>569.96276855469</ele>
        <time>2016-05-15T09:27:54.000Z</time>
      </trkpt>
      <trkpt lat="45.75018" lon="4.47075">
        <ele>568.55078125</ele>
        <time>2016-05-15T09:27:56.000Z</time>
      </trkpt>
      <trkpt lat="45.75019" lon="4.47061">
        <ele>568.11572265625</ele>
        <time>2016-05-15T09:27:58.000Z</time>
      </trkpt>
      <trkpt lat="45.75019" lon="4.47049">
        <ele>567.60888671875</ele>
        <time>2016-05-15T09:28:00.000Z</time>
      </trkpt>
      <trkpt lat="45.75018" lon="4.47035">
        <ele>568.46429443359</ele>
        <time>2016-05-15T09:28:02.000Z</time>
      </trkpt>
      <trkpt lat="45.75015" lon="4.47021">
        <ele>569.60980224609</ele>
        <time>2016-05-15T09:28:04.000Z</time>
      </trkpt>
      <trkpt lat="45.75011" lon="4.47009">
        <ele>566.86315917969</ele>
        <time>2016-05-15T09:28:06.000Z</time>
      </trkpt>
      <trkpt lat="45.75006" lon="4.46993">
        <ele>565.390625</ele>
        <time>2016-05-15T09:28:09.000Z</time>
      </trkpt>
      <trkpt lat="45.75002" lon="4.4698">
        <ele>564.92034912109</ele>
        <time>2016-05-15T09:28:12.000Z</time>
      </trkpt>
      <trkpt lat="45.74998" lon="4.46972">
        <ele>563.83813476562</ele>
        <time>2016-05-15T09:28:14.000Z</time>
      </trkpt>
      <trkpt lat="45.74994" lon="4.46961">
        <ele>563.88049316406</ele>
        <time>2016-05-15T09:28:17.000Z</time>
      </trkpt>
      <trkpt lat="45.74992" lon="4.46954">
        <ele>564.28240966797</ele>
        <time>2016-05-15T09:28:19.000Z</time>
      </trkpt>
      <trkpt lat="45.74988" lon="4.46942">
        <ele>566.45495605469</ele>
        <time>2016-05-15T09:28:22.000Z</time>
      </trkpt>
      <trkpt lat="45.74986" lon="4.46935">
        <ele>567.81488037109</ele>
        <time>2016-05-15T09:28:24.000Z</time>
      </trkpt>
      <trkpt lat="45.74984" lon="4.46927">
        <ele>568.56988525391</ele>
        <time>2016-05-15T09:28:26.000Z</time>
      </trkpt>
      <trkpt lat="45.74982" lon="4.4692">
        <ele>568.47222900391</ele>
        <time>2016-05-15T09:28:28.000Z</time>
      </trkpt>
      <trkpt lat="45.74979" lon="4.4691">
        <ele>567.10211181641</ele>
        <time>2016-05-15T09:28:31.000Z</time>
      </trkpt>
      <trkpt lat="45.74976" lon="4.46899">
        <ele>566.37585449219</ele>
        <time>2016-05-15T09:28:34.000Z</time>
      </trkpt>
      <trkpt lat="45.74974" lon="4.46894">
        <ele>566.15155029297</ele>
        <time>2016-05-15T09:28:36.000Z</time>
      </trkpt>
      <trkpt lat="45.74971" lon="4.46886">
        <ele>566.33807373047</ele>
        <time>2016-05-15T09:28:38.000Z</time>
      </trkpt>
      <trkpt lat="45.74966" lon="4.46874">
        <ele>569.37738037109</ele>
        <time>2016-05-15T09:28:41.000Z</time>
      </trkpt>
      <trkpt lat="45.74961" lon="4.46861">
        <ele>571.76623535156</ele>
        <time>2016-05-15T09:28:44.000Z</time>
      </trkpt>
      <trkpt lat="45.74958" lon="4.46856">
        <ele>571.05596923828</ele>
        <time>2016-05-15T09:28:46.000Z</time>
      </trkpt>
      <trkpt lat="45.7495" lon="4.46847">
        <ele>570.67791748047</ele>
        <time>2016-05-15T09:28:49.000Z</time>
      </trkpt>
      <trkpt lat="45.74944" lon="4.46842">
        <ele>573.4638671875</ele>
        <time>2016-05-15T09:28:51.000Z</time>
      </trkpt>
      <trkpt lat="45.74933" lon="4.46837">
        <ele>574.66253662109</ele>
        <time>2016-05-15T09:28:54.000Z</time>
      </trkpt>
      <trkpt lat="45.74921" lon="4.46833">
        <ele>574.89703369141</ele>
        <time>2016-05-15T09:28:57.000Z</time>
      </trkpt>
      <trkpt lat="45.74906" lon="4.46827">
        <ele>573.75323486328</ele>
        <time>2016-05-15T09:29:00.000Z</time>
      </trkpt>
      <trkpt lat="45.74895" lon="4.46821">
        <ele>573.78344726562</ele>
        <time>2016-05-15T09:29:02.000Z</time>
      </trkpt>
      <trkpt lat="45.74886" lon="4.46816">
        <ele>574.72778320312</ele>
        <time>2016-05-15T09:29:04.000Z</time>
      </trkpt>
      <trkpt lat="45.74876" lon="4.46814">
        <ele>574.23779296875</ele>
        <time>2016-05-15T09:29:06.000Z</time>
      </trkpt>
      <trkpt lat="45.74863" lon="4.46813">
        <ele>573.32189941406</ele>
        <time>2016-05-15T09:29:08.000Z</time>
      </trkpt>
      <trkpt lat="45.74848" lon="4.46813">
        <ele>571.85754394531</ele>
        <time>2016-05-15T09:29:11.000Z</time>
      </trkpt>
      <trkpt lat="45.74841" lon="4.46817">
        <ele>571.71740722656</ele>
        <time>2016-05-15T09:29:13.000Z</time>
      </trkpt>
      <trkpt lat="45.74829" lon="4.46825">
        <ele>573.12530517578</ele>
        <time>2016-05-15T09:29:16.000Z</time>
      </trkpt>
      <trkpt lat="45.74824" lon="4.46832">
        <ele>574.04388427734</ele>
        <time>2016-05-15T09:29:18.000Z</time>
      </trkpt>
      <trkpt lat="45.74819" lon="4.4684">
        <ele>574.59912109375</ele>
        <time>2016-05-15T09:29:20.000Z</time>
      </trkpt>
      <trkpt lat="45.74812" lon="4.46847">
        <ele>575.40246582031</ele>
        <time>2016-05-15T09:29:23.000Z</time>
      </trkpt>
      <trkpt lat="45.74806" lon="4.46848">
        <ele>575.54992675781</ele>
        <time>2016-05-15T09:29:25.000Z</time>
      </trkpt>
      <trkpt lat="45.74797" lon="4.46846">
        <ele>575.01177978516</ele>
        <time>2016-05-15T09:29:28.000Z</time>
      </trkpt>
      <trkpt lat="45.74791" lon="4.46844">
        <ele>575.62744140625</ele>
        <time>2016-05-15T09:29:30.000Z</time>
      </trkpt>
      <trkpt lat="45.74785" lon="4.46843">
        <ele>575.89965820312</ele>
        <time>2016-05-15T09:29:32.000Z</time>
      </trkpt>
      <trkpt lat="45.74776" lon="4.46841">
        <ele>577.22259521484</ele>
        <time>2016-05-15T09:29:35.000Z</time>
      </trkpt>
      <trkpt lat="45.7477" lon="4.4684">
        <ele>577.44744873047</ele>
        <time>2016-05-15T09:29:37.000Z</time>
      </trkpt>
      <trkpt lat="45.74762" lon="4.46838">
        <ele>578.22290039062</ele>
        <time>2016-05-15T09:29:40.000Z</time>
      </trkpt>
      <trkpt lat="45.74757" lon="4.46838">
        <ele>578.29669189453</ele>
        <time>2016-05-15T09:29:42.000Z</time>
      </trkpt>
      <trkpt lat="45.74751" lon="4.46836">
        <ele>578.998046875</ele>
        <time>2016-05-15T09:29:44.000Z</time>
      </trkpt>
      <trkpt lat="45.74741" lon="4.46835">
        <ele>579.54907226562</ele>
        <time>2016-05-15T09:29:47.000Z</time>
      </trkpt>
      <trkpt lat="45.74732" lon="4.46834">
        <ele>580.51654052734</ele>
        <time>2016-05-15T09:29:50.000Z</time>
      </trkpt>
      <trkpt lat="45.74726" lon="4.46834">
        <ele>581.91119384766</ele>
        <time>2016-05-15T09:29:52.000Z</time>
      </trkpt>
      <trkpt lat="45.74717" lon="4.46835">
        <ele>584.88940429688</ele>
        <time>2016-05-15T09:29:55.000Z</time>
      </trkpt>
      <trkpt lat="45.7471" lon="4.46836">
        <ele>585.89929199219</ele>
        <time>2016-05-15T09:29:57.000Z</time>
      </trkpt>
      <trkpt lat="45.74701" lon="4.46837">
        <ele>583.77844238281</ele>
        <time>2016-05-15T09:30:00.000Z</time>
      </trkpt>
      <trkpt lat="45.74693" lon="4.46837">
        <ele>583.71319580078</ele>
        <time>2016-05-15T09:30:03.000Z</time>
      </trkpt>
      <trkpt lat="45.74689" lon="4.46838">
        <ele>584.10815429688</ele>
        <time>2016-05-15T09:30:05.000Z</time>
      </trkpt>
      <trkpt lat="45.74683" lon="4.46839">
        <ele>584.66796875</ele>
        <time>2016-05-15T09:30:07.000Z</time>
      </trkpt>
      <trkpt lat="45.74676" lon="4.46838">
        <ele>586.80694580078</ele>
        <time>2016-05-15T09:30:10.000Z</time>
      </trkpt>
      <trkpt lat="45.7467" lon="4.46837">
        <ele>585.087890625</ele>
        <time>2016-05-15T09:30:12.000Z</time>
      </trkpt>
      <trkpt lat="45.74661" lon="4.46835">
        <ele>583.97967529297</ele>
        <time>2016-05-15T09:30:15.000Z</time>
      </trkpt>
      <trkpt lat="45.74652" lon="4.46832">
        <ele>584.40539550781</ele>
        <time>2016-05-15T09:30:18.000Z</time>
      </trkpt>
      <trkpt lat="45.74645" lon="4.46829">
        <ele>584.69244384766</ele>
        <time>2016-05-15T09:30:20.000Z</time>
      </trkpt>
      <trkpt lat="45.74633" lon="4.46822">
        <ele>585.56579589844</ele>
        <time>2016-05-15T09:30:23.000Z</time>
      </trkpt>
      <trkpt lat="45.74624" lon="4.46816">
        <ele>585.53387451172</ele>
        <time>2016-05-15T09:30:26.000Z</time>
      </trkpt>
      <trkpt lat="45.74619" lon="4.4681">
        <ele>580.72448730469</ele>
        <time>2016-05-15T09:30:28.000Z</time>
      </trkpt>
      <trkpt lat="45.74613" lon="4.46803">
        <ele>578.35144042969</ele>
        <time>2016-05-15T09:30:30.000Z</time>
      </trkpt>
      <trkpt lat="45.74608" lon="4.46795">
        <ele>578.03015136719</ele>
        <time>2016-05-15T09:30:32.000Z</time>
      </trkpt>
      <trkpt lat="45.746" lon="4.46781">
        <ele>579.35815429688</ele>
        <time>2016-05-15T09:30:35.000Z</time>
      </trkpt>
      <trkpt lat="45.74594" lon="4.46771">
        <ele>580.33959960938</ele>
        <time>2016-05-15T09:30:37.000Z</time>
      </trkpt>
      <trkpt lat="45.74589" lon="4.46761">
        <ele>579.96179199219</ele>
        <time>2016-05-15T09:30:39.000Z</time>
      </trkpt>
      <trkpt lat="45.7458" lon="4.46739">
        <ele>580.11267089844</ele>
        <time>2016-05-15T09:30:42.000Z</time>
      </trkpt>
      <trkpt lat="45.74574" lon="4.46726">
        <ele>580.1728515625</ele>
        <time>2016-05-15T09:30:44.000Z</time>
      </trkpt>
      <trkpt lat="45.74566" lon="4.46705">
        <ele>580.236328125</ele>
        <time>2016-05-15T09:30:47.000Z</time>
      </trkpt>
      <trkpt lat="45.74559" lon="4.46692">
        <ele>580.44110107422</ele>
        <time>2016-05-15T09:30:49.000Z</time>
      </trkpt>
      <trkpt lat="45.74555" lon="4.46682">
        <ele>580.35571289062</ele>
        <time>2016-05-15T09:30:51.000Z</time>
      </trkpt>
      <trkpt lat="45.74556" lon="4.46671">
        <ele>581.71197509766</ele>
        <time>2016-05-15T09:30:55.000Z</time>
      </trkpt>
      <trkpt lat="45.74558" lon="4.46668">
        <ele>583.15026855469</ele>
        <time>2016-05-15T09:31:00.000Z</time>
      </trkpt>
      <trkpt lat="45.74556" lon="4.46658">
        <ele>583.04760742188</ele>
        <time>2016-05-15T09:31:03.000Z</time>
      </trkpt>
      <trkpt lat="45.74549" lon="4.46639">
        <ele>584.60382080078</ele>
        <time>2016-05-15T09:31:06.000Z</time>
      </trkpt>
      <trkpt lat="45.74547" lon="4.46628">
        <ele>585.77416992188</ele>
        <time>2016-05-15T09:31:08.000Z</time>
      </trkpt>
      <trkpt lat="45.74545" lon="4.46626">
        <ele>586.33502197266</ele>
        <time>2016-05-15T09:31:11.000Z</time>
      </trkpt>
      <trkpt lat="45.74541" lon="4.46625">
        <ele>586.71496582031</ele>
        <time>2016-05-15T09:31:14.000Z</time>
      </trkpt>
      <trkpt lat="45.74532" lon="4.46628">
        <ele>585.79370117188</ele>
        <time>2016-05-15T09:31:17.000Z</time>
      </trkpt>
      <trkpt lat="45.74523" lon="4.46637">
        <ele>585.26959228516</ele>
        <time>2016-05-15T09:31:20.000Z</time>
      </trkpt>
      <trkpt lat="45.74522" lon="4.46643">
        <ele>585.09368896484</ele>
        <time>2016-05-15T09:31:22.000Z</time>
      </trkpt>
      <trkpt lat="45.74524" lon="4.46658">
        <ele>582.28106689453</ele>
        <time>2016-05-15T09:31:26.000Z</time>
      </trkpt>
      <trkpt lat="45.74524" lon="4.46662">
        <ele>581.07183837891</ele>
        <time>2016-05-15T09:31:28.000Z</time>
      </trkpt>
      <trkpt lat="45.74521" lon="4.46665">
        <ele>579.05590820312</ele>
        <time>2016-05-15T09:31:32.000Z</time>
      </trkpt>
      <trkpt lat="45.74518" lon="4.46661">
        <ele>578.63732910156</ele>
        <time>2016-05-15T09:31:34.000Z</time>
      </trkpt>
      <trkpt lat="45.74502" lon="4.4663">
        <ele>576.81256103516</ele>
        <time>2016-05-15T09:31:38.000Z</time>
      </trkpt>
      <trkpt lat="45.74492" lon="4.46615">
        <ele>576.63543701172</ele>
        <time>2016-05-15T09:31:41.000Z</time>
      </trkpt>
      <trkpt lat="45.74486" lon="4.46609">
        <ele>576.74346923828</ele>
        <time>2016-05-15T09:31:43.000Z</time>
      </trkpt>
      <trkpt lat="45.74481" lon="4.46604">
        <ele>577.26837158203</ele>
        <time>2016-05-15T09:31:45.000Z</time>
      </trkpt>
      <trkpt lat="45.7447" lon="4.46601">
        <ele>577.25469970703</ele>
        <time>2016-05-15T09:31:48.000Z</time>
      </trkpt>
      <trkpt lat="45.74464" lon="4.466">
        <ele>577.78350830078</ele>
        <time>2016-05-15T09:31:50.000Z</time>
      </trkpt>
      <trkpt lat="45.74457" lon="4.46599">
        <ele>578.08648681641</ele>
        <time>2016-05-15T09:31:52.000Z</time>
      </trkpt>
      <trkpt lat="45.74451" lon="4.46599">
        <ele>578.34094238281</ele>
        <time>2016-05-15T09:31:54.000Z</time>
      </trkpt>
      <trkpt lat="45.74445" lon="4.46599">
        <ele>578.47894287109</ele>
        <time>2016-05-15T09:31:56.000Z</time>
      </trkpt>
      <trkpt lat="45.74437" lon="4.46602">
        <ele>579.27728271484</ele>
        <time>2016-05-15T09:31:59.000Z</time>
      </trkpt>
      <trkpt lat="45.74432" lon="4.46605">
        <ele>580.08538818359</ele>
        <time>2016-05-15T09:32:01.000Z</time>
      </trkpt>
      <trkpt lat="45.74426" lon="4.4661">
        <ele>581.73193359375</ele>
        <time>2016-05-15T09:32:04.000Z</time>
      </trkpt>
      <trkpt lat="45.74422" lon="4.46612">
        <ele>582.53765869141</ele>
        <time>2016-05-15T09:32:06.000Z</time>
      </trkpt>
      <trkpt lat="45.74415" lon="4.46615">
        <ele>583.96459960938</ele>
        <time>2016-05-15T09:32:10.000Z</time>
      </trkpt>
      <trkpt lat="45.7441" lon="4.46618">
        <ele>584.29571533203</ele>
        <time>2016-05-15T09:32:12.000Z</time>
      </trkpt>
      <trkpt lat="45.74403" lon="4.46623">
        <ele>585.13226318359</ele>
        <time>2016-05-15T09:32:15.000Z</time>
      </trkpt>
      <trkpt lat="45.74398" lon="4.46627">
        <ele>585.00250244141</ele>
        <time>2016-05-15T09:32:17.000Z</time>
      </trkpt>
      <trkpt lat="45.74389" lon="4.46631">
        <ele>581.02276611328</ele>
        <time>2016-05-15T09:32:20.000Z</time>
      </trkpt>
      <trkpt lat="45.74383" lon="4.46633">
        <ele>581.29229736328</ele>
        <time>2016-05-15T09:32:22.000Z</time>
      </trkpt>
      <trkpt lat="45.74378" lon="4.46637">
        <ele>581.62298583984</ele>
        <time>2016-05-15T09:32:25.000Z</time>
      </trkpt>
      <trkpt lat="45.74376" lon="4.46641">
        <ele>582.26885986328</ele>
        <time>2016-05-15T09:32:27.000Z</time>
      </trkpt>
      <trkpt lat="45.74374" lon="4.46644">
        <ele>583.62158203125</ele>
        <time>2016-05-15T09:32:29.000Z</time>
      </trkpt>
      <trkpt lat="45.74372" lon="4.46648">
        <ele>585.20294189453</ele>
        <time>2016-05-15T09:32:31.000Z</time>
      </trkpt>
      <trkpt lat="45.74368" lon="4.46653">
        <ele>586.76690673828</ele>
        <time>2016-05-15T09:32:35.000Z</time>
      </trkpt>
      <trkpt lat="45.74365" lon="4.46655">
        <ele>587.70849609375</ele>
        <time>2016-05-15T09:32:38.000Z</time>
      </trkpt>
      <trkpt lat="45.74362" lon="4.46656">
        <ele>587.38531494141</ele>
        <time>2016-05-15T09:32:41.000Z</time>
      </trkpt>
      <trkpt lat="45.7436" lon="4.46656">
        <ele>587.72113037109</ele>
        <time>2016-05-15T09:32:44.000Z</time>
      </trkpt>
      <trkpt lat="45.74356" lon="4.46657">
        <ele>588.33477783203</ele>
        <time>2016-05-15T09:32:46.000Z</time>
      </trkpt>
      <trkpt lat="45.74353" lon="4.46657">
        <ele>588.92266845703</ele>
        <time>2016-05-15T09:32:49.000Z</time>
      </trkpt>
      <trkpt lat="45.7435" lon="4.46657">
        <ele>589.62744140625</ele>
        <time>2016-05-15T09:32:52.000Z</time>
      </trkpt>
      <trkpt lat="45.74347" lon="4.46656">
        <ele>590.27471923828</ele>
        <time>2016-05-15T09:32:55.000Z</time>
      </trkpt>
      <trkpt lat="45.74345" lon="4.46656">
        <ele>590.74987792969</ele>
        <time>2016-05-15T09:32:57.000Z</time>
      </trkpt>
      <trkpt lat="45.74339" lon="4.46653">
        <ele>591.28625488281</ele>
        <time>2016-05-15T09:33:01.000Z</time>
      </trkpt>
      <trkpt lat="45.74335" lon="4.46651">
        <ele>591.05682373047</ele>
        <time>2016-05-15T09:33:03.000Z</time>
      </trkpt>
      <trkpt lat="45.74329" lon="4.46649">
        <ele>590.14172363281</ele>
        <time>2016-05-15T09:33:07.000Z</time>
      </trkpt>
      <trkpt lat="45.74324" lon="4.46647">
        <ele>590.546875</ele>
        <time>2016-05-15T09:33:11.000Z</time>
      </trkpt>
      <trkpt lat="45.7432" lon="4.46646">
        <ele>590.59460449219</ele>
        <time>2016-05-15T09:33:13.000Z</time>
      </trkpt>
      <trkpt lat="45.74313" lon="4.46645">
        <ele>591.01477050781</ele>
        <time>2016-05-15T09:33:17.000Z</time>
      </trkpt>
      <trkpt lat="45.7431" lon="4.46645">
        <ele>591.38854980469</ele>
        <time>2016-05-15T09:33:19.000Z</time>
      </trkpt>
      <trkpt lat="45.74303" lon="4.46644">
        <ele>590.65191650391</ele>
        <time>2016-05-15T09:33:23.000Z</time>
      </trkpt>
      <trkpt lat="45.74299" lon="4.46643">
        <ele>591.341796875</ele>
        <time>2016-05-15T09:33:25.000Z</time>
      </trkpt>
      <trkpt lat="45.74297" lon="4.46642">
        <ele>592.06854248047</ele>
        <time>2016-05-15T09:33:27.000Z</time>
      </trkpt>
      <trkpt lat="45.74291" lon="4.4664">
        <ele>593.52789306641</ele>
        <time>2016-05-15T09:33:31.000Z</time>
      </trkpt>
      <trkpt lat="45.74284" lon="4.46639">
        <ele>594.89196777344</ele>
        <time>2016-05-15T09:33:35.000Z</time>
      </trkpt>
      <trkpt lat="45.74278" lon="4.46637">
        <ele>594.78131103516</ele>
        <time>2016-05-15T09:33:40.000Z</time>
      </trkpt>
      <trkpt lat="45.74272" lon="4.46633">
        <ele>593.35998535156</ele>
        <time>2016-05-15T09:33:44.000Z</time>
      </trkpt>
      <trkpt lat="45.74267" lon="4.46628">
        <ele>592.62463378906</ele>
        <time>2016-05-15T09:33:48.000Z</time>
      </trkpt>
      <trkpt lat="45.74265" lon="4.46627">
        <ele>592.64288330078</ele>
        <time>2016-05-15T09:33:50.000Z</time>
      </trkpt>
      <trkpt lat="45.74258" lon="4.46624">
        <ele>592.49310302734</ele>
        <time>2016-05-15T09:33:54.000Z</time>
      </trkpt>
      <trkpt lat="45.74255" lon="4.46624">
        <ele>592.92962646484</ele>
        <time>2016-05-15T09:33:56.000Z</time>
      </trkpt>
      <trkpt lat="45.74249" lon="4.46624">
        <ele>595.08337402344</ele>
        <time>2016-05-15T09:34:00.000Z</time>
      </trkpt>
      <trkpt lat="45.74243" lon="4.46626">
        <ele>597.60772705078</ele>
        <time>2016-05-15T09:34:04.000Z</time>
      </trkpt>
      <trkpt lat="45.74238" lon="4.4663">
        <ele>598.19891357422</ele>
        <time>2016-05-15T09:34:08.000Z</time>
      </trkpt>
      <trkpt lat="45.74236" lon="4.46632">
        <ele>598.04449462891</ele>
        <time>2016-05-15T09:34:10.000Z</time>
      </trkpt>
      <trkpt lat="45.74233" lon="4.46638">
        <ele>598.43420410156</ele>
        <time>2016-05-15T09:34:14.000Z</time>
      </trkpt>
      <trkpt lat="45.7423" lon="4.46645">
        <ele>598.50573730469</ele>
        <time>2016-05-15T09:34:17.000Z</time>
      </trkpt>
      <trkpt lat="45.74228" lon="4.46648">
        <ele>598.07562255859</ele>
        <time>2016-05-15T09:34:19.000Z</time>
      </trkpt>
      <trkpt lat="45.74226" lon="4.46652">
        <ele>597.29119873047</ele>
        <time>2016-05-15T09:34:21.000Z</time>
      </trkpt>
      <trkpt lat="45.74221" lon="4.46657">
        <ele>596.39184570312</ele>
        <time>2016-05-15T09:34:25.000Z</time>
      </trkpt>
      <trkpt lat="45.74219" lon="4.46659">
        <ele>596.57916259766</ele>
        <time>2016-05-15T09:34:28.000Z</time>
      </trkpt>
      <trkpt lat="45.74216" lon="4.46662">
        <ele>597.45989990234</ele>
        <time>2016-05-15T09:34:31.000Z</time>
      </trkpt>
      <trkpt lat="45.74213" lon="4.46665">
        <ele>598.22570800781</ele>
        <time>2016-05-15T09:34:33.000Z</time>
      </trkpt>
      <trkpt lat="45.74208" lon="4.46669">
        <ele>599.16955566406</ele>
        <time>2016-05-15T09:34:35.000Z</time>
      </trkpt>
      <trkpt lat="45.74201" lon="4.46676">
        <ele>601.25421142578</ele>
        <time>2016-05-15T09:34:39.000Z</time>
      </trkpt>
      <trkpt lat="45.74195" lon="4.46681">
        <ele>601.90246582031</ele>
        <time>2016-05-15T09:34:42.000Z</time>
      </trkpt>
      <trkpt lat="45.74192" lon="4.46683">
        <ele>602.8037109375</ele>
        <time>2016-05-15T09:34:44.000Z</time>
      </trkpt>
      <trkpt lat="45.74188" lon="4.46684">
        <ele>603.0703125</ele>
        <time>2016-05-15T09:34:46.000Z</time>
      </trkpt>
      <trkpt lat="45.74185" lon="4.46685">
        <ele>603.30773925781</ele>
        <time>2016-05-15T09:34:48.000Z</time>
      </trkpt>
      <trkpt lat="45.74178" lon="4.46685">
        <ele>604.58941650391</ele>
        <time>2016-05-15T09:34:51.000Z</time>
      </trkpt>
      <trkpt lat="45.74174" lon="4.46685">
        <ele>605.98590087891</ele>
        <time>2016-05-15T09:34:53.000Z</time>
      </trkpt>
      <trkpt lat="45.74169" lon="4.46685">
        <ele>608.50524902344</ele>
        <time>2016-05-15T09:34:57.000Z</time>
      </trkpt>
      <trkpt lat="45.74166" lon="4.46685">
        <ele>608.57373046875</ele>
        <time>2016-05-15T09:34:59.000Z</time>
      </trkpt>
      <trkpt lat="45.74161" lon="4.46687">
        <ele>609.80804443359</ele>
        <time>2016-05-15T09:35:03.000Z</time>
      </trkpt>
      <trkpt lat="45.74155" lon="4.46691">
        <ele>609.6640625</ele>
        <time>2016-05-15T09:35:07.000Z</time>
      </trkpt>
      <trkpt lat="45.74152" lon="4.46692">
        <ele>609.53997802734</ele>
        <time>2016-05-15T09:35:09.000Z</time>
      </trkpt>
      <trkpt lat="45.7415" lon="4.46693">
        <ele>609.88793945312</ele>
        <time>2016-05-15T09:35:11.000Z</time>
      </trkpt>
      <trkpt lat="45.74146" lon="4.46694">
        <ele>610.14434814453</ele>
        <time>2016-05-15T09:35:13.000Z</time>
      </trkpt>
      <trkpt lat="45.74143" lon="4.46695">
        <ele>610.50518798828</ele>
        <time>2016-05-15T09:35:15.000Z</time>
      </trkpt>
      <trkpt lat="45.74138" lon="4.46703">
        <ele>610.98321533203</ele>
        <time>2016-05-15T09:35:19.000Z</time>
      </trkpt>
      <trkpt lat="45.74134" lon="4.46711">
        <ele>611.88708496094</ele>
        <time>2016-05-15T09:35:23.000Z</time>
      </trkpt>
      <trkpt lat="45.74131" lon="4.46716">
        <ele>612.03326416016</ele>
        <time>2016-05-15T09:35:25.000Z</time>
      </trkpt>
      <trkpt lat="45.74126" lon="4.46724">
        <ele>612.38037109375</ele>
        <time>2016-05-15T09:35:29.000Z</time>
      </trkpt>
      <trkpt lat="45.74122" lon="4.46731">
        <ele>612.84930419922</ele>
        <time>2016-05-15T09:35:32.000Z</time>
      </trkpt>
      <trkpt lat="45.7412" lon="4.46734">
        <ele>612.77581787109</ele>
        <time>2016-05-15T09:35:34.000Z</time>
      </trkpt>
      <trkpt lat="45.74114" lon="4.46743">
        <ele>612.78161621094</ele>
        <time>2016-05-15T09:35:38.000Z</time>
      </trkpt>
      <trkpt lat="45.74109" lon="4.46752">
        <ele>612.82293701172</ele>
        <time>2016-05-15T09:35:42.000Z</time>
      </trkpt>
      <trkpt lat="45.74107" lon="4.46756">
        <ele>612.06079101562</ele>
        <time>2016-05-15T09:35:44.000Z</time>
      </trkpt>
      <trkpt lat="45.74104" lon="4.4676">
        <ele>610.92883300781</ele>
        <time>2016-05-15T09:35:46.000Z</time>
      </trkpt>
      <trkpt lat="45.741" lon="4.46766">
        <ele>610.81042480469</ele>
        <time>2016-05-15T09:35:50.000Z</time>
      </trkpt>
      <trkpt lat="45.74094" lon="4.46774">
        <ele>610.90289306641</ele>
        <time>2016-05-15T09:35:54.000Z</time>
      </trkpt>
      <trkpt lat="45.74091" lon="4.46778">
        <ele>610.68267822266</ele>
        <time>2016-05-15T09:35:56.000Z</time>
      </trkpt>
      <trkpt lat="45.74086" lon="4.46786">
        <ele>610.90747070312</ele>
        <time>2016-05-15T09:36:00.000Z</time>
      </trkpt>
      <trkpt lat="45.74084" lon="4.4679">
        <ele>611.43933105469</ele>
        <time>2016-05-15T09:36:02.000Z</time>
      </trkpt>
      <trkpt lat="45.7408" lon="4.46798">
        <ele>610.86431884766</ele>
        <time>2016-05-15T09:36:06.000Z</time>
      </trkpt>
      <trkpt lat="45.74075" lon="4.46805">
        <ele>610.57897949219</ele>
        <time>2016-05-15T09:36:10.000Z</time>
      </trkpt>
      <trkpt lat="45.74068" lon="4.46814">
        <ele>611.00708007812</ele>
        <time>2016-05-15T09:36:14.000Z</time>
      </trkpt>
      <trkpt lat="45.74063" lon="4.46821">
        <ele>611.38391113281</ele>
        <time>2016-05-15T09:36:17.000Z</time>
      </trkpt>
      <trkpt lat="45.74062" lon="4.46824">
        <ele>611.66027832031</ele>
        <time>2016-05-15T09:36:19.000Z</time>
      </trkpt>
      <trkpt lat="45.74055" lon="4.4683">
        <ele>612.3857421875</ele>
        <time>2016-05-15T09:36:23.000Z</time>
      </trkpt>
      <trkpt lat="45.74051" lon="4.46834">
        <ele>612.67358398438</ele>
        <time>2016-05-15T09:36:25.000Z</time>
      </trkpt>
      <trkpt lat="45.74048" lon="4.46837">
        <ele>612.92034912109</ele>
        <time>2016-05-15T09:36:27.000Z</time>
      </trkpt>
      <trkpt lat="45.74041" lon="4.46843">
        <ele>613.44317626953</ele>
        <time>2016-05-15T09:36:31.000Z</time>
      </trkpt>
      <trkpt lat="45.74034" lon="4.46849">
        <ele>615.70251464844</ele>
        <time>2016-05-15T09:36:35.000Z</time>
      </trkpt>
      <trkpt lat="45.74032" lon="4.46851">
        <ele>616.03393554688</ele>
        <time>2016-05-15T09:36:37.000Z</time>
      </trkpt>
      <trkpt lat="45.74028" lon="4.46855">
        <ele>615.94506835938</ele>
        <time>2016-05-15T09:36:39.000Z</time>
      </trkpt>
      <trkpt lat="45.74022" lon="4.46862">
        <ele>616.57916259766</ele>
        <time>2016-05-15T09:36:43.000Z</time>
      </trkpt>
      <trkpt lat="45.74016" lon="4.46868">
        <ele>618.58367919922</ele>
        <time>2016-05-15T09:36:47.000Z</time>
      </trkpt>
      <trkpt lat="45.74013" lon="4.46871">
        <ele>619.42492675781</ele>
        <time>2016-05-15T09:36:49.000Z</time>
      </trkpt>
      <trkpt lat="45.74011" lon="4.46873">
        <ele>619.82977294922</ele>
        <time>2016-05-15T09:36:51.000Z</time>
      </trkpt>
      <trkpt lat="45.74004" lon="4.46881">
        <ele>622.03051757812</ele>
        <time>2016-05-15T09:36:55.000Z</time>
      </trkpt>
      <trkpt lat="45.74001" lon="4.46883">
        <ele>622.32183837891</ele>
        <time>2016-05-15T09:36:58.000Z</time>
      </trkpt>
      <trkpt lat="45.73997" lon="4.46885">
        <ele>622.09356689453</ele>
        <time>2016-05-15T09:37:00.000Z</time>
      </trkpt>
      <trkpt lat="45.7399" lon="4.46886">
        <ele>620.88854980469</ele>
        <time>2016-05-15T09:37:03.000Z</time>
      </trkpt>
      <trkpt lat="45.73985" lon="4.46885">
        <ele>620.75030517578</ele>
        <time>2016-05-15T09:37:06.000Z</time>
      </trkpt>
      <trkpt lat="45.73979" lon="4.46885">
        <ele>620.14135742188</ele>
        <time>2016-05-15T09:37:12.000Z</time>
      </trkpt>
      <trkpt lat="45.73979" lon="4.46885">
        <ele>613.17016601562</ele>
        <time>2016-05-15T09:37:32.000Z</time>
      </trkpt>
      <trkpt lat="45.73977" lon="4.46885">
        <ele>618.63427734375</ele>
        <time>2016-05-15T09:37:57.000Z</time>
      </trkpt>
      <trkpt lat="45.73969" lon="4.46891">
        <ele>615.82946777344</ele>
        <time>2016-05-15T09:38:00.000Z</time>
      </trkpt>
      <trkpt lat="45.73962" lon="4.46896">
        <ele>615.71032714844</ele>
        <time>2016-05-15T09:38:02.000Z</time>
      </trkpt>
      <trkpt lat="45.73956" lon="4.469">
        <ele>615.59204101562</ele>
        <time>2016-05-15T09:38:04.000Z</time>
      </trkpt>
      <trkpt lat="45.73948" lon="4.46903">
        <ele>615.37609863281</ele>
        <time>2016-05-15T09:38:07.000Z</time>
      </trkpt>
      <trkpt lat="45.73938" lon="4.46902">
        <ele>613.13745117188</ele>
        <time>2016-05-15T09:38:10.000Z</time>
      </trkpt>
      <trkpt lat="45.73931" lon="4.46899">
        <ele>610.90246582031</ele>
        <time>2016-05-15T09:38:14.000Z</time>
      </trkpt>
      <trkpt lat="45.73927" lon="4.46894">
        <ele>609.76721191406</ele>
        <time>2016-05-15T09:38:16.000Z</time>
      </trkpt>
      <trkpt lat="45.73922" lon="4.46885">
        <ele>612.86083984375</ele>
        <time>2016-05-15T09:38:19.000Z</time>
      </trkpt>
      <trkpt lat="45.7392" lon="4.46882">
        <ele>613.05822753906</ele>
        <time>2016-05-15T09:38:21.000Z</time>
      </trkpt>
      <trkpt lat="45.73919" lon="4.46877">
        <ele>613.76007080078</ele>
        <time>2016-05-15T09:38:23.000Z</time>
      </trkpt>
      <trkpt lat="45.73917" lon="4.46873">
        <ele>614.48327636719</ele>
        <time>2016-05-15T09:38:25.000Z</time>
      </trkpt>
      <trkpt lat="45.73914" lon="4.46867">
        <ele>615.90814208984</ele>
        <time>2016-05-15T09:38:29.000Z</time>
      </trkpt>
      <trkpt lat="45.73912" lon="4.4686">
        <ele>615.71459960938</ele>
        <time>2016-05-15T09:38:34.000Z</time>
      </trkpt>
      <trkpt lat="45.73909" lon="4.46853">
        <ele>615.66247558594</ele>
        <time>2016-05-15T09:38:38.000Z</time>
      </trkpt>
      <trkpt lat="45.73905" lon="4.46845">
        <ele>614.40155029297</ele>
        <time>2016-05-15T09:38:42.000Z</time>
      </trkpt>
      <trkpt lat="45.73904" lon="4.46837">
        <ele>614.19140625</ele>
        <time>2016-05-15T09:38:45.000Z</time>
      </trkpt>
      <trkpt lat="45.73903" lon="4.46833">
        <ele>615.52740478516</ele>
        <time>2016-05-15T09:38:47.000Z</time>
      </trkpt>
      <trkpt lat="45.73902" lon="4.46829">
        <ele>616.54968261719</ele>
        <time>2016-05-15T09:38:49.000Z</time>
      </trkpt>
      <trkpt lat="45.73898" lon="4.46819">
        <ele>616.91522216797</ele>
        <time>2016-05-15T09:38:53.000Z</time>
      </trkpt>
      <trkpt lat="45.73897" lon="4.46815">
        <ele>616.82037353516</ele>
        <time>2016-05-15T09:38:55.000Z</time>
      </trkpt>
      <trkpt lat="45.73897" lon="4.46807">
        <ele>617.65222167969</ele>
        <time>2016-05-15T09:38:59.000Z</time>
      </trkpt>
      <trkpt lat="45.73898" lon="4.46804">
        <ele>618.43707275391</ele>
        <time>2016-05-15T09:39:02.000Z</time>
      </trkpt>
      <trkpt lat="45.73898" lon="4.46798">
        <ele>622.11102294922</ele>
        <time>2016-05-15T09:49:28.000Z</time>
      </trkpt>
      <trkpt lat="45.73897" lon="4.46795">
        <ele>622.99188232422</ele>
        <time>2016-05-15T09:49:31.000Z</time>
      </trkpt>
      <trkpt lat="45.73895" lon="4.46793">
        <ele>623.3232421875</ele>
        <time>2016-05-15T09:49:34.000Z</time>
      </trkpt>
      <trkpt lat="45.73894" lon="4.46791">
        <ele>623.50653076172</ele>
        <time>2016-05-15T09:49:37.000Z</time>
      </trkpt>
      <trkpt lat="45.73892" lon="4.4679">
        <ele>623.51940917969</ele>
        <time>2016-05-15T09:49:40.000Z</time>
      </trkpt>
      <trkpt lat="45.73889" lon="4.46787">
        <ele>623.41967773438</ele>
        <time>2016-05-15T09:49:44.000Z</time>
      </trkpt>
      <trkpt lat="45.73888" lon="4.46785">
        <ele>622.94427490234</ele>
        <time>2016-05-15T09:49:56.000Z</time>
      </trkpt>
      <trkpt lat="45.73888" lon="4.46785">
        <ele>622.81884765625</ele>
        <time>2016-05-15T09:50:16.000Z</time>
      </trkpt>
      <trkpt lat="45.73886" lon="4.46782">
        <ele>622.79418945312</ele>
        <time>2016-05-15T09:50:20.000Z</time>
      </trkpt>
      <trkpt lat="45.73884" lon="4.4678">
        <ele>622.14581298828</ele>
        <time>2016-05-15T09:50:22.000Z</time>
      </trkpt>
      <trkpt lat="45.73879" lon="4.46774">
        <ele>621.51422119141</ele>
        <time>2016-05-15T09:50:26.000Z</time>
      </trkpt>
      <trkpt lat="45.73877" lon="4.4677">
        <ele>621.47045898438</ele>
        <time>2016-05-15T09:50:28.000Z</time>
      </trkpt>
      <trkpt lat="45.73872" lon="4.46766">
        <ele>621.31823730469</ele>
        <time>2016-05-15T09:50:33.000Z</time>
      </trkpt>
      <trkpt lat="45.73866" lon="4.46759">
        <ele>621.65533447266</ele>
        <time>2016-05-15T09:50:36.000Z</time>
      </trkpt>
      <trkpt lat="45.73861" lon="4.46754">
        <ele>622.59808349609</ele>
        <time>2016-05-15T09:50:38.000Z</time>
      </trkpt>
      <trkpt lat="45.73851" lon="4.46747">
        <ele>622.14514160156</ele>
        <time>2016-05-15T09:50:41.000Z</time>
      </trkpt>
      <trkpt lat="45.73841" lon="4.46742">
        <ele>619.44647216797</ele>
        <time>2016-05-15T09:50:44.000Z</time>
      </trkpt>
      <trkpt lat="45.73833" lon="4.46737">
        <ele>619.20281982422</ele>
        <time>2016-05-15T09:50:47.000Z</time>
      </trkpt>
      <trkpt lat="45.73829" lon="4.46734">
        <ele>619.30163574219</ele>
        <time>2016-05-15T09:50:49.000Z</time>
      </trkpt>
      <trkpt lat="45.73824" lon="4.46731">
        <ele>618.44171142578</ele>
        <time>2016-05-15T09:50:51.000Z</time>
      </trkpt>
      <trkpt lat="45.73817" lon="4.46728">
        <ele>617.16522216797</ele>
        <time>2016-05-15T09:50:54.000Z</time>
      </trkpt>
      <trkpt lat="45.73808" lon="4.46722">
        <ele>616.21270751953</ele>
        <time>2016-05-15T09:50:57.000Z</time>
      </trkpt>
      <trkpt lat="45.738" lon="4.46719">
        <ele>616.71685791016</ele>
        <time>2016-05-15T09:50:59.000Z</time>
      </trkpt>
      <trkpt lat="45.73787" lon="4.46713">
        <ele>616.27136230469</ele>
        <time>2016-05-15T09:51:02.000Z</time>
      </trkpt>
      <trkpt lat="45.73772" lon="4.46706">
        <ele>615.14794921875</ele>
        <time>2016-05-15T09:51:05.000Z</time>
      </trkpt>
      <trkpt lat="45.7376" lon="4.46698">
        <ele>614.40747070312</ele>
        <time>2016-05-15T09:51:08.000Z</time>
      </trkpt>
      <trkpt lat="45.73748" lon="4.46691">
        <ele>615.74090576172</ele>
        <time>2016-05-15T09:51:11.000Z</time>
      </trkpt>
      <trkpt lat="45.73744" lon="4.46689">
        <ele>614.22479248047</ele>
        <time>2016-05-15T09:51:13.000Z</time>
      </trkpt>
      <trkpt lat="45.73736" lon="4.46659">
        <ele>610.27026367188</ele>
        <time>2016-05-15T09:51:17.000Z</time>
      </trkpt>
      <trkpt lat="45.73718" lon="4.46636">
        <ele>613.90484619141</ele>
        <time>2016-05-15T09:51:20.000Z</time>
      </trkpt>
      <trkpt lat="45.73695" lon="4.46635">
        <ele>610.37188720703</ele>
        <time>2016-05-15T09:51:23.000Z</time>
      </trkpt>
      <trkpt lat="45.73668" lon="4.46632">
        <ele>608.62860107422</ele>
        <time>2016-05-15T09:51:26.000Z</time>
      </trkpt>
      <trkpt lat="45.73642" lon="4.46631">
        <ele>605.45257568359</ele>
        <time>2016-05-15T09:51:29.000Z</time>
      </trkpt>
      <trkpt lat="45.73615" lon="4.46626">
        <ele>605.84271240234</ele>
        <time>2016-05-15T09:51:32.000Z</time>
      </trkpt>
      <trkpt lat="45.73594" lon="4.4662">
        <ele>605.01049804688</ele>
        <time>2016-05-15T09:51:34.000Z</time>
      </trkpt>
      <trkpt lat="45.73565" lon="4.46617">
        <ele>602.41552734375</ele>
        <time>2016-05-15T09:51:37.000Z</time>
      </trkpt>
      <trkpt lat="45.73542" lon="4.46613">
        <ele>602.23089599609</ele>
        <time>2016-05-15T09:51:40.000Z</time>
      </trkpt>
      <trkpt lat="45.73501" lon="4.4661">
        <ele>600.37170410156</ele>
        <time>2016-05-15T09:51:44.000Z</time>
      </trkpt>
      <trkpt lat="45.73484" lon="4.46611">
        <ele>600.40563964844</ele>
        <time>2016-05-15T09:51:46.000Z</time>
      </trkpt>
      <trkpt lat="45.73461" lon="4.46613">
        <ele>600.25634765625</ele>
        <time>2016-05-15T09:51:49.000Z</time>
      </trkpt>
      <trkpt lat="45.7345" lon="4.46612">
        <ele>601.34368896484</ele>
        <time>2016-05-15T09:51:51.000Z</time>
      </trkpt>
      <trkpt lat="45.73438" lon="4.46614">
        <ele>601.73852539062</ele>
        <time>2016-05-15T09:51:54.000Z</time>
      </trkpt>
      <trkpt lat="45.73427" lon="4.46617">
        <ele>600.58892822266</ele>
        <time>2016-05-15T09:51:57.000Z</time>
      </trkpt>
      <trkpt lat="45.73422" lon="4.46607">
        <ele>596.91613769531</ele>
        <time>2016-05-15T09:51:59.000Z</time>
      </trkpt>
      <trkpt lat="45.73405" lon="4.466">
        <ele>590.63269042969</ele>
        <time>2016-05-15T09:52:02.000Z</time>
      </trkpt>
      <trkpt lat="45.73391" lon="4.46598">
        <ele>587.02392578125</ele>
        <time>2016-05-15T09:52:04.000Z</time>
      </trkpt>
      <trkpt lat="45.73375" lon="4.4658">
        <ele>582.70611572266</ele>
        <time>2016-05-15T09:52:07.000Z</time>
      </trkpt>
      <trkpt lat="45.73366" lon="4.46564">
        <ele>582.14489746094</ele>
        <time>2016-05-15T09:52:09.000Z</time>
      </trkpt>
      <trkpt lat="45.73354" lon="4.46525">
        <ele>581.76843261719</ele>
        <time>2016-05-15T09:52:12.000Z</time>
      </trkpt>
      <trkpt lat="45.73346" lon="4.46492">
        <ele>581.20074462891</ele>
        <time>2016-05-15T09:52:14.000Z</time>
      </trkpt>
      <trkpt lat="45.73336" lon="4.46464">
        <ele>580.57861328125</ele>
        <time>2016-05-15T09:52:16.000Z</time>
      </trkpt>
      <trkpt lat="45.73318" lon="4.4644">
        <ele>580.40545654297</ele>
        <time>2016-05-15T09:52:19.000Z</time>
      </trkpt>
      <trkpt lat="45.73301" lon="4.46423">
        <ele>581.42633056641</ele>
        <time>2016-05-15T09:52:22.000Z</time>
      </trkpt>
      <trkpt lat="45.73283" lon="4.46414">
        <ele>581.67810058594</ele>
        <time>2016-05-15T09:52:25.000Z</time>
      </trkpt>
      <trkpt lat="45.73276" lon="4.46409">
        <ele>581.77014160156</ele>
        <time>2016-05-15T09:52:27.000Z</time>
      </trkpt>
      <trkpt lat="45.7327" lon="4.46406">
        <ele>582.13775634766</ele>
        <time>2016-05-15T09:52:30.000Z</time>
      </trkpt>
      <trkpt lat="45.73262" lon="4.46403">
        <ele>582.54125976562</ele>
        <time>2016-05-15T09:52:33.000Z</time>
      </trkpt>
      <trkpt lat="45.73259" lon="4.464">
        <ele>582.88629150391</ele>
        <time>2016-05-15T09:52:36.000Z</time>
      </trkpt>
      <trkpt lat="45.73257" lon="4.46397">
        <ele>582.90075683594</ele>
        <time>2016-05-15T09:52:38.000Z</time>
      </trkpt>
      <trkpt lat="45.73251" lon="4.46393">
        <ele>583.40246582031</ele>
        <time>2016-05-15T09:52:42.000Z</time>
      </trkpt>
      <trkpt lat="45.73245" lon="4.4639">
        <ele>584.83386230469</ele>
        <time>2016-05-15T09:52:44.000Z</time>
      </trkpt>
      <trkpt lat="45.73235" lon="4.46386">
        <ele>586.97546386719</ele>
        <time>2016-05-15T09:52:48.000Z</time>
      </trkpt>
      <trkpt lat="45.73232" lon="4.46385">
        <ele>588.04205322266</ele>
        <time>2016-05-15T09:52:50.000Z</time>
      </trkpt>
      <trkpt lat="45.73228" lon="4.46382">
        <ele>589.32287597656</ele>
        <time>2016-05-15T09:52:52.000Z</time>
      </trkpt>
      <trkpt lat="45.73223" lon="4.46375">
        <ele>590.62628173828</ele>
        <time>2016-05-15T09:52:56.000Z</time>
      </trkpt>
      <trkpt lat="45.73217" lon="4.46366">
        <ele>592.79315185547</ele>
        <time>2016-05-15T09:52:59.000Z</time>
      </trkpt>
      <trkpt lat="45.73213" lon="4.46361">
        <ele>593.68896484375</ele>
        <time>2016-05-15T09:53:02.000Z</time>
      </trkpt>
      <trkpt lat="45.73207" lon="4.46352">
        <ele>594.87493896484</ele>
        <time>2016-05-15T09:53:06.000Z</time>
      </trkpt>
      <trkpt lat="45.73203" lon="4.46346">
        <ele>594.90618896484</ele>
        <time>2016-05-15T09:53:08.000Z</time>
      </trkpt>
      <trkpt lat="45.73197" lon="4.46338">
        <ele>595.67767333984</ele>
        <time>2016-05-15T09:53:11.000Z</time>
      </trkpt>
      <trkpt lat="45.73192" lon="4.46328">
        <ele>595.37017822266</ele>
        <time>2016-05-15T09:53:14.000Z</time>
      </trkpt>
      <trkpt lat="45.73188" lon="4.46321">
        <ele>593.93670654297</ele>
        <time>2016-05-15T09:53:16.000Z</time>
      </trkpt>
      <trkpt lat="45.73186" lon="4.46312">
        <ele>593.89044189453</ele>
        <time>2016-05-15T09:53:18.000Z</time>
      </trkpt>
      <trkpt lat="45.73184" lon="4.46304">
        <ele>593.7861328125</ele>
        <time>2016-05-15T09:53:20.000Z</time>
      </trkpt>
      <trkpt lat="45.73182" lon="4.4629">
        <ele>593.93530273438</ele>
        <time>2016-05-15T09:53:23.000Z</time>
      </trkpt>
      <trkpt lat="45.73181" lon="4.46278">
        <ele>595.03833007812</ele>
        <time>2016-05-15T09:53:26.000Z</time>
      </trkpt>
      <trkpt lat="45.73184" lon="4.46265">
        <ele>596.02575683594</ele>
        <time>2016-05-15T09:53:29.000Z</time>
      </trkpt>
      <trkpt lat="45.73188" lon="4.46256">
        <ele>596.71557617188</ele>
        <time>2016-05-15T09:53:31.000Z</time>
      </trkpt>
      <trkpt lat="45.73195" lon="4.46241">
        <ele>596.32244873047</ele>
        <time>2016-05-15T09:53:34.000Z</time>
      </trkpt>
      <trkpt lat="45.73199" lon="4.46223">
        <ele>595.57299804688</ele>
        <time>2016-05-15T09:53:37.000Z</time>
      </trkpt>
      <trkpt lat="45.732" lon="4.46211">
        <ele>595.81726074219</ele>
        <time>2016-05-15T09:53:39.000Z</time>
      </trkpt>
      <trkpt lat="45.73202" lon="4.462">
        <ele>595.97064208984</ele>
        <time>2016-05-15T09:53:41.000Z</time>
      </trkpt>
      <trkpt lat="45.73208" lon="4.46187">
        <ele>595.68890380859</ele>
        <time>2016-05-15T09:53:44.000Z</time>
      </trkpt>
      <trkpt lat="45.73214" lon="4.46181">
        <ele>593.01531982422</ele>
        <time>2016-05-15T09:53:47.000Z</time>
      </trkpt>
      <trkpt lat="45.73217" lon="4.46179">
        <ele>593.01391601562</ele>
        <time>2016-05-15T09:53:49.000Z</time>
      </trkpt>
      <trkpt lat="45.7322" lon="4.46178">
        <ele>593.17303466797</ele>
        <time>2016-05-15T09:53:51.000Z</time>
      </trkpt>
      <trkpt lat="45.73223" lon="4.46176">
        <ele>593.77557373047</ele>
        <time>2016-05-15T09:53:53.000Z</time>
      </trkpt>
      <trkpt lat="45.73229" lon="4.46172">
        <ele>594.14910888672</ele>
        <time>2016-05-15T09:53:57.000Z</time>
      </trkpt>
      <trkpt lat="45.73232" lon="4.4617">
        <ele>594.34655761719</ele>
        <time>2016-05-15T09:54:00.000Z</time>
      </trkpt>
      <trkpt lat="45.73235" lon="4.46168">
        <ele>595.99249267578</ele>
        <time>2016-05-15T09:54:02.000Z</time>
      </trkpt>
      <trkpt lat="45.73237" lon="4.46167">
        <ele>597.62219238281</ele>
        <time>2016-05-15T09:54:04.000Z</time>
      </trkpt>
      <trkpt lat="45.7324" lon="4.46165">
        <ele>598.64697265625</ele>
        <time>2016-05-15T09:54:07.000Z</time>
      </trkpt>
      <trkpt lat="45.73243" lon="4.46163">
        <ele>598.69903564453</ele>
        <time>2016-05-15T09:54:09.000Z</time>
      </trkpt>
      <trkpt lat="45.73245" lon="4.46163">
        <ele>598.29760742188</ele>
        <time>2016-05-15T09:54:12.000Z</time>
      </trkpt>
      <trkpt lat="45.7325" lon="4.46163">
        <ele>598.90325927734</ele>
        <time>2016-05-15T09:54:16.000Z</time>
      </trkpt>
      <trkpt lat="45.73256" lon="4.46163">
        <ele>603.09790039062</ele>
        <time>2016-05-15T09:54:20.000Z</time>
      </trkpt>
      <trkpt lat="45.73259" lon="4.46163">
        <ele>604.58752441406</ele>
        <time>2016-05-15T09:54:23.000Z</time>
      </trkpt>
      <trkpt lat="45.73268" lon="4.46162">
        <ele>605.89270019531</ele>
        <time>2016-05-15T09:54:26.000Z</time>
      </trkpt>
      <trkpt lat="45.73272" lon="4.46162">
        <ele>606.52978515625</ele>
        <time>2016-05-15T09:54:28.000Z</time>
      </trkpt>
      <trkpt lat="45.7328" lon="4.46162">
        <ele>606.26055908203</ele>
        <time>2016-05-15T09:54:32.000Z</time>
      </trkpt>
      <trkpt lat="45.73285" lon="4.46161">
        <ele>606.06176757812</ele>
        <time>2016-05-15T09:54:34.000Z</time>
      </trkpt>
      <trkpt lat="45.73291" lon="4.46158">
        <ele>606.16827392578</ele>
        <time>2016-05-15T09:54:38.000Z</time>
      </trkpt>
      <trkpt lat="45.73297" lon="4.46156">
        <ele>606.78778076172</ele>
        <time>2016-05-15T09:54:42.000Z</time>
      </trkpt>
      <trkpt lat="45.73305" lon="4.46156">
        <ele>606.16961669922</ele>
        <time>2016-05-15T09:54:46.000Z</time>
      </trkpt>
      <trkpt lat="45.7331" lon="4.46156">
        <ele>605.01300048828</ele>
        <time>2016-05-15T09:54:50.000Z</time>
      </trkpt>
      <trkpt lat="45.73315" lon="4.46155">
        <ele>605.27093505859</ele>
        <time>2016-05-15T09:54:54.000Z</time>
      </trkpt>
      <trkpt lat="45.73322" lon="4.46153">
        <ele>606.03302001953</ele>
        <time>2016-05-15T09:54:57.000Z</time>
      </trkpt>
      <trkpt lat="45.73325" lon="4.46151">
        <ele>606.78936767578</ele>
        <time>2016-05-15T09:54:59.000Z</time>
      </trkpt>
      <trkpt lat="45.73331" lon="4.46148">
        <ele>607.32952880859</ele>
        <time>2016-05-15T09:55:03.000Z</time>
      </trkpt>
      <trkpt lat="45.73333" lon="4.46145">
        <ele>607.56927490234</ele>
        <time>2016-05-15T09:55:06.000Z</time>
      </trkpt>
      <trkpt lat="45.73333" lon="4.46141">
        <ele>607.99005126953</ele>
        <time>2016-05-15T09:55:09.000Z</time>
      </trkpt>
      <trkpt lat="45.73333" lon="4.46136">
        <ele>607.77758789062</ele>
        <time>2016-05-15T09:55:13.000Z</time>
      </trkpt>
      <trkpt lat="45.73334" lon="4.46128">
        <ele>606.69696044922</ele>
        <time>2016-05-15T09:55:17.000Z</time>
      </trkpt>
      <trkpt lat="45.73336" lon="4.46118">
        <ele>604.67694091797</ele>
        <time>2016-05-15T09:55:21.000Z</time>
      </trkpt>
      <trkpt lat="45.73339" lon="4.46111">
        <ele>604.37475585938</ele>
        <time>2016-05-15T09:55:23.000Z</time>
      </trkpt>
      <trkpt lat="45.73345" lon="4.46103">
        <ele>605.86437988281</ele>
        <time>2016-05-15T09:55:26.000Z</time>
      </trkpt>
      <trkpt lat="45.73348" lon="4.46098">
        <ele>606.54748535156</ele>
        <time>2016-05-15T09:55:28.000Z</time>
      </trkpt>
      <trkpt lat="45.73352" lon="4.46086">
        <ele>606.45288085938</ele>
        <time>2016-05-15T09:55:31.000Z</time>
      </trkpt>
      <trkpt lat="45.73355" lon="4.46073">
        <ele>606.02520751953</ele>
        <time>2016-05-15T09:55:34.000Z</time>
      </trkpt>
      <trkpt lat="45.73358" lon="4.4606">
        <ele>604.64440917969</ele>
        <time>2016-05-15T09:55:37.000Z</time>
      </trkpt>
      <trkpt lat="45.73362" lon="4.46049">
        <ele>605.1123046875</ele>
        <time>2016-05-15T09:55:40.000Z</time>
      </trkpt>
      <trkpt lat="45.73363" lon="4.46044">
        <ele>605.23870849609</ele>
        <time>2016-05-15T09:55:42.000Z</time>
      </trkpt>
      <trkpt lat="45.73366" lon="4.46033">
        <ele>605.939453125</ele>
        <time>2016-05-15T09:55:46.000Z</time>
      </trkpt>
      <trkpt lat="45.73367" lon="4.46027">
        <ele>606.24792480469</ele>
        <time>2016-05-15T09:55:48.000Z</time>
      </trkpt>
      <trkpt lat="45.7337" lon="4.46013">
        <ele>605.87646484375</ele>
        <time>2016-05-15T09:55:51.000Z</time>
      </trkpt>
      <trkpt lat="45.73373" lon="4.46007">
        <ele>606.42541503906</ele>
        <time>2016-05-15T09:55:53.000Z</time>
      </trkpt>
      <trkpt lat="45.73377" lon="4.45998">
        <ele>608.47991943359</ele>
        <time>2016-05-15T09:55:55.000Z</time>
      </trkpt>
      <trkpt lat="45.7338" lon="4.45993">
        <ele>609.59576416016</ele>
        <time>2016-05-15T09:55:57.000Z</time>
      </trkpt>
      <trkpt lat="45.73384" lon="4.45987">
        <ele>609.66357421875</ele>
        <time>2016-05-15T09:56:00.000Z</time>
      </trkpt>
      <trkpt lat="45.7339" lon="4.45985">
        <ele>608.25677490234</ele>
        <time>2016-05-15T09:56:04.000Z</time>
      </trkpt>
      <trkpt lat="45.73394" lon="4.45985">
        <ele>609.03668212891</ele>
        <time>2016-05-15T09:56:06.000Z</time>
      </trkpt>
      <trkpt lat="45.73397" lon="4.45986">
        <ele>609.58319091797</ele>
        <time>2016-05-15T09:56:08.000Z</time>
      </trkpt>
      <trkpt lat="45.734" lon="4.45987">
        <ele>610.16552734375</ele>
        <time>2016-05-15T09:56:10.000Z</time>
      </trkpt>
      <trkpt lat="45.73405" lon="4.45988">
        <ele>610.68591308594</ele>
        <time>2016-05-15T09:56:12.000Z</time>
      </trkpt>
      <trkpt lat="45.7341" lon="4.45988">
        <ele>610.50939941406</ele>
        <time>2016-05-15T09:56:16.000Z</time>
      </trkpt>
      <trkpt lat="45.73413" lon="4.45988">
        <ele>610.75793457031</ele>
        <time>2016-05-15T09:56:18.000Z</time>
      </trkpt>
      <trkpt lat="45.73415" lon="4.45986">
        <ele>610.98608398438</ele>
        <time>2016-05-15T09:56:20.000Z</time>
      </trkpt>
      <trkpt lat="45.73417" lon="4.45982">
        <ele>611.52679443359</ele>
        <time>2016-05-15T09:56:22.000Z</time>
      </trkpt>
      <trkpt lat="45.73418" lon="4.45978">
        <ele>612.06842041016</ele>
        <time>2016-05-15T09:56:24.000Z</time>
      </trkpt>
      <trkpt lat="45.73417" lon="4.45968">
        <ele>612.33013916016</ele>
        <time>2016-05-15T09:56:27.000Z</time>
      </trkpt>
      <trkpt lat="45.73416" lon="4.45963">
        <ele>612.63232421875</ele>
        <time>2016-05-15T09:56:29.000Z</time>
      </trkpt>
      <trkpt lat="45.73412" lon="4.45956">
        <ele>613.20953369141</ele>
        <time>2016-05-15T09:56:31.000Z</time>
      </trkpt>
      <trkpt lat="45.73409" lon="4.4595">
        <ele>613.10852050781</ele>
        <time>2016-05-15T09:56:33.000Z</time>
      </trkpt>
      <trkpt lat="45.73404" lon="4.4594">
        <ele>612.76910400391</ele>
        <time>2016-05-15T09:56:36.000Z</time>
      </trkpt>
      <trkpt lat="45.73401" lon="4.45934">
        <ele>613.15240478516</ele>
        <time>2016-05-15T09:56:38.000Z</time>
      </trkpt>
      <trkpt lat="45.73398" lon="4.45921">
        <ele>614.12445068359</ele>
        <time>2016-05-15T09:56:41.000Z</time>
      </trkpt>
      <trkpt lat="45.73395" lon="4.4591">
        <ele>613.41717529297</ele>
        <time>2016-05-15T09:56:43.000Z</time>
      </trkpt>
      <trkpt lat="45.73392" lon="4.45898">
        <ele>612.84387207031</ele>
        <time>2016-05-15T09:56:45.000Z</time>
      </trkpt>
      <trkpt lat="45.73388" lon="4.45879">
        <ele>613.3095703125</ele>
        <time>2016-05-15T09:56:48.000Z</time>
      </trkpt>
      <trkpt lat="45.73386" lon="4.45866">
        <ele>613.78741455078</ele>
        <time>2016-05-15T09:56:50.000Z</time>
      </trkpt>
      <trkpt lat="45.73383" lon="4.45847">
        <ele>614.85925292969</ele>
        <time>2016-05-15T09:56:53.000Z</time>
      </trkpt>
      <trkpt lat="45.73378" lon="4.45829">
        <ele>612.65521240234</ele>
        <time>2016-05-15T09:56:56.000Z</time>
      </trkpt>
      <trkpt lat="45.73374" lon="4.45815">
        <ele>610.72576904297</ele>
        <time>2016-05-15T09:56:58.000Z</time>
      </trkpt>
      <trkpt lat="45.7337" lon="4.45802">
        <ele>609.38415527344</ele>
        <time>2016-05-15T09:57:00.000Z</time>
      </trkpt>
      <trkpt lat="45.73365" lon="4.45784">
        <ele>607.49151611328</ele>
        <time>2016-05-15T09:57:03.000Z</time>
      </trkpt>
      <trkpt lat="45.73363" lon="4.45772">
        <ele>606.7216796875</ele>
        <time>2016-05-15T09:57:05.000Z</time>
      </trkpt>
      <trkpt lat="45.73364" lon="4.45757">
        <ele>605.69305419922</ele>
        <time>2016-05-15T09:57:07.000Z</time>
      </trkpt>
      <trkpt lat="45.73367" lon="4.45736">
        <ele>606.28460693359</ele>
        <time>2016-05-15T09:57:10.000Z</time>
      </trkpt>
      <trkpt lat="45.7337" lon="4.45725">
        <ele>606.47845458984</ele>
        <time>2016-05-15T09:57:12.000Z</time>
      </trkpt>
      <trkpt lat="45.73373" lon="4.45715">
        <ele>606.34674072266</ele>
        <time>2016-05-15T09:57:14.000Z</time>
      </trkpt>
      <trkpt lat="45.73379" lon="4.45699">
        <ele>606.9140625</ele>
        <time>2016-05-15T09:57:17.000Z</time>
      </trkpt>
      <trkpt lat="45.73381" lon="4.45689">
        <ele>606.90167236328</ele>
        <time>2016-05-15T09:57:19.000Z</time>
      </trkpt>
      <trkpt lat="45.73383" lon="4.45673">
        <ele>607.66424560547</ele>
        <time>2016-05-15T09:57:22.000Z</time>
      </trkpt>
      <trkpt lat="45.73383" lon="4.45661">
        <ele>606.80999755859</ele>
        <time>2016-05-15T09:57:25.000Z</time>
      </trkpt>
      <trkpt lat="45.73383" lon="4.45653">
        <ele>605.72918701172</ele>
        <time>2016-05-15T09:57:27.000Z</time>
      </trkpt>
      <trkpt lat="45.73383" lon="4.45649">
        <ele>605.00628662109</ele>
        <time>2016-05-15T09:57:29.000Z</time>
      </trkpt>
      <trkpt lat="45.7338" lon="4.45639">
        <ele>605.5185546875</ele>
        <time>2016-05-15T09:57:33.000Z</time>
      </trkpt>
      <trkpt lat="45.73377" lon="4.45629">
        <ele>605.16119384766</ele>
        <time>2016-05-15T09:57:36.000Z</time>
      </trkpt>
      <trkpt lat="45.73374" lon="4.45621">
        <ele>604.63745117188</ele>
        <time>2016-05-15T09:57:39.000Z</time>
      </trkpt>
      <trkpt lat="45.73372" lon="4.45616">
        <ele>604.74072265625</ele>
        <time>2016-05-15T09:57:41.000Z</time>
      </trkpt>
      <trkpt lat="45.7337" lon="4.45605">
        <ele>604.1328125</ele>
        <time>2016-05-15T09:57:45.000Z</time>
      </trkpt>
      <trkpt lat="45.73369" lon="4.45596">
        <ele>604.42645263672</ele>
        <time>2016-05-15T09:57:48.000Z</time>
      </trkpt>
      <trkpt lat="45.7337" lon="4.45585">
        <ele>604.88208007812</ele>
        <time>2016-05-15T09:57:50.000Z</time>
      </trkpt>
      <trkpt lat="45.7337" lon="4.45576">
        <ele>605.46856689453</ele>
        <time>2016-05-15T09:57:52.000Z</time>
      </trkpt>
      <trkpt lat="45.7337" lon="4.45569">
        <ele>605.37512207031</ele>
        <time>2016-05-15T09:57:54.000Z</time>
      </trkpt>
      <trkpt lat="45.73369" lon="4.45561">
        <ele>605.99200439453</ele>
        <time>2016-05-15T09:57:57.000Z</time>
      </trkpt>
      <trkpt lat="45.73368" lon="4.45552">
        <ele>607.42248535156</ele>
        <time>2016-05-15T09:57:59.000Z</time>
      </trkpt>
      <trkpt lat="45.73368" lon="4.45544">
        <ele>608.68365478516</ele>
        <time>2016-05-15T09:58:02.000Z</time>
      </trkpt>
      <trkpt lat="45.73368" lon="4.45538">
        <ele>608.97790527344</ele>
        <time>2016-05-15T09:58:04.000Z</time>
      </trkpt>
      <trkpt lat="45.73369" lon="4.45528">
        <ele>609.92199707031</ele>
        <time>2016-05-15T09:58:08.000Z</time>
      </trkpt>
      <trkpt lat="45.7337" lon="4.45522">
        <ele>610.80633544922</ele>
        <time>2016-05-15T09:58:10.000Z</time>
      </trkpt>
      <trkpt lat="45.73373" lon="4.45508">
        <ele>612.56469726562</ele>
        <time>2016-05-15T09:58:13.000Z</time>
      </trkpt>
      <trkpt lat="45.73374" lon="4.455">
        <ele>611.12145996094</ele>
        <time>2016-05-15T09:58:15.000Z</time>
      </trkpt>
      <trkpt lat="45.73375" lon="4.4549">
        <ele>609.16223144531</ele>
        <time>2016-05-15T09:58:18.000Z</time>
      </trkpt>
      <trkpt lat="45.73375" lon="4.45484">
        <ele>608.71051025391</ele>
        <time>2016-05-15T09:58:20.000Z</time>
      </trkpt>
      <trkpt lat="45.73375" lon="4.45474">
        <ele>608.75769042969</ele>
        <time>2016-05-15T09:58:23.000Z</time>
      </trkpt>
      <trkpt lat="45.73375" lon="4.45469">
        <ele>609.1552734375</ele>
        <time>2016-05-15T09:58:25.000Z</time>
      </trkpt>
      <trkpt lat="45.73374" lon="4.45465">
        <ele>609.71569824219</ele>
        <time>2016-05-15T09:58:27.000Z</time>
      </trkpt>
      <trkpt lat="45.73373" lon="4.45456">
        <ele>609.4697265625</ele>
        <time>2016-05-15T09:58:31.000Z</time>
      </trkpt>
      <trkpt lat="45.73372" lon="4.4545">
        <ele>609.51782226562</ele>
        <time>2016-05-15T09:58:33.000Z</time>
      </trkpt>
      <trkpt lat="45.7337" lon="4.45442">
        <ele>610.82269287109</ele>
        <time>2016-05-15T09:58:37.000Z</time>
      </trkpt>
      <trkpt lat="45.73367" lon="4.45434">
        <ele>612.26281738281</ele>
        <time>2016-05-15T09:58:41.000Z</time>
      </trkpt>
      <trkpt lat="45.73367" lon="4.4543">
        <ele>612.68139648438</ele>
        <time>2016-05-15T09:58:43.000Z</time>
      </trkpt>
      <trkpt lat="45.73366" lon="4.45426">
        <ele>613.23870849609</ele>
        <time>2016-05-15T09:58:45.000Z</time>
      </trkpt>
      <trkpt lat="45.73365" lon="4.45418">
        <ele>613.28442382812</ele>
        <time>2016-05-15T09:58:49.000Z</time>
      </trkpt>
      <trkpt lat="45.73362" lon="4.4541">
        <ele>613.4931640625</ele>
        <time>2016-05-15T09:58:53.000Z</time>
      </trkpt>
      <trkpt lat="45.7336" lon="4.45402">
        <ele>614.43304443359</ele>
        <time>2016-05-15T09:58:57.000Z</time>
      </trkpt>
      <trkpt lat="45.73359" lon="4.45393">
        <ele>614.80816650391</ele>
        <time>2016-05-15T09:59:01.000Z</time>
      </trkpt>
      <trkpt lat="45.73359" lon="4.45388">
        <ele>614.78729248047</ele>
        <time>2016-05-15T09:59:03.000Z</time>
      </trkpt>
      <trkpt lat="45.73359" lon="4.45383">
        <ele>615.22674560547</ele>
        <time>2016-05-15T09:59:05.000Z</time>
      </trkpt>
      <trkpt lat="45.73359" lon="4.45377">
        <ele>616.08142089844</ele>
        <time>2016-05-15T09:59:07.000Z</time>
      </trkpt>
      <trkpt lat="45.73357" lon="4.45368">
        <ele>618.00726318359</ele>
        <time>2016-05-15T09:59:11.000Z</time>
      </trkpt>
      <trkpt lat="45.73355" lon="4.45364">
        <ele>619.35284423828</ele>
        <time>2016-05-15T09:59:13.000Z</time>
      </trkpt>
      <trkpt lat="45.73351" lon="4.45356">
        <ele>623.21234130859</ele>
        <time>2016-05-15T09:59:17.000Z</time>
      </trkpt>
      <trkpt lat="45.73349" lon="4.45353">
        <ele>624.60150146484</ele>
        <time>2016-05-15T09:59:19.000Z</time>
      </trkpt>
      <trkpt lat="45.73345" lon="4.45345">
        <ele>625.97607421875</ele>
        <time>2016-05-15T09:59:22.000Z</time>
      </trkpt>
      <trkpt lat="45.73341" lon="4.45339">
        <ele>625.37670898438</ele>
        <time>2016-05-15T09:59:26.000Z</time>
      </trkpt>
      <trkpt lat="45.73339" lon="4.45336">
        <ele>625.08514404297</ele>
        <time>2016-05-15T09:59:29.000Z</time>
      </trkpt>
      <trkpt lat="45.73338" lon="4.45332">
        <ele>625.43756103516</ele>
        <time>2016-05-15T09:59:32.000Z</time>
      </trkpt>
      <trkpt lat="45.73335" lon="4.45324">
        <ele>626.59991455078</ele>
        <time>2016-05-15T09:59:36.000Z</time>
      </trkpt>
      <trkpt lat="45.73333" lon="4.45318">
        <ele>626.51068115234</ele>
        <time>2016-05-15T09:59:40.000Z</time>
      </trkpt>
      <trkpt lat="45.7333" lon="4.45311">
        <ele>625.74652099609</ele>
        <time>2016-05-15T09:59:44.000Z</time>
      </trkpt>
      <trkpt lat="45.73328" lon="4.45308">
        <ele>626.03912353516</ele>
        <time>2016-05-15T09:59:46.000Z</time>
      </trkpt>
      <trkpt lat="45.73323" lon="4.45302">
        <ele>627.78930664062</ele>
        <time>2016-05-15T09:59:51.000Z</time>
      </trkpt>
      <trkpt lat="45.7332" lon="4.45295">
        <ele>628.83728027344</ele>
        <time>2016-05-15T09:59:55.000Z</time>
      </trkpt>
      <trkpt lat="45.73318" lon="4.45288">
        <ele>629.41058349609</ele>
        <time>2016-05-15T09:59:59.000Z</time>
      </trkpt>
      <trkpt lat="45.73317" lon="4.45284">
        <ele>629.74340820312</ele>
        <time>2016-05-15T10:00:01.000Z</time>
      </trkpt>
      <trkpt lat="45.73315" lon="4.45281">
        <ele>630.03894042969</ele>
        <time>2016-05-15T10:00:03.000Z</time>
      </trkpt>
      <trkpt lat="45.73312" lon="4.45277">
        <ele>630.67169189453</ele>
        <time>2016-05-15T10:00:05.000Z</time>
      </trkpt>
      <trkpt lat="45.73306" lon="4.45271">
        <ele>631.36560058594</ele>
        <time>2016-05-15T10:00:09.000Z</time>
      </trkpt>
      <trkpt lat="45.73304" lon="4.45269">
        <ele>631.19152832031</ele>
        <time>2016-05-15T10:00:11.000Z</time>
      </trkpt>
      <trkpt lat="45.73303" lon="4.45265">
        <ele>631.18286132812</ele>
        <time>2016-05-15T10:00:14.000Z</time>
      </trkpt>
      <trkpt lat="45.73302" lon="4.45262">
        <ele>632.04516601562</ele>
        <time>2016-05-15T10:00:16.000Z</time>
      </trkpt>
      <trkpt lat="45.733" lon="4.45255">
        <ele>633.60485839844</ele>
        <time>2016-05-15T10:00:20.000Z</time>
      </trkpt>
      <trkpt lat="45.73296" lon="4.45249">
        <ele>634.90728759766</ele>
        <time>2016-05-15T10:00:24.000Z</time>
      </trkpt>
      <trkpt lat="45.73294" lon="4.45246">
        <ele>635.68078613281</ele>
        <time>2016-05-15T10:00:26.000Z</time>
      </trkpt>
      <trkpt lat="45.73289" lon="4.45241">
        <ele>637.30157470703</ele>
        <time>2016-05-15T10:00:30.000Z</time>
      </trkpt>
      <trkpt lat="45.73283" lon="4.45234">
        <ele>639.90484619141</ele>
        <time>2016-05-15T10:00:34.000Z</time>
      </trkpt>
      <trkpt lat="45.7328" lon="4.45227">
        <ele>640.85797119141</ele>
        <time>2016-05-15T10:00:39.000Z</time>
      </trkpt>
      <trkpt lat="45.73279" lon="4.45224">
        <ele>641.44067382812</ele>
        <time>2016-05-15T10:00:41.000Z</time>
      </trkpt>
      <trkpt lat="45.73275" lon="4.45217">
        <ele>642.34289550781</ele>
        <time>2016-05-15T10:00:45.000Z</time>
      </trkpt>
      <trkpt lat="45.73269" lon="4.45211">
        <ele>642.51000976562</ele>
        <time>2016-05-15T10:00:49.000Z</time>
      </trkpt>
      <trkpt lat="45.73267" lon="4.45207">
        <ele>642.04650878906</ele>
        <time>2016-05-15T10:00:51.000Z</time>
      </trkpt>
      <trkpt lat="45.73263" lon="4.45201">
        <ele>642.0498046875</ele>
        <time>2016-05-15T10:00:55.000Z</time>
      </trkpt>
      <trkpt lat="45.7326" lon="4.45198">
        <ele>642.80554199219</ele>
        <time>2016-05-15T10:00:57.000Z</time>
      </trkpt>
      <trkpt lat="45.73259" lon="4.45195">
        <ele>643.25897216797</ele>
        <time>2016-05-15T10:01:00.000Z</time>
      </trkpt>
      <trkpt lat="45.73257" lon="4.45192">
        <ele>643.63159179688</ele>
        <time>2016-05-15T10:01:03.000Z</time>
      </trkpt>
      <trkpt lat="45.73256" lon="4.45189">
        <ele>643.61840820312</ele>
        <time>2016-05-15T10:01:05.000Z</time>
      </trkpt>
      <trkpt lat="45.73255" lon="4.45185">
        <ele>645.37579345703</ele>
        <time>2016-05-15T10:01:08.000Z</time>
      </trkpt>
      <trkpt lat="45.73254" lon="4.45182">
        <ele>646.87518310547</ele>
        <time>2016-05-15T10:01:11.000Z</time>
      </trkpt>
      <trkpt lat="45.73253" lon="4.45179">
        <ele>647.83148193359</ele>
        <time>2016-05-15T10:01:14.000Z</time>
      </trkpt>
      <trkpt lat="45.73252" lon="4.45176">
        <ele>648.56634521484</ele>
        <time>2016-05-15T10:01:16.000Z</time>
      </trkpt>
      <trkpt lat="45.7325" lon="4.45174">
        <ele>649.09808349609</ele>
        <time>2016-05-15T10:01:18.000Z</time>
      </trkpt>
      <trkpt lat="45.73249" lon="4.45171">
        <ele>649.67694091797</ele>
        <time>2016-05-15T10:01:20.000Z</time>
      </trkpt>
      <trkpt lat="45.73243" lon="4.45164">
        <ele>649.92980957031</ele>
        <time>2016-05-15T10:01:24.000Z</time>
      </trkpt>
      <trkpt lat="45.73241" lon="4.45161">
        <ele>649.6025390625</ele>
        <time>2016-05-15T10:01:26.000Z</time>
      </trkpt>
      <trkpt lat="45.73236" lon="4.45155">
        <ele>647.77740478516</ele>
        <time>2016-05-15T10:01:30.000Z</time>
      </trkpt>
      <trkpt lat="45.73235" lon="4.45153">
        <ele>646.90899658203</ele>
        <time>2016-05-15T10:01:32.000Z</time>
      </trkpt>
      <trkpt lat="45.73233" lon="4.45151">
        <ele>646.92443847656</ele>
        <time>2016-05-15T10:01:35.000Z</time>
      </trkpt>
      <trkpt lat="45.73232" lon="4.45148">
        <ele>647.1435546875</ele>
        <time>2016-05-15T10:01:40.000Z</time>
      </trkpt>
      <trkpt lat="45.73231" lon="4.45145">
        <ele>646.97033691406</ele>
        <time>2016-05-15T10:01:43.000Z</time>
      </trkpt>
      <trkpt lat="45.7323" lon="4.45137">
        <ele>646.47479248047</ele>
        <time>2016-05-15T10:01:47.000Z</time>
      </trkpt>
      <trkpt lat="45.73229" lon="4.45128">
        <ele>646.61950683594</ele>
        <time>2016-05-15T10:01:51.000Z</time>
      </trkpt>
      <trkpt lat="45.73228" lon="4.45125">
        <ele>647.09716796875</ele>
        <time>2016-05-15T10:01:53.000Z</time>
      </trkpt>
      <trkpt lat="45.73227" lon="4.45116">
        <ele>647.89495849609</ele>
        <time>2016-05-15T10:01:57.000Z</time>
      </trkpt>
      <trkpt lat="45.73227" lon="4.45108">
        <ele>647.72064208984</ele>
        <time>2016-05-15T10:02:01.000Z</time>
      </trkpt>
      <trkpt lat="45.73226" lon="4.45105">
        <ele>647.90283203125</ele>
        <time>2016-05-15T10:02:03.000Z</time>
      </trkpt>
      <trkpt lat="45.73224" lon="4.45101">
        <ele>647.90264892578</ele>
        <time>2016-05-15T10:02:05.000Z</time>
      </trkpt>
      <trkpt lat="45.7322" lon="4.45094">
        <ele>647.54431152344</ele>
        <time>2016-05-15T10:02:08.000Z</time>
      </trkpt>
      <trkpt lat="45.73217" lon="4.4509">
        <ele>647.40667724609</ele>
        <time>2016-05-15T10:02:10.000Z</time>
      </trkpt>
      <trkpt lat="45.73215" lon="4.45085">
        <ele>647.76470947266</ele>
        <time>2016-05-15T10:02:12.000Z</time>
      </trkpt>
      <trkpt lat="45.73207" lon="4.45076">
        <ele>648.19580078125</ele>
        <time>2016-05-15T10:02:16.000Z</time>
      </trkpt>
      <trkpt lat="45.73203" lon="4.4507">
        <ele>648.83624267578</ele>
        <time>2016-05-15T10:02:18.000Z</time>
      </trkpt>
      <trkpt lat="45.73199" lon="4.45064">
        <ele>650.05877685547</ele>
        <time>2016-05-15T10:02:21.000Z</time>
      </trkpt>
      <trkpt lat="45.73197" lon="4.45055">
        <ele>653.34545898438</ele>
        <time>2016-05-15T10:02:25.000Z</time>
      </trkpt>
      <trkpt lat="45.73196" lon="4.4505">
        <ele>653.70465087891</ele>
        <time>2016-05-15T10:02:27.000Z</time>
      </trkpt>
      <trkpt lat="45.73195" lon="4.45046">
        <ele>653.92163085938</ele>
        <time>2016-05-15T10:02:29.000Z</time>
      </trkpt>
      <trkpt lat="45.73193" lon="4.45038">
        <ele>654.32446289062</ele>
        <time>2016-05-15T10:02:33.000Z</time>
      </trkpt>
      <trkpt lat="45.73192" lon="4.45034">
        <ele>655.40167236328</ele>
        <time>2016-05-15T10:02:35.000Z</time>
      </trkpt>
      <trkpt lat="45.7319" lon="4.45027">
        <ele>656.12066650391</ele>
        <time>2016-05-15T10:02:40.000Z</time>
      </trkpt>
      <trkpt lat="45.7319" lon="4.45024">
        <ele>656.71179199219</ele>
        <time>2016-05-15T10:02:43.000Z</time>
      </trkpt>
      <trkpt lat="45.7319" lon="4.4502">
        <ele>656.46826171875</ele>
        <time>2016-05-15T10:02:46.000Z</time>
      </trkpt>
      <trkpt lat="45.73191" lon="4.45017">
        <ele>656.17999267578</ele>
        <time>2016-05-15T10:03:00.000Z</time>
      </trkpt>
      <trkpt lat="45.73191" lon="4.45014">
        <ele>656.32556152344</ele>
        <time>2016-05-15T10:05:25.000Z</time>
      </trkpt>
      <trkpt lat="45.7319" lon="4.4501">
        <ele>656.29028320312</ele>
        <time>2016-05-15T10:05:28.000Z</time>
      </trkpt>
      <trkpt lat="45.73189" lon="4.45">
        <ele>656.08953857422</ele>
        <time>2016-05-15T10:05:32.000Z</time>
      </trkpt>
      <trkpt lat="45.7319" lon="4.44989">
        <ele>656.11126708984</ele>
        <time>2016-05-15T10:05:35.000Z</time>
      </trkpt>
      <trkpt lat="45.73191" lon="4.44979">
        <ele>656.35461425781</ele>
        <time>2016-05-15T10:05:37.000Z</time>
      </trkpt>
      <trkpt lat="45.73192" lon="4.44966">
        <ele>657.11334228516</ele>
        <time>2016-05-15T10:05:39.000Z</time>
      </trkpt>
      <trkpt lat="45.73195" lon="4.44939">
        <ele>657.77032470703</ele>
        <time>2016-05-15T10:05:42.000Z</time>
      </trkpt>
      <trkpt lat="45.73196" lon="4.44921">
        <ele>657.63525390625</ele>
        <time>2016-05-15T10:05:44.000Z</time>
      </trkpt>
      <trkpt lat="45.73199" lon="4.44896">
        <ele>657.4755859375</ele>
        <time>2016-05-15T10:05:47.000Z</time>
      </trkpt>
      <trkpt lat="45.73202" lon="4.44872">
        <ele>656.91729736328</ele>
        <time>2016-05-15T10:05:50.000Z</time>
      </trkpt>
      <trkpt lat="45.73204" lon="4.44855">
        <ele>656.39733886719</ele>
        <time>2016-05-15T10:05:52.000Z</time>
      </trkpt>
      <trkpt lat="45.73203" lon="4.4483">
        <ele>655.86309814453</ele>
        <time>2016-05-15T10:05:55.000Z</time>
      </trkpt>
      <trkpt lat="45.73202" lon="4.44813">
        <ele>655.86999511719</ele>
        <time>2016-05-15T10:05:58.000Z</time>
      </trkpt>
      <trkpt lat="45.732" lon="4.44793">
        <ele>655.25183105469</ele>
        <time>2016-05-15T10:06:01.000Z</time>
      </trkpt>
      <trkpt lat="45.73199" lon="4.44774">
        <ele>655.03674316406</ele>
        <time>2016-05-15T10:06:04.000Z</time>
      </trkpt>
      <trkpt lat="45.73198" lon="4.44761">
        <ele>655.16558837891</ele>
        <time>2016-05-15T10:06:06.000Z</time>
      </trkpt>
      <trkpt lat="45.73197" lon="4.4475">
        <ele>655.67077636719</ele>
        <time>2016-05-15T10:06:08.000Z</time>
      </trkpt>
      <trkpt lat="45.73197" lon="4.44739">
        <ele>656.08166503906</ele>
        <time>2016-05-15T10:06:10.000Z</time>
      </trkpt>
      <trkpt lat="45.73198" lon="4.44725">
        <ele>656.11083984375</ele>
        <time>2016-05-15T10:06:13.000Z</time>
      </trkpt>
      <trkpt lat="45.73199" lon="4.44711">
        <ele>656.50677490234</ele>
        <time>2016-05-15T10:06:16.000Z</time>
      </trkpt>
      <trkpt lat="45.732" lon="4.44701">
        <ele>656.66613769531</ele>
        <time>2016-05-15T10:06:18.000Z</time>
      </trkpt>
      <trkpt lat="45.73198" lon="4.44684">
        <ele>657.6015625</ele>
        <time>2016-05-15T10:06:21.000Z</time>
      </trkpt>
      <trkpt lat="45.73195" lon="4.44673">
        <ele>657.05310058594</ele>
        <time>2016-05-15T10:06:23.000Z</time>
      </trkpt>
      <trkpt lat="45.73191" lon="4.44656">
        <ele>655.82702636719</ele>
        <time>2016-05-15T10:06:26.000Z</time>
      </trkpt>
      <trkpt lat="45.73188" lon="4.44645">
        <ele>655.38482666016</ele>
        <time>2016-05-15T10:06:28.000Z</time>
      </trkpt>
      <trkpt lat="45.73185" lon="4.44634">
        <ele>656.01623535156</ele>
        <time>2016-05-15T10:06:30.000Z</time>
      </trkpt>
      <trkpt lat="45.73183" lon="4.4462">
        <ele>655.65612792969</ele>
        <time>2016-05-15T10:06:33.000Z</time>
      </trkpt>
      <trkpt lat="45.73182" lon="4.44611">
        <ele>655.32775878906</ele>
        <time>2016-05-15T10:06:35.000Z</time>
      </trkpt>
      <trkpt lat="45.73182" lon="4.44598">
        <ele>654.54876708984</ele>
        <time>2016-05-15T10:06:38.000Z</time>
      </trkpt>
      <trkpt lat="45.73182" lon="4.4459">
        <ele>654.49957275391</ele>
        <time>2016-05-15T10:06:41.000Z</time>
      </trkpt>
      <trkpt lat="45.73182" lon="4.44581">
        <ele>654.19683837891</ele>
        <time>2016-05-15T10:06:45.000Z</time>
      </trkpt>
      <trkpt lat="45.73182" lon="4.44576">
        <ele>653.90991210938</ele>
        <time>2016-05-15T10:06:47.000Z</time>
      </trkpt>
      <trkpt lat="45.73182" lon="4.44567">
        <ele>653.62750244141</ele>
        <time>2016-05-15T10:06:51.000Z</time>
      </trkpt>
      <trkpt lat="45.73182" lon="4.44557">
        <ele>653.54888916016</ele>
        <time>2016-05-15T10:06:55.000Z</time>
      </trkpt>
      <trkpt lat="45.73182" lon="4.44549">
        <ele>653.78979492188</ele>
        <time>2016-05-15T10:06:59.000Z</time>
      </trkpt>
      <trkpt lat="45.73182" lon="4.44543">
        <ele>653.45874023438</ele>
        <time>2016-05-15T10:07:01.000Z</time>
      </trkpt>
      <trkpt lat="45.73183" lon="4.44533">
        <ele>652.68804931641</ele>
        <time>2016-05-15T10:07:04.000Z</time>
      </trkpt>
      <trkpt lat="45.73185" lon="4.44525">
        <ele>652.55810546875</ele>
        <time>2016-05-15T10:07:07.000Z</time>
      </trkpt>
      <trkpt lat="45.73186" lon="4.44517">
        <ele>653.22961425781</ele>
        <time>2016-05-15T10:07:09.000Z</time>
      </trkpt>
      <trkpt lat="45.7319" lon="4.44507">
        <ele>653.89385986328</ele>
        <time>2016-05-15T10:07:12.000Z</time>
      </trkpt>
      <trkpt lat="45.73193" lon="4.44501">
        <ele>653.55059814453</ele>
        <time>2016-05-15T10:07:14.000Z</time>
      </trkpt>
      <trkpt lat="45.73195" lon="4.44492">
        <ele>652.93365478516</ele>
        <time>2016-05-15T10:07:18.000Z</time>
      </trkpt>
      <trkpt lat="45.73194" lon="4.44487">
        <ele>653.45080566406</ele>
        <time>2016-05-15T10:07:20.000Z</time>
      </trkpt>
      <trkpt lat="45.7319" lon="4.44479">
        <ele>656.38293457031</ele>
        <time>2016-05-15T10:07:22.000Z</time>
      </trkpt>
      <trkpt lat="45.73176" lon="4.44458">
        <ele>656.61267089844</ele>
        <time>2016-05-15T10:07:25.000Z</time>
      </trkpt>
      <trkpt lat="45.7317" lon="4.44448">
        <ele>654.96569824219</ele>
        <time>2016-05-15T10:07:27.000Z</time>
      </trkpt>
      <trkpt lat="45.73159" lon="4.44439">
        <ele>649.22326660156</ele>
        <time>2016-05-15T10:07:29.000Z</time>
      </trkpt>
      <trkpt lat="45.73138" lon="4.44424">
        <ele>647.02911376953</ele>
        <time>2016-05-15T10:07:32.000Z</time>
      </trkpt>
      <trkpt lat="45.73127" lon="4.44409">
        <ele>646.67297363281</ele>
        <time>2016-05-15T10:07:34.000Z</time>
      </trkpt>
      <trkpt lat="45.73115" lon="4.44393">
        <ele>643.91375732422</ele>
        <time>2016-05-15T10:07:36.000Z</time>
      </trkpt>
      <trkpt lat="45.73104" lon="4.44378">
        <ele>642.85278320312</ele>
        <time>2016-05-15T10:07:38.000Z</time>
      </trkpt>
      <trkpt lat="45.73088" lon="4.44351">
        <ele>640.76348876953</ele>
        <time>2016-05-15T10:07:41.000Z</time>
      </trkpt>
      <trkpt lat="45.73076" lon="4.44331">
        <ele>639.46185302734</ele>
        <time>2016-05-15T10:07:43.000Z</time>
      </trkpt>
      <trkpt lat="45.73061" lon="4.44305">
        <ele>636.80426025391</ele>
        <time>2016-05-15T10:07:46.000Z</time>
      </trkpt>
      <trkpt lat="45.73046" lon="4.44284">
        <ele>634.11773681641</ele>
        <time>2016-05-15T10:07:49.000Z</time>
      </trkpt>
      <trkpt lat="45.73033" lon="4.4427">
        <ele>633.66033935547</ele>
        <time>2016-05-15T10:07:51.000Z</time>
      </trkpt>
      <trkpt lat="45.73013" lon="4.4427">
        <ele>633.42742919922</ele>
        <time>2016-05-15T10:07:54.000Z</time>
      </trkpt>
      <trkpt lat="45.72998" lon="4.44272">
        <ele>633.50372314453</ele>
        <time>2016-05-15T10:07:56.000Z</time>
      </trkpt>
      <trkpt lat="45.72974" lon="4.4428">
        <ele>632.56286621094</ele>
        <time>2016-05-15T10:07:59.000Z</time>
      </trkpt>
      <trkpt lat="45.7295" lon="4.44288">
        <ele>631.11352539062</ele>
        <time>2016-05-15T10:08:02.000Z</time>
      </trkpt>
      <trkpt lat="45.72933" lon="4.44292">
        <ele>631.25500488281</ele>
        <time>2016-05-15T10:08:04.000Z</time>
      </trkpt>
      <trkpt lat="45.72916" lon="4.44295">
        <ele>630.43267822266</ele>
        <time>2016-05-15T10:08:06.000Z</time>
      </trkpt>
      <trkpt lat="45.72891" lon="4.44301">
        <ele>629.52172851562</ele>
        <time>2016-05-15T10:08:09.000Z</time>
      </trkpt>
      <trkpt lat="45.72875" lon="4.44306">
        <ele>627.68829345703</ele>
        <time>2016-05-15T10:08:11.000Z</time>
      </trkpt>
      <trkpt lat="45.72862" lon="4.4431">
        <ele>628.11553955078</ele>
        <time>2016-05-15T10:08:13.000Z</time>
      </trkpt>
      <trkpt lat="45.72839" lon="4.44316">
        <ele>625.46936035156</ele>
        <time>2016-05-15T10:08:16.000Z</time>
      </trkpt>
      <trkpt lat="45.72817" lon="4.44326">
        <ele>622.89916992188</ele>
        <time>2016-05-15T10:08:19.000Z</time>
      </trkpt>
      <trkpt lat="45.72804" lon="4.44333">
        <ele>621.06689453125</ele>
        <time>2016-05-15T10:08:21.000Z</time>
      </trkpt>
      <trkpt lat="45.72787" lon="4.44347">
        <ele>619.73449707031</ele>
        <time>2016-05-15T10:08:24.000Z</time>
      </trkpt>
      <trkpt lat="45.72781" lon="4.44358">
        <ele>618.16937255859</ele>
        <time>2016-05-15T10:08:26.000Z</time>
      </trkpt>
      <trkpt lat="45.72775" lon="4.44374">
        <ele>615.66387939453</ele>
        <time>2016-05-15T10:08:28.000Z</time>
      </trkpt>
      <trkpt lat="45.7277" lon="4.44403">
        <ele>614.93878173828</ele>
        <time>2016-05-15T10:08:31.000Z</time>
      </trkpt>
      <trkpt lat="45.72768" lon="4.44425">
        <ele>613.9111328125</ele>
        <time>2016-05-15T10:08:33.000Z</time>
      </trkpt>
      <trkpt lat="45.72763" lon="4.44456">
        <ele>610.52996826172</ele>
        <time>2016-05-15T10:08:36.000Z</time>
      </trkpt>
      <trkpt lat="45.72759" lon="4.44474">
        <ele>608.41046142578</ele>
        <time>2016-05-15T10:08:38.000Z</time>
      </trkpt>
      <trkpt lat="45.7274" lon="4.44486">
        <ele>606.40808105469</ele>
        <time>2016-05-15T10:08:41.000Z</time>
      </trkpt>
      <trkpt lat="45.72723" lon="4.44495">
        <ele>605.48779296875</ele>
        <time>2016-05-15T10:08:44.000Z</time>
      </trkpt>
      <trkpt lat="45.72713" lon="4.44501">
        <ele>605.65649414062</ele>
        <time>2016-05-15T10:08:46.000Z</time>
      </trkpt>
      <trkpt lat="45.72704" lon="4.44506">
        <ele>605.55120849609</ele>
        <time>2016-05-15T10:08:48.000Z</time>
      </trkpt>
      <trkpt lat="45.72691" lon="4.44506">
        <ele>606.36267089844</ele>
        <time>2016-05-15T10:08:51.000Z</time>
      </trkpt>
      <trkpt lat="45.72682" lon="4.44505">
        <ele>607.15802001953</ele>
        <time>2016-05-15T10:08:53.000Z</time>
      </trkpt>
      <trkpt lat="45.7267" lon="4.44505">
        <ele>607.8193359375</ele>
        <time>2016-05-15T10:08:56.000Z</time>
      </trkpt>
      <trkpt lat="45.72663" lon="4.44507">
        <ele>608.53979492188</ele>
        <time>2016-05-15T10:08:58.000Z</time>
      </trkpt>
      <trkpt lat="45.72656" lon="4.44508">
        <ele>609.23797607422</ele>
        <time>2016-05-15T10:09:00.000Z</time>
      </trkpt>
      <trkpt lat="45.72651" lon="4.4451">
        <ele>609.17077636719</ele>
        <time>2016-05-15T10:09:02.000Z</time>
      </trkpt>
      <trkpt lat="45.72642" lon="4.44514">
        <ele>608.90283203125</ele>
        <time>2016-05-15T10:09:05.000Z</time>
      </trkpt>
      <trkpt lat="45.72636" lon="4.44516">
        <ele>609.49572753906</ele>
        <time>2016-05-15T10:09:07.000Z</time>
      </trkpt>
      <trkpt lat="45.72631" lon="4.44517">
        <ele>609.82177734375</ele>
        <time>2016-05-15T10:09:09.000Z</time>
      </trkpt>
      <trkpt lat="45.72626" lon="4.44517">
        <ele>609.95623779297</ele>
        <time>2016-05-15T10:09:12.000Z</time>
      </trkpt>
      <trkpt lat="45.72617" lon="4.44517">
        <ele>609.10589599609</ele>
        <time>2016-05-15T10:09:16.000Z</time>
      </trkpt>
      <trkpt lat="45.7261" lon="4.44516">
        <ele>609.67230224609</ele>
        <time>2016-05-15T10:09:19.000Z</time>
      </trkpt>
      <trkpt lat="45.72602" lon="4.44515">
        <ele>610.79675292969</ele>
        <time>2016-05-15T10:09:23.000Z</time>
      </trkpt>
      <trkpt lat="45.72598" lon="4.44515">
        <ele>611.32843017578</ele>
        <time>2016-05-15T10:09:25.000Z</time>
      </trkpt>
      <trkpt lat="45.72594" lon="4.44515">
        <ele>611.83129882812</ele>
        <time>2016-05-15T10:09:27.000Z</time>
      </trkpt>
      <trkpt lat="45.72586" lon="4.44515">
        <ele>613.18371582031</ele>
        <time>2016-05-15T10:09:31.000Z</time>
      </trkpt>
      <trkpt lat="45.7258" lon="4.44517">
        <ele>614.21423339844</ele>
        <time>2016-05-15T10:09:35.000Z</time>
      </trkpt>
      <trkpt lat="45.72577" lon="4.44518">
        <ele>614.23272705078</ele>
        <time>2016-05-15T10:09:37.000Z</time>
      </trkpt>
      <trkpt lat="45.72574" lon="4.44518">
        <ele>614.29046630859</ele>
        <time>2016-05-15T10:09:39.000Z</time>
      </trkpt>
      <trkpt lat="45.72571" lon="4.44519">
        <ele>614.6103515625</ele>
        <time>2016-05-15T10:09:41.000Z</time>
      </trkpt>
      <trkpt lat="45.72568" lon="4.4452">
        <ele>614.87603759766</ele>
        <time>2016-05-15T10:09:43.000Z</time>
      </trkpt>
      <trkpt lat="45.72562" lon="4.44521">
        <ele>615.36248779297</ele>
        <time>2016-05-15T10:09:47.000Z</time>
      </trkpt>
      <trkpt lat="45.72559" lon="4.44521">
        <ele>616.0478515625</ele>
        <time>2016-05-15T10:09:49.000Z</time>
      </trkpt>
      <trkpt lat="45.72554" lon="4.44522">
        <ele>616.79028320312</ele>
        <time>2016-05-15T10:09:53.000Z</time>
      </trkpt>
      <trkpt lat="45.72548" lon="4.44522">
        <ele>617.58453369141</ele>
        <time>2016-05-15T10:09:57.000Z</time>
      </trkpt>
      <trkpt lat="45.72545" lon="4.44522">
        <ele>618.30236816406</ele>
        <time>2016-05-15T10:09:59.000Z</time>
      </trkpt>
      <trkpt lat="45.72538" lon="4.44523">
        <ele>619.69793701172</ele>
        <time>2016-05-15T10:10:03.000Z</time>
      </trkpt>
      <trkpt lat="45.72532" lon="4.44525">
        <ele>619.77423095703</ele>
        <time>2016-05-15T10:10:07.000Z</time>
      </trkpt>
      <trkpt lat="45.72526" lon="4.44527">
        <ele>619.92828369141</ele>
        <time>2016-05-15T10:10:11.000Z</time>
      </trkpt>
      <trkpt lat="45.72523" lon="4.44528">
        <ele>620.31805419922</ele>
        <time>2016-05-15T10:10:13.000Z</time>
      </trkpt>
      <trkpt lat="45.72516" lon="4.44528">
        <ele>620.59655761719</ele>
        <time>2016-05-15T10:10:17.000Z</time>
      </trkpt>
      <trkpt lat="45.72513" lon="4.44528">
        <ele>620.63232421875</ele>
        <time>2016-05-15T10:10:19.000Z</time>
      </trkpt>
      <trkpt lat="45.7251" lon="4.44528">
        <ele>621.08929443359</ele>
        <time>2016-05-15T10:10:21.000Z</time>
      </trkpt>
      <trkpt lat="45.72503" lon="4.44529">
        <ele>620.96606445312</ele>
        <time>2016-05-15T10:10:25.000Z</time>
      </trkpt>
      <trkpt lat="45.72499" lon="4.44531">
        <ele>620.75463867188</ele>
        <time>2016-05-15T10:10:27.000Z</time>
      </trkpt>
      <trkpt lat="45.72492" lon="4.44533">
        <ele>620.65533447266</ele>
        <time>2016-05-15T10:10:31.000Z</time>
      </trkpt>
      <trkpt lat="45.72485" lon="4.44537">
        <ele>620.70501708984</ele>
        <time>2016-05-15T10:10:35.000Z</time>
      </trkpt>
      <trkpt lat="45.72482" lon="4.44538">
        <ele>621.18072509766</ele>
        <time>2016-05-15T10:10:37.000Z</time>
      </trkpt>
      <trkpt lat="45.72474" lon="4.44541">
        <ele>622.19683837891</ele>
        <time>2016-05-15T10:10:41.000Z</time>
      </trkpt>
      <trkpt lat="45.72468" lon="4.44543">
        <ele>622.12384033203</ele>
        <time>2016-05-15T10:10:44.000Z</time>
      </trkpt>
      <trkpt lat="45.72461" lon="4.44547">
        <ele>622.10968017578</ele>
        <time>2016-05-15T10:10:47.000Z</time>
      </trkpt>
      <trkpt lat="45.72458" lon="4.44549">
        <ele>623.57458496094</ele>
        <time>2016-05-15T10:10:49.000Z</time>
      </trkpt>
      <trkpt lat="45.72453" lon="4.4455">
        <ele>624.98461914062</ele>
        <time>2016-05-15T10:10:51.000Z</time>
      </trkpt>
      <trkpt lat="45.72445" lon="4.44551">
        <ele>624.90081787109</ele>
        <time>2016-05-15T10:10:54.000Z</time>
      </trkpt>
      <trkpt lat="45.7244" lon="4.44552">
        <ele>624.10150146484</ele>
        <time>2016-05-15T10:10:56.000Z</time>
      </trkpt>
      <trkpt lat="45.72434" lon="4.44555">
        <ele>623.92645263672</ele>
        <time>2016-05-15T10:10:59.000Z</time>
      </trkpt>
      <trkpt lat="45.7243" lon="4.44558">
        <ele>624.33972167969</ele>
        <time>2016-05-15T10:11:01.000Z</time>
      </trkpt>
      <trkpt lat="45.72425" lon="4.44564">
        <ele>624.84484863281</ele>
        <time>2016-05-15T10:11:04.000Z</time>
      </trkpt>
      <trkpt lat="45.72422" lon="4.4457">
        <ele>625.56225585938</ele>
        <time>2016-05-15T10:11:06.000Z</time>
      </trkpt>
      <trkpt lat="45.7242" lon="4.44577">
        <ele>626.27258300781</ele>
        <time>2016-05-15T10:11:08.000Z</time>
      </trkpt>
      <trkpt lat="45.72419" lon="4.4459">
        <ele>626.89031982422</ele>
        <time>2016-05-15T10:11:12.000Z</time>
      </trkpt>
      <trkpt lat="45.7242" lon="4.44595">
        <ele>627.39971923828</ele>
        <time>2016-05-15T10:11:14.000Z</time>
      </trkpt>
      <trkpt lat="45.7242" lon="4.44605">
        <ele>628.17687988281</ele>
        <time>2016-05-15T10:11:17.000Z</time>
      </trkpt>
      <trkpt lat="45.72421" lon="4.44615">
        <ele>628.69818115234</ele>
        <time>2016-05-15T10:11:19.000Z</time>
      </trkpt>
      <trkpt lat="45.72422" lon="4.44626">
        <ele>629.12231445312</ele>
        <time>2016-05-15T10:11:22.000Z</time>
      </trkpt>
      <trkpt lat="45.72422" lon="4.44634">
        <ele>628.70440673828</ele>
        <time>2016-05-15T10:11:24.000Z</time>
      </trkpt>
      <trkpt lat="45.72422" lon="4.44648">
        <ele>627.68475341797</ele>
        <time>2016-05-15T10:11:27.000Z</time>
      </trkpt>
      <trkpt lat="45.72422" lon="4.44662">
        <ele>627.38580322266</ele>
        <time>2016-05-15T10:11:30.000Z</time>
      </trkpt>
      <trkpt lat="45.72424" lon="4.44675">
        <ele>627.78460693359</ele>
        <time>2016-05-15T10:11:33.000Z</time>
      </trkpt>
      <trkpt lat="45.72428" lon="4.44688">
        <ele>628.21185302734</ele>
        <time>2016-05-15T10:11:36.000Z</time>
      </trkpt>
      <trkpt lat="45.7243" lon="4.44697">
        <ele>629.72076416016</ele>
        <time>2016-05-15T10:11:38.000Z</time>
      </trkpt>
      <trkpt lat="45.72432" lon="4.44713">
        <ele>626.90118408203</ele>
        <time>2016-05-15T10:11:41.000Z</time>
      </trkpt>
      <trkpt lat="45.72432" lon="4.44729">
        <ele>626.73028564453</ele>
        <time>2016-05-15T10:11:44.000Z</time>
      </trkpt>
      <trkpt lat="45.72432" lon="4.44738">
        <ele>627.23809814453</ele>
        <time>2016-05-15T10:11:46.000Z</time>
      </trkpt>
      <trkpt lat="45.72432" lon="4.44746">
        <ele>627.38781738281</ele>
        <time>2016-05-15T10:11:48.000Z</time>
      </trkpt>
      <trkpt lat="45.72432" lon="4.44755">
        <ele>627.32098388672</ele>
        <time>2016-05-15T10:11:50.000Z</time>
      </trkpt>
      <trkpt lat="45.7243" lon="4.44772">
        <ele>627.99865722656</ele>
        <time>2016-05-15T10:11:53.000Z</time>
      </trkpt>
      <trkpt lat="45.72426" lon="4.44789">
        <ele>627.9716796875</ele>
        <time>2016-05-15T10:11:56.000Z</time>
      </trkpt>
      <trkpt lat="45.72423" lon="4.44801">
        <ele>627.51336669922</ele>
        <time>2016-05-15T10:11:58.000Z</time>
      </trkpt>
      <trkpt lat="45.7242" lon="4.44814">
        <ele>627.27972412109</ele>
        <time>2016-05-15T10:12:00.000Z</time>
      </trkpt>
      <trkpt lat="45.72417" lon="4.44826">
        <ele>626.83666992188</ele>
        <time>2016-05-15T10:12:02.000Z</time>
      </trkpt>
      <trkpt lat="45.72415" lon="4.44839">
        <ele>627.04986572266</ele>
        <time>2016-05-15T10:12:04.000Z</time>
      </trkpt>
      <trkpt lat="45.72411" lon="4.4486">
        <ele>627.11968994141</ele>
        <time>2016-05-15T10:12:07.000Z</time>
      </trkpt>
      <trkpt lat="45.72408" lon="4.44879">
        <ele>628.79791259766</ele>
        <time>2016-05-15T10:12:10.000Z</time>
      </trkpt>
      <trkpt lat="45.72406" lon="4.44894">
        <ele>628.96368408203</ele>
        <time>2016-05-15T10:12:13.000Z</time>
      </trkpt>
      <trkpt lat="45.72398" lon="4.44902">
        <ele>629.88616943359</ele>
        <time>2016-05-15T10:12:16.000Z</time>
      </trkpt>
      <trkpt lat="45.72389" lon="4.44905">
        <ele>629.05822753906</ele>
        <time>2016-05-15T10:12:19.000Z</time>
      </trkpt>
      <trkpt lat="45.72385" lon="4.44907">
        <ele>627.97784423828</ele>
        <time>2016-05-15T10:12:21.000Z</time>
      </trkpt>
      <trkpt lat="45.72378" lon="4.44907">
        <ele>627.44696044922</ele>
        <time>2016-05-15T10:12:24.000Z</time>
      </trkpt>
      <trkpt lat="45.72373" lon="4.44908">
        <ele>626.95941162109</ele>
        <time>2016-05-15T10:12:26.000Z</time>
      </trkpt>
      <trkpt lat="45.72362" lon="4.44906">
        <ele>627.56085205078</ele>
        <time>2016-05-15T10:12:29.000Z</time>
      </trkpt>
      <trkpt lat="45.72354" lon="4.44904">
        <ele>627.31500244141</ele>
        <time>2016-05-15T10:12:31.000Z</time>
      </trkpt>
      <trkpt lat="45.72346" lon="4.44902">
        <ele>627.19848632812</ele>
        <time>2016-05-15T10:12:33.000Z</time>
      </trkpt>
      <trkpt lat="45.72335" lon="4.44899">
        <ele>625.96197509766</ele>
        <time>2016-05-15T10:12:36.000Z</time>
      </trkpt>
      <trkpt lat="45.72325" lon="4.44895">
        <ele>625.63348388672</ele>
        <time>2016-05-15T10:12:39.000Z</time>
      </trkpt>
      <trkpt lat="45.72319" lon="4.44892">
        <ele>624.99450683594</ele>
        <time>2016-05-15T10:12:41.000Z</time>
      </trkpt>
      <trkpt lat="45.72309" lon="4.44888">
        <ele>625.52178955078</ele>
        <time>2016-05-15T10:12:44.000Z</time>
      </trkpt>
      <trkpt lat="45.72302" lon="4.44886">
        <ele>625.79504394531</ele>
        <time>2016-05-15T10:12:46.000Z</time>
      </trkpt>
      <trkpt lat="45.72295" lon="4.44884">
        <ele>625.63415527344</ele>
        <time>2016-05-15T10:12:48.000Z</time>
      </trkpt>
      <trkpt lat="45.72288" lon="4.44883">
        <ele>625.62493896484</ele>
        <time>2016-05-15T10:12:50.000Z</time>
      </trkpt>
      <trkpt lat="45.72281" lon="4.44882">
        <ele>625.7080078125</ele>
        <time>2016-05-15T10:12:52.000Z</time>
      </trkpt>
      <trkpt lat="45.7227" lon="4.44882">
        <ele>625.79675292969</ele>
        <time>2016-05-15T10:12:55.000Z</time>
      </trkpt>
      <trkpt lat="45.7226" lon="4.44881">
        <ele>626.64434814453</ele>
        <time>2016-05-15T10:12:58.000Z</time>
      </trkpt>
      <trkpt lat="45.72251" lon="4.4488">
        <ele>626.66131591797</ele>
        <time>2016-05-15T10:13:01.000Z</time>
      </trkpt>
      <trkpt lat="45.72245" lon="4.44879">
        <ele>626.68621826172</ele>
        <time>2016-05-15T10:13:03.000Z</time>
      </trkpt>
      <trkpt lat="45.72239" lon="4.44878">
        <ele>627.00329589844</ele>
        <time>2016-05-15T10:13:05.000Z</time>
      </trkpt>
      <trkpt lat="45.72231" lon="4.44877">
        <ele>627.87109375</ele>
        <time>2016-05-15T10:13:08.000Z</time>
      </trkpt>
      <trkpt lat="45.72226" lon="4.44877">
        <ele>628.08538818359</ele>
        <time>2016-05-15T10:13:10.000Z</time>
      </trkpt>
      <trkpt lat="45.72221" lon="4.44876">
        <ele>627.88671875</ele>
        <time>2016-05-15T10:13:12.000Z</time>
      </trkpt>
      <trkpt lat="45.72215" lon="4.44876">
        <ele>628.05126953125</ele>
        <time>2016-05-15T10:13:15.000Z</time>
      </trkpt>
      <trkpt lat="45.72205" lon="4.44874">
        <ele>628.59521484375</ele>
        <time>2016-05-15T10:13:18.000Z</time>
      </trkpt>
      <trkpt lat="45.72199" lon="4.44873">
        <ele>628.49780273438</ele>
        <time>2016-05-15T10:13:20.000Z</time>
      </trkpt>
      <trkpt lat="45.72194" lon="4.44873">
        <ele>628.79541015625</ele>
        <time>2016-05-15T10:13:22.000Z</time>
      </trkpt>
      <trkpt lat="45.72186" lon="4.44872">
        <ele>628.86773681641</ele>
        <time>2016-05-15T10:13:25.000Z</time>
      </trkpt>
      <trkpt lat="45.72178" lon="4.44871">
        <ele>628.81140136719</ele>
        <time>2016-05-15T10:13:28.000Z</time>
      </trkpt>
      <trkpt lat="45.7217" lon="4.44871">
        <ele>629.13208007812</ele>
        <time>2016-05-15T10:13:31.000Z</time>
      </trkpt>
      <trkpt lat="45.72162" lon="4.4487">
        <ele>629.45562744141</ele>
        <time>2016-05-15T10:13:34.000Z</time>
      </trkpt>
      <trkpt lat="45.72154" lon="4.4487">
        <ele>630.00677490234</ele>
        <time>2016-05-15T10:13:37.000Z</time>
      </trkpt>
      <trkpt lat="45.72148" lon="4.44871">
        <ele>630.16589355469</ele>
        <time>2016-05-15T10:13:39.000Z</time>
      </trkpt>
      <trkpt lat="45.72142" lon="4.44871">
        <ele>630.09521484375</ele>
        <time>2016-05-15T10:13:41.000Z</time>
      </trkpt>
      <trkpt lat="45.72125" lon="4.44875">
        <ele>629.68139648438</ele>
        <time>2016-05-15T10:13:44.000Z</time>
      </trkpt>
      <trkpt lat="45.72107" lon="4.44877">
        <ele>629.37408447266</ele>
        <time>2016-05-15T10:13:47.000Z</time>
      </trkpt>
      <trkpt lat="45.72094" lon="4.4488">
        <ele>628.05877685547</ele>
        <time>2016-05-15T10:13:49.000Z</time>
      </trkpt>
      <trkpt lat="45.72073" lon="4.44884">
        <ele>626.26416015625</ele>
        <time>2016-05-15T10:13:52.000Z</time>
      </trkpt>
      <trkpt lat="45.7205" lon="4.44888">
        <ele>624.27954101562</ele>
        <time>2016-05-15T10:13:55.000Z</time>
      </trkpt>
      <trkpt lat="45.72026" lon="4.44893">
        <ele>623.23791503906</ele>
        <time>2016-05-15T10:14:01.000Z</time>
      </trkpt>
      <trkpt lat="45.72004" lon="4.44896">
        <ele>622.95031738281</ele>
        <time>2016-05-15T10:14:01.000Z</time>
      </trkpt>
      <trkpt lat="45.71981" lon="4.44903">
        <ele>623.21173095703</ele>
        <time>2016-05-15T10:14:04.000Z</time>
      </trkpt>
      <trkpt lat="45.71969" lon="4.44908">
        <ele>623.32916259766</ele>
        <time>2016-05-15T10:14:06.000Z</time>
      </trkpt>
      <trkpt lat="45.71955" lon="4.44914">
        <ele>623.86688232422</ele>
        <time>2016-05-15T10:14:08.000Z</time>
      </trkpt>
      <trkpt lat="45.71937" lon="4.44923">
        <ele>623.97961425781</ele>
        <time>2016-05-15T10:14:11.000Z</time>
      </trkpt>
      <trkpt lat="45.71922" lon="4.44933">
        <ele>623.50866699219</ele>
        <time>2016-05-15T10:14:14.000Z</time>
      </trkpt>
      <trkpt lat="45.71912" lon="4.44938">
        <ele>623.73291015625</ele>
        <time>2016-05-15T10:14:16.000Z</time>
      </trkpt>
      <trkpt lat="45.71906" lon="4.44944">
        <ele>623.65533447266</ele>
        <time>2016-05-15T10:14:18.000Z</time>
      </trkpt>
      <trkpt lat="45.71903" lon="4.44955">
        <ele>623.91125488281</ele>
        <time>2016-05-15T10:14:22.000Z</time>
      </trkpt>
      <trkpt lat="45.71903" lon="4.4496">
        <ele>623.95971679688</ele>
        <time>2016-05-15T10:14:24.000Z</time>
      </trkpt>
      <trkpt lat="45.71903" lon="4.44965">
        <ele>624.19403076172</ele>
        <time>2016-05-15T10:14:27.000Z</time>
      </trkpt>
      <trkpt lat="45.71903" lon="4.44965">
        <ele>616.94354248047</ele>
        <time>2016-05-15T10:14:47.000Z</time>
      </trkpt>
      <trkpt lat="45.71903" lon="4.44968">
        <ele>624.29412841797</ele>
        <time>2016-05-15T10:14:56.000Z</time>
      </trkpt>
      <trkpt lat="45.71902" lon="4.44975">
        <ele>623.75714111328</ele>
        <time>2016-05-15T10:18:30.000Z</time>
      </trkpt>
      <trkpt lat="45.71903" lon="4.44978">
        <ele>623.49334716797</ele>
        <time>2016-05-15T10:18:32.000Z</time>
      </trkpt>
      <trkpt lat="45.71906" lon="4.44988">
        <ele>622.03454589844</ele>
        <time>2016-05-15T10:18:35.000Z</time>
      </trkpt>
      <trkpt lat="45.71913" lon="4.4499">
        <ele>621.59106445312</ele>
        <time>2016-05-15T10:18:37.000Z</time>
      </trkpt>
      <trkpt lat="45.71952" lon="4.44973">
        <ele>622.32800292969</ele>
        <time>2016-05-15T10:18:42.000Z</time>
      </trkpt>
      <trkpt lat="45.71967" lon="4.44972">
        <ele>622.92828369141</ele>
        <time>2016-05-15T10:18:44.000Z</time>
      </trkpt>
      <trkpt lat="45.71988" lon="4.44972">
        <ele>623.27172851562</ele>
        <time>2016-05-15T10:18:47.000Z</time>
      </trkpt>
      <trkpt lat="45.72003" lon="4.44969">
        <ele>622.95678710938</ele>
        <time>2016-05-15T10:18:49.000Z</time>
      </trkpt>
      <trkpt lat="45.72017" lon="4.44967">
        <ele>623.10772705078</ele>
        <time>2016-05-15T10:18:51.000Z</time>
      </trkpt>
      <trkpt lat="45.72028" lon="4.4497">
        <ele>622.73388671875</ele>
        <time>2016-05-15T10:18:53.000Z</time>
      </trkpt>
      <trkpt lat="45.72041" lon="4.44986">
        <ele>621.91290283203</ele>
        <time>2016-05-15T10:18:56.000Z</time>
      </trkpt>
      <trkpt lat="45.72047" lon="4.44997">
        <ele>621.24822998047</ele>
        <time>2016-05-15T10:18:58.000Z</time>
      </trkpt>
      <trkpt lat="45.72056" lon="4.45015">
        <ele>621.51550292969</ele>
        <time>2016-05-15T10:19:01.000Z</time>
      </trkpt>
      <trkpt lat="45.72065" lon="4.45029">
        <ele>621.33660888672</ele>
        <time>2016-05-15T10:19:04.000Z</time>
      </trkpt>
      <trkpt lat="45.72071" lon="4.45035">
        <ele>623.95562744141</ele>
        <time>2016-05-15T10:19:06.000Z</time>
      </trkpt>
      <trkpt lat="45.72081" lon="4.45042">
        <ele>625.70190429688</ele>
        <time>2016-05-15T10:19:09.000Z</time>
      </trkpt>
      <trkpt lat="45.72092" lon="4.45048">
        <ele>625.74523925781</ele>
        <time>2016-05-15T10:19:12.000Z</time>
      </trkpt>
      <trkpt lat="45.72102" lon="4.45051">
        <ele>625.32971191406</ele>
        <time>2016-05-15T10:19:15.000Z</time>
      </trkpt>
      <trkpt lat="45.72112" lon="4.45054">
        <ele>624.56134033203</ele>
        <time>2016-05-15T10:19:18.000Z</time>
      </trkpt>
      <trkpt lat="45.7212" lon="4.45056">
        <ele>623.32690429688</ele>
        <time>2016-05-15T10:19:20.000Z</time>
      </trkpt>
      <trkpt lat="45.72127" lon="4.45056">
        <ele>623.70574951172</ele>
        <time>2016-05-15T10:19:22.000Z</time>
      </trkpt>
      <trkpt lat="45.72138" lon="4.45057">
        <ele>623.66638183594</ele>
        <time>2016-05-15T10:19:25.000Z</time>
      </trkpt>
      <trkpt lat="45.72146" lon="4.45057">
        <ele>623.40863037109</ele>
        <time>2016-05-15T10:19:27.000Z</time>
      </trkpt>
      <trkpt lat="45.72155" lon="4.45058">
        <ele>621.24853515625</ele>
        <time>2016-05-15T10:19:29.000Z</time>
      </trkpt>
      <trkpt lat="45.72163" lon="4.45063">
        <ele>621.17840576172</ele>
        <time>2016-05-15T10:19:32.000Z</time>
      </trkpt>
      <trkpt lat="45.72173" lon="4.45072">
        <ele>620.45635986328</ele>
        <time>2016-05-15T10:19:35.000Z</time>
      </trkpt>
      <trkpt lat="45.72178" lon="4.45077">
        <ele>621.44055175781</ele>
        <time>2016-05-15T10:19:37.000Z</time>
      </trkpt>
      <trkpt lat="45.72186" lon="4.45085">
        <ele>624.47998046875</ele>
        <time>2016-05-15T10:19:40.000Z</time>
      </trkpt>
      <trkpt lat="45.72193" lon="4.45093">
        <ele>625.26843261719</ele>
        <time>2016-05-15T10:19:43.000Z</time>
      </trkpt>
      <trkpt lat="45.72202" lon="4.451">
        <ele>626.52117919922</ele>
        <time>2016-05-15T10:19:46.000Z</time>
      </trkpt>
      <trkpt lat="45.72209" lon="4.45106">
        <ele>627.06457519531</ele>
        <time>2016-05-15T10:19:49.000Z</time>
      </trkpt>
      <trkpt lat="45.72217" lon="4.45112">
        <ele>627.54473876953</ele>
        <time>2016-05-15T10:19:52.000Z</time>
      </trkpt>
      <trkpt lat="45.72221" lon="4.45115">
        <ele>628.01171875</ele>
        <time>2016-05-15T10:19:54.000Z</time>
      </trkpt>
      <trkpt lat="45.72227" lon="4.45118">
        <ele>629.96893310547</ele>
        <time>2016-05-15T10:19:56.000Z</time>
      </trkpt>
      <trkpt lat="45.72232" lon="4.45121">
        <ele>630.53771972656</ele>
        <time>2016-05-15T10:19:58.000Z</time>
      </trkpt>
      <trkpt lat="45.72239" lon="4.45124">
        <ele>630.51690673828</ele>
        <time>2016-05-15T10:20:01.000Z</time>
      </trkpt>
      <trkpt lat="45.72244" lon="4.45127">
        <ele>630.52880859375</ele>
        <time>2016-05-15T10:20:03.000Z</time>
      </trkpt>
      <trkpt lat="45.7225" lon="4.4513">
        <ele>631.00006103516</ele>
        <time>2016-05-15T10:20:05.000Z</time>
      </trkpt>
      <trkpt lat="45.72255" lon="4.45132">
        <ele>631.51751708984</ele>
        <time>2016-05-15T10:20:07.000Z</time>
      </trkpt>
      <trkpt lat="45.72262" lon="4.45135">
        <ele>631.18408203125</ele>
        <time>2016-05-15T10:20:10.000Z</time>
      </trkpt>
      <trkpt lat="45.72267" lon="4.45138">
        <ele>631.78820800781</ele>
        <time>2016-05-15T10:20:12.000Z</time>
      </trkpt>
      <trkpt lat="45.72274" lon="4.45141">
        <ele>633.50628662109</ele>
        <time>2016-05-15T10:20:15.000Z</time>
      </trkpt>
      <trkpt lat="45.7228" lon="4.45143">
        <ele>634.12091064453</ele>
        <time>2016-05-15T10:20:18.000Z</time>
      </trkpt>
      <trkpt lat="45.72286" lon="4.45145">
        <ele>634.54663085938</ele>
        <time>2016-05-15T10:20:20.000Z</time>
      </trkpt>
      <trkpt lat="45.7229" lon="4.45146">
        <ele>635.10314941406</ele>
        <time>2016-05-15T10:20:22.000Z</time>
      </trkpt>
      <trkpt lat="45.72298" lon="4.45149">
        <ele>635.94757080078</ele>
        <time>2016-05-15T10:20:25.000Z</time>
      </trkpt>
      <trkpt lat="45.72301" lon="4.45151">
        <ele>636.32873535156</ele>
        <time>2016-05-15T10:20:27.000Z</time>
      </trkpt>
      <trkpt lat="45.72308" lon="4.45156">
        <ele>636.95477294922</ele>
        <time>2016-05-15T10:20:30.000Z</time>
      </trkpt>
      <trkpt lat="45.72317" lon="4.45161">
        <ele>638.25726318359</ele>
        <time>2016-05-15T10:20:33.000Z</time>
      </trkpt>
      <trkpt lat="45.72322" lon="4.45164">
        <ele>638.57373046875</ele>
        <time>2016-05-15T10:20:35.000Z</time>
      </trkpt>
      <trkpt lat="45.72331" lon="4.4517">
        <ele>637.83673095703</ele>
        <time>2016-05-15T10:20:38.000Z</time>
      </trkpt>
      <trkpt lat="45.7234" lon="4.45176">
        <ele>638.47149658203</ele>
        <time>2016-05-15T10:20:41.000Z</time>
      </trkpt>
      <trkpt lat="45.72348" lon="4.45183">
        <ele>640.61590576172</ele>
        <time>2016-05-15T10:20:44.000Z</time>
      </trkpt>
      <trkpt lat="45.72355" lon="4.45189">
        <ele>639.47540283203</ele>
        <time>2016-05-15T10:20:47.000Z</time>
      </trkpt>
      <trkpt lat="45.7236" lon="4.45193">
        <ele>639.541015625</ele>
        <time>2016-05-15T10:20:49.000Z</time>
      </trkpt>
      <trkpt lat="45.72365" lon="4.45199">
        <ele>639.32611083984</ele>
        <time>2016-05-15T10:20:52.000Z</time>
      </trkpt>
      <trkpt lat="45.72369" lon="4.45205">
        <ele>639.35729980469</ele>
        <time>2016-05-15T10:20:55.000Z</time>
      </trkpt>
      <trkpt lat="45.72375" lon="4.45214">
        <ele>640.55297851562</ele>
        <time>2016-05-15T10:20:58.000Z</time>
      </trkpt>
      <trkpt lat="45.72379" lon="4.45218">
        <ele>641.86517333984</ele>
        <time>2016-05-15T10:21:00.000Z</time>
      </trkpt>
      <trkpt lat="45.72382" lon="4.45223">
        <ele>640.8173828125</ele>
        <time>2016-05-15T10:21:03.000Z</time>
      </trkpt>
      <trkpt lat="45.72388" lon="4.4523">
        <ele>640.55194091797</ele>
        <time>2016-05-15T10:21:06.000Z</time>
      </trkpt>
      <trkpt lat="45.7239" lon="4.45234">
        <ele>640.30706787109</ele>
        <time>2016-05-15T10:21:08.000Z</time>
      </trkpt>
      <trkpt lat="45.72394" lon="4.45244">
        <ele>640.42822265625</ele>
        <time>2016-05-15T10:21:12.000Z</time>
      </trkpt>
      <trkpt lat="45.72396" lon="4.4525">
        <ele>639.94085693359</ele>
        <time>2016-05-15T10:21:14.000Z</time>
      </trkpt>
      <trkpt lat="45.72398" lon="4.45255">
        <ele>639.86785888672</ele>
        <time>2016-05-15T10:21:16.000Z</time>
      </trkpt>
      <trkpt lat="45.72398" lon="4.45262">
        <ele>639.61682128906</ele>
        <time>2016-05-15T10:21:18.000Z</time>
      </trkpt>
      <trkpt lat="45.72398" lon="4.45267">
        <ele>639.55334472656</ele>
        <time>2016-05-15T10:21:20.000Z</time>
      </trkpt>
      <trkpt lat="45.72398" lon="4.45276">
        <ele>639.86029052734</ele>
        <time>2016-05-15T10:21:23.000Z</time>
      </trkpt>
      <trkpt lat="45.72398" lon="4.4528">
        <ele>640.07647705078</ele>
        <time>2016-05-15T10:21:25.000Z</time>
      </trkpt>
      <trkpt lat="45.72399" lon="4.45286">
        <ele>640.52478027344</ele>
        <time>2016-05-15T10:21:27.000Z</time>
      </trkpt>
      <trkpt lat="45.72401" lon="4.45297">
        <ele>640.54791259766</ele>
        <time>2016-05-15T10:21:31.000Z</time>
      </trkpt>
      <trkpt lat="45.72403" lon="4.45307">
        <ele>640.56524658203</ele>
        <time>2016-05-15T10:21:34.000Z</time>
      </trkpt>
      <trkpt lat="45.72405" lon="4.45313">
        <ele>641.59069824219</ele>
        <time>2016-05-15T10:21:36.000Z</time>
      </trkpt>
      <trkpt lat="45.72409" lon="4.45321">
        <ele>644.79211425781</ele>
        <time>2016-05-15T10:21:39.000Z</time>
      </trkpt>
      <trkpt lat="45.72412" lon="4.4533">
        <ele>646.48504638672</ele>
        <time>2016-05-15T10:21:42.000Z</time>
      </trkpt>
      <trkpt lat="45.72414" lon="4.45337">
        <ele>646.96472167969</ele>
        <time>2016-05-15T10:21:44.000Z</time>
      </trkpt>
      <trkpt lat="45.72415" lon="4.4534">
        <ele>647.23767089844</ele>
        <time>2016-05-15T10:21:46.000Z</time>
      </trkpt>
      <trkpt lat="45.72418" lon="4.4535">
        <ele>647.22283935547</ele>
        <time>2016-05-15T10:21:49.000Z</time>
      </trkpt>
      <trkpt lat="45.72422" lon="4.4536">
        <ele>645.59765625</ele>
        <time>2016-05-15T10:21:52.000Z</time>
      </trkpt>
      <trkpt lat="45.72426" lon="4.45371">
        <ele>647.580078125</ele>
        <time>2016-05-15T10:21:56.000Z</time>
      </trkpt>
      <trkpt lat="45.72428" lon="4.45375">
        <ele>648.66717529297</ele>
        <time>2016-05-15T10:21:58.000Z</time>
      </trkpt>
      <trkpt lat="45.72432" lon="4.45383">
        <ele>650.85473632812</ele>
        <time>2016-05-15T10:22:02.000Z</time>
      </trkpt>
      <trkpt lat="45.72435" lon="4.45391">
        <ele>651.63861083984</ele>
        <time>2016-05-15T10:22:06.000Z</time>
      </trkpt>
      <trkpt lat="45.72437" lon="4.45395">
        <ele>651.61437988281</ele>
        <time>2016-05-15T10:22:08.000Z</time>
      </trkpt>
      <trkpt lat="45.72442" lon="4.45402">
        <ele>652.38763427734</ele>
        <time>2016-05-15T10:22:12.000Z</time>
      </trkpt>
      <trkpt lat="45.72445" lon="4.45408">
        <ele>652.96307373047</ele>
        <time>2016-05-15T10:22:14.000Z</time>
      </trkpt>
      <trkpt lat="45.72446" lon="4.45412">
        <ele>653.27416992188</ele>
        <time>2016-05-15T10:22:16.000Z</time>
      </trkpt>
      <trkpt lat="45.72445" lon="4.45417">
        <ele>653.02038574219</ele>
        <time>2016-05-15T10:22:18.000Z</time>
      </trkpt>
      <trkpt lat="45.72422" lon="4.45429">
        <ele>650.78015136719</ele>
        <time>2016-05-15T10:22:22.000Z</time>
      </trkpt>
      <trkpt lat="45.72417" lon="4.45447">
        <ele>650.50006103516</ele>
        <time>2016-05-15T10:22:25.000Z</time>
      </trkpt>
      <trkpt lat="45.72422" lon="4.45479">
        <ele>648.92541503906</ele>
        <time>2016-05-15T10:22:28.000Z</time>
      </trkpt>
      <trkpt lat="45.72427" lon="4.455">
        <ele>646.84503173828</ele>
        <time>2016-05-15T10:22:30.000Z</time>
      </trkpt>
      <trkpt lat="45.72432" lon="4.4553">
        <ele>646.44189453125</ele>
        <time>2016-05-15T10:22:33.000Z</time>
      </trkpt>
      <trkpt lat="45.72437" lon="4.45552">
        <ele>644.77606201172</ele>
        <time>2016-05-15T10:22:35.000Z</time>
      </trkpt>
      <trkpt lat="45.72445" lon="4.45576">
        <ele>642.36169433594</ele>
        <time>2016-05-15T10:22:37.000Z</time>
      </trkpt>
      <trkpt lat="45.72453" lon="4.45603">
        <ele>641.39135742188</ele>
        <time>2016-05-15T10:22:40.000Z</time>
      </trkpt>
      <trkpt lat="45.72456" lon="4.45644">
        <ele>640.66357421875</ele>
        <time>2016-05-15T10:22:43.000Z</time>
      </trkpt>
      <trkpt lat="45.72457" lon="4.45666">
        <ele>640.388671875</ele>
        <time>2016-05-15T10:22:45.000Z</time>
      </trkpt>
      <trkpt lat="45.72461" lon="4.45697">
        <ele>638.52075195312</ele>
        <time>2016-05-15T10:22:48.000Z</time>
      </trkpt>
      <trkpt lat="45.72475" lon="4.45723">
        <ele>637.40887451172</ele>
        <time>2016-05-15T10:22:51.000Z</time>
      </trkpt>
      <trkpt lat="45.72493" lon="4.45739">
        <ele>638.04418945312</ele>
        <time>2016-05-15T10:22:54.000Z</time>
      </trkpt>
      <trkpt lat="45.72507" lon="4.45746">
        <ele>636.64965820312</ele>
        <time>2016-05-15T10:22:56.000Z</time>
      </trkpt>
      <trkpt lat="45.72519" lon="4.45759">
        <ele>634.31988525391</ele>
        <time>2016-05-15T10:22:59.000Z</time>
      </trkpt>
      <trkpt lat="45.72523" lon="4.45769">
        <ele>632.17767333984</ele>
        <time>2016-05-15T10:23:01.000Z</time>
      </trkpt>
      <trkpt lat="45.72523" lon="4.45778">
        <ele>631.29278564453</ele>
        <time>2016-05-15T10:23:04.000Z</time>
      </trkpt>
      <trkpt lat="45.72523" lon="4.45788">
        <ele>630.69836425781</ele>
        <time>2016-05-15T10:23:07.000Z</time>
      </trkpt>
      <trkpt lat="45.72523" lon="4.45792">
        <ele>630.27661132812</ele>
        <time>2016-05-15T10:23:09.000Z</time>
      </trkpt>
      <trkpt lat="45.72523" lon="4.45801">
        <ele>629.22882080078</ele>
        <time>2016-05-15T10:23:12.000Z</time>
      </trkpt>
      <trkpt lat="45.72523" lon="4.45806">
        <ele>628.62298583984</ele>
        <time>2016-05-15T10:23:14.000Z</time>
      </trkpt>
      <trkpt lat="45.72522" lon="4.45817">
        <ele>626.81958007812</ele>
        <time>2016-05-15T10:23:17.000Z</time>
      </trkpt>
      <trkpt lat="45.72522" lon="4.45821">
        <ele>627.03045654297</ele>
        <time>2016-05-15T10:23:19.000Z</time>
      </trkpt>
      <trkpt lat="45.72522" lon="4.45836">
        <ele>632.18560791016</ele>
        <time>2016-05-15T10:23:23.000Z</time>
      </trkpt>
      <trkpt lat="45.72521" lon="4.45846">
        <ele>633.19189453125</ele>
        <time>2016-05-15T10:23:26.000Z</time>
      </trkpt>
      <trkpt lat="45.72521" lon="4.45857">
        <ele>633.27935791016</ele>
        <time>2016-05-15T10:23:30.000Z</time>
      </trkpt>
      <trkpt lat="45.7252" lon="4.45863">
        <ele>633.42083740234</ele>
        <time>2016-05-15T10:23:32.000Z</time>
      </trkpt>
      <trkpt lat="45.7252" lon="4.45869">
        <ele>633.70288085938</ele>
        <time>2016-05-15T10:23:34.000Z</time>
      </trkpt>
      <trkpt lat="45.7252" lon="4.45876">
        <ele>634.2373046875</ele>
        <time>2016-05-15T10:23:36.000Z</time>
      </trkpt>
      <trkpt lat="45.7252" lon="4.4588">
        <ele>634.5947265625</ele>
        <time>2016-05-15T10:23:38.000Z</time>
      </trkpt>
      <trkpt lat="45.7252" lon="4.45891">
        <ele>635.95745849609</ele>
        <time>2016-05-15T10:23:41.000Z</time>
      </trkpt>
      <trkpt lat="45.72521" lon="4.45897">
        <ele>636.65069580078</ele>
        <time>2016-05-15T10:23:43.000Z</time>
      </trkpt>
      <trkpt lat="45.72522" lon="4.45907">
        <ele>638.001953125</ele>
        <time>2016-05-15T10:23:47.000Z</time>
      </trkpt>
      <trkpt lat="45.72523" lon="4.45918">
        <ele>638.13012695312</ele>
        <time>2016-05-15T10:23:51.000Z</time>
      </trkpt>
      <trkpt lat="45.72523" lon="4.45921">
        <ele>638.10614013672</ele>
        <time>2016-05-15T10:23:53.000Z</time>
      </trkpt>
      <trkpt lat="45.72524" lon="4.45928">
        <ele>638.28631591797</ele>
        <time>2016-05-15T10:23:55.000Z</time>
      </trkpt>
      <trkpt lat="45.72527" lon="4.45938">
        <ele>636.77783203125</ele>
        <time>2016-05-15T10:23:59.000Z</time>
      </trkpt>
      <trkpt lat="45.72529" lon="4.45946">
        <ele>636.70947265625</ele>
        <time>2016-05-15T10:24:03.000Z</time>
      </trkpt>
      <trkpt lat="45.72531" lon="4.45956">
        <ele>637.31567382812</ele>
        <time>2016-05-15T10:24:07.000Z</time>
      </trkpt>
      <trkpt lat="45.72532" lon="4.45961">
        <ele>636.39685058594</ele>
        <time>2016-05-15T10:24:09.000Z</time>
      </trkpt>
      <trkpt lat="45.72533" lon="4.45972">
        <ele>636.07543945312</ele>
        <time>2016-05-15T10:24:13.000Z</time>
      </trkpt>
      <trkpt lat="45.72534" lon="4.45976">
        <ele>636.37506103516</ele>
        <time>2016-05-15T10:24:15.000Z</time>
      </trkpt>
      <trkpt lat="45.72536" lon="4.45985">
        <ele>637.08380126953</ele>
        <time>2016-05-15T10:24:19.000Z</time>
      </trkpt>
      <trkpt lat="45.72538" lon="4.45988">
        <ele>637.34924316406</ele>
        <time>2016-05-15T10:24:21.000Z</time>
      </trkpt>
      <trkpt lat="45.7254" lon="4.4599">
        <ele>637.62664794922</ele>
        <time>2016-05-15T10:24:23.000Z</time>
      </trkpt>
      <trkpt lat="45.72545" lon="4.45993">
        <ele>637.50970458984</ele>
        <time>2016-05-15T10:24:27.000Z</time>
      </trkpt>
      <trkpt lat="45.72551" lon="4.45997">
        <ele>638.54400634766</ele>
        <time>2016-05-15T10:24:31.000Z</time>
      </trkpt>
      <trkpt lat="45.72554" lon="4.45999">
        <ele>638.80230712891</ele>
        <time>2016-05-15T10:24:33.000Z</time>
      </trkpt>
      <trkpt lat="45.72559" lon="4.46002">
        <ele>638.41137695312</ele>
        <time>2016-05-15T10:24:37.000Z</time>
      </trkpt>
      <trkpt lat="45.72564" lon="4.46005">
        <ele>638.89971923828</ele>
        <time>2016-05-15T10:24:41.000Z</time>
      </trkpt>
      <trkpt lat="45.7257" lon="4.46011">
        <ele>638.57360839844</ele>
        <time>2016-05-15T10:24:45.000Z</time>
      </trkpt>
      <trkpt lat="45.72574" lon="4.46016">
        <ele>638.48522949219</ele>
        <time>2016-05-15T10:24:47.000Z</time>
      </trkpt>
      <trkpt lat="45.72578" lon="4.46023">
        <ele>638.43548583984</ele>
        <time>2016-05-15T10:24:51.000Z</time>
      </trkpt>
      <trkpt lat="45.72582" lon="4.46033">
        <ele>640.11108398438</ele>
        <time>2016-05-15T10:24:55.000Z</time>
      </trkpt>
      <trkpt lat="45.72584" lon="4.46041">
        <ele>640.87567138672</ele>
        <time>2016-05-15T10:24:59.000Z</time>
      </trkpt>
      <trkpt lat="45.72585" lon="4.46052">
        <ele>640.39147949219</ele>
        <time>2016-05-15T10:25:01.000Z</time>
      </trkpt>
      <trkpt lat="45.72584" lon="4.46058">
        <ele>641.21148681641</ele>
        <time>2016-05-15T10:25:03.000Z</time>
      </trkpt>
      <trkpt lat="45.72582" lon="4.46061">
        <ele>641.42694091797</ele>
        <time>2016-05-15T10:25:05.000Z</time>
      </trkpt>
      <trkpt lat="45.7258" lon="4.46064">
        <ele>641.0234375</ele>
        <time>2016-05-15T10:25:08.000Z</time>
      </trkpt>
      <trkpt lat="45.7258" lon="4.46064">
        <ele>637.99145507812</ele>
        <time>2016-05-15T10:25:28.000Z</time>
      </trkpt>
      <trkpt lat="45.72577" lon="4.46065">
        <ele>639.87774658203</ele>
        <time>2016-05-15T10:29:02.000Z</time>
      </trkpt>
      <trkpt lat="45.72574" lon="4.46067">
        <ele>638.9580078125</ele>
        <time>2016-05-15T10:29:04.000Z</time>
      </trkpt>
      <trkpt lat="45.72566" lon="4.46073">
        <ele>639.97076416016</ele>
        <time>2016-05-15T10:29:07.000Z</time>
      </trkpt>
      <trkpt lat="45.72556" lon="4.4608">
        <ele>641.09136962891</ele>
        <time>2016-05-15T10:29:10.000Z</time>
      </trkpt>
      <trkpt lat="45.72541" lon="4.46089">
        <ele>642.37762451172</ele>
        <time>2016-05-15T10:29:13.000Z</time>
      </trkpt>
      <trkpt lat="45.72533" lon="4.46097">
        <ele>643.57440185547</ele>
        <time>2016-05-15T10:29:15.000Z</time>
      </trkpt>
      <trkpt lat="45.72527" lon="4.46102">
        <ele>643.80694580078</ele>
        <time>2016-05-15T10:29:17.000Z</time>
      </trkpt>
      <trkpt lat="45.72515" lon="4.46109">
        <ele>643.96636962891</ele>
        <time>2016-05-15T10:29:20.000Z</time>
      </trkpt>
      <trkpt lat="45.72509" lon="4.46113">
        <ele>644.05041503906</ele>
        <time>2016-05-15T10:29:22.000Z</time>
      </trkpt>
      <trkpt lat="45.72499" lon="4.46119">
        <ele>643.53112792969</ele>
        <time>2016-05-15T10:29:25.000Z</time>
      </trkpt>
      <trkpt lat="45.72488" lon="4.46123">
        <ele>643.0654296875</ele>
        <time>2016-05-15T10:29:28.000Z</time>
      </trkpt>
      <trkpt lat="45.72481" lon="4.46125">
        <ele>641.6337890625</ele>
        <time>2016-05-15T10:29:30.000Z</time>
      </trkpt>
      <trkpt lat="45.72468" lon="4.46128">
        <ele>641.96496582031</ele>
        <time>2016-05-15T10:29:33.000Z</time>
      </trkpt>
      <trkpt lat="45.72457" lon="4.46134">
        <ele>641.32556152344</ele>
        <time>2016-05-15T10:29:36.000Z</time>
      </trkpt>
      <trkpt lat="45.7245" lon="4.46139">
        <ele>641.11962890625</ele>
        <time>2016-05-15T10:29:38.000Z</time>
      </trkpt>
      <trkpt lat="45.72443" lon="4.46146">
        <ele>643.46148681641</ele>
        <time>2016-05-15T10:29:40.000Z</time>
      </trkpt>
      <trkpt lat="45.72436" lon="4.46153">
        <ele>644.31579589844</ele>
        <time>2016-05-15T10:29:42.000Z</time>
      </trkpt>
      <trkpt lat="45.72429" lon="4.46162">
        <ele>643.95709228516</ele>
        <time>2016-05-15T10:29:44.000Z</time>
      </trkpt>
      <trkpt lat="45.72416" lon="4.46172">
        <ele>644.21600341797</ele>
        <time>2016-05-15T10:29:47.000Z</time>
      </trkpt>
      <trkpt lat="45.72401" lon="4.46184">
        <ele>644.43041992188</ele>
        <time>2016-05-15T10:29:50.000Z</time>
      </trkpt>
      <trkpt lat="45.72388" lon="4.4619">
        <ele>645.41021728516</ele>
        <time>2016-05-15T10:29:53.000Z</time>
      </trkpt>
      <trkpt lat="45.72379" lon="4.46195">
        <ele>646.23413085938</ele>
        <time>2016-05-15T10:29:55.000Z</time>
      </trkpt>
      <trkpt lat="45.72369" lon="4.46197">
        <ele>645.56774902344</ele>
        <time>2016-05-15T10:29:57.000Z</time>
      </trkpt>
      <trkpt lat="45.7236" lon="4.46197">
        <ele>644.17340087891</ele>
        <time>2016-05-15T10:29:59.000Z</time>
      </trkpt>
      <trkpt lat="45.72346" lon="4.46197">
        <ele>643.92059326172</ele>
        <time>2016-05-15T10:30:02.000Z</time>
      </trkpt>
      <trkpt lat="45.72336" lon="4.46197">
        <ele>643.55065917969</ele>
        <time>2016-05-15T10:30:04.000Z</time>
      </trkpt>
      <trkpt lat="45.72321" lon="4.46195">
        <ele>643.39587402344</ele>
        <time>2016-05-15T10:30:07.000Z</time>
      </trkpt>
      <trkpt lat="45.72303" lon="4.46195">
        <ele>642.25268554688</ele>
        <time>2016-05-15T10:30:10.000Z</time>
      </trkpt>
      <trkpt lat="45.72282" lon="4.46191">
        <ele>640.61901855469</ele>
        <time>2016-05-15T10:30:13.000Z</time>
      </trkpt>
      <trkpt lat="45.72268" lon="4.46184">
        <ele>639.60766601562</ele>
        <time>2016-05-15T10:30:16.000Z</time>
      </trkpt>
      <trkpt lat="45.7225" lon="4.46174">
        <ele>638.05291748047</ele>
        <time>2016-05-15T10:30:19.000Z</time>
      </trkpt>
      <trkpt lat="45.72234" lon="4.46165">
        <ele>637.88745117188</ele>
        <time>2016-05-15T10:30:22.000Z</time>
      </trkpt>
      <trkpt lat="45.72221" lon="4.46162">
        <ele>634.26049804688</ele>
        <time>2016-05-15T10:30:25.000Z</time>
      </trkpt>
      <trkpt lat="45.72203" lon="4.46173">
        <ele>633.94866943359</ele>
        <time>2016-05-15T10:30:28.000Z</time>
      </trkpt>
      <trkpt lat="45.72192" lon="4.46175">
        <ele>633.43054199219</ele>
        <time>2016-05-15T10:30:30.000Z</time>
      </trkpt>
      <trkpt lat="45.72178" lon="4.46174">
        <ele>632.69250488281</ele>
        <time>2016-05-15T10:30:33.000Z</time>
      </trkpt>
      <trkpt lat="45.72166" lon="4.46173">
        <ele>632.43103027344</ele>
        <time>2016-05-15T10:30:35.000Z</time>
      </trkpt>
      <trkpt lat="45.72152" lon="4.46173">
        <ele>632.6845703125</ele>
        <time>2016-05-15T10:30:37.000Z</time>
      </trkpt>
      <trkpt lat="45.72141" lon="4.46173">
        <ele>632.86486816406</ele>
        <time>2016-05-15T10:30:39.000Z</time>
      </trkpt>
      <trkpt lat="45.72121" lon="4.46174">
        <ele>632.57312011719</ele>
        <time>2016-05-15T10:30:42.000Z</time>
      </trkpt>
      <trkpt lat="45.72106" lon="4.46175">
        <ele>631.73602294922</ele>
        <time>2016-05-15T10:30:44.000Z</time>
      </trkpt>
      <trkpt lat="45.72079" lon="4.46181">
        <ele>627.36846923828</ele>
        <time>2016-05-15T10:30:47.000Z</time>
      </trkpt>
      <trkpt lat="45.72061" lon="4.46189">
        <ele>625.25006103516</ele>
        <time>2016-05-15T10:30:49.000Z</time>
      </trkpt>
      <trkpt lat="45.72041" lon="4.46206">
        <ele>623.32830810547</ele>
        <time>2016-05-15T10:30:52.000Z</time>
      </trkpt>
      <trkpt lat="45.72027" lon="4.46231">
        <ele>621.73120117188</ele>
        <time>2016-05-15T10:30:55.000Z</time>
      </trkpt>
      <trkpt lat="45.72015" lon="4.4625">
        <ele>621.23950195312</ele>
        <time>2016-05-15T10:30:57.000Z</time>
      </trkpt>
      <trkpt lat="45.72002" lon="4.46266">
        <ele>621.32843017578</ele>
        <time>2016-05-15T10:30:59.000Z</time>
      </trkpt>
      <trkpt lat="45.71989" lon="4.46278">
        <ele>619.58874511719</ele>
        <time>2016-05-15T10:31:01.000Z</time>
      </trkpt>
      <trkpt lat="45.7197" lon="4.46298">
        <ele>616.81890869141</ele>
        <time>2016-05-15T10:31:04.000Z</time>
      </trkpt>
      <trkpt lat="45.71958" lon="4.46315">
        <ele>614.73559570312</ele>
        <time>2016-05-15T10:31:07.000Z</time>
      </trkpt>
      <trkpt lat="45.71951" lon="4.46329">
        <ele>616.82574462891</ele>
        <time>2016-05-15T10:31:12.000Z</time>
      </trkpt>
      <trkpt lat="45.71945" lon="4.46338">
        <ele>615.458984375</ele>
        <time>2016-05-15T10:31:12.000Z</time>
      </trkpt>
      <trkpt lat="45.71942" lon="4.46338">
        <ele>614.07489013672</ele>
        <time>2016-05-15T10:31:14.000Z</time>
      </trkpt>
      <trkpt lat="45.71938" lon="4.46337">
        <ele>611.18389892578</ele>
        <time>2016-05-15T10:31:16.000Z</time>
      </trkpt>
      <trkpt lat="45.71931" lon="4.46332">
        <ele>605.37866210938</ele>
        <time>2016-05-15T10:31:18.000Z</time>
      </trkpt>
      <trkpt lat="45.71918" lon="4.46324">
        <ele>601.88525390625</ele>
        <time>2016-05-15T10:31:21.000Z</time>
      </trkpt>
      <trkpt lat="45.71898" lon="4.46317">
        <ele>594.26324462891</ele>
        <time>2016-05-15T10:31:24.000Z</time>
      </trkpt>
      <trkpt lat="45.71885" lon="4.46315">
        <ele>589.35760498047</ele>
        <time>2016-05-15T10:31:26.000Z</time>
      </trkpt>
      <trkpt lat="45.71867" lon="4.46311">
        <ele>586.21502685547</ele>
        <time>2016-05-15T10:31:29.000Z</time>
      </trkpt>
      <trkpt lat="45.71849" lon="4.46309">
        <ele>583.78619384766</ele>
        <time>2016-05-15T10:31:32.000Z</time>
      </trkpt>
      <trkpt lat="45.71824" lon="4.4632">
        <ele>576.17065429688</ele>
        <time>2016-05-15T10:31:35.000Z</time>
      </trkpt>
      <trkpt lat="45.71807" lon="4.46331">
        <ele>576.00061035156</ele>
        <time>2016-05-15T10:31:37.000Z</time>
      </trkpt>
      <trkpt lat="45.71788" lon="4.46346">
        <ele>572.61218261719</ele>
        <time>2016-05-15T10:31:40.000Z</time>
      </trkpt>
      <trkpt lat="45.71771" lon="4.46358">
        <ele>571.35009765625</ele>
        <time>2016-05-15T10:31:43.000Z</time>
      </trkpt>
      <trkpt lat="45.71758" lon="4.46365">
        <ele>570.94897460938</ele>
        <time>2016-05-15T10:31:45.000Z</time>
      </trkpt>
      <trkpt lat="45.71745" lon="4.46373">
        <ele>568.33221435547</ele>
        <time>2016-05-15T10:31:47.000Z</time>
      </trkpt>
      <trkpt lat="45.71726" lon="4.4638">
        <ele>564.81066894531</ele>
        <time>2016-05-15T10:31:50.000Z</time>
      </trkpt>
      <trkpt lat="45.71706" lon="4.46386">
        <ele>561.92248535156</ele>
        <time>2016-05-15T10:31:53.000Z</time>
      </trkpt>
      <trkpt lat="45.71692" lon="4.46394">
        <ele>561.14593505859</ele>
        <time>2016-05-15T10:31:55.000Z</time>
      </trkpt>
      <trkpt lat="45.71671" lon="4.46403">
        <ele>560.14947509766</ele>
        <time>2016-05-15T10:31:58.000Z</time>
      </trkpt>
      <trkpt lat="45.71653" lon="4.46419">
        <ele>557.24053955078</ele>
        <time>2016-05-15T10:32:01.000Z</time>
      </trkpt>
      <trkpt lat="45.71633" lon="4.46441">
        <ele>553.8984375</ele>
        <time>2016-05-15T10:32:04.000Z</time>
      </trkpt>
      <trkpt lat="45.7162" lon="4.46452">
        <ele>552.96667480469</ele>
        <time>2016-05-15T10:32:06.000Z</time>
      </trkpt>
      <trkpt lat="45.71606" lon="4.46463">
        <ele>550.85162353516</ele>
        <time>2016-05-15T10:32:09.000Z</time>
      </trkpt>
      <trkpt lat="45.716" lon="4.46462">
        <ele>549.08972167969</ele>
        <time>2016-05-15T10:32:15.000Z</time>
      </trkpt>
      <trkpt lat="45.71598" lon="4.46463">
        <ele>547.82232666016</ele>
        <time>2016-05-15T10:32:18.000Z</time>
      </trkpt>
      <trkpt lat="45.71598" lon="4.46463">
        <ele>536.90509033203</ele>
        <time>2016-05-15T10:32:38.000Z</time>
      </trkpt>
      <trkpt lat="45.716" lon="4.4646">
        <ele>545.35034179688</ele>
        <time>2016-05-15T10:33:55.000Z</time>
      </trkpt>
      <trkpt lat="45.71602" lon="4.46434">
        <ele>543.18786621094</ele>
        <time>2016-05-15T10:33:59.000Z</time>
      </trkpt>
      <trkpt lat="45.71606" lon="4.46409">
        <ele>541.49310302734</ele>
        <time>2016-05-15T10:34:02.000Z</time>
      </trkpt>
      <trkpt lat="45.71609" lon="4.46388">
        <ele>538.71142578125</ele>
        <time>2016-05-15T10:34:04.000Z</time>
      </trkpt>
      <trkpt lat="45.71613" lon="4.46368">
        <ele>537.57147216797</ele>
        <time>2016-05-15T10:34:06.000Z</time>
      </trkpt>
      <trkpt lat="45.71616" lon="4.46351">
        <ele>537.55279541016</ele>
        <time>2016-05-15T10:34:08.000Z</time>
      </trkpt>
      <trkpt lat="45.71619" lon="4.4633">
        <ele>537.25823974609</ele>
        <time>2016-05-15T10:34:10.000Z</time>
      </trkpt>
      <trkpt lat="45.71626" lon="4.46298">
        <ele>536.40472412109</ele>
        <time>2016-05-15T10:34:13.000Z</time>
      </trkpt>
      <trkpt lat="45.71632" lon="4.46268">
        <ele>535.92797851562</ele>
        <time>2016-05-15T10:34:16.000Z</time>
      </trkpt>
      <trkpt lat="45.71635" lon="4.46248">
        <ele>536.29949951172</ele>
        <time>2016-05-15T10:34:18.000Z</time>
      </trkpt>
      <trkpt lat="45.71645" lon="4.46222">
        <ele>536.1123046875</ele>
        <time>2016-05-15T10:34:21.000Z</time>
      </trkpt>
      <trkpt lat="45.71651" lon="4.46204">
        <ele>535.923828125</ele>
        <time>2016-05-15T10:34:23.000Z</time>
      </trkpt>
      <trkpt lat="45.71663" lon="4.46176">
        <ele>536.22772216797</ele>
        <time>2016-05-15T10:34:26.000Z</time>
      </trkpt>
      <trkpt lat="45.71672" lon="4.46156">
        <ele>536.26232910156</ele>
        <time>2016-05-15T10:34:28.000Z</time>
      </trkpt>
      <trkpt lat="45.71681" lon="4.46136">
        <ele>535.67413330078</ele>
        <time>2016-05-15T10:34:30.000Z</time>
      </trkpt>
      <trkpt lat="45.717" lon="4.46101">
        <ele>533.25537109375</ele>
        <time>2016-05-15T10:34:33.000Z</time>
      </trkpt>
      <trkpt lat="45.71709" lon="4.46076">
        <ele>532.45874023438</ele>
        <time>2016-05-15T10:34:35.000Z</time>
      </trkpt>
      <trkpt lat="45.71721" lon="4.46039">
        <ele>531.43646240234</ele>
        <time>2016-05-15T10:34:38.000Z</time>
      </trkpt>
      <trkpt lat="45.71731" lon="4.46015">
        <ele>531.3056640625</ele>
        <time>2016-05-15T10:34:41.000Z</time>
      </trkpt>
      <trkpt lat="45.71735" lon="4.46002">
        <ele>529.70288085938</ele>
        <time>2016-05-15T10:34:43.000Z</time>
      </trkpt>
      <trkpt lat="45.71739" lon="4.45991">
        <ele>529.19885253906</ele>
        <time>2016-05-15T10:34:45.000Z</time>
      </trkpt>
      <trkpt lat="45.71745" lon="4.45977">
        <ele>530.14093017578</ele>
        <time>2016-05-15T10:34:48.000Z</time>
      </trkpt>
      <trkpt lat="45.7175" lon="4.45963">
        <ele>531.47528076172</ele>
        <time>2016-05-15T10:34:51.000Z</time>
      </trkpt>
      <trkpt lat="45.71752" lon="4.45954">
        <ele>531.76879882812</ele>
        <time>2016-05-15T10:34:53.000Z</time>
      </trkpt>
      <trkpt lat="45.71754" lon="4.45947">
        <ele>531.58013916016</ele>
        <time>2016-05-15T10:34:55.000Z</time>
      </trkpt>
      <trkpt lat="45.71755" lon="4.45942">
        <ele>531.44342041016</ele>
        <time>2016-05-15T10:34:57.000Z</time>
      </trkpt>
      <trkpt lat="45.71762" lon="4.45924">
        <ele>526.88153076172</ele>
        <time>2016-05-15T10:35:00.000Z</time>
      </trkpt>
      <trkpt lat="45.71767" lon="4.45914">
        <ele>525.01788330078</ele>
        <time>2016-05-15T10:35:02.000Z</time>
      </trkpt>
      <trkpt lat="45.71771" lon="4.45903">
        <ele>524.55700683594</ele>
        <time>2016-05-15T10:35:05.000Z</time>
      </trkpt>
      <trkpt lat="45.71772" lon="4.45898">
        <ele>524.71368408203</ele>
        <time>2016-05-15T10:35:07.000Z</time>
      </trkpt>
      <trkpt lat="45.71774" lon="4.45887">
        <ele>525.15802001953</ele>
        <time>2016-05-15T10:35:11.000Z</time>
      </trkpt>
      <trkpt lat="45.71774" lon="4.4588">
        <ele>524.85998535156</ele>
        <time>2016-05-15T10:35:13.000Z</time>
      </trkpt>
      <trkpt lat="45.71775" lon="4.45874">
        <ele>524.52020263672</ele>
        <time>2016-05-15T10:35:15.000Z</time>
      </trkpt>
      <trkpt lat="45.71775" lon="4.4587">
        <ele>524.39855957031</ele>
        <time>2016-05-15T10:35:17.000Z</time>
      </trkpt>
      <trkpt lat="45.71775" lon="4.45861">
        <ele>523.97760009766</ele>
        <time>2016-05-15T10:35:21.000Z</time>
      </trkpt>
      <trkpt lat="45.71776" lon="4.45851">
        <ele>522.96148681641</ele>
        <time>2016-05-15T10:35:25.000Z</time>
      </trkpt>
      <trkpt lat="45.71777" lon="4.45841">
        <ele>522.37329101562</ele>
        <time>2016-05-15T10:35:29.000Z</time>
      </trkpt>
      <trkpt lat="45.71778" lon="4.45836">
        <ele>522.96472167969</ele>
        <time>2016-05-15T10:35:31.000Z</time>
      </trkpt>
      <trkpt lat="45.71781" lon="4.45825">
        <ele>524.63586425781</ele>
        <time>2016-05-15T10:35:34.000Z</time>
      </trkpt>
      <trkpt lat="45.71782" lon="4.45821">
        <ele>525.15118408203</ele>
        <time>2016-05-15T10:35:36.000Z</time>
      </trkpt>
      <trkpt lat="45.71783" lon="4.4581">
        <ele>525.58447265625</ele>
        <time>2016-05-15T10:35:40.000Z</time>
      </trkpt>
      <trkpt lat="45.71785" lon="4.45801">
        <ele>525.56011962891</ele>
        <time>2016-05-15T10:35:44.000Z</time>
      </trkpt>
      <trkpt lat="45.71785" lon="4.45796">
        <ele>525.16790771484</ele>
        <time>2016-05-15T10:35:46.000Z</time>
      </trkpt>
      <trkpt lat="45.71785" lon="4.45785">
        <ele>524.81103515625</ele>
        <time>2016-05-15T10:35:50.000Z</time>
      </trkpt>
      <trkpt lat="45.71786" lon="4.45782">
        <ele>524.78387451172</ele>
        <time>2016-05-15T10:35:52.000Z</time>
      </trkpt>
      <trkpt lat="45.71786" lon="4.45773">
        <ele>525.22509765625</ele>
        <time>2016-05-15T10:35:56.000Z</time>
      </trkpt>
      <trkpt lat="45.71788" lon="4.45764">
        <ele>526.12066650391</ele>
        <time>2016-05-15T10:35:59.000Z</time>
      </trkpt>
      <trkpt lat="45.7179" lon="4.45757">
        <ele>526.52014160156</ele>
        <time>2016-05-15T10:36:01.000Z</time>
      </trkpt>
      <trkpt lat="45.71793" lon="4.45751">
        <ele>526.26422119141</ele>
        <time>2016-05-15T10:36:03.000Z</time>
      </trkpt>
      <trkpt lat="45.71795" lon="4.45745">
        <ele>526.45489501953</ele>
        <time>2016-05-15T10:36:05.000Z</time>
      </trkpt>
      <trkpt lat="45.71798" lon="4.45738">
        <ele>526.88616943359</ele>
        <time>2016-05-15T10:36:07.000Z</time>
      </trkpt>
      <trkpt lat="45.71801" lon="4.45729">
        <ele>526.81030273438</ele>
        <time>2016-05-15T10:36:10.000Z</time>
      </trkpt>
      <trkpt lat="45.71807" lon="4.45716">
        <ele>526.78253173828</ele>
        <time>2016-05-15T10:36:14.000Z</time>
      </trkpt>
      <trkpt lat="45.7181" lon="4.45708">
        <ele>527.94964599609</ele>
        <time>2016-05-15T10:36:16.000Z</time>
      </trkpt>
      <trkpt lat="45.71812" lon="4.457">
        <ele>529.78033447266</ele>
        <time>2016-05-15T10:36:19.000Z</time>
      </trkpt>
      <trkpt lat="45.71815" lon="4.45686">
        <ele>531.33557128906</ele>
        <time>2016-05-15T10:36:23.000Z</time>
      </trkpt>
      <trkpt lat="45.71817" lon="4.45678">
        <ele>531.49017333984</ele>
        <time>2016-05-15T10:36:25.000Z</time>
      </trkpt>
      <trkpt lat="45.71819" lon="4.45671">
        <ele>531.25024414062</ele>
        <time>2016-05-15T10:36:28.000Z</time>
      </trkpt>
      <trkpt lat="45.71822" lon="4.45659">
        <ele>529.74328613281</ele>
        <time>2016-05-15T10:36:31.000Z</time>
      </trkpt>
      <trkpt lat="45.71825" lon="4.4565">
        <ele>527.50286865234</ele>
        <time>2016-05-15T10:36:33.000Z</time>
      </trkpt>
      <trkpt lat="45.71829" lon="4.45639">
        <ele>526.08673095703</ele>
        <time>2016-05-15T10:36:36.000Z</time>
      </trkpt>
      <trkpt lat="45.7183" lon="4.4563">
        <ele>524.94293212891</ele>
        <time>2016-05-15T10:36:38.000Z</time>
      </trkpt>
      <trkpt lat="45.7183" lon="4.45623">
        <ele>524.25799560547</ele>
        <time>2016-05-15T10:36:40.000Z</time>
      </trkpt>
      <trkpt lat="45.71829" lon="4.45618">
        <ele>524.61053466797</ele>
        <time>2016-05-15T10:36:42.000Z</time>
      </trkpt>
      <trkpt lat="45.71827" lon="4.45615">
        <ele>526.17614746094</ele>
        <time>2016-05-15T10:36:44.000Z</time>
      </trkpt>
      <trkpt lat="45.71818" lon="4.45607">
        <ele>529.71002197266</ele>
        <time>2016-05-15T10:36:48.000Z</time>
      </trkpt>
      <trkpt lat="45.71812" lon="4.45603">
        <ele>529.23864746094</ele>
        <time>2016-05-15T10:36:51.000Z</time>
      </trkpt>
      <trkpt lat="45.71806" lon="4.456">
        <ele>530.33843994141</ele>
        <time>2016-05-15T10:36:55.000Z</time>
      </trkpt>
      <trkpt lat="45.71803" lon="4.45598">
        <ele>531.35443115234</ele>
        <time>2016-05-15T10:36:57.000Z</time>
      </trkpt>
      <trkpt lat="45.718" lon="4.45595">
        <ele>531.88757324219</ele>
        <time>2016-05-15T10:36:59.000Z</time>
      </trkpt>
      <trkpt lat="45.71797" lon="4.45593">
        <ele>532.11944580078</ele>
        <time>2016-05-15T10:37:02.000Z</time>
      </trkpt>
      <trkpt lat="45.71795" lon="4.45592">
        <ele>532.43151855469</ele>
        <time>2016-05-15T10:37:04.000Z</time>
      </trkpt>
      <trkpt lat="45.7179" lon="4.45589">
        <ele>532.51300048828</ele>
        <time>2016-05-15T10:37:08.000Z</time>
      </trkpt>
      <trkpt lat="45.71788" lon="4.45587">
        <ele>532.62030029297</ele>
        <time>2016-05-15T10:37:10.000Z</time>
      </trkpt>
      <trkpt lat="45.71785" lon="4.45585">
        <ele>532.89233398438</ele>
        <time>2016-05-15T10:37:12.000Z</time>
      </trkpt>
      <trkpt lat="45.71783" lon="4.45583">
        <ele>533.21929931641</ele>
        <time>2016-05-15T10:37:14.000Z</time>
      </trkpt>
      <trkpt lat="45.71777" lon="4.45578">
        <ele>533.67376708984</ele>
        <time>2016-05-15T10:37:18.000Z</time>
      </trkpt>
      <trkpt lat="45.71774" lon="4.45576">
        <ele>533.51593017578</ele>
        <time>2016-05-15T10:37:20.000Z</time>
      </trkpt>
      <trkpt lat="45.71769" lon="4.45571">
        <ele>534.27276611328</ele>
        <time>2016-05-15T10:37:24.000Z</time>
      </trkpt>
      <trkpt lat="45.71763" lon="4.45566">
        <ele>536.45556640625</ele>
        <time>2016-05-15T10:37:28.000Z</time>
      </trkpt>
      <trkpt lat="45.71761" lon="4.45564">
        <ele>537.15826416016</ele>
        <time>2016-05-15T10:37:30.000Z</time>
      </trkpt>
      <trkpt lat="45.71759" lon="4.45561">
        <ele>538.11456298828</ele>
        <time>2016-05-15T10:37:33.000Z</time>
      </trkpt>
      <trkpt lat="45.71754" lon="4.45556">
        <ele>540.15350341797</ele>
        <time>2016-05-15T10:37:37.000Z</time>
      </trkpt>
      <trkpt lat="45.71752" lon="4.45551">
        <ele>541.205078125</ele>
        <time>2016-05-15T10:37:41.000Z</time>
      </trkpt>
      <trkpt lat="45.71749" lon="4.45546">
        <ele>542.08599853516</ele>
        <time>2016-05-15T10:37:45.000Z</time>
      </trkpt>
      <trkpt lat="45.71747" lon="4.45542">
        <ele>542.1279296875</ele>
        <time>2016-05-15T10:37:47.000Z</time>
      </trkpt>
      <trkpt lat="45.71742" lon="4.45537">
        <ele>542.44317626953</ele>
        <time>2016-05-15T10:37:51.000Z</time>
      </trkpt>
      <trkpt lat="45.71738" lon="4.4553">
        <ele>544.06689453125</ele>
        <time>2016-05-15T10:37:55.000Z</time>
      </trkpt>
      <trkpt lat="45.71732" lon="4.45525">
        <ele>546.81799316406</ele>
        <time>2016-05-15T10:37:59.000Z</time>
      </trkpt>
      <trkpt lat="45.71726" lon="4.45525">
        <ele>547.90869140625</ele>
        <time>2016-05-15T10:38:03.000Z</time>
      </trkpt>
      <trkpt lat="45.7172" lon="4.45527">
        <ele>547.58361816406</ele>
        <time>2016-05-15T10:38:07.000Z</time>
      </trkpt>
      <trkpt lat="45.71713" lon="4.45533">
        <ele>546.83966064453</ele>
        <time>2016-05-15T10:38:11.000Z</time>
      </trkpt>
      <trkpt lat="45.71708" lon="4.45537">
        <ele>546.79644775391</ele>
        <time>2016-05-15T10:38:14.000Z</time>
      </trkpt>
      <trkpt lat="45.71703" lon="4.45541">
        <ele>548.34753417969</ele>
        <time>2016-05-15T10:38:16.000Z</time>
      </trkpt>
      <trkpt lat="45.71695" lon="4.4555">
        <ele>546.81896972656</ele>
        <time>2016-05-15T10:38:19.000Z</time>
      </trkpt>
      <trkpt lat="45.71685" lon="4.45572">
        <ele>544.10192871094</ele>
        <time>2016-05-15T10:38:22.000Z</time>
      </trkpt>
      <trkpt lat="45.7168" lon="4.45585">
        <ele>543.71466064453</ele>
        <time>2016-05-15T10:38:24.000Z</time>
      </trkpt>
      <trkpt lat="45.71677" lon="4.456">
        <ele>543.03118896484</ele>
        <time>2016-05-15T10:38:26.000Z</time>
      </trkpt>
      <trkpt lat="45.71675" lon="4.45618">
        <ele>542.61297607422</ele>
        <time>2016-05-15T10:38:28.000Z</time>
      </trkpt>
      <trkpt lat="45.71669" lon="4.45635">
        <ele>542.89672851562</ele>
        <time>2016-05-15T10:38:30.000Z</time>
      </trkpt>
      <trkpt lat="45.71659" lon="4.45655">
        <ele>542.21179199219</ele>
        <time>2016-05-15T10:38:33.000Z</time>
      </trkpt>
      <trkpt lat="45.71656" lon="4.45668">
        <ele>542.02349853516</ele>
        <time>2016-05-15T10:38:35.000Z</time>
      </trkpt>
      <trkpt lat="45.71654" lon="4.4569">
        <ele>543.94110107422</ele>
        <time>2016-05-15T10:38:38.000Z</time>
      </trkpt>
      <trkpt lat="45.71652" lon="4.45702">
        <ele>546.34271240234</ele>
        <time>2016-05-15T10:38:40.000Z</time>
      </trkpt>
      <trkpt lat="45.71652" lon="4.45713">
        <ele>548.06274414062</ele>
        <time>2016-05-15T10:38:42.000Z</time>
      </trkpt>
      <trkpt lat="45.71651" lon="4.4573">
        <ele>548.93640136719</ele>
        <time>2016-05-15T10:38:45.000Z</time>
      </trkpt>
      <trkpt lat="45.71649" lon="4.45745">
        <ele>550.10650634766</ele>
        <time>2016-05-15T10:38:48.000Z</time>
      </trkpt>
      <trkpt lat="45.71647" lon="4.45753">
        <ele>550.46490478516</ele>
        <time>2016-05-15T10:38:50.000Z</time>
      </trkpt>
      <trkpt lat="45.71645" lon="4.45767">
        <ele>551.19940185547</ele>
        <time>2016-05-15T10:38:53.000Z</time>
      </trkpt>
      <trkpt lat="45.71645" lon="4.45777">
        <ele>551.77038574219</ele>
        <time>2016-05-15T10:38:55.000Z</time>
      </trkpt>
      <trkpt lat="45.71643" lon="4.45791">
        <ele>552.35095214844</ele>
        <time>2016-05-15T10:38:58.000Z</time>
      </trkpt>
      <trkpt lat="45.71642" lon="4.45801">
        <ele>551.78631591797</ele>
        <time>2016-05-15T10:39:00.000Z</time>
      </trkpt>
      <trkpt lat="45.7164" lon="4.45812">
        <ele>550.80145263672</ele>
        <time>2016-05-15T10:39:02.000Z</time>
      </trkpt>
      <trkpt lat="45.71636" lon="4.45828">
        <ele>550.12823486328</ele>
        <time>2016-05-15T10:39:05.000Z</time>
      </trkpt>
      <trkpt lat="45.7163" lon="4.45845">
        <ele>549.58038330078</ele>
        <time>2016-05-15T10:39:08.000Z</time>
      </trkpt>
      <trkpt lat="45.71626" lon="4.45855">
        <ele>549.18859863281</ele>
        <time>2016-05-15T10:39:10.000Z</time>
      </trkpt>
      <trkpt lat="45.71622" lon="4.45865">
        <ele>549.31182861328</ele>
        <time>2016-05-15T10:39:12.000Z</time>
      </trkpt>
      <trkpt lat="45.71617" lon="4.45879">
        <ele>549.72625732422</ele>
        <time>2016-05-15T10:39:15.000Z</time>
      </trkpt>
      <trkpt lat="45.71611" lon="4.45893">
        <ele>551.37438964844</ele>
        <time>2016-05-15T10:39:18.000Z</time>
      </trkpt>
      <trkpt lat="45.71606" lon="4.45906">
        <ele>551.75506591797</ele>
        <time>2016-05-15T10:39:21.000Z</time>
      </trkpt>
      <trkpt lat="45.71603" lon="4.45918">
        <ele>550.91729736328</ele>
        <time>2016-05-15T10:39:23.000Z</time>
      </trkpt>
      <trkpt lat="45.71601" lon="4.45928">
        <ele>551.86456298828</ele>
        <time>2016-05-15T10:39:25.000Z</time>
      </trkpt>
      <trkpt lat="45.71597" lon="4.45938">
        <ele>552.22161865234</ele>
        <time>2016-05-15T10:39:27.000Z</time>
      </trkpt>
      <trkpt lat="45.71592" lon="4.45947">
        <ele>551.67248535156</ele>
        <time>2016-05-15T10:39:29.000Z</time>
      </trkpt>
      <trkpt lat="45.71585" lon="4.45958">
        <ele>552.20672607422</ele>
        <time>2016-05-15T10:39:32.000Z</time>
      </trkpt>
      <trkpt lat="45.71582" lon="4.45965">
        <ele>551.35308837891</ele>
        <time>2016-05-15T10:39:35.000Z</time>
      </trkpt>
      <trkpt lat="45.71578" lon="4.45973">
        <ele>551.45983886719</ele>
        <time>2016-05-15T10:39:38.000Z</time>
      </trkpt>
      <trkpt lat="45.71574" lon="4.4598">
        <ele>550.79150390625</ele>
        <time>2016-05-15T10:39:42.000Z</time>
      </trkpt>
      <trkpt lat="45.71572" lon="4.45984">
        <ele>551.25085449219</ele>
        <time>2016-05-15T10:39:43.000Z</time>
      </trkpt>
      <trkpt lat="45.7157" lon="4.45988">
        <ele>551.70129394531</ele>
        <time>2016-05-15T10:39:45.000Z</time>
      </trkpt>
      <trkpt lat="45.71566" lon="4.45996">
        <ele>551.62530517578</ele>
        <time>2016-05-15T10:39:49.000Z</time>
      </trkpt>
      <trkpt lat="45.71563" lon="4.46001">
        <ele>551.47631835938</ele>
        <time>2016-05-15T10:39:51.000Z</time>
      </trkpt>
      <trkpt lat="45.71559" lon="4.46007">
        <ele>551.03057861328</ele>
        <time>2016-05-15T10:39:54.000Z</time>
      </trkpt>
      <trkpt lat="45.71557" lon="4.46011">
        <ele>550.88891601562</ele>
        <time>2016-05-15T10:39:56.000Z</time>
      </trkpt>
      <trkpt lat="45.71555" lon="4.46019">
        <ele>550.8955078125</ele>
        <time>2016-05-15T10:40:00.000Z</time>
      </trkpt>
      <trkpt lat="45.71554" lon="4.46024">
        <ele>550.56036376953</ele>
        <time>2016-05-15T10:40:02.000Z</time>
      </trkpt>
      <trkpt lat="45.7155" lon="4.46032">
        <ele>550.35437011719</ele>
        <time>2016-05-15T10:40:06.000Z</time>
      </trkpt>
      <trkpt lat="45.71546" lon="4.46038">
        <ele>549.71313476562</ele>
        <time>2016-05-15T10:40:11.000Z</time>
      </trkpt>
      <trkpt lat="45.71543" lon="4.46041">
        <ele>549.74548339844</ele>
        <time>2016-05-15T10:40:12.000Z</time>
      </trkpt>
      <trkpt lat="45.71535" lon="4.46049">
        <ele>548.94500732422</ele>
        <time>2016-05-15T10:40:16.000Z</time>
      </trkpt>
      <trkpt lat="45.71527" lon="4.46055">
        <ele>548.87628173828</ele>
        <time>2016-05-15T10:40:19.000Z</time>
      </trkpt>
      <trkpt lat="45.71523" lon="4.46059">
        <ele>549.87548828125</ele>
        <time>2016-05-15T10:40:22.000Z</time>
      </trkpt>
      <trkpt lat="45.71521" lon="4.46062">
        <ele>550.22540283203</ele>
        <time>2016-05-15T10:40:24.000Z</time>
      </trkpt>
      <trkpt lat="45.71516" lon="4.46068">
        <ele>551.29748535156</ele>
        <time>2016-05-15T10:40:28.000Z</time>
      </trkpt>
      <trkpt lat="45.71511" lon="4.46075">
        <ele>552.16021728516</ele>
        <time>2016-05-15T10:40:32.000Z</time>
      </trkpt>
      <trkpt lat="45.71507" lon="4.46083">
        <ele>553.18963623047</ele>
        <time>2016-05-15T10:40:35.000Z</time>
      </trkpt>
      <trkpt lat="45.71504" lon="4.46087">
        <ele>553.08959960938</ele>
        <time>2016-05-15T10:40:37.000Z</time>
      </trkpt>
      <trkpt lat="45.71499" lon="4.46093">
        <ele>552.34887695312</ele>
        <time>2016-05-15T10:40:40.000Z</time>
      </trkpt>
      <trkpt lat="45.71495" lon="4.46098">
        <ele>552.25732421875</ele>
        <time>2016-05-15T10:40:42.000Z</time>
      </trkpt>
      <trkpt lat="45.71489" lon="4.46104">
        <ele>551.91278076172</ele>
        <time>2016-05-15T10:40:46.000Z</time>
      </trkpt>
      <trkpt lat="45.71483" lon="4.46108">
        <ele>551.84692382812</ele>
        <time>2016-05-15T10:40:48.000Z</time>
      </trkpt>
      <trkpt lat="45.71481" lon="4.4611">
        <ele>551.78204345703</ele>
        <time>2016-05-15T10:40:50.000Z</time>
      </trkpt>
      <trkpt lat="45.71473" lon="4.46117">
        <ele>551.84686279297</ele>
        <time>2016-05-15T10:40:54.000Z</time>
      </trkpt>
      <trkpt lat="45.71467" lon="4.46122">
        <ele>552.11968994141</ele>
        <time>2016-05-15T10:40:56.000Z</time>
      </trkpt>
      <trkpt lat="45.71462" lon="4.46125">
        <ele>552.28643798828</ele>
        <time>2016-05-15T10:40:58.000Z</time>
      </trkpt>
      <trkpt lat="45.71452" lon="4.46131">
        <ele>553.45855712891</ele>
        <time>2016-05-15T10:41:01.000Z</time>
      </trkpt>
      <trkpt lat="45.7144" lon="4.46133">
        <ele>555.4921875</ele>
        <time>2016-05-15T10:41:04.000Z</time>
      </trkpt>
      <trkpt lat="45.71429" lon="4.4613">
        <ele>556.67504882812</ele>
        <time>2016-05-15T10:41:07.000Z</time>
      </trkpt>
      <trkpt lat="45.71416" lon="4.46123">
        <ele>558.26080322266</ele>
        <time>2016-05-15T10:41:10.000Z</time>
      </trkpt>
      <trkpt lat="45.71401" lon="4.46114">
        <ele>558.51281738281</ele>
        <time>2016-05-15T10:41:13.000Z</time>
      </trkpt>
      <trkpt lat="45.7137" lon="4.4609">
        <ele>557.89019775391</ele>
        <time>2016-05-15T10:41:17.000Z</time>
      </trkpt>
      <trkpt lat="45.71359" lon="4.46074">
        <ele>557.74353027344</ele>
        <time>2016-05-15T10:41:20.000Z</time>
      </trkpt>
      <trkpt lat="45.7135" lon="4.46062">
        <ele>557.40289306641</ele>
        <time>2016-05-15T10:41:22.000Z</time>
      </trkpt>
      <trkpt lat="45.71334" lon="4.46034">
        <ele>554.14318847656</ele>
        <time>2016-05-15T10:41:25.000Z</time>
      </trkpt>
      <trkpt lat="45.71325" lon="4.46017">
        <ele>551.86138916016</ele>
        <time>2016-05-15T10:41:27.000Z</time>
      </trkpt>
      <trkpt lat="45.71313" lon="4.45987">
        <ele>547.84777832031</ele>
        <time>2016-05-15T10:41:30.000Z</time>
      </trkpt>
      <trkpt lat="45.71308" lon="4.45968">
        <ele>546.43334960938</ele>
        <time>2016-05-15T10:41:32.000Z</time>
      </trkpt>
      <trkpt lat="45.71304" lon="4.45945">
        <ele>545.45281982422</ele>
        <time>2016-05-15T10:41:35.000Z</time>
      </trkpt>
      <trkpt lat="45.71296" lon="4.45926">
        <ele>543.72955322266</ele>
        <time>2016-05-15T10:41:38.000Z</time>
      </trkpt>
      <trkpt lat="45.71288" lon="4.45918">
        <ele>540.79241943359</ele>
        <time>2016-05-15T10:41:41.000Z</time>
      </trkpt>
      <trkpt lat="45.71283" lon="4.45916">
        <ele>539.79449462891</ele>
        <time>2016-05-15T10:41:43.000Z</time>
      </trkpt>
      <trkpt lat="45.71274" lon="4.45911">
        <ele>540.34997558594</ele>
        <time>2016-05-15T10:41:46.000Z</time>
      </trkpt>
      <trkpt lat="45.71266" lon="4.45906">
        <ele>540.80206298828</ele>
        <time>2016-05-15T10:41:49.000Z</time>
      </trkpt>
      <trkpt lat="45.71261" lon="4.45903">
        <ele>541.04803466797</ele>
        <time>2016-05-15T10:41:51.000Z</time>
      </trkpt>
      <trkpt lat="45.71253" lon="4.45899">
        <ele>542.15759277344</ele>
        <time>2016-05-15T10:41:54.000Z</time>
      </trkpt>
      <trkpt lat="45.71247" lon="4.45896">
        <ele>541.03039550781</ele>
        <time>2016-05-15T10:41:58.000Z</time>
      </trkpt>
      <trkpt lat="45.7124" lon="4.45892">
        <ele>541.25268554688</ele>
        <time>2016-05-15T10:42:02.000Z</time>
      </trkpt>
      <trkpt lat="45.71238" lon="4.45891">
        <ele>541.02404785156</ele>
        <time>2016-05-15T10:42:04.000Z</time>
      </trkpt>
      <trkpt lat="45.71232" lon="4.45887">
        <ele>541.09594726562</ele>
        <time>2016-05-15T10:42:08.000Z</time>
      </trkpt>
      <trkpt lat="45.71229" lon="4.45885">
        <ele>540.82971191406</ele>
        <time>2016-05-15T10:42:10.000Z</time>
      </trkpt>
      <trkpt lat="45.71227" lon="4.45883">
        <ele>541.33251953125</ele>
        <time>2016-05-15T10:42:12.000Z</time>
      </trkpt>
      <trkpt lat="45.71225" lon="4.45881">
        <ele>541.49780273438</ele>
        <time>2016-05-15T10:42:14.000Z</time>
      </trkpt>
      <trkpt lat="45.71221" lon="4.45877">
        <ele>540.99755859375</ele>
        <time>2016-05-15T10:42:18.000Z</time>
      </trkpt>
      <trkpt lat="45.71219" lon="4.45874">
        <ele>540.66571044922</ele>
        <time>2016-05-15T10:42:20.000Z</time>
      </trkpt>
      <trkpt lat="45.71217" lon="4.45871">
        <ele>539.92669677734</ele>
        <time>2016-05-15T10:42:22.000Z</time>
      </trkpt>
      <trkpt lat="45.71211" lon="4.4586">
        <ele>540.23425292969</ele>
        <time>2016-05-15T10:42:26.000Z</time>
      </trkpt>
      <trkpt lat="45.71209" lon="4.45855">
        <ele>541.43225097656</ele>
        <time>2016-05-15T10:42:28.000Z</time>
      </trkpt>
      <trkpt lat="45.71207" lon="4.45852">
        <ele>543.10803222656</ele>
        <time>2016-05-15T10:42:30.000Z</time>
      </trkpt>
      <trkpt lat="45.71206" lon="4.45849">
        <ele>544.29083251953</ele>
        <time>2016-05-15T10:42:33.000Z</time>
      </trkpt>
      <trkpt lat="45.71206" lon="4.45846">
        <ele>543.91857910156</ele>
        <time>2016-05-15T10:42:41.000Z</time>
      </trkpt>
      <trkpt lat="45.71206" lon="4.45846">
        <ele>547.56146240234</ele>
        <time>2016-05-15T10:43:01.000Z</time>
      </trkpt>
      <trkpt lat="45.71205" lon="4.45843">
        <ele>543.61462402344</ele>
        <time>2016-05-15T10:47:10.000Z</time>
      </trkpt>
      <trkpt lat="45.71199" lon="4.45836">
        <ele>541.88067626953</ele>
        <time>2016-05-15T10:47:12.000Z</time>
      </trkpt>
      <trkpt lat="45.71192" lon="4.45827">
        <ele>542.17022705078</ele>
        <time>2016-05-15T10:47:15.000Z</time>
      </trkpt>
      <trkpt lat="45.71183" lon="4.4582">
        <ele>542.30340576172</ele>
        <time>2016-05-15T10:47:17.000Z</time>
      </trkpt>
      <trkpt lat="45.7117" lon="4.45821">
        <ele>539.52679443359</ele>
        <time>2016-05-15T10:47:20.000Z</time>
      </trkpt>
      <trkpt lat="45.71154" lon="4.45856">
        <ele>532.20959472656</ele>
        <time>2016-05-15T10:47:25.000Z</time>
      </trkpt>
      <trkpt lat="45.71144" lon="4.45882">
        <ele>529.47924804688</ele>
        <time>2016-05-15T10:47:27.000Z</time>
      </trkpt>
      <trkpt lat="45.71139" lon="4.45899">
        <ele>530.482421875</ele>
        <time>2016-05-15T10:47:30.000Z</time>
      </trkpt>
      <trkpt lat="45.71138" lon="4.45915">
        <ele>531.10388183594</ele>
        <time>2016-05-15T10:47:31.000Z</time>
      </trkpt>
      <trkpt lat="45.71138" lon="4.45928">
        <ele>531.28582763672</ele>
        <time>2016-05-15T10:47:33.000Z</time>
      </trkpt>
      <trkpt lat="45.71136" lon="4.45946">
        <ele>529.40417480469</ele>
        <time>2016-05-15T10:47:36.000Z</time>
      </trkpt>
      <trkpt lat="45.71132" lon="4.45957">
        <ele>526.20428466797</ele>
        <time>2016-05-15T10:47:38.000Z</time>
      </trkpt>
      <trkpt lat="45.7113" lon="4.4597">
        <ele>524.76989746094</ele>
        <time>2016-05-15T10:47:40.000Z</time>
      </trkpt>
      <trkpt lat="45.71132" lon="4.45992">
        <ele>524.07440185547</ele>
        <time>2016-05-15T10:47:43.000Z</time>
      </trkpt>
      <trkpt lat="45.71139" lon="4.4601">
        <ele>523.0419921875</ele>
        <time>2016-05-15T10:47:46.000Z</time>
      </trkpt>
      <trkpt lat="45.71152" lon="4.4604">
        <ele>522.75061035156</ele>
        <time>2016-05-15T10:47:48.000Z</time>
      </trkpt>
      <trkpt lat="45.71157" lon="4.46056">
        <ele>522.68511962891</ele>
        <time>2016-05-15T10:47:50.000Z</time>
      </trkpt>
      <trkpt lat="45.71162" lon="4.46067">
        <ele>521.85150146484</ele>
        <time>2016-05-15T10:47:53.000Z</time>
      </trkpt>
      <trkpt lat="45.71175" lon="4.46079">
        <ele>520.48754882812</ele>
        <time>2016-05-15T10:47:56.000Z</time>
      </trkpt>
      <trkpt lat="45.7118" lon="4.46087">
        <ele>520.05267333984</ele>
        <time>2016-05-15T10:47:59.000Z</time>
      </trkpt>
      <trkpt lat="45.71181" lon="4.46091">
        <ele>518.88647460938</ele>
        <time>2016-05-15T10:48:01.000Z</time>
      </trkpt>
      <trkpt lat="45.71185" lon="4.46105">
        <ele>516.83636474609</ele>
        <time>2016-05-15T10:48:04.000Z</time>
      </trkpt>
      <trkpt lat="45.71187" lon="4.46115">
        <ele>515.12139892578</ele>
        <time>2016-05-15T10:48:06.000Z</time>
      </trkpt>
      <trkpt lat="45.71191" lon="4.46133">
        <ele>513.21685791016</ele>
        <time>2016-05-15T10:48:09.000Z</time>
      </trkpt>
      <trkpt lat="45.71194" lon="4.46147">
        <ele>512.74407958984</ele>
        <time>2016-05-15T10:48:12.000Z</time>
      </trkpt>
      <trkpt lat="45.71196" lon="4.46165">
        <ele>512.81286621094</ele>
        <time>2016-05-15T10:48:14.000Z</time>
      </trkpt>
      <trkpt lat="45.71198" lon="4.46175">
        <ele>508.88934326172</ele>
        <time>2016-05-15T10:48:16.000Z</time>
      </trkpt>
      <trkpt lat="45.712" lon="4.46186">
        <ele>504.53094482422</ele>
        <time>2016-05-15T10:48:21.000Z</time>
      </trkpt>
      <trkpt lat="45.71203" lon="4.46191">
        <ele>503.05389404297</ele>
        <time>2016-05-15T10:48:23.000Z</time>
      </trkpt>
      <trkpt lat="45.71205" lon="4.46194">
        <ele>501.10971069336</ele>
        <time>2016-05-15T10:48:27.000Z</time>
      </trkpt>
      <trkpt lat="45.71205" lon="4.46194">
        <ele>496.36938476562</ele>
        <time>2016-05-15T10:48:47.000Z</time>
      </trkpt>
      <trkpt lat="45.71206" lon="4.46198">
        <ele>499.67636108398</ele>
        <time>2016-05-15T10:49:47.000Z</time>
      </trkpt>
      <trkpt lat="45.71206" lon="4.46209">
        <ele>499.1257019043</ele>
        <time>2016-05-15T10:49:51.000Z</time>
      </trkpt>
      <trkpt lat="45.71202" lon="4.46225">
        <ele>498.39138793945</ele>
        <time>2016-05-15T10:49:54.000Z</time>
      </trkpt>
      <trkpt lat="45.71197" lon="4.46236">
        <ele>497.33984375</ele>
        <time>2016-05-15T10:49:56.000Z</time>
      </trkpt>
      <trkpt lat="45.71189" lon="4.46248">
        <ele>494.27862548828</ele>
        <time>2016-05-15T10:49:58.000Z</time>
      </trkpt>
      <trkpt lat="45.71185" lon="4.46261">
        <ele>491.52737426758</ele>
        <time>2016-05-15T10:50:00.000Z</time>
      </trkpt>
      <trkpt lat="45.71177" lon="4.46284">
        <ele>487.73791503906</ele>
        <time>2016-05-15T10:50:03.000Z</time>
      </trkpt>
      <trkpt lat="45.71171" lon="4.46297">
        <ele>486.85479736328</ele>
        <time>2016-05-15T10:50:05.000Z</time>
      </trkpt>
      <trkpt lat="45.71163" lon="4.46319">
        <ele>483.80471801758</ele>
        <time>2016-05-15T10:50:08.000Z</time>
      </trkpt>
      <trkpt lat="45.71157" lon="4.46342">
        <ele>480.18649291992</ele>
        <time>2016-05-15T10:50:10.000Z</time>
      </trkpt>
      <trkpt lat="45.71152" lon="4.46362">
        <ele>479.50381469727</ele>
        <time>2016-05-15T10:50:14.000Z</time>
      </trkpt>
      <trkpt lat="45.7115" lon="4.46381">
        <ele>478.47637939453</ele>
        <time>2016-05-15T10:50:15.000Z</time>
      </trkpt>
      <trkpt lat="45.71147" lon="4.46398">
        <ele>475.63024902344</ele>
        <time>2016-05-15T10:50:17.000Z</time>
      </trkpt>
      <trkpt lat="45.71146" lon="4.46428">
        <ele>470.72219848633</ele>
        <time>2016-05-15T10:50:20.000Z</time>
      </trkpt>
      <trkpt lat="45.71149" lon="4.46448">
        <ele>466.40097045898</ele>
        <time>2016-05-15T10:50:23.000Z</time>
      </trkpt>
      <trkpt lat="45.71151" lon="4.4646">
        <ele>463.93316650391</ele>
        <time>2016-05-15T10:50:26.000Z</time>
      </trkpt>
      <trkpt lat="45.71157" lon="4.46471">
        <ele>461.62026977539</ele>
        <time>2016-05-15T10:50:28.000Z</time>
      </trkpt>
      <trkpt lat="45.71174" lon="4.46481">
        <ele>460.60971069336</ele>
        <time>2016-05-15T10:50:31.000Z</time>
      </trkpt>
      <trkpt lat="45.71186" lon="4.46486">
        <ele>460.33038330078</ele>
        <time>2016-05-15T10:50:33.000Z</time>
      </trkpt>
      <trkpt lat="45.71185" lon="4.46498">
        <ele>459.36090087891</ele>
        <time>2016-05-15T10:50:35.000Z</time>
      </trkpt>
      <trkpt lat="45.7118" lon="4.4651">
        <ele>457.93951416016</ele>
        <time>2016-05-15T10:50:37.000Z</time>
      </trkpt>
      <trkpt lat="45.71173" lon="4.46526">
        <ele>452.65521240234</ele>
        <time>2016-05-15T10:50:40.000Z</time>
      </trkpt>
      <trkpt lat="45.71166" lon="4.46535">
        <ele>448.267578125</ele>
        <time>2016-05-15T10:50:43.000Z</time>
      </trkpt>
      <trkpt lat="45.71148" lon="4.46548">
        <ele>445.14080810547</ele>
        <time>2016-05-15T10:50:46.000Z</time>
      </trkpt>
      <trkpt lat="45.71128" lon="4.46565">
        <ele>441.92987060547</ele>
        <time>2016-05-15T10:50:48.000Z</time>
      </trkpt>
      <trkpt lat="45.71116" lon="4.46573">
        <ele>440.87170410156</ele>
        <time>2016-05-15T10:50:53.000Z</time>
      </trkpt>
      <trkpt lat="45.71116" lon="4.46573">
        <ele>436.88903808594</ele>
        <time>2016-05-15T10:51:13.000Z</time>
      </trkpt>
      <trkpt lat="45.71113" lon="4.46575">
        <ele>438.86596679688</ele>
        <time>2016-05-15T10:51:45.000Z</time>
      </trkpt>
      <trkpt lat="45.71111" lon="4.46575">
        <ele>437.62545776367</ele>
        <time>2016-05-15T10:51:48.000Z</time>
      </trkpt>
      <trkpt lat="45.71103" lon="4.46575">
        <ele>435.89895629883</ele>
        <time>2016-05-15T10:51:51.000Z</time>
      </trkpt>
      <trkpt lat="45.71096" lon="4.46575">
        <ele>434.73904418945</ele>
        <time>2016-05-15T10:51:53.000Z</time>
      </trkpt>
      <trkpt lat="45.71088" lon="4.46578">
        <ele>434.14938354492</ele>
        <time>2016-05-15T10:51:55.000Z</time>
      </trkpt>
      <trkpt lat="45.71076" lon="4.46584">
        <ele>433.35717773438</ele>
        <time>2016-05-15T10:51:56.000Z</time>
      </trkpt>
      <trkpt lat="45.71059" lon="4.46599">
        <ele>431.51635742188</ele>
        <time>2016-05-15T10:52:00.000Z</time>
      </trkpt>
      <trkpt lat="45.71041" lon="4.4662">
        <ele>430.16390991211</ele>
        <time>2016-05-15T10:52:03.000Z</time>
      </trkpt>
      <trkpt lat="45.71029" lon="4.46639">
        <ele>428.15386962891</ele>
        <time>2016-05-15T10:52:05.000Z</time>
      </trkpt>
      <trkpt lat="45.71014" lon="4.46664">
        <ele>428.17114257812</ele>
        <time>2016-05-15T10:52:08.000Z</time>
      </trkpt>
      <trkpt lat="45.71007" lon="4.46675">
        <ele>427.5637512207</ele>
        <time>2016-05-15T10:52:10.000Z</time>
      </trkpt>
      <trkpt lat="45.71" lon="4.46685">
        <ele>425.71807861328</ele>
        <time>2016-05-15T10:52:14.000Z</time>
      </trkpt>
      <trkpt lat="45.70998" lon="4.46688">
        <ele>425.29766845703</ele>
        <time>2016-05-15T10:52:16.000Z</time>
      </trkpt>
      <trkpt lat="45.70989" lon="4.46692">
        <ele>427.20602416992</ele>
        <time>2016-05-15T10:52:19.000Z</time>
      </trkpt>
      <trkpt lat="45.70979" lon="4.46698">
        <ele>428.36624145508</ele>
        <time>2016-05-15T10:52:22.000Z</time>
      </trkpt>
      <trkpt lat="45.70977" lon="4.46708">
        <ele>428.84561157227</ele>
        <time>2016-05-15T10:52:24.000Z</time>
      </trkpt>
      <trkpt lat="45.70974" lon="4.46731">
        <ele>428.33807373047</ele>
        <time>2016-05-15T10:52:26.000Z</time>
      </trkpt>
      <trkpt lat="45.7097" lon="4.46743">
        <ele>427.17614746094</ele>
        <time>2016-05-15T10:52:29.000Z</time>
      </trkpt>
      <trkpt lat="45.70965" lon="4.46769">
        <ele>426.0556640625</ele>
        <time>2016-05-15T10:52:31.000Z</time>
      </trkpt>
      <trkpt lat="45.70962" lon="4.46795">
        <ele>424.84707641602</ele>
        <time>2016-05-15T10:52:35.000Z</time>
      </trkpt>
      <trkpt lat="45.7096" lon="4.46814">
        <ele>426.48364257812</ele>
        <time>2016-05-15T10:52:37.000Z</time>
      </trkpt>
      <trkpt lat="45.70956" lon="4.4683">
        <ele>426.85202026367</ele>
        <time>2016-05-15T10:52:40.000Z</time>
      </trkpt>
      <trkpt lat="45.70955" lon="4.46843">
        <ele>426.42175292969</ele>
        <time>2016-05-15T10:52:42.000Z</time>
      </trkpt>
      <trkpt lat="45.70952" lon="4.46857">
        <ele>426.32357788086</ele>
        <time>2016-05-15T10:52:45.000Z</time>
      </trkpt>
      <trkpt lat="45.7095" lon="4.46868">
        <ele>426.80932617188</ele>
        <time>2016-05-15T10:52:49.000Z</time>
      </trkpt>
      <trkpt lat="45.70947" lon="4.46876">
        <ele>426.63461303711</ele>
        <time>2016-05-15T10:52:52.000Z</time>
      </trkpt>
      <trkpt lat="45.70946" lon="4.46881">
        <ele>426.35202026367</ele>
        <time>2016-05-15T10:52:55.000Z</time>
      </trkpt>
      <trkpt lat="45.70943" lon="4.46891">
        <ele>425.36041259766</ele>
        <time>2016-05-15T10:52:58.000Z</time>
      </trkpt>
      <trkpt lat="45.70941" lon="4.46898">
        <ele>425.20803833008</ele>
        <time>2016-05-15T10:53:00.000Z</time>
      </trkpt>
      <trkpt lat="45.70938" lon="4.46911">
        <ele>429.04339599609</ele>
        <time>2016-05-15T10:53:03.000Z</time>
      </trkpt>
      <trkpt lat="45.70935" lon="4.4692">
        <ele>431.97427368164</ele>
        <time>2016-05-15T10:53:05.000Z</time>
      </trkpt>
      <trkpt lat="45.70932" lon="4.46933">
        <ele>431.92889404297</ele>
        <time>2016-05-15T10:53:07.000Z</time>
      </trkpt>
      <trkpt lat="45.70927" lon="4.46952">
        <ele>432.55282592773</ele>
        <time>2016-05-15T10:53:10.000Z</time>
      </trkpt>
      <trkpt lat="45.70925" lon="4.46966">
        <ele>432.90325927734</ele>
        <time>2016-05-15T10:53:12.000Z</time>
      </trkpt>
      <trkpt lat="45.7092" lon="4.46983">
        <ele>433.1745300293</ele>
        <time>2016-05-15T10:53:15.000Z</time>
      </trkpt>
      <trkpt lat="45.70915" lon="4.47">
        <ele>434.353515625</ele>
        <time>2016-05-15T10:53:18.000Z</time>
      </trkpt>
      <trkpt lat="45.70911" lon="4.47018">
        <ele>434.45584106445</ele>
        <time>2016-05-15T10:53:21.000Z</time>
      </trkpt>
      <trkpt lat="45.70909" lon="4.4703">
        <ele>434.37463378906</ele>
        <time>2016-05-15T10:53:23.000Z</time>
      </trkpt>
      <trkpt lat="45.70906" lon="4.47048">
        <ele>434.17687988281</ele>
        <time>2016-05-15T10:53:26.000Z</time>
      </trkpt>
      <trkpt lat="45.70904" lon="4.4706">
        <ele>434.08666992188</ele>
        <time>2016-05-15T10:53:28.000Z</time>
      </trkpt>
      <trkpt lat="45.70901" lon="4.47071">
        <ele>433.96688842773</ele>
        <time>2016-05-15T10:53:30.000Z</time>
      </trkpt>
      <trkpt lat="45.70896" lon="4.47086">
        <ele>432.98080444336</ele>
        <time>2016-05-15T10:53:33.000Z</time>
      </trkpt>
      <trkpt lat="45.70891" lon="4.47101">
        <ele>431.81964111328</ele>
        <time>2016-05-15T10:53:35.000Z</time>
      </trkpt>
      <trkpt lat="45.70889" lon="4.47112">
        <ele>432.64218139648</ele>
        <time>2016-05-15T10:53:38.000Z</time>
      </trkpt>
      <trkpt lat="45.70887" lon="4.47129">
        <ele>432.88244628906</ele>
        <time>2016-05-15T10:53:41.000Z</time>
      </trkpt>
      <trkpt lat="45.70886" lon="4.47139">
        <ele>432.46060180664</ele>
        <time>2016-05-15T10:53:43.000Z</time>
      </trkpt>
      <trkpt lat="45.70885" lon="4.47148">
        <ele>432.44616699219</ele>
        <time>2016-05-15T10:53:45.000Z</time>
      </trkpt>
      <trkpt lat="45.70883" lon="4.47161">
        <ele>432.10354614258</ele>
        <time>2016-05-15T10:53:48.000Z</time>
      </trkpt>
      <trkpt lat="45.70882" lon="4.47171">
        <ele>431.69976806641</ele>
        <time>2016-05-15T10:53:50.000Z</time>
      </trkpt>
      <trkpt lat="45.70881" lon="4.47186">
        <ele>431.81845092773</ele>
        <time>2016-05-15T10:53:53.000Z</time>
      </trkpt>
      <trkpt lat="45.70876" lon="4.47199">
        <ele>431.76107788086</ele>
        <time>2016-05-15T10:53:56.000Z</time>
      </trkpt>
      <trkpt lat="45.70872" lon="4.47208">
        <ele>431.08499145508</ele>
        <time>2016-05-15T10:53:58.000Z</time>
      </trkpt>
      <trkpt lat="45.70866" lon="4.47221">
        <ele>429.30065917969</ele>
        <time>2016-05-15T10:54:01.000Z</time>
      </trkpt>
      <trkpt lat="45.70863" lon="4.47232">
        <ele>429.17440795898</ele>
        <time>2016-05-15T10:54:03.000Z</time>
      </trkpt>
      <trkpt lat="45.70861" lon="4.47241">
        <ele>428.69839477539</ele>
        <time>2016-05-15T10:54:05.000Z</time>
      </trkpt>
      <trkpt lat="45.70858" lon="4.47251">
        <ele>429.2160949707</ele>
        <time>2016-05-15T10:54:07.000Z</time>
      </trkpt>
      <trkpt lat="45.70856" lon="4.47261">
        <ele>430.07196044922</ele>
        <time>2016-05-15T10:54:09.000Z</time>
      </trkpt>
      <trkpt lat="45.70854" lon="4.47271">
        <ele>429.90274047852</ele>
        <time>2016-05-15T10:54:11.000Z</time>
      </trkpt>
      <trkpt lat="45.70852" lon="4.47285">
        <ele>431.0905456543</ele>
        <time>2016-05-15T10:54:14.000Z</time>
      </trkpt>
      <trkpt lat="45.70849" lon="4.47293">
        <ele>431.05703735352</ele>
        <time>2016-05-15T10:54:16.000Z</time>
      </trkpt>
      <trkpt lat="45.70846" lon="4.47305">
        <ele>431.80160522461</ele>
        <time>2016-05-15T10:54:19.000Z</time>
      </trkpt>
      <trkpt lat="45.70844" lon="4.47319">
        <ele>432.68893432617</ele>
        <time>2016-05-15T10:54:22.000Z</time>
      </trkpt>
      <trkpt lat="45.70844" lon="4.47328">
        <ele>432.93591308594</ele>
        <time>2016-05-15T10:54:24.000Z</time>
      </trkpt>
      <trkpt lat="45.70842" lon="4.47341">
        <ele>433.14837646484</ele>
        <time>2016-05-15T10:54:27.000Z</time>
      </trkpt>
      <trkpt lat="45.7084" lon="4.47354">
        <ele>433.16864013672</ele>
        <time>2016-05-15T10:54:30.000Z</time>
      </trkpt>
      <trkpt lat="45.70838" lon="4.47363">
        <ele>433.36312866211</ele>
        <time>2016-05-15T10:54:32.000Z</time>
      </trkpt>
      <trkpt lat="45.70835" lon="4.47377">
        <ele>433.4992980957</ele>
        <time>2016-05-15T10:54:35.000Z</time>
      </trkpt>
      <trkpt lat="45.70832" lon="4.47386">
        <ele>433.29699707031</ele>
        <time>2016-05-15T10:54:37.000Z</time>
      </trkpt>
      <trkpt lat="45.70828" lon="4.47401">
        <ele>433.65716552734</ele>
        <time>2016-05-15T10:54:40.000Z</time>
      </trkpt>
      <trkpt lat="45.70826" lon="4.47411">
        <ele>433.99478149414</ele>
        <time>2016-05-15T10:54:42.000Z</time>
      </trkpt>
      <trkpt lat="45.70823" lon="4.47421">
        <ele>434.45880126953</ele>
        <time>2016-05-15T10:54:44.000Z</time>
      </trkpt>
      <trkpt lat="45.70818" lon="4.47437">
        <ele>436.13604736328</ele>
        <time>2016-05-15T10:54:47.000Z</time>
      </trkpt>
      <trkpt lat="45.70815" lon="4.47452">
        <ele>437.0046081543</ele>
        <time>2016-05-15T10:54:50.000Z</time>
      </trkpt>
      <trkpt lat="45.7081" lon="4.47467">
        <ele>436.0114440918</ele>
        <time>2016-05-15T10:54:53.000Z</time>
      </trkpt>
      <trkpt lat="45.70807" lon="4.4748">
        <ele>437.17916870117</ele>
        <time>2016-05-15T10:54:56.000Z</time>
      </trkpt>
      <trkpt lat="45.70804" lon="4.47493">
        <ele>437.65209960938</ele>
        <time>2016-05-15T10:54:58.000Z</time>
      </trkpt>
      <trkpt lat="45.70802" lon="4.47501">
        <ele>437.45294189453</ele>
        <time>2016-05-15T10:55:01.000Z</time>
      </trkpt>
      <trkpt lat="45.70799" lon="4.47509">
        <ele>437.54187011719</ele>
        <time>2016-05-15T10:55:03.000Z</time>
      </trkpt>
      <trkpt lat="45.70792" lon="4.47515">
        <ele>439.24075317383</ele>
        <time>2016-05-15T10:55:06.000Z</time>
      </trkpt>
      <trkpt lat="45.70785" lon="4.47522">
        <ele>439.44137573242</ele>
        <time>2016-05-15T10:55:09.000Z</time>
      </trkpt>
      <trkpt lat="45.70779" lon="4.47531">
        <ele>440.48831176758</ele>
        <time>2016-05-15T10:55:12.000Z</time>
      </trkpt>
      <trkpt lat="45.70773" lon="4.47538">
        <ele>441.97381591797</ele>
        <time>2016-05-15T10:55:15.000Z</time>
      </trkpt>
      <trkpt lat="45.70768" lon="4.47542">
        <ele>442.13412475586</ele>
        <time>2016-05-15T10:55:17.000Z</time>
      </trkpt>
      <trkpt lat="45.70763" lon="4.47546">
        <ele>442.69409179688</ele>
        <time>2016-05-15T10:55:19.000Z</time>
      </trkpt>
      <trkpt lat="45.70758" lon="4.47549">
        <ele>442.96658325195</ele>
        <time>2016-05-15T10:55:21.000Z</time>
      </trkpt>
      <trkpt lat="45.70753" lon="4.47554">
        <ele>444.00842285156</ele>
        <time>2016-05-15T10:55:24.000Z</time>
      </trkpt>
      <trkpt lat="45.7075" lon="4.47558">
        <ele>444.62167358398</ele>
        <time>2016-05-15T10:55:26.000Z</time>
      </trkpt>
      <trkpt lat="45.70747" lon="4.47562">
        <ele>445.00787353516</ele>
        <time>2016-05-15T10:55:28.000Z</time>
      </trkpt>
      <trkpt lat="45.70741" lon="4.47571">
        <ele>439.85040283203</ele>
        <time>2016-05-15T10:55:31.000Z</time>
      </trkpt>
      <trkpt lat="45.70737" lon="4.47577">
        <ele>437.83093261719</ele>
        <time>2016-05-15T10:55:32.000Z</time>
      </trkpt>
      <trkpt lat="45.70734" lon="4.47582">
        <ele>437.61172485352</ele>
        <time>2016-05-15T10:55:35.000Z</time>
      </trkpt>
      <trkpt lat="45.70731" lon="4.47587">
        <ele>437.50485229492</ele>
        <time>2016-05-15T10:55:38.000Z</time>
      </trkpt>
      <trkpt lat="45.70728" lon="4.4759">
        <ele>437.42156982422</ele>
        <time>2016-05-15T10:55:40.000Z</time>
      </trkpt>
      <trkpt lat="45.70725" lon="4.47594">
        <ele>437.37289428711</ele>
        <time>2016-05-15T10:55:42.000Z</time>
      </trkpt>
      <trkpt lat="45.70721" lon="4.47603">
        <ele>437.28726196289</ele>
        <time>2016-05-15T10:55:46.000Z</time>
      </trkpt>
      <trkpt lat="45.70716" lon="4.47611">
        <ele>438.57217407227</ele>
        <time>2016-05-15T10:55:48.000Z</time>
      </trkpt>
      <trkpt lat="45.70709" lon="4.47621">
        <ele>440.15319824219</ele>
        <time>2016-05-15T10:55:51.000Z</time>
      </trkpt>
      <trkpt lat="45.70705" lon="4.47627">
        <ele>441.58724975586</ele>
        <time>2016-05-15T10:55:53.000Z</time>
      </trkpt>
      <trkpt lat="45.70699" lon="4.47636">
        <ele>442.8596496582</ele>
        <time>2016-05-15T10:55:56.000Z</time>
      </trkpt>
      <trkpt lat="45.70696" lon="4.47642">
        <ele>443.44833374023</ele>
        <time>2016-05-15T10:55:58.000Z</time>
      </trkpt>
      <trkpt lat="45.70691" lon="4.4765">
        <ele>444.7746887207</ele>
        <time>2016-05-15T10:56:01.000Z</time>
      </trkpt>
      <trkpt lat="45.70687" lon="4.47656">
        <ele>445.50646972656</ele>
        <time>2016-05-15T10:56:03.000Z</time>
      </trkpt>
      <trkpt lat="45.70684" lon="4.47662">
        <ele>445.83459472656</ele>
        <time>2016-05-15T10:56:05.000Z</time>
      </trkpt>
      <trkpt lat="45.7068" lon="4.47668">
        <ele>446.09918212891</ele>
        <time>2016-05-15T10:56:07.000Z</time>
      </trkpt>
      <trkpt lat="45.70677" lon="4.47674">
        <ele>446.6321105957</ele>
        <time>2016-05-15T10:56:09.000Z</time>
      </trkpt>
      <trkpt lat="45.70673" lon="4.47679">
        <ele>447.00186157227</ele>
        <time>2016-05-15T10:56:12.000Z</time>
      </trkpt>
      <trkpt lat="45.70667" lon="4.47689">
        <ele>446.90386962891</ele>
        <time>2016-05-15T10:56:15.000Z</time>
      </trkpt>
      <trkpt lat="45.70661" lon="4.47698">
        <ele>445.99615478516</ele>
        <time>2016-05-15T10:56:18.000Z</time>
      </trkpt>
      <trkpt lat="45.70657" lon="4.47704">
        <ele>445.92602539062</ele>
        <time>2016-05-15T10:56:20.000Z</time>
      </trkpt>
      <trkpt lat="45.70651" lon="4.47714">
        <ele>447.21343994141</ele>
        <time>2016-05-15T10:56:23.000Z</time>
      </trkpt>
      <trkpt lat="45.70648" lon="4.47721">
        <ele>448.22149658203</ele>
        <time>2016-05-15T10:56:25.000Z</time>
      </trkpt>
      <trkpt lat="45.70645" lon="4.47727">
        <ele>449.01821899414</ele>
        <time>2016-05-15T10:56:27.000Z</time>
      </trkpt>
      <trkpt lat="45.70641" lon="4.47737">
        <ele>448.50573730469</ele>
        <time>2016-05-15T10:56:30.000Z</time>
      </trkpt>
      <trkpt lat="45.70638" lon="4.47745">
        <ele>448.03265380859</ele>
        <time>2016-05-15T10:56:32.000Z</time>
      </trkpt>
      <trkpt lat="45.70634" lon="4.47756">
        <ele>447.99069213867</ele>
        <time>2016-05-15T10:56:35.000Z</time>
      </trkpt>
      <trkpt lat="45.7063" lon="4.47766">
        <ele>447.91046142578</ele>
        <time>2016-05-15T10:56:38.000Z</time>
      </trkpt>
      <trkpt lat="45.70627" lon="4.47772">
        <ele>448.01834106445</ele>
        <time>2016-05-15T10:56:40.000Z</time>
      </trkpt>
      <trkpt lat="45.70623" lon="4.47779">
        <ele>448.77188110352</ele>
        <time>2016-05-15T10:56:42.000Z</time>
      </trkpt>
      <trkpt lat="45.70618" lon="4.47789">
        <ele>449.55609130859</ele>
        <time>2016-05-15T10:56:45.000Z</time>
      </trkpt>
      <trkpt lat="45.70611" lon="4.47798">
        <ele>449.61993408203</ele>
        <time>2016-05-15T10:56:48.000Z</time>
      </trkpt>
      <trkpt lat="45.70604" lon="4.47805">
        <ele>449.2685546875</ele>
        <time>2016-05-15T10:56:51.000Z</time>
      </trkpt>
      <trkpt lat="45.70599" lon="4.47809">
        <ele>449.06976318359</ele>
        <time>2016-05-15T10:56:53.000Z</time>
      </trkpt>
      <trkpt lat="45.70592" lon="4.47816">
        <ele>450.49273681641</ele>
        <time>2016-05-15T10:56:56.000Z</time>
      </trkpt>
      <trkpt lat="45.70588" lon="4.47821">
        <ele>451.89657592773</ele>
        <time>2016-05-15T10:56:58.000Z</time>
      </trkpt>
      <trkpt lat="45.70581" lon="4.47827">
        <ele>451.5553894043</ele>
        <time>2016-05-15T10:57:01.000Z</time>
      </trkpt>
      <trkpt lat="45.70572" lon="4.47834">
        <ele>449.37930297852</ele>
        <time>2016-05-15T10:57:04.000Z</time>
      </trkpt>
      <trkpt lat="45.70566" lon="4.47838">
        <ele>448.8313293457</ele>
        <time>2016-05-15T10:57:06.000Z</time>
      </trkpt>
      <trkpt lat="45.70559" lon="4.47844">
        <ele>449.11645507812</ele>
        <time>2016-05-15T10:57:09.000Z</time>
      </trkpt>
      <trkpt lat="45.70553" lon="4.47847">
        <ele>449.49606323242</ele>
        <time>2016-05-15T10:57:11.000Z</time>
      </trkpt>
      <trkpt lat="45.70547" lon="4.47851">
        <ele>449.73175048828</ele>
        <time>2016-05-15T10:57:14.000Z</time>
      </trkpt>
      <trkpt lat="45.7054" lon="4.47858">
        <ele>449.87377929688</ele>
        <time>2016-05-15T10:57:17.000Z</time>
      </trkpt>
      <trkpt lat="45.70533" lon="4.47865">
        <ele>449.01092529297</ele>
        <time>2016-05-15T10:57:20.000Z</time>
      </trkpt>
      <trkpt lat="45.70527" lon="4.47869">
        <ele>449.18859863281</ele>
        <time>2016-05-15T10:57:23.000Z</time>
      </trkpt>
      <trkpt lat="45.7052" lon="4.47874">
        <ele>450.22341918945</ele>
        <time>2016-05-15T10:57:25.000Z</time>
      </trkpt>
      <trkpt lat="45.70509" lon="4.47882">
        <ele>452.24154663086</ele>
        <time>2016-05-15T10:57:28.000Z</time>
      </trkpt>
      <trkpt lat="45.70502" lon="4.47889">
        <ele>454.98489379883</ele>
        <time>2016-05-15T10:57:31.000Z</time>
      </trkpt>
      <trkpt lat="45.70497" lon="4.47893">
        <ele>455.44232177734</ele>
        <time>2016-05-15T10:57:33.000Z</time>
      </trkpt>
      <trkpt lat="45.70491" lon="4.47898">
        <ele>456.35598754883</ele>
        <time>2016-05-15T10:57:36.000Z</time>
      </trkpt>
      <trkpt lat="45.70484" lon="4.47905">
        <ele>455.81381225586</ele>
        <time>2016-05-15T10:57:39.000Z</time>
      </trkpt>
      <trkpt lat="45.70477" lon="4.47911">
        <ele>457.0754699707</ele>
        <time>2016-05-15T10:57:42.000Z</time>
      </trkpt>
      <trkpt lat="45.70471" lon="4.47917">
        <ele>458.53503417969</ele>
        <time>2016-05-15T10:57:45.000Z</time>
      </trkpt>
      <trkpt lat="45.70467" lon="4.47921">
        <ele>459.31286621094</ele>
        <time>2016-05-15T10:57:47.000Z</time>
      </trkpt>
      <trkpt lat="45.70462" lon="4.47925">
        <ele>459.24127197266</ele>
        <time>2016-05-15T10:57:49.000Z</time>
      </trkpt>
      <trkpt lat="45.70456" lon="4.47931">
        <ele>459.91168212891</ele>
        <time>2016-05-15T10:57:52.000Z</time>
      </trkpt>
      <trkpt lat="45.7045" lon="4.47938">
        <ele>460.28579711914</ele>
        <time>2016-05-15T10:57:55.000Z</time>
      </trkpt>
      <trkpt lat="45.70443" lon="4.47945">
        <ele>460.85354614258</ele>
        <time>2016-05-15T10:57:58.000Z</time>
      </trkpt>
      <trkpt lat="45.7044" lon="4.4795">
        <ele>460.49850463867</ele>
        <time>2016-05-15T10:58:00.000Z</time>
      </trkpt>
      <trkpt lat="45.70434" lon="4.47958">
        <ele>459.40188598633</ele>
        <time>2016-05-15T10:58:03.000Z</time>
      </trkpt>
      <trkpt lat="45.7043" lon="4.47962">
        <ele>459.47106933594</ele>
        <time>2016-05-15T10:58:06.000Z</time>
      </trkpt>
      <trkpt lat="45.70427" lon="4.47965">
        <ele>459.85287475586</ele>
        <time>2016-05-15T10:58:08.000Z</time>
      </trkpt>
      <trkpt lat="45.70424" lon="4.47968">
        <ele>460.41491699219</ele>
        <time>2016-05-15T10:58:10.000Z</time>
      </trkpt>
      <trkpt lat="45.70421" lon="4.47971">
        <ele>461.00268554688</ele>
        <time>2016-05-15T10:58:12.000Z</time>
      </trkpt>
      <trkpt lat="45.70414" lon="4.47977">
        <ele>461.64904785156</ele>
        <time>2016-05-15T10:58:16.000Z</time>
      </trkpt>
      <trkpt lat="45.70412" lon="4.47985">
        <ele>461.81533813477</ele>
        <time>2016-05-15T10:58:19.000Z</time>
      </trkpt>
      <trkpt lat="45.70416" lon="4.47993">
        <ele>461.00750732422</ele>
        <time>2016-05-15T10:58:22.000Z</time>
      </trkpt>
      <trkpt lat="45.70421" lon="4.47997">
        <ele>460.3020324707</ele>
        <time>2016-05-15T10:58:26.000Z</time>
      </trkpt>
      <trkpt lat="45.70428" lon="4.48001">
        <ele>460.02966308594</ele>
        <time>2016-05-15T10:58:29.000Z</time>
      </trkpt>
      <trkpt lat="45.70437" lon="4.48003">
        <ele>460.92584228516</ele>
        <time>2016-05-15T10:58:32.000Z</time>
      </trkpt>
      <trkpt lat="45.70443" lon="4.48004">
        <ele>460.74557495117</ele>
        <time>2016-05-15T10:58:36.000Z</time>
      </trkpt>
      <trkpt lat="45.70449" lon="4.48006">
        <ele>460.36605834961</ele>
        <time>2016-05-15T10:58:40.000Z</time>
      </trkpt>
      <trkpt lat="45.70453" lon="4.48008">
        <ele>460.65759277344</ele>
        <time>2016-05-15T10:58:42.000Z</time>
      </trkpt>
      <trkpt lat="45.70462" lon="4.48016">
        <ele>460.20190429688</ele>
        <time>2016-05-15T10:58:45.000Z</time>
      </trkpt>
      <trkpt lat="45.7047" lon="4.48021">
        <ele>459.55621337891</ele>
        <time>2016-05-15T10:58:47.000Z</time>
      </trkpt>
      <trkpt lat="45.70479" lon="4.48025">
        <ele>459.04705810547</ele>
        <time>2016-05-15T10:58:50.000Z</time>
      </trkpt>
      <trkpt lat="45.70488" lon="4.4803">
        <ele>460.3147277832</ele>
        <time>2016-05-15T10:58:53.000Z</time>
      </trkpt>
      <trkpt lat="45.70495" lon="4.48035">
        <ele>460.8381652832</ele>
        <time>2016-05-15T10:58:56.000Z</time>
      </trkpt>
      <trkpt lat="45.705" lon="4.48038">
        <ele>461.42233276367</ele>
        <time>2016-05-15T10:58:58.000Z</time>
      </trkpt>
      <trkpt lat="45.70509" lon="4.48044">
        <ele>460.56622314453</ele>
        <time>2016-05-15T10:59:01.000Z</time>
      </trkpt>
      <trkpt lat="45.70514" lon="4.48046">
        <ele>459.44244384766</ele>
        <time>2016-05-15T10:59:03.000Z</time>
      </trkpt>
      <trkpt lat="45.7052" lon="4.48048">
        <ele>458.37554931641</ele>
        <time>2016-05-15T10:59:05.000Z</time>
      </trkpt>
      <trkpt lat="45.70527" lon="4.4805">
        <ele>457.99755859375</ele>
        <time>2016-05-15T10:59:07.000Z</time>
      </trkpt>
      <trkpt lat="45.70533" lon="4.48052">
        <ele>457.88186645508</ele>
        <time>2016-05-15T10:59:09.000Z</time>
      </trkpt>
      <trkpt lat="45.70542" lon="4.48055">
        <ele>458.62161254883</ele>
        <time>2016-05-15T10:59:12.000Z</time>
      </trkpt>
      <trkpt lat="45.70547" lon="4.48058">
        <ele>459.18463134766</ele>
        <time>2016-05-15T10:59:14.000Z</time>
      </trkpt>
      <trkpt lat="45.70553" lon="4.48063">
        <ele>460.79992675781</ele>
        <time>2016-05-15T10:59:16.000Z</time>
      </trkpt>
      <trkpt lat="45.7056" lon="4.4807">
        <ele>461.38354492188</ele>
        <time>2016-05-15T10:59:19.000Z</time>
      </trkpt>
      <trkpt lat="45.70563" lon="4.48072">
        <ele>461.00869750977</ele>
        <time>2016-05-15T10:59:21.000Z</time>
      </trkpt>
      <trkpt lat="45.70568" lon="4.48076">
        <ele>460.51968383789</ele>
        <time>2016-05-15T10:59:23.000Z</time>
      </trkpt>
      <trkpt lat="45.70572" lon="4.48079">
        <ele>460.35934448242</ele>
        <time>2016-05-15T10:59:25.000Z</time>
      </trkpt>
      <trkpt lat="45.70578" lon="4.48082">
        <ele>459.86422729492</ele>
        <time>2016-05-15T10:59:28.000Z</time>
      </trkpt>
      <trkpt lat="45.70586" lon="4.48085">
        <ele>459.45788574219</ele>
        <time>2016-05-15T10:59:31.000Z</time>
      </trkpt>
      <trkpt lat="45.70591" lon="4.48088">
        <ele>460.32952880859</ele>
        <time>2016-05-15T10:59:33.000Z</time>
      </trkpt>
      <trkpt lat="45.70594" lon="4.48089">
        <ele>460.47860717773</ele>
        <time>2016-05-15T10:59:35.000Z</time>
      </trkpt>
      <trkpt lat="45.70597" lon="4.4809">
        <ele>459.83773803711</ele>
        <time>2016-05-15T10:59:37.000Z</time>
      </trkpt>
      <trkpt lat="45.70604" lon="4.48093">
        <ele>459.93698120117</ele>
        <time>2016-05-15T10:59:41.000Z</time>
      </trkpt>
      <trkpt lat="45.70612" lon="4.48098">
        <ele>460.97116088867</ele>
        <time>2016-05-15T10:59:44.000Z</time>
      </trkpt>
      <trkpt lat="45.70618" lon="4.48104">
        <ele>459.8815612793</ele>
        <time>2016-05-15T10:59:47.000Z</time>
      </trkpt>
      <trkpt lat="45.7062" lon="4.48108">
        <ele>461.06494140625</ele>
        <time>2016-05-15T10:59:49.000Z</time>
      </trkpt>
      <trkpt lat="45.70622" lon="4.48117">
        <ele>461.85852050781</ele>
        <time>2016-05-15T10:59:53.000Z</time>
      </trkpt>
      <trkpt lat="45.70625" lon="4.48127">
        <ele>462.1012878418</ele>
        <time>2016-05-15T10:59:55.000Z</time>
      </trkpt>
      <trkpt lat="45.70632" lon="4.48138">
        <ele>462.17175292969</ele>
        <time>2016-05-15T10:59:57.000Z</time>
      </trkpt>
      <trkpt lat="45.70641" lon="4.48151">
        <ele>461.69995117188</ele>
        <time>2016-05-15T10:59:59.000Z</time>
      </trkpt>
      <trkpt lat="45.70649" lon="4.48172">
        <ele>460.66622924805</ele>
        <time>2016-05-15T11:00:02.000Z</time>
      </trkpt>
      <trkpt lat="45.70641" lon="4.48188">
        <ele>459.00827026367</ele>
        <time>2016-05-15T11:00:05.000Z</time>
      </trkpt>
      <trkpt lat="45.7063" lon="4.48203">
        <ele>458.7942199707</ele>
        <time>2016-05-15T11:00:08.000Z</time>
      </trkpt>
      <trkpt lat="45.70622" lon="4.4822">
        <ele>458.83547973633</ele>
        <time>2016-05-15T11:00:11.000Z</time>
      </trkpt>
      <trkpt lat="45.70617" lon="4.48231">
        <ele>458.22814941406</ele>
        <time>2016-05-15T11:00:13.000Z</time>
      </trkpt>
      <trkpt lat="45.70605" lon="4.48248">
        <ele>457.73077392578</ele>
        <time>2016-05-15T11:00:16.000Z</time>
      </trkpt>
      <trkpt lat="45.70599" lon="4.48258">
        <ele>457.02444458008</ele>
        <time>2016-05-15T11:00:18.000Z</time>
      </trkpt>
      <trkpt lat="45.70589" lon="4.48273">
        <ele>456.28677368164</ele>
        <time>2016-05-15T11:00:21.000Z</time>
      </trkpt>
      <trkpt lat="45.70586" lon="4.48287">
        <ele>455.97189331055</ele>
        <time>2016-05-15T11:00:23.000Z</time>
      </trkpt>
      <trkpt lat="45.7058" lon="4.48306">
        <ele>455.19100952148</ele>
        <time>2016-05-15T11:00:26.000Z</time>
      </trkpt>
      <trkpt lat="45.70577" lon="4.48322">
        <ele>454.16891479492</ele>
        <time>2016-05-15T11:00:29.000Z</time>
      </trkpt>
      <trkpt lat="45.70577" lon="4.4833">
        <ele>454.18661499023</ele>
        <time>2016-05-15T11:00:33.000Z</time>
      </trkpt>
      <trkpt lat="45.70578" lon="4.48338">
        <ele>454.38229370117</ele>
        <time>2016-05-15T11:00:35.000Z</time>
      </trkpt>
      <trkpt lat="45.7058" lon="4.48343">
        <ele>454.53298950195</ele>
        <time>2016-05-15T11:00:37.000Z</time>
      </trkpt>
      <trkpt lat="45.70583" lon="4.48352">
        <ele>453.87503051758</ele>
        <time>2016-05-15T11:00:41.000Z</time>
      </trkpt>
      <trkpt lat="45.70584" lon="4.48356">
        <ele>453.25778198242</ele>
        <time>2016-05-15T11:00:43.000Z</time>
      </trkpt>
      <trkpt lat="45.70586" lon="4.4836">
        <ele>453.31558227539</ele>
        <time>2016-05-15T11:00:45.000Z</time>
      </trkpt>
      <trkpt lat="45.70588" lon="4.48368">
        <ele>453.42333984375</ele>
        <time>2016-05-15T11:00:49.000Z</time>
      </trkpt>
      <trkpt lat="45.70589" lon="4.48371">
        <ele>454.61538696289</ele>
        <time>2016-05-15T11:00:51.000Z</time>
      </trkpt>
      <trkpt lat="45.70592" lon="4.4838">
        <ele>455.72509765625</ele>
        <time>2016-05-15T11:00:54.000Z</time>
      </trkpt>
      <trkpt lat="45.70594" lon="4.48384">
        <ele>455.65646362305</ele>
        <time>2016-05-15T11:00:56.000Z</time>
      </trkpt>
      <trkpt lat="45.70596" lon="4.48388">
        <ele>456.48489379883</ele>
        <time>2016-05-15T11:00:58.000Z</time>
      </trkpt>
      <trkpt lat="45.70599" lon="4.48396">
        <ele>457.65393066406</ele>
        <time>2016-05-15T11:01:02.000Z</time>
      </trkpt>
      <trkpt lat="45.70602" lon="4.48402">
        <ele>459.05355834961</ele>
        <time>2016-05-15T11:01:06.000Z</time>
      </trkpt>
      <trkpt lat="45.70604" lon="4.48406">
        <ele>460.32357788086</ele>
        <time>2016-05-15T11:01:08.000Z</time>
      </trkpt>
      <trkpt lat="45.70606" lon="4.48413">
        <ele>461.36477661133</ele>
        <time>2016-05-15T11:01:12.000Z</time>
      </trkpt>
      <trkpt lat="45.7061" lon="4.4842">
        <ele>461.63616943359</ele>
        <time>2016-05-15T11:01:16.000Z</time>
      </trkpt>
      <trkpt lat="45.70612" lon="4.48422">
        <ele>461.72509765625</ele>
        <time>2016-05-15T11:01:18.000Z</time>
      </trkpt>
      <trkpt lat="45.70613" lon="4.48425">
        <ele>462.32086181641</ele>
        <time>2016-05-15T11:01:20.000Z</time>
      </trkpt>
      <trkpt lat="45.70615" lon="4.48428">
        <ele>463.01788330078</ele>
        <time>2016-05-15T11:01:22.000Z</time>
      </trkpt>
      <trkpt lat="45.70616" lon="4.48436">
        <ele>463.6962890625</ele>
        <time>2016-05-15T11:01:26.000Z</time>
      </trkpt>
      <trkpt lat="45.70616" lon="4.48439">
        <ele>463.98324584961</ele>
        <time>2016-05-15T11:01:28.000Z</time>
      </trkpt>
      <trkpt lat="45.70618" lon="4.48447">
        <ele>464.78652954102</ele>
        <time>2016-05-15T11:01:32.000Z</time>
      </trkpt>
      <trkpt lat="45.70619" lon="4.48455">
        <ele>465.97338867188</ele>
        <time>2016-05-15T11:01:36.000Z</time>
      </trkpt>
      <trkpt lat="45.7062" lon="4.48458">
        <ele>467.00479125977</ele>
        <time>2016-05-15T11:01:39.000Z</time>
      </trkpt>
      <trkpt lat="45.70621" lon="4.48464">
        <ele>468.17462158203</ele>
        <time>2016-05-15T11:01:43.000Z</time>
      </trkpt>
      <trkpt lat="45.70623" lon="4.48469">
        <ele>468.41619873047</ele>
        <time>2016-05-15T11:01:46.000Z</time>
      </trkpt>
      <trkpt lat="45.70626" lon="4.48477">
        <ele>468.7805480957</ele>
        <time>2016-05-15T11:01:50.000Z</time>
      </trkpt>
      <trkpt lat="45.70627" lon="4.48481">
        <ele>469.25964355469</ele>
        <time>2016-05-15T11:01:52.000Z</time>
      </trkpt>
      <trkpt lat="45.70628" lon="4.48485">
        <ele>469.57733154297</ele>
        <time>2016-05-15T11:01:54.000Z</time>
      </trkpt>
      <trkpt lat="45.70628" lon="4.48489">
        <ele>469.96286010742</ele>
        <time>2016-05-15T11:01:56.000Z</time>
      </trkpt>
      <trkpt lat="45.70628" lon="4.48496">
        <ele>470.31484985352</ele>
        <time>2016-05-15T11:02:00.000Z</time>
      </trkpt>
      <trkpt lat="45.70629" lon="4.485">
        <ele>470.85363769531</ele>
        <time>2016-05-15T11:02:02.000Z</time>
      </trkpt>
      <trkpt lat="45.7063" lon="4.48503">
        <ele>471.17782592773</ele>
        <time>2016-05-15T11:02:04.000Z</time>
      </trkpt>
      <trkpt lat="45.70632" lon="4.4851">
        <ele>471.3415222168</ele>
        <time>2016-05-15T11:02:08.000Z</time>
      </trkpt>
      <trkpt lat="45.70634" lon="4.48513">
        <ele>471.07965087891</ele>
        <time>2016-05-15T11:02:11.000Z</time>
      </trkpt>
      <trkpt lat="45.70636" lon="4.48519">
        <ele>470.71322631836</ele>
        <time>2016-05-15T11:02:15.000Z</time>
      </trkpt>
      <trkpt lat="45.70639" lon="4.48525">
        <ele>470.44989013672</ele>
        <time>2016-05-15T11:02:19.000Z</time>
      </trkpt>
      <trkpt lat="45.70641" lon="4.48528">
        <ele>470.57235717773</ele>
        <time>2016-05-15T11:02:22.000Z</time>
      </trkpt>
      <trkpt lat="45.70642" lon="4.48531">
        <ele>471.15170288086</ele>
        <time>2016-05-15T11:02:25.000Z</time>
      </trkpt>
      <trkpt lat="45.70644" lon="4.48534">
        <ele>471.72994995117</ele>
        <time>2016-05-15T11:02:28.000Z</time>
      </trkpt>
      <trkpt lat="45.70645" lon="4.48536">
        <ele>471.8981628418</ele>
        <time>2016-05-15T11:02:30.000Z</time>
      </trkpt>
      <trkpt lat="45.70646" lon="4.48544">
        <ele>471.30960083008</ele>
        <time>2016-05-15T11:02:34.000Z</time>
      </trkpt>
      <trkpt lat="45.70648" lon="4.48552">
        <ele>470.64593505859</ele>
        <time>2016-05-15T11:02:38.000Z</time>
      </trkpt>
      <trkpt lat="45.7065" lon="4.4856">
        <ele>472.17803955078</ele>
        <time>2016-05-15T11:02:43.000Z</time>
      </trkpt>
      <trkpt lat="45.70652" lon="4.48567">
        <ele>472.52532958984</ele>
        <time>2016-05-15T11:02:47.000Z</time>
      </trkpt>
      <trkpt lat="45.70653" lon="4.48571">
        <ele>471.93804931641</ele>
        <time>2016-05-15T11:02:49.000Z</time>
      </trkpt>
      <trkpt lat="45.70655" lon="4.48579">
        <ele>471.0559387207</ele>
        <time>2016-05-15T11:02:54.000Z</time>
      </trkpt>
      <trkpt lat="45.70655" lon="4.48583">
        <ele>470.66766357422</ele>
        <time>2016-05-15T11:02:57.000Z</time>
      </trkpt>
      <trkpt lat="45.70655" lon="4.48587">
        <ele>470.50604248047</ele>
        <time>2016-05-15T11:03:00.000Z</time>
      </trkpt>
      <trkpt lat="45.70655" lon="4.48591">
        <ele>471.74554443359</ele>
        <time>2016-05-15T11:03:04.000Z</time>
      </trkpt>
      <trkpt lat="45.70655" lon="4.48596">
        <ele>473.32604980469</ele>
        <time>2016-05-15T11:03:07.000Z</time>
      </trkpt>
      <trkpt lat="45.70655" lon="4.48601">
        <ele>475.63262939453</ele>
        <time>2016-05-15T11:03:10.000Z</time>
      </trkpt>
      <trkpt lat="45.70657" lon="4.48608">
        <ele>478.61944580078</ele>
        <time>2016-05-15T11:03:14.000Z</time>
      </trkpt>
      <trkpt lat="45.70657" lon="4.48611">
        <ele>479.82275390625</ele>
        <time>2016-05-15T11:03:16.000Z</time>
      </trkpt>
      <trkpt lat="45.70658" lon="4.48615">
        <ele>480.84838867188</ele>
        <time>2016-05-15T11:03:18.000Z</time>
      </trkpt>
      <trkpt lat="45.70661" lon="4.48623">
        <ele>482.01214599609</ele>
        <time>2016-05-15T11:03:22.000Z</time>
      </trkpt>
      <trkpt lat="45.70663" lon="4.48626">
        <ele>481.53326416016</ele>
        <time>2016-05-15T11:03:25.000Z</time>
      </trkpt>
      <trkpt lat="45.70667" lon="4.48634">
        <ele>481.25579833984</ele>
        <time>2016-05-15T11:03:29.000Z</time>
      </trkpt>
      <trkpt lat="45.7067" lon="4.48638">
        <ele>481.30197143555</ele>
        <time>2016-05-15T11:03:31.000Z</time>
      </trkpt>
      <trkpt lat="45.70672" lon="4.48643">
        <ele>481.69296264648</ele>
        <time>2016-05-15T11:03:33.000Z</time>
      </trkpt>
      <trkpt lat="45.70674" lon="4.48651">
        <ele>482.52816772461</ele>
        <time>2016-05-15T11:03:37.000Z</time>
      </trkpt>
      <trkpt lat="45.70676" lon="4.48659">
        <ele>484.1845703125</ele>
        <time>2016-05-15T11:03:41.000Z</time>
      </trkpt>
      <trkpt lat="45.70677" lon="4.48667">
        <ele>484.47491455078</ele>
        <time>2016-05-15T11:03:45.000Z</time>
      </trkpt>
      <trkpt lat="45.70676" lon="4.48674">
        <ele>485.34506225586</ele>
        <time>2016-05-15T11:03:49.000Z</time>
      </trkpt>
      <trkpt lat="45.70676" lon="4.48678">
        <ele>486.04196166992</ele>
        <time>2016-05-15T11:03:51.000Z</time>
      </trkpt>
      <trkpt lat="45.70676" lon="4.48682">
        <ele>486.57202148438</ele>
        <time>2016-05-15T11:03:53.000Z</time>
      </trkpt>
      <trkpt lat="45.70675" lon="4.48686">
        <ele>486.81106567383</ele>
        <time>2016-05-15T11:03:55.000Z</time>
      </trkpt>
      <trkpt lat="45.70675" lon="4.4869">
        <ele>487.58139038086</ele>
        <time>2016-05-15T11:03:57.000Z</time>
      </trkpt>
      <trkpt lat="45.70673" lon="4.48697">
        <ele>489.60705566406</ele>
        <time>2016-05-15T11:04:01.000Z</time>
      </trkpt>
      <trkpt lat="45.7067" lon="4.48705">
        <ele>491.12802124023</ele>
        <time>2016-05-15T11:04:05.000Z</time>
      </trkpt>
      <trkpt lat="45.70668" lon="4.48709">
        <ele>491.41415405273</ele>
        <time>2016-05-15T11:04:07.000Z</time>
      </trkpt>
      <trkpt lat="45.70667" lon="4.48712">
        <ele>491.60635375977</ele>
        <time>2016-05-15T11:04:09.000Z</time>
      </trkpt>
      <trkpt lat="45.70665" lon="4.48714">
        <ele>491.82739257812</ele>
        <time>2016-05-15T11:04:12.000Z</time>
      </trkpt>
      <trkpt lat="45.70662" lon="4.48718">
        <ele>492.59301757812</ele>
        <time>2016-05-15T11:04:15.000Z</time>
      </trkpt>
      <trkpt lat="45.70657" lon="4.48724">
        <ele>494.30773925781</ele>
        <time>2016-05-15T11:04:18.000Z</time>
      </trkpt>
      <trkpt lat="45.70654" lon="4.48727">
        <ele>495.00256347656</ele>
        <time>2016-05-15T11:04:20.000Z</time>
      </trkpt>
      <trkpt lat="45.70651" lon="4.48729">
        <ele>495.61441040039</ele>
        <time>2016-05-15T11:04:22.000Z</time>
      </trkpt>
      <trkpt lat="45.70647" lon="4.48732">
        <ele>496.32623291016</ele>
        <time>2016-05-15T11:04:24.000Z</time>
      </trkpt>
      <trkpt lat="45.70641" lon="4.48736">
        <ele>497.18572998047</ele>
        <time>2016-05-15T11:04:26.000Z</time>
      </trkpt>
      <trkpt lat="45.70634" lon="4.48744">
        <ele>495.62548828125</ele>
        <time>2016-05-15T11:04:29.000Z</time>
      </trkpt>
      <trkpt lat="45.7063" lon="4.48749">
        <ele>495.44787597656</ele>
        <time>2016-05-15T11:04:31.000Z</time>
      </trkpt>
      <trkpt lat="45.70624" lon="4.48758">
        <ele>495.71810913086</ele>
        <time>2016-05-15T11:04:34.000Z</time>
      </trkpt>
      <trkpt lat="45.70618" lon="4.48769">
        <ele>496.13687133789</ele>
        <time>2016-05-15T11:04:37.000Z</time>
      </trkpt>
      <trkpt lat="45.70616" lon="4.48777">
        <ele>495.09881591797</ele>
        <time>2016-05-15T11:04:39.000Z</time>
      </trkpt>
      <trkpt lat="45.70614" lon="4.48785">
        <ele>494.83682250977</ele>
        <time>2016-05-15T11:04:41.000Z</time>
      </trkpt>
      <trkpt lat="45.70611" lon="4.48796">
        <ele>493.27359008789</ele>
        <time>2016-05-15T11:04:44.000Z</time>
      </trkpt>
      <trkpt lat="45.70605" lon="4.48806">
        <ele>491.40911865234</ele>
        <time>2016-05-15T11:04:47.000Z</time>
      </trkpt>
      <trkpt lat="45.70601" lon="4.48813">
        <ele>490.46408081055</ele>
        <time>2016-05-15T11:04:49.000Z</time>
      </trkpt>
      <trkpt lat="45.70596" lon="4.48821">
        <ele>489.52877807617</ele>
        <time>2016-05-15T11:04:51.000Z</time>
      </trkpt>
      <trkpt lat="45.7059" lon="4.48834">
        <ele>488.14712524414</ele>
        <time>2016-05-15T11:04:54.000Z</time>
      </trkpt>
      <trkpt lat="45.70586" lon="4.48841">
        <ele>486.96551513672</ele>
        <time>2016-05-15T11:04:56.000Z</time>
      </trkpt>
      <trkpt lat="45.70583" lon="4.48847">
        <ele>485.79748535156</ele>
        <time>2016-05-15T11:04:58.000Z</time>
      </trkpt>
      <trkpt lat="45.70581" lon="4.4885">
        <ele>485.78179931641</ele>
        <time>2016-05-15T11:05:00.000Z</time>
      </trkpt>
      <trkpt lat="45.70575" lon="4.48857">
        <ele>486.41424560547</ele>
        <time>2016-05-15T11:05:04.000Z</time>
      </trkpt>
      <trkpt lat="45.7057" lon="4.48863">
        <ele>487.87878417969</ele>
        <time>2016-05-15T11:05:08.000Z</time>
      </trkpt>
      <trkpt lat="45.70565" lon="4.4887">
        <ele>487.70986938477</ele>
        <time>2016-05-15T11:05:12.000Z</time>
      </trkpt>
      <trkpt lat="45.70562" lon="4.48875">
        <ele>486.8532409668</ele>
        <time>2016-05-15T11:05:14.000Z</time>
      </trkpt>
      <trkpt lat="45.7056" lon="4.48886">
        <ele>485.8688659668</ele>
        <time>2016-05-15T11:05:18.000Z</time>
      </trkpt>
      <trkpt lat="45.70561" lon="4.48899">
        <ele>486.38131713867</ele>
        <time>2016-05-15T11:05:21.000Z</time>
      </trkpt>
      <trkpt lat="45.70567" lon="4.48909">
        <ele>486.32974243164</ele>
        <time>2016-05-15T11:05:24.000Z</time>
      </trkpt>
      <trkpt lat="45.70572" lon="4.48914">
        <ele>487.25186157227</ele>
        <time>2016-05-15T11:05:26.000Z</time>
      </trkpt>
      <trkpt lat="45.70576" lon="4.48918">
        <ele>487.82830810547</ele>
        <time>2016-05-15T11:05:28.000Z</time>
      </trkpt>
      <trkpt lat="45.70579" lon="4.4892">
        <ele>488.23654174805</ele>
        <time>2016-05-15T11:05:30.000Z</time>
      </trkpt>
      <trkpt lat="45.70585" lon="4.48924">
        <ele>487.89590454102</ele>
        <time>2016-05-15T11:05:33.000Z</time>
      </trkpt>
      <trkpt lat="45.70592" lon="4.48928">
        <ele>487.52072143555</ele>
        <time>2016-05-15T11:05:37.000Z</time>
      </trkpt>
      <trkpt lat="45.70596" lon="4.4893">
        <ele>486.97711181641</ele>
        <time>2016-05-15T11:05:39.000Z</time>
      </trkpt>
      <trkpt lat="45.70602" lon="4.48933">
        <ele>485.75039672852</ele>
        <time>2016-05-15T11:05:43.000Z</time>
      </trkpt>
      <trkpt lat="45.70609" lon="4.48935">
        <ele>486.7571105957</ele>
        <time>2016-05-15T11:05:47.000Z</time>
      </trkpt>
      <trkpt lat="45.70614" lon="4.48939">
        <ele>487.39077758789</ele>
        <time>2016-05-15T11:05:51.000Z</time>
      </trkpt>
      <trkpt lat="45.70618" lon="4.48947">
        <ele>486.32260131836</ele>
        <time>2016-05-15T11:05:55.000Z</time>
      </trkpt>
      <trkpt lat="45.70623" lon="4.48954">
        <ele>485.80648803711</ele>
        <time>2016-05-15T11:05:59.000Z</time>
      </trkpt>
      <trkpt lat="45.70628" lon="4.48959">
        <ele>486.76306152344</ele>
        <time>2016-05-15T11:06:03.000Z</time>
      </trkpt>
      <trkpt lat="45.70635" lon="4.48963">
        <ele>487.35720825195</ele>
        <time>2016-05-15T11:06:07.000Z</time>
      </trkpt>
      <trkpt lat="45.70638" lon="4.48965">
        <ele>487.93505859375</ele>
        <time>2016-05-15T11:06:09.000Z</time>
      </trkpt>
      <trkpt lat="45.70641" lon="4.48967">
        <ele>488.25671386719</ele>
        <time>2016-05-15T11:06:11.000Z</time>
      </trkpt>
      <trkpt lat="45.70643" lon="4.48968">
        <ele>488.63146972656</ele>
        <time>2016-05-15T11:06:13.000Z</time>
      </trkpt>
      <trkpt lat="45.70648" lon="4.4897">
        <ele>488.2350769043</ele>
        <time>2016-05-15T11:06:18.000Z</time>
      </trkpt>
      <trkpt lat="45.70654" lon="4.48971">
        <ele>487.59585571289</ele>
        <time>2016-05-15T11:06:22.000Z</time>
      </trkpt>
      <trkpt lat="45.70661" lon="4.48973">
        <ele>487.59564208984</ele>
        <time>2016-05-15T11:06:26.000Z</time>
      </trkpt>
      <trkpt lat="45.70665" lon="4.48974">
        <ele>488.29037475586</ele>
        <time>2016-05-15T11:06:28.000Z</time>
      </trkpt>
      <trkpt lat="45.70667" lon="4.48975">
        <ele>488.71578979492</ele>
        <time>2016-05-15T11:06:30.000Z</time>
      </trkpt>
      <trkpt lat="45.7067" lon="4.48977">
        <ele>489.13317871094</ele>
        <time>2016-05-15T11:06:33.000Z</time>
      </trkpt>
      <trkpt lat="45.70674" lon="4.48978">
        <ele>489.4397277832</ele>
        <time>2016-05-15T11:06:35.000Z</time>
      </trkpt>
      <trkpt lat="45.70679" lon="4.48981">
        <ele>489.89804077148</ele>
        <time>2016-05-15T11:06:39.000Z</time>
      </trkpt>
      <trkpt lat="45.70681" lon="4.48983">
        <ele>491.11773681641</ele>
        <time>2016-05-15T11:06:42.000Z</time>
      </trkpt>
      <trkpt lat="45.70684" lon="4.48985">
        <ele>491.76779174805</ele>
        <time>2016-05-15T11:06:45.000Z</time>
      </trkpt>
      <trkpt lat="45.70686" lon="4.48987">
        <ele>491.33367919922</ele>
        <time>2016-05-15T11:06:48.000Z</time>
      </trkpt>
      <trkpt lat="45.70691" lon="4.48994">
        <ele>490.54315185547</ele>
        <time>2016-05-15T11:06:52.000Z</time>
      </trkpt>
      <trkpt lat="45.70697" lon="4.48999">
        <ele>488.83941650391</ele>
        <time>2016-05-15T11:06:56.000Z</time>
      </trkpt>
      <trkpt lat="45.70699" lon="4.49001">
        <ele>489.10327148438</ele>
        <time>2016-05-15T11:06:58.000Z</time>
      </trkpt>
      <trkpt lat="45.70705" lon="4.49004">
        <ele>489.24154663086</ele>
        <time>2016-05-15T11:07:02.000Z</time>
      </trkpt>
      <trkpt lat="45.70711" lon="4.49009">
        <ele>490.24914550781</ele>
        <time>2016-05-15T11:07:06.000Z</time>
      </trkpt>
      <trkpt lat="45.70713" lon="4.4901">
        <ele>492.03012084961</ele>
        <time>2016-05-15T11:07:08.000Z</time>
      </trkpt>
      <trkpt lat="45.70717" lon="4.49013">
        <ele>493.48721313477</ele>
        <time>2016-05-15T11:07:10.000Z</time>
      </trkpt>
      <trkpt lat="45.70723" lon="4.49018">
        <ele>492.70971679688</ele>
        <time>2016-05-15T11:07:14.000Z</time>
      </trkpt>
      <trkpt lat="45.70729" lon="4.49024">
        <ele>492.32089233398</ele>
        <time>2016-05-15T11:07:18.000Z</time>
      </trkpt>
      <trkpt lat="45.70732" lon="4.49026">
        <ele>492.83129882812</ele>
        <time>2016-05-15T11:07:20.000Z</time>
      </trkpt>
      <trkpt lat="45.70738" lon="4.49031">
        <ele>493.50064086914</ele>
        <time>2016-05-15T11:07:24.000Z</time>
      </trkpt>
      <trkpt lat="45.70741" lon="4.49033">
        <ele>492.72927856445</ele>
        <time>2016-05-15T11:07:26.000Z</time>
      </trkpt>
      <trkpt lat="45.70747" lon="4.4904">
        <ele>493.32067871094</ele>
        <time>2016-05-15T11:07:30.000Z</time>
      </trkpt>
      <trkpt lat="45.7075" lon="4.49045">
        <ele>493.36065673828</ele>
        <time>2016-05-15T11:07:32.000Z</time>
      </trkpt>
      <trkpt lat="45.70756" lon="4.49052">
        <ele>491.96109008789</ele>
        <time>2016-05-15T11:07:36.000Z</time>
      </trkpt>
      <trkpt lat="45.7076" lon="4.49057">
        <ele>492.15060424805</ele>
        <time>2016-05-15T11:07:40.000Z</time>
      </trkpt>
      <trkpt lat="45.70762" lon="4.4906">
        <ele>492.50164794922</ele>
        <time>2016-05-15T11:07:42.000Z</time>
      </trkpt>
      <trkpt lat="45.70767" lon="4.49065">
        <ele>492.42489624023</ele>
        <time>2016-05-15T11:07:46.000Z</time>
      </trkpt>
      <trkpt lat="45.7077" lon="4.49067">
        <ele>491.96569824219</ele>
        <time>2016-05-15T11:07:48.000Z</time>
      </trkpt>
      <trkpt lat="45.70776" lon="4.49072">
        <ele>491.40567016602</ele>
        <time>2016-05-15T11:07:52.000Z</time>
      </trkpt>
      <trkpt lat="45.70779" lon="4.49075">
        <ele>490.88116455078</ele>
        <time>2016-05-15T11:07:54.000Z</time>
      </trkpt>
      <trkpt lat="45.70787" lon="4.49082">
        <ele>492.70407104492</ele>
        <time>2016-05-15T11:07:57.000Z</time>
      </trkpt>
      <trkpt lat="45.70794" lon="4.49086">
        <ele>493.93746948242</ele>
        <time>2016-05-15T11:08:00.000Z</time>
      </trkpt>
      <trkpt lat="45.70799" lon="4.49088">
        <ele>494.40841674805</ele>
        <time>2016-05-15T11:08:02.000Z</time>
      </trkpt>
      <trkpt lat="45.70805" lon="4.49093">
        <ele>494.31100463867</ele>
        <time>2016-05-15T11:08:05.000Z</time>
      </trkpt>
      <trkpt lat="45.70811" lon="4.49099">
        <ele>495.36804199219</ele>
        <time>2016-05-15T11:08:09.000Z</time>
      </trkpt>
      <trkpt lat="45.70816" lon="4.49105">
        <ele>496.36895751953</ele>
        <time>2016-05-15T11:08:11.000Z</time>
      </trkpt>
      <trkpt lat="45.70822" lon="4.49113">
        <ele>497.30474853516</ele>
        <time>2016-05-15T11:08:13.000Z</time>
      </trkpt>
      <trkpt lat="45.70832" lon="4.49125">
        <ele>496.94720458984</ele>
        <time>2016-05-15T11:08:16.000Z</time>
      </trkpt>
      <trkpt lat="45.70842" lon="4.4914">
        <ele>495.83212280273</ele>
        <time>2016-05-15T11:08:19.000Z</time>
      </trkpt>
      <trkpt lat="45.70858" lon="4.49161">
        <ele>494.45590209961</ele>
        <time>2016-05-15T11:08:22.000Z</time>
      </trkpt>
      <trkpt lat="45.70868" lon="4.49182">
        <ele>495.02551269531</ele>
        <time>2016-05-15T11:08:24.000Z</time>
      </trkpt>
      <trkpt lat="45.70875" lon="4.49203">
        <ele>495.12600708008</ele>
        <time>2016-05-15T11:08:26.000Z</time>
      </trkpt>
      <trkpt lat="45.70876" lon="4.49241">
        <ele>494.98641967773</ele>
        <time>2016-05-15T11:08:29.000Z</time>
      </trkpt>
      <trkpt lat="45.70869" lon="4.49282">
        <ele>493.29794311523</ele>
        <time>2016-05-15T11:08:32.000Z</time>
      </trkpt>
      <trkpt lat="45.70869" lon="4.49301">
        <ele>491.53778076172</ele>
        <time>2016-05-15T11:08:34.000Z</time>
      </trkpt>
      <trkpt lat="45.70873" lon="4.49315">
        <ele>489.48706054688</ele>
        <time>2016-05-15T11:08:37.000Z</time>
      </trkpt>
      <trkpt lat="45.70898" lon="4.49293">
        <ele>487.55084228516</ele>
        <time>2016-05-15T11:08:41.000Z</time>
      </trkpt>
      <trkpt lat="45.70908" lon="4.49278">
        <ele>485.94711303711</ele>
        <time>2016-05-15T11:08:43.000Z</time>
      </trkpt>
      <trkpt lat="45.70927" lon="4.49261">
        <ele>484.18569946289</ele>
        <time>2016-05-15T11:08:46.000Z</time>
      </trkpt>
      <trkpt lat="45.70937" lon="4.49255">
        <ele>483.68609619141</ele>
        <time>2016-05-15T11:08:48.000Z</time>
      </trkpt>
      <trkpt lat="45.70942" lon="4.49246">
        <ele>482.8337097168</ele>
        <time>2016-05-15T11:08:50.000Z</time>
      </trkpt>
      <trkpt lat="45.70946" lon="4.4923">
        <ele>481.85336303711</ele>
        <time>2016-05-15T11:08:53.000Z</time>
      </trkpt>
      <trkpt lat="45.70949" lon="4.49221">
        <ele>481.18435668945</ele>
        <time>2016-05-15T11:08:55.000Z</time>
      </trkpt>
      <trkpt lat="45.70958" lon="4.4921">
        <ele>479.42849731445</ele>
        <time>2016-05-15T11:08:58.000Z</time>
      </trkpt>
      <trkpt lat="45.7098" lon="4.49206">
        <ele>479.68670654297</ele>
        <time>2016-05-15T11:09:01.000Z</time>
      </trkpt>
      <trkpt lat="45.70999" lon="4.49192">
        <ele>478.67398071289</ele>
        <time>2016-05-15T11:09:04.000Z</time>
      </trkpt>
      <trkpt lat="45.71012" lon="4.4918">
        <ele>476.99697875977</ele>
        <time>2016-05-15T11:09:07.000Z</time>
      </trkpt>
    </trkseg>
  </trk>
</gpx>